</
# Wetter Temperatur Luftdruck Luftfeuchtigkeit Sichtweite Windgeschwindigkeit Windrichtung Zeit
1 Rain 6 1009 87 10000 11.32 250 14:22 01.02.2023
2 Rain 7 1010 79 10000 9.77 250 13:20 01.02.2023
3 Rain 7 1011 79 10000 8.75 260 12:47 01.02.2023
4 Clouds 7 1012 80 10000 8.75 270 11:56 01.02.2023
5 Clouds 5 1011 89 10000 8.75 270 08:43 01.02.2023
6 Clear 5 1014 84 10000 8.23 260 00:34 01.02.2023
7 Clouds 6 1015 84 10000 7.72 270 21:36 31.01.2023
8 Clouds 7 1014 88 10000 8.75 270 19:48 31.01.2023
9 Clouds 6 1014 90 10000 8.23 270 18:29 31.01.2023
10 Rain 6 1013 94 10000 6.69 260 15:36 31.01.2023
11 Mist 5 1014 95 5000 7.72 260 15:18 31.01.2023
12 Clouds 6 1014 89 10000 9.26 250 13:52 31.01.2023
13 Clouds 5 1016 90 10000 7.72 250 11:43 31.01.2023
14 Rain 6 1017 85 10000 7.72 250 10:26 31.01.2023
15 Clouds 5 1017 86 10000 6.69 250 09:50 31.01.2023
16 Clouds 4 1018 90 10000 6.69 250 08:59 31.01.2023
17 Clouds 4 1018 90 10000 6.69 250 08:34 31.01.2023
18 Clouds 4 1019 91 10000 5.66 270 05:29 31.01.2023
19 Clouds 4 1018 86 10000 7.72 270 23:40 30.01.2023
20 Clouds 5 1018 86 10000 6.17 280 22:50 30.01.2023
21 Clouds 5 1017 85 10000 7.72 280 21:48 30.01.2023
22 Clouds 6 1016 81 10000 7.2 280 20:45 30.01.2023
23 Clouds 6 1015 87 10000 6.17 280 19:30 30.01.2023
24 Rain 6 1012 83 10000 10.29 290 17:26 30.01.2023
25 Clouds 6 1009 85 10000 9.26 270 14:57 30.01.2023
26 Mist 5 1008 87 5000 12.35 290 13:56 30.01.2023
27 Rain 6 1009 80 10000 10.8 270 12:20 30.01.2023
28 Clouds 6 1009 84 10000 8.23 280 10:24 30.01.2023
29 Clouds 6 1009 85 10000 8.23 270 09:53 30.01.2023
30 Clouds 6 1008 85 10000 9.26 280 08:35 30.01.2023
31 Rain 5 1008 95 7000 9.26 250 06:23 30.01.2023
32 Clouds 3 1014 87 10000 8.23 230 00:55 30.01.2023
33 Clouds 3 1016 87 10000 8.23 240 23:32 29.01.2023
34 Clouds 2 1016 88 10000 6.69 250 22:36 29.01.2023
35 Clouds 2 1018 87 10000 6.69 230 20:54 29.01.2023
36 Clouds 2 1019 88 9000 4.63 230 20:22 29.01.2023
37 Snow 2 1019 86 6000 6.69 240 19:33 29.01.2023
38 Clouds 2 1021 87 10000 4.63 230 17:56 29.01.2023
39 Drizzle 2 1021 88 3900 5.66 250 16:48 29.01.2023
40 Clouds 2 1022 84 10000 6.69 250 16:20 29.01.2023
41 Clouds 3 1023 81 10000 5.66 250 14:20 29.01.2023
42 Clouds 3 1023 82 10000 5.14 250 13:18 29.01.2023
43 Clouds 3 1024 83 10000 6.17 250 12:37 29.01.2023
44 Clouds 2 1024 84 10000 4.63 250 12:19 29.01.2023
45 Clouds 2 1025 84 10000 4.63 260 11:37 29.01.2023
46 Clouds 1 1025 86 10000 4.63 240 10:47 29.01.2023
47 Clouds 1 1026 83 10000 4.63 250 08:32 29.01.2023
48 Clouds 1 1027 85 10000 5.14 250 04:44 29.01.2023
49 Clouds 0 1028 85 10000 2.57 270 23:51 28.01.2023
50 Clouds -1 1029 84 10000 2.06 260 20:59 28.01.2023
51 Clear -1 1029 83 10000 2.06 250 19:57 28.01.2023
52 Clear -1 1029 83 10000 1.54 240 19:24 28.01.2023
53 Clouds 0 1029 79 10000 1.54 270 17:44 28.01.2023
54 Clear 1 1028 75 10000 2.06 270 16:45 28.01.2023
55 Clear 2 1028 76 10000 2.57 240 16:19 28.01.2023
56 Clouds 2 1027 67 10000 2.57 230 15:36 28.01.2023
57 Clouds 2 1028 73 10000 2.57 220 13:50 28.01.2023
58 Clouds 1 1030 77 10000 4.12 290 12:28 28.01.2023
59 Clouds 1 1030 77 10000 2.57 310 10:35 28.01.2023
60 Clouds 1 1029 78 10000 1.54 330 09:35 28.01.2023
61 Clouds 1 1028 88 10000 1.54 20 02:28 28.01.2023
62 Clouds 1 1028 88 10000 2.57 90 00:28 28.01.2023
63 Clouds 1 1028 88 10000 1.54 90 23:34 27.01.2023
64 Clouds 2 1028 85 10000 2.57 40 19:48 27.01.2023
65 Clouds 3 1027 87 10000 4.12 50 17:58 27.01.2023
66 Clouds 3 1027 85 10000 4.12 50 17:21 27.01.2023
67 Clouds 3 1027 85 10000 3.09 40 16:55 27.01.2023
68 Clouds 3 1026 89 10000 5.14 30 15:27 27.01.2023
69 Clouds 3 1026 89 10000 5.14 50 14:27 27.01.2023
70 Clouds 4 1026 90 10000 4.12 40 13:33 27.01.2023
71 Clouds 3 1025 96 10000 5.14 40 09:37 27.01.2023
72 Clouds 3 1025 96 10000 4.63 40 08:34 27.01.2023
73 Mist 2 1022 96 3800 1.54 320 00:28 27.01.2023
74 Mist 2 1022 97 5000 2.57 360 22:20 26.01.2023
75 Fog 1 1022 97 700 1.54 330 20:56 26.01.2023
76 Fog 1 1022 97 600 1.54 300 19:59 26.01.2023
77 Fog 1 1021 96 600 1.03 0 17:57 26.01.2023
78 Mist 1 1021 96 2000 2.57 280 16:50 26.01.2023
79 Mist 1 1021 96 2200 2.06 280 16:20 26.01.2023
80 Mist 0 1021 96 2600 3.6 290 15:42 26.01.2023
81 Drizzle 0 1021 96 3900 2.57 270 15:24 26.01.2023
82 Mist 1 1022 94 3400 2.57 280 13:53 26.01.2023
83 Mist 0 1022 94 3800 2.57 280 12:31 26.01.2023
84 Drizzle 0 1023 95 1500 2.06 270 10:56 26.01.2023
85 Drizzle 0 1023 95 1500 2.06 270 10:56 26.01.2023
86 Mist 0 1023 94 2400 2.57 270 10:25 26.01.2023
87 Mist -1 1023 94 2800 2.57 270 09:40 26.01.2023
88 Mist -1 1022 95 1700 2.06 250 06:57 26.01.2023
89 Mist -2 1025 95 5000 3.09 260 23:42 25.01.2023
90 Clouds -1 1025 92 6000 3.09 280 22:56 25.01.2023
91 Clouds -1 1026 95 6000 3.6 290 21:43 25.01.2023
92 Clouds -1 1026 93 7000 3.09 240 21:20 25.01.2023
93 Mist 0 1027 95 4700 2.06 270 18:31 25.01.2023
94 Clouds 0 1028 95 7000 2.06 260 16:58 25.01.2023
95 Clouds 0 1029 93 9000 2.57 260 15:37 25.01.2023
96 Mist 1 1031 93 5000 2.57 260 12:44 25.01.2023
97 Clouds 0 1034 94 7000 1.54 260 09:55 25.01.2023
98 Clouds 0 1034 93 8000 1.54 240 09:30 25.01.2023
99 Clouds 0 1034 92 10000 2.06 150 06:53 25.01.2023
100 Clouds 0 1037 88 10000 1.54 100 01:24 25.01.2023
101 Clouds 1 1038 83 10000 2.57 150 22:49 24.01.2023
102 Clouds 1 1038 83 10000 2.06 140 21:30 24.01.2023
103 Clouds 1 1038 86 10000 2.57 120 19:53 24.01.2023
104 Clouds 1 1038 82 10000 2.06 110 18:31 24.01.2023
105 Clouds 1 1038 82 10000 2.06 110 18:31 24.01.2023
106 Clouds 1 1039 85 10000 3.09 100 17:19 24.01.2023
107 Clouds 1 1039 85 10000 2.57 90 16:52 24.01.2023
108 Clouds 2 1039 85 10000 3.09 90 14:50 24.01.2023
109 Clouds 2 1039 86 10000 3.6 80 12:47 24.01.2023
110 Clouds 2 1040 88 10000 3.6 80 11:20 24.01.2023
111 Clouds 1 1039 89 10000 3.09 90 08:21 24.01.2023
112 Clouds 1 1039 90 10000 3.6 80 07:51 24.01.2023
113 Clouds 1 1038 90 10000 3.09 90 05:22 24.01.2023
114 Clouds 1 1039 99 7000 3.09 60 00:49 24.01.2023
115 Clouds 2 1039 93 7000 3.09 80 23:48 23.01.2023
116 Clouds 2 1038 96 7000 3.09 70 22:20 23.01.2023
117 Clouds 2 1038 95 8000 3.6 80 19:46 23.01.2023
118 Clouds 2 1038 95 8000 2.57 80 18:00 23.01.2023
119 Clouds 2 1038 94 9000 3.09 70 15:38 23.01.2023
120 Clouds 2 1037 95 10000 2.57 80 14:34 23.01.2023
121 Clouds 2 1037 95 10000 3.09 80 13:44 23.01.2023
122 Clouds 2 1037 96 7000 3.09 90 12:54 23.01.2023
123 Clouds 2 1037 96 7000 3.09 90 11:44 23.01.2023
124 Clouds 2 1036 96 10000 2.57 90 08:49 23.01.2023
125 Clouds 2 1035 97 9000 3.09 80 06:29 23.01.2023
126 Mist 2 1034 96 5000 1.54 20 23:28 22.01.2023
127 Mist 2 1033 96 4700 2.06 40 21:48 22.01.2023
128 Mist 2 1032 95 5000 2.06 60 20:53 22.01.2023
129 Drizzle 2 1032 95 3100 2.06 80 19:53 22.01.2023
130 Rain 1 1032 96 9000 2.06 70 19:20 22.01.2023
131 Rain 2 1032 96 10000 2.57 50 18:18 22.01.2023
132 Drizzle 2 1032 96 10000 2.06 50 17:44 22.01.2023
133 Drizzle 2 1032 95 10000 1.54 60 16:55 22.01.2023
134 Clouds 2 1030 93 10000 2.06 40 14:55 22.01.2023
135 Rain 2 1030 95 10000 3.6 50 13:49 22.01.2023
136 Drizzle 2 1030 96 10000 3.09 50 12:53 22.01.2023
137 Snow 1 1030 95 6000 2.06 20 11:39 22.01.2023
138 Snow 1 1030 96 2400 1.54 10 09:36 22.01.2023
139 Snow 0 1030 96 3600 2.57 20 08:44 22.01.2023
140 Snow 0 1029 98 4600 4.63 360 02:54 22.01.2023
141 Snow 1 1029 87 10000 4.63 350 23:42 21.01.2023
142 Snow 1 1030 85 10000 4.63 360 22:47 21.01.2023
143 Clouds 2 1030 88 10000 4.12 360 20:43 21.01.2023
144 Clouds 1 1030 89 10000 4.63 340 18:48 21.01.2023
145 Clouds 2 1030 85 10000 4.12 350 15:19 21.01.2023
146 Clouds 2 1030 88 10000 3.6 340 13:30 21.01.2023
147 Clouds 1 1030 89 10000 3.09 330 12:42 21.01.2023
148 Clouds 1 1030 91 8000 1.54 360 11:27 21.01.2023
149 Clouds 1 1030 91 8000 1.54 360 11:27 21.01.2023
150 Clouds 0 1030 91 9000 2.06 40 10:46 21.01.2023
151 Clouds 0 1030 91 9000 2.06 40 10:46 21.01.2023
152 Clouds -1 1027 91 7000 1.03 0 04:51 21.01.2023
153 Clear -1 1023 91 7000 1.54 80 22:50 20.01.2023
154 Clear -1 1023 89 8000 2.06 70 22:26 20.01.2023
155 Clear -1 1022 88 10000 1.54 80 21:35 20.01.2023
156 Clouds 0 1022 86 10000 1.03 360 20:39 20.01.2023
157 Clouds 2 1019 83 10000 0.51 0 17:59 20.01.2023
158 Clouds 3 1016 74 10000 2.06 220 15:26 20.01.2023
159 Clouds 3 1016 80 10000 1.03 0 14:32 20.01.2023
160 Clouds 2 1015 90 10000 1.54 210 11:18 20.01.2023
161 Clouds -1 1013 91 10000 0.51 0 08:59 20.01.2023
162 Clouds -1 1012 92 9000 1.54 180 06:40 20.01.2023
163 Clouds 0 1010 93 9000 1.54 180 02:32 20.01.2023
164 Clouds 1 1008 92 9000 1.54 230 22:37 19.01.2023
165 Clouds 1 1007 92 10000 2.57 230 21:39 19.01.2023
166 Clear 1 1006 91 10000 4.63 250 19:38 19.01.2023
167 Clear 1 1005 91 10000 3.6 240 18:55 19.01.2023
168 Snow 2 1002 94 10000 4.63 240 14:26 19.01.2023
169 Clouds 2 1001 83 10000 4.12 200 10:26 19.01.2023
170 Clouds 2 1000 83 10000 5.14 200 08:57 19.01.2023
171 Clear 0 999 81 10000 4.12 200 22:41 18.01.2023
172 Clear 0 999 83 10000 3.6 180 20:21 18.01.2023
173 Clear 0 998 83 10000 2.57 170 19:46 18.01.2023
174 Clear 0 998 84 10000 2.06 150 19:28 18.01.2023
175 Clear 1 997 82 10000 2.06 210 16:46 18.01.2023
176 Clear 3 995 74 10000 3.09 250 14:20 18.01.2023
177 Clear 1 995 83 10000 2.06 260 12:25 18.01.2023
178 Clouds -1 994 91 10000 1.6 247 10:28 18.01.2023
179 Clear -2 991 88 10000 1.03 0 06:46 18.01.2023
180 Clear -1 990 89 10000 1.54 150 01:24 18.01.2023
181 Clear -1 989 87 10000 2.57 190 21:53 17.01.2023
182 Clear 0 988 85 10000 1.54 220 19:43 17.01.2023
183 Clear 1 988 85 10000 2.57 200 18:53 17.01.2023
184 Clear 1 988 84 10000 2.57 200 17:41 17.01.2023
185 Clouds 4 987 76 10000 5.14 250 15:27 17.01.2023
186 Clouds 4 986 76 10000 6.17 240 14:45 17.01.2023
187 Clear 4 985 79 10000 0.89 225 13:33 17.01.2023
188 Clear 4 986 81 10000 7.2 250 11:47 17.01.2023
189 Clouds 3 985 88 10000 6.17 250 10:33 17.01.2023
190 Clouds 2 983 93 10000 7.2 250 08:55 17.01.2023
191 Rain 2 982 94 10000 5.66 260 07:33 17.01.2023
192 Rain 4 978 86 10000 6.17 260 03:47 17.01.2023
193 Rain 4 977 90 10000 3.09 200 00:48 17.01.2023
194 Drizzle 5 976 81 10000 4.12 170 22:38 16.01.2023
195 Rain 5 977 76 10000 5.14 140 21:43 16.01.2023
196 Clouds 5 979 78 10000 5.14 140 19:55 16.01.2023
197 Clouds 5 980 72 10000 5.66 140 19:18 16.01.2023
198 Clouds 5 979 74 10000 6.17 140 18:48 16.01.2023
199 Clouds 5 980 75 10000 6.17 140 18:18 16.01.2023
200 Clouds 5 981 75 10000 6.69 150 17:20 16.01.2023
201 Clear 7 983 75 10000 7.2 150 14:19 16.01.2023
202 Clear 6 984 78 10000 7.2 150 13:36 16.01.2023
203 Clouds 5 989 87 10000 4.63 150 10:25 16.01.2023
204 Clouds 4 991 89 10000 4.63 170 08:23 16.01.2023
205 Drizzle 7 998 70 10000 7.72 240 22:44 15.01.2023
206 Rain 7 998 67 10000 9.77 240 21:23 15.01.2023
207 Clouds 7 998 66 10000 8.23 240 20:28 15.01.2023
208 Clouds 7 998 76 10000 10.29 240 19:31 15.01.2023
209 Clouds 7 997 65 10000 10.8 240 17:25 15.01.2023
210 Clouds 8 997 71 10000 10.29 240 13:55 15.01.2023
211 Clouds 7 997 77 10000 11.32 240 12:23 15.01.2023
212 Clouds 7 997 77 10000 8.23 230 11:28 15.01.2023
213 Clouds 6 997 82 10000 7.2 240 10:24 15.01.2023
214 Clouds 6 996 81 10000 7.2 240 07:56 15.01.2023
215 Clouds 11 995 91 10000 8.75 240 23:39 14.01.2023
216 Clouds 10 995 92 10000 5.66 230 22:43 14.01.2023
217 Clouds 9 995 93 10000 5.66 200 21:36 14.01.2023
218 Clouds 9 995 92 10000 5.66 200 21:18 14.01.2023
219 Drizzle 9 995 92 10000 7.2 200 20:42 14.01.2023
220 Clouds 9 996 93 10000 7.2 200 20:22 14.01.2023
221 Rain 8 998 92 10000 7.2 190 17:51 14.01.2023
222 Rain 7 1000 90 10000 7.2 180 15:38 14.01.2023
223 Rain 7 1001 92 10000 6.69 180 15:19 14.01.2023
224 Rain 7 1003 91 10000 5.66 170 14:19 14.01.2023
225 Rain 7 1006 85 10000 5.14 180 12:49 14.01.2023
226 Rain 7 1009 82 10000 4.12 180 10:49 14.01.2023
227 Clouds 7 1012 84 10000 3.6 220 08:22 14.01.2023
228 Clouds 7 1011 82 10000 5.66 250 02:35 14.01.2023
229 Clouds 7 1009 87 10000 5.14 260 22:59 13.01.2023
230 Clouds 7 1009 87 10000 5.14 260 22:41 13.01.2023
231 Rain 8 1008 83 10000 8.75 250 21:57 13.01.2023
232 Clouds 8 1007 79 10000 7.2 240 20:33 13.01.2023
233 Clouds 8 1007 83 10000 8.75 240 19:27 13.01.2023
234 Clouds 8 1005 77 10000 8.23 240 16:58 13.01.2023
235 Clouds 8 1003 81 8000 7.2 270 14:53 13.01.2023
236 Clouds 9 1003 75 10000 9.26 240 12:24 13.01.2023
237 Clouds 9 1003 75 10000 9.26 240 12:24 13.01.2023
238 Clouds 9 1003 76 10000 7.2 230 10:41 13.01.2023
239 Clouds 9 1003 79 10000 6.69 240 10:22 13.01.2023
240 Clouds 9 1002 80 10000 6.69 240 09:41 13.01.2023
241 Clouds 9 1002 74 10000 6.69 230 08:51 13.01.2023
242 Clouds 8 1002 83 10000 6.17 240 06:56 13.01.2023
243 Clouds 9 1001 77 10000 6.69 240 06:18 13.01.2023
244 Rain 10 1002 90 10000 7.2 230 01:42 13.01.2023
245 Rain 10 1003 94 7000 8.23 240 22:48 12.01.2023
246 Rain 10 1003 94 10000 7.72 220 21:49 12.01.2023
247 Rain 10 1003 95 10000 6.69 230 20:48 12.01.2023
248 Rain 11 1003 90 10000 7.2 230 18:26 12.01.2023
249 Clouds 10 1004 92 10000 7.2 240 16:59 12.01.2023
250 Clouds 11 1003 89 10000 8.23 240 14:55 12.01.2023
251 Clouds 11 1003 89 10000 7.72 240 14:26 12.01.2023
252 Clouds 11 1003 89 10000 7.72 230 13:49 12.01.2023
253 Drizzle 9 1004 90 10000 8.75 220 11:57 12.01.2023
254 Clouds 8 1003 88 10000 9.77 220 10:24 12.01.2023
255 Rain 8 1006 91 10000 5.66 210 07:26 12.01.2023
256 Rain 8 1009 81 10000 8.23 230 00:31 12.01.2023
257 Rain 8 1009 80 10000 7.2 220 23:55 11.01.2023
258 Clouds 8 1009 81 10000 7.2 220 23:36 11.01.2023
259 Clouds 8 1009 81 10000 6.17 220 23:18 11.01.2023
260 Clear 8 1011 84 10000 5.14 220 21:22 11.01.2023
261 Clouds 8 1010 87 10000 3.6 220 18:51 11.01.2023
262 Clouds 9 1009 84 10000 4.12 250 17:31 11.01.2023
263 Clouds 10 1009 93 10000 6.69 270 15:43 11.01.2023
264 Clouds 9 1008 97 10000 2.57 220 13:57 11.01.2023
265 Rain 9 1008 94 10000 3.6 220 12:33 11.01.2023
266 Rain 9 1007 94 10000 4.63 200 11:24 11.01.2023
267 Drizzle 8 1007 93 10000 4.63 200 08:50 11.01.2023
268 Rain 8 1007 90 10000 5.14 200 07:29 11.01.2023
269 Clouds 8 1006 84 10000 6.17 190 06:23 11.01.2023
270 Clouds 6 1010 87 10000 6.69 190 23:44 10.01.2023
271 Rain 6 1011 84 10000 5.66 170 22:18 10.01.2023
272 Rain 6 1013 81 10000 6.69 190 21:18 10.01.2023
273 Rain 7 1014 80 10000 5.66 190 19:53 10.01.2023
274 Rain 6 1015 82 10000 5.14 170 18:50 10.01.2023
275 Clear 7 1015 81 10000 4.12 180 18:27 10.01.2023
276 Clouds 7 1016 82 10000 3.6 200 17:20 10.01.2023
277 Clouds 7 1017 83 10000 3.6 210 15:33 10.01.2023
278 Clouds 8 1017 84 10000 4.63 230 14:47 10.01.2023
279 Clouds 7 1017 86 10000 5.66 240 12:54 10.01.2023
280 Clouds 6 1016 91 10000 4.12 240 09:43 10.01.2023
281 Clouds 5 1015 91 10000 3.6 240 08:37 10.01.2023
282 Clouds 6 1014 86 10000 4.12 240 07:55 10.01.2023
283 Clouds 5 1014 91 10000 3.09 250 07:23 10.01.2023
284 Clouds 6 1007 91 10000 4.63 250 00:29 10.01.2023
285 Clouds 6 1004 94 10000 1.54 240 21:58 09.01.2023
286 Clouds 6 1002 91 10000 2.06 290 20:50 09.01.2023
287 Rain 6 1002 88 10000 4.63 270 19:54 09.01.2023
288 Clouds 7 1000 85 10000 6.17 250 18:23 09.01.2023
289 Clouds 7 999 84 10000 5.66 250 17:49 09.01.2023
290 Rain 8 999 81 10000 3.09 210 16:34 09.01.2023
291 Clouds 9 997 80 10000 4.63 220 15:31 09.01.2023
292 Clouds 9 997 80 10000 5.14 230 14:53 09.01.2023
293 Clouds 9 997 81 10000 5.14 230 14:33 09.01.2023
294 Clouds 8 997 81 10000 3.09 220 12:54 09.01.2023
295 Clouds 8 997 86 10000 4.63 220 11:51 09.01.2023
296 Clouds 7 997 87 10000 3.6 220 11:19 09.01.2023
297 Clouds 7 994 92 10000 2.57 220 06:56 09.01.2023
298 Rain 7 995 91 10000 3.6 120 02:55 09.01.2023
299 Clear 7 996 90 10000 2.57 120 00:59 09.01.2023
300 Clear 7 998 88 10000 3.09 190 22:19 08.01.2023
301 Clouds 7 998 91 10000 2.57 160 21:22 08.01.2023
302 Clear 7 999 90 10000 2.57 180 20:33 08.01.2023
303 Rain 8 999 85 10000 3.09 190 18:45 08.01.2023
304 Clouds 9 1000 86 10000 4.12 170 17:21 08.01.2023
305 Clouds 10 1000 82 10000 5.14 180 16:37 08.01.2023
306 Clouds 10 1000 76 10000 4.63 200 15:34 08.01.2023
307 Clear 11 1001 77 10000 4.63 220 13:58 08.01.2023
308 Clouds 11 1001 78 10000 4.63 220 13:30 08.01.2023
309 Clouds 11 1001 83 10000 5.14 210 12:46 08.01.2023
310 Clear 9 1003 92 10000 3.09 160 10:28 08.01.2023
311 Clouds 9 1003 93 10000 4.63 170 09:36 08.01.2023
312 Rain 9 1003 90 10000 3.6 170 07:47 08.01.2023
313 Clouds 9 1006 81 10000 2.06 150 23:59 07.01.2023
314 Clear 9 1006 80 10000 4.12 170 22:47 07.01.2023
315 Clear 9 1006 81 10000 5.66 180 22:24 07.01.2023
316 Clear 9 1006 80 10000 5.66 180 21:47 07.01.2023
317 Clouds 9 1007 81 10000 2.57 150 20:32 07.01.2023
318 Clouds 10 1008 76 10000 3.6 160 19:30 07.01.2023
319 Clouds 10 1008 77 10000 4.12 160 18:26 07.01.2023
320 Clouds 10 1009 77 10000 3.6 160 17:44 07.01.2023
321 Clouds 10 1009 76 10000 4.12 160 17:21 07.01.2023
322 Clouds 10 1010 78 10000 4.12 160 16:32 07.01.2023
323 Clouds 11 1010 77 10000 3.6 150 15:46 07.01.2023
324 Clouds 11 1010 80 10000 3.6 150 15:24 07.01.2023
325 Clouds 11 1011 78 10000 4.63 200 14:26 07.01.2023
326 Clouds 11 1012 76 10000 6.17 200 13:44 07.01.2023
327 Clouds 11 1012 81 10000 5.14 200 13:22 07.01.2023
328 Clouds 11 1013 86 10000 5.14 180 12:21 07.01.2023
329 Clouds 10 1014 90 10000 3.6 180 10:57 07.01.2023
330 Clear 9 1014 91 10000 4.12 180 10:23 07.01.2023
331 Clear 9 1015 93 10000 2.57 170 08:21 07.01.2023
332 Clouds 9 1014 93 10000 3.09 190 07:43 07.01.2023
333 Clouds 9 1015 93 10000 2.57 180 06:49 07.01.2023
334 Clear 8 1017 91 10000 2.57 190 23:54 06.01.2023
335 Clouds 8 1017 90 10000 2.06 210 22:22 06.01.2023
336 Clear 8 1017 90 10000 2.06 200 21:58 06.01.2023
337 Clear 8 1017 89 10000 2.57 220 20:52 06.01.2023
338 Clouds 8 1017 88 10000 2.06 220 19:56 06.01.2023
339 Clouds 8 1017 88 10000 2.06 220 19:38 06.01.2023
340 Clouds 8 1017 88 10000 2.57 230 19:20 06.01.2023
341 Clouds 9 1017 84 10000 2.57 240 18:24 06.01.2023
342 Clear 10 1016 82 10000 2.57 250 16:54 06.01.2023
343 Clear 10 1016 75 10000 3.6 270 16:23 06.01.2023
344 Clouds 11 1016 82 10000 5.14 260 15:53 06.01.2023
345 Clouds 11 1016 79 10000 7.72 270 15:31 06.01.2023
346 Clouds 11 1015 85 10000 7.2 250 13:47 06.01.2023
347 Clouds 10 1015 94 10000 6.17 240 12:21 06.01.2023
348 Clouds 10 1015 87 10000 6.69 230 10:57 06.01.2023
349 Clouds 10 1015 89 10000 5.66 230 08:51 06.01.2023
350 Clouds 10 1016 95 10000 3.09 220 05:23 06.01.2023
351 Clouds 8 1019 94 10000 2.06 200 23:38 05.01.2023
352 Clouds 8 1019 96 10000 2.06 200 22:44 05.01.2023
353 Clouds 8 1019 98 10000 1.03 0 20:57 05.01.2023
354 Drizzle 8 1019 95 10000 3.6 290 17:39 05.01.2023
355 Drizzle 8 1019 95 10000 3.6 290 17:21 05.01.2023
356 Rain 8 1019 95 10000 4.12 280 15:58 05.01.2023
357 Rain 8 1019 95 10000 4.12 280 15:58 05.01.2023
358 Rain 9 1018 95 10000 4.12 280 15:34 05.01.2023
359 Mist 9 1017 94 10000 7.2 300 13:36 05.01.2023
360 Rain 9 1016 92 10000 6.53 285 12:41 05.01.2023
361 Clouds 10 1015 93 10000 7.72 280 10:48 05.01.2023
362 Clouds 9 1014 94 10000 7.72 270 09:43 05.01.2023
363 Rain 9 1012 93 10000 9.26 270 07:44 05.01.2023
364 Clouds 10 1012 92 10000 8.75 270 06:42 05.01.2023
365 Clouds 10 1010 89 10000 10.29 270 02:23 05.01.2023
366 Rain 11 1008 89 9000 10.29 270 22:26 04.01.2023
367 Rain 12 1008 85 10000 7.2 260 21:30 04.01.2023
368 Rain 12 1008 81 10000 8.75 260 19:58 04.01.2023
369 Clouds 12 1008 80 10000 8.75 260 19:37 04.01.2023
370 Clouds 12 1008 82 10000 10.29 250 19:18 04.01.2023
371 Clouds 12 1009 84 10000 8.75 250 17:38 04.01.2023
372 Clouds 12 1009 92 10000 9.26 240 16:30 04.01.2023
373 Clouds 11 1010 92 10000 7.2 240 14:50 04.01.2023
374 Drizzle 10 1012 91 10000 9.77 230 12:19 04.01.2023
375 Drizzle 10 1012 90 10000 8.23 230 11:23 04.01.2023
376 Clouds 10 1013 91 10000 8.75 230 10:44 04.01.2023
377 Clouds 9 1013 90 10000 8.75 230 10:24 04.01.2023
378 Clouds 9 1013 88 10000 8.75 230 09:24 04.01.2023
379 Rain 8 1016 85 10000 5.66 200 05:38 04.01.2023
380 Clear 7 1022 84 10000 3.6 200 01:20 04.01.2023
381 Clear 7 1023 85 10000 4.12 190 23:37 03.01.2023
382 Clear 6 1024 86 10000 4.12 180 22:55 03.01.2023
383 Clear 7 1024 86 10000 3.6 180 21:37 03.01.2023
384 Clouds 8 1025 84 10000 3.6 180 20:28 03.01.2023
385 Clouds 8 1026 82 10000 2.57 190 18:22 03.01.2023
386 Clouds 9 1026 80 10000 2.57 210 16:39 03.01.2023
387 Clouds 9 1025 75 10000 2.06 200 14:21 03.01.2023
388 Clear 9 1026 79 10000 2.57 230 13:32 03.01.2023
389 Clear 8 1026 80 10000 2.57 230 13:32 03.01.2023
390 Clear 8 1026 82 10000 3.09 210 12:58 03.01.2023
391 Clear 8 1027 83 10000 2.57 220 12:31 03.01.2023
392 Clear 7 1027 87 10000 2.57 220 11:41 03.01.2023
393 Clouds 5 1026 93 9000 1.54 250 08:23 03.01.2023
394 Clouds 5 1025 91 10000 2.06 240 04:26 03.01.2023
395 Clouds 5 1025 90 10000 2.06 240 03:46 03.01.2023
396 Clear 6 1025 89 10000 2.57 250 03:26 03.01.2023
397 Clouds 8 1021 90 10000 5.14 260 22:46 02.01.2023
398 Clouds 9 1021 89 10000 4.12 260 22:24 02.01.2023
399 Clouds 9 1019 89 10000 3.6 240 20:46 02.01.2023
400 Clouds 9 1019 89 10000 3.6 260 20:26 02.01.2023
401 Clear 9 1018 91 10000 2.57 260 18:26 02.01.2023
402 Rain 10 1016 86 10000 6.17 280 15:31 02.01.2023
403 Clouds 12 1014 84 10000 7.72 280 13:39 02.01.2023
404 Clouds 14 1013 82 10000 7.2 230 12:18 02.01.2023
405 Clear 14 1012 78 10000 6.17 230 10:53 02.01.2023
406 Clouds 13 1011 82 10000 4.63 220 07:39 02.01.2023
407 Drizzle 12 1011 87 10000 4.12 180 02:48 02.01.2023
408 Clouds 12 1014 83 10000 4.12 180 22:41 01.01.2023
409 Rain 12 1015 81 10000 3.09 200 21:39 01.01.2023
410 Rain 12 1015 81 10000 2.06 190 20:48 01.01.2023
411 Clear 12 1015 82 10000 2.57 190 19:49 01.01.2023
412 Rain 12 1016 84 10000 2.06 200 18:24 01.01.2023
413 Clouds 12 1016 85 10000 2.06 210 17:22 01.01.2023
414 Clouds 12 1016 87 10000 2.06 190 16:34 01.01.2023
415 Clouds 12 1015 89 10000 2.06 230 15:27 01.01.2023
416 Clouds 12 1015 87 9000 7.2 260 13:41 01.01.2023
417 Clouds 12 1014 82 10000 5.66 220 12:41 01.01.2023
418 Drizzle 13 1014 79 10000 10.29 270 11:39 01.01.2023
419 Drizzle 14 1014 68 10000 7.72 240 10:44 01.01.2023
420 Clear 15 1011 63 10000 6.69 230 08:56 01.01.2023
421 Clear 15 1011 62 10000 7.2 240 08:23 01.01.2023
422 Clear 16 1010 61 10000 8.75 230 07:27 01.01.2023
423 Clear 17 1009 60 10000 7.72 240 03:47 01.01.2023
424 Clear 16 1007 63 10000 8.75 230 23:44 31.12.2022
425 Clear 16 1007 68 10000 8.23 230 22:35 31.12.2022
426 Clear 16 1007 70 10000 8.75 230 21:41 31.12.2022
427 Clear 16 1006 73 10000 6.69 230 21:19 31.12.2022
428 Clear 16 1006 77 10000 5.66 220 19:42 31.12.2022
429 Clouds 16 1007 79 10000 8.23 230 18:45 31.12.2022
430 Clouds 16 1007 80 10000 7.2 240 18:19 31.12.2022
431 Clear 16 1007 80 10000 8.23 240 17:48 31.12.2022
432 Clouds 16 1006 82 10000 8.75 240 16:59 31.12.2022
433 Rain 17 1006 82 10000 8.75 230 16:29 31.12.2022
434 Clouds 16 1005 85 10000 3.09 200 14:45 31.12.2022
435 Clouds 15 1005 90 9000 6.17 250 13:43 31.12.2022
436 Rain 16 1005 84 10000 10.29 250 12:40 31.12.2022
437 Rain 16 1004 84 10000 6.69 230 12:20 31.12.2022
438 Clouds 15 1004 89 10000 3.6 220 11:50 31.12.2022
439 Drizzle 12 1005 97 10000 3.6 180 10:37 31.12.2022
440 Clouds 12 1005 96 8000 1.54 200 09:55 31.12.2022
441 Rain 12 1005 96 8000 1.54 200 09:35 31.12.2022
442 Rain 12 1004 96 9000 2.57 210 07:49 31.12.2022
443 Drizzle 11 1003 89 10000 4.12 200 00:37 31.12.2022
444 Rain 11 1003 83 10000 4.63 200 23:47 30.12.2022
445 Clouds 11 1002 83 10000 4.63 200 22:49 30.12.2022
446 Clouds 10 1001 83 10000 7.2 210 21:44 30.12.2022
447 Clouds 10 1001 87 10000 6.69 200 21:26 30.12.2022
448 Clouds 9 1001 82 10000 6.17 170 18:59 30.12.2022
449 Rain 9 1002 73 10000 6.17 170 17:45 30.12.2022
450 Rain 9 1002 72 10000 7.2 160 17:26 30.12.2022
451 Clear 9 1004 78 10000 5.14 150 15:56 30.12.2022
452 Clear 9 1006 71 10000 6.17 170 14:35 30.12.2022
453 Clear 7 1011 82 10000 4.12 190 10:25 30.12.2022
454 Clouds 6 1011 85 10000 3.6 200 08:19 30.12.2022
455 Clouds 8 1009 79 10000 6.69 240 02:59 30.12.2022
456 Clouds 8 1008 76 10000 6.69 240 01:53 30.12.2022
457 Clouds 8 1006 81 10000 6.17 240 22:50 29.12.2022
458 Rain 9 1005 77 10000 5.14 220 21:31 29.12.2022
459 Clouds 9 1005 86 10000 3.09 220 20:54 29.12.2022
460 Clouds 8 1005 88 10000 4.63 230 20:21 29.12.2022
461 Clear 10 1004 80 10000 5.14 230 17:57 29.12.2022
462 Clouds 11 1004 73 10000 6.17 240 17:29 29.12.2022
463 Clouds 11 1004 76 10000 5.66 250 16:55 29.12.2022
464 Clouds 11 1003 75 10000 7.2 250 15:58 29.12.2022
465 Clouds 11 1002 75 10000 8.23 240 15:18 29.12.2022
466 Clear 12 1001 76 10000 10.29 240 13:20 29.12.2022
467 Clear 10 1001 87 10000 7.2 250 11:19 29.12.2022
468 Clouds 11 999 83 10000 6.69 200 07:39 29.12.2022
469 Clouds 8 1003 89 10000 7.2 200 23:34 28.12.2022
470 Drizzle 8 1004 88 10000 6.17 190 22:33 28.12.2022
471 Rain 9 1005 83 10000 6.17 190 21:20 28.12.2022
472 Clouds 9 1006 81 10000 6.17 190 20:24 28.12.2022
473 Clouds 9 1007 84 10000 5.66 180 19:23 28.12.2022
474 Rain 9 1009 87 10000 7.2 230 16:43 28.12.2022
475 Clouds 9 1010 92 10000 7.2 220 14:29 28.12.2022
476 Clouds 9 1010 86 10000 7.72 230 12:49 28.12.2022
477 Clouds 9 1011 89 10000 8.75 230 11:51 28.12.2022
478 Clouds 8 1011 90 10000 8.23 240 10:35 28.12.2022
479 Clouds 7 1010 86 10000 5.66 200 07:51 28.12.2022
480 Drizzle 6 1012 86 10000 5.66 200 06:48 28.12.2022
481 Rain 5 1015 83 10000 6.17 200 03:43 28.12.2022
482 Clouds 6 1020 83 10000 4.63 220 23:22 27.12.2022
483 Clouds 6 1021 87 10000 3.09 210 19:53 27.12.2022
484 Clouds 5 1022 88 10000 4.12 220 19:20 27.12.2022
485 Clear 5 1022 86 10000 2.57 210 17:20 27.12.2022
486 Clear 5 1022 82 10000 3.6 240 16:35 27.12.2022
487 Clouds 6 1022 77 10000 5.66 250 14:55 27.12.2022
488 Clouds 5 1023 88 10000 5.14 250 12:28 27.12.2022
489 Clouds 5 1022 86 10000 5.66 250 10:37 27.12.2022
490 Clouds 5 1022 88 10000 5.14 250 09:45 27.12.2022
491 Clouds 5 1021 87 10000 6.69 260 09:22 27.12.2022
492 Clouds 4 1019 86 10000 7.72 250 06:48 27.12.2022
493 Clear 4 1018 86 10000 6.17 250 00:43 27.12.2022
494 Clear 4 1017 87 10000 3.09 260 22:20 26.12.2022
495 Clear 4 1016 85 10000 3.6 260 20:46 26.12.2022
496 Clouds 5 1015 82 10000 3.09 260 20:18 26.12.2022
497 Clouds 5 1014 80 10000 4.12 280 18:43 26.12.2022
498 Clouds 6 1013 87 10000 6.17 290 17:26 26.12.2022
499 Clouds 9 1011 93 10000 5.14 280 15:42 26.12.2022
500 Clouds 11 1010 88 10000 6.17 240 12:59 26.12.2022
501 Clouds 10 1010 91 10000 5.14 230 11:45 26.12.2022
502 Clouds 9 1009 99 10000 2.06 250 05:47 26.12.2022
503 Drizzle 10 1008 99 6000 3.6 250 23:43 25.12.2022
504 Rain 10 1008 98 9000 3.09 240 22:56 25.12.2022
505 Drizzle 10 1008 97 10000 2.06 220 22:23 25.12.2022
506 Clouds 9 1008 97 10000 2.06 150 19:56 25.12.2022
507 Mist 8 1010 99 5000 2.06 120 17:52 25.12.2022
508 Mist 8 1010 99 5000 2.06 120 17:34 25.12.2022
509 Rain 9 1010 97 6000 2.06 110 16:47 25.12.2022
510 Rain 9 1012 96 10000 2.57 150 14:26 25.12.2022
511 Clear 8 1014 97 10000 2.06 110 11:47 25.12.2022
512 Clouds 5 1016 95 10000 2.06 140 04:48 25.12.2022
513 Clear 6 1015 93 10000 1.54 230 22:55 24.12.2022
514 Clear 7 1014 93 10000 2.57 250 19:53 24.12.2022
515 Clouds 8 1013 93 10000 2.06 250 17:35 24.12.2022
516 Clouds 9 1012 93 10000 4.63 260 15:38 24.12.2022
517 Clouds 10 1011 92 10000 4.12 260 14:30 24.12.2022
518 Rain 10 1010 90 10000 5.14 260 12:20 24.12.2022
519 Clouds 9 1009 91 10000 4.63 260 10:23 24.12.2022
520 Rain 9 1008 89 10000 4.63 260 09:37 24.12.2022
521 Clouds 9 1007 90 10000 5.66 260 08:36 24.12.2022
522 Clouds 7 1003 97 6000 2.06 110 02:51 24.12.2022
523 Mist 7 1002 97 4100 3.6 70 00:29 24.12.2022
524 Rain 7 1001 96 8000 3.09 60 22:30 23.12.2022
525 Clouds 7 1001 97 6000 3.6 80 21:37 23.12.2022
526 Rain 7 1001 97 6000 4.63 70 19:40 23.12.2022
527 Drizzle 7 1001 98 6000 4.63 80 19:22 23.12.2022
528 Drizzle 7 1001 98 6000 4.12 80 18:53 23.12.2022
529 Rain 7 1001 98 6000 4.12 90 18:22 23.12.2022
530 Rain 7 1002 99 5000 3.09 90 17:43 23.12.2022
531 Rain 8 1002 98 6000 2.57 90 15:45 23.12.2022
532 Clouds 8 1005 98 6000 1.03 310 12:53 23.12.2022
533 Drizzle 7 1005 99 2500 2.06 280 09:53 23.12.2022
534 Drizzle 7 1005 99 2500 2.06 280 09:34 23.12.2022
535 Rain 7 1003 98 8000 2.57 310 07:29 23.12.2022
536 Clouds 8 1003 98 7000 3.09 310 06:49 23.12.2022
537 Drizzle 7 1002 95 4700 2.06 150 23:36 22.12.2022
538 Rain 7 1003 95 10000 1.03 0 23:18 22.12.2022
539 Clouds 7 1003 93 10000 1.54 160 21:49 22.12.2022
540 Clear 7 1005 94 10000 2.57 200 19:47 22.12.2022
541 Clear 6 1005 91 10000 2.57 210 19:18 22.12.2022
542 Clear 7 1005 91 10000 3.6 240 17:58 22.12.2022
543 Clear 7 1005 92 10000 3.6 250 16:48 22.12.2022
544 Clouds 8 1004 94 10000 2.57 250 15:38 22.12.2022
545 Clouds 9 1004 94 10000 4.12 270 15:18 22.12.2022
546 Clouds 9 1004 96 10000 5.66 270 14:18 22.12.2022
547 Clouds 9 1003 97 7000 2.57 260 13:19 22.12.2022
548 Clouds 8 1002 97 7000 1.54 270 11:36 22.12.2022
549 Mist 8 1002 98 1200 0.51 290 10:31 22.12.2022
550 Rain 8 1001 96 10000 1.03 0 09:22 22.12.2022
551 Clouds 7 1001 96 10000 1.03 0 08:35 22.12.2022
552 Clouds 8 1002 95 10000 1.03 0 07:24 22.12.2022
553 Clouds 8 1004 95 10000 1.03 0 04:18 22.12.2022
554 Clouds 7 1006 93 10000 3.09 180 00:25 22.12.2022
555 Rain 7 1007 90 10000 3.6 190 22:25 21.12.2022
556 Rain 7 1008 91 10000 2.57 180 21:24 21.12.2022
557 Clear 6 1008 92 10000 2.57 190 20:54 21.12.2022
558 Clouds 7 1008 91 10000 1.54 200 20:29 21.12.2022
559 Clouds 7 1008 91 10000 3.09 210 19:44 21.12.2022
560 Clouds 7 1009 91 10000 3.09 210 19:25 21.12.2022
561 Clouds 7 1009 91 10000 3.09 230 18:47 21.12.2022
562 Clear 8 1009 91 10000 2.57 200 17:49 21.12.2022
563 Clouds 9 1009 97 6000 3.09 250 14:59 21.12.2022
564 Drizzle 9 1009 97 3300 1.03 0 13:28 21.12.2022
565 Mist 9 1010 97 4600 1.54 180 11:48 21.12.2022
566 Mist 8 1010 97 4100 1.03 0 11:20 21.12.2022
567 Clouds 8 1010 96 6000 2.06 190 09:50 21.12.2022
568 Mist 8 1010 95 4100 2.06 210 07:48 21.12.2022
569 Clouds 8 1009 95 8000 2.57 220 03:48 21.12.2022
570 Clouds 9 1010 88 10000 2.57 200 22:56 20.12.2022
571 Clouds 9 1010 89 10000 1.54 170 21:23 20.12.2022
572 Clouds 9 1010 89 10000 4.12 190 20:24 20.12.2022
573 Rain 10 1010 89 10000 4.12 210 19:40 20.12.2022
574 Drizzle 10 1010 87 10000 3.6 210 18:30 20.12.2022
575 Rain 10 1010 85 10000 4.12 210 17:55 20.12.2022
576 Rain 10 1010 85 10000 4.12 210 17:55 20.12.2022
577 Rain 10 1011 82 10000 4.12 210 17:34 20.12.2022
578 Clouds 10 1010 81 10000 4.12 200 16:35 20.12.2022
579 Clouds 10 1011 82 10000 4.63 200 15:30 20.12.2022
580 Clear 11 1011 82 10000 5.14 200 14:47 20.12.2022
581 Clear 11 1011 82 10000 5.14 190 14:28 20.12.2022
582 Clear 11 1012 83 10000 5.66 200 12:58 20.12.2022
583 Clear 11 1012 84 10000 4.63 190 12:28 20.12.2022
584 Clear 10 1012 85 10000 3.6 190 11:33 20.12.2022
585 Clear 9 1013 88 10000 2.57 180 08:48 20.12.2022
586 Clear 7 1015 87 10000 4.12 190 01:20 20.12.2022
587 Clear 7 1016 84 10000 3.6 190 22:39 19.12.2022
588 Clear 7 1015 85 10000 3.09 180 21:45 19.12.2022
589 Clouds 6 1016 86 10000 3.6 170 19:57 19.12.2022
590 Clouds 6 1016 86 10000 3.6 170 19:39 19.12.2022
591 Clear 6 1015 87 10000 3.6 170 18:33 19.12.2022
592 Rain 6 1016 89 10000 4.63 180 16:43 19.12.2022
593 Clouds 5 1016 92 10000 4.63 180 13:27 19.12.2022
594 Clouds 4 1018 94 9000 5.14 180 11:56 19.12.2022
595 Drizzle 3 1018 94 10000 5.14 180 10:41 19.12.2022
596 Rain 2 1018 88 10000 4.63 170 07:41 19.12.2022
597 Rain 1 1021 85 10000 3.6 170 03:31 19.12.2022
598 Clear -1 1023 75 10000 6.17 150 22:33 18.12.2022
599 Clear -1 1024 75 10000 3.6 110 21:43 18.12.2022
600 Snow -1 1024 75 10000 3.09 120 21:21 18.12.2022
601 Clear -2 1025 79 10000 3.6 110 19:50 18.12.2022
602 Clear -2 1025 81 10000 3.6 110 19:31 18.12.2022
603 Clear -2 1026 83 10000 3.09 110 17:53 18.12.2022
604 Clear -2 1027 81 10000 4.63 100 16:29 18.12.2022
605 Clear -2 1027 79 10000 3.6 100 15:39 18.12.2022
606 Clear -2 1028 78 10000 3.6 110 15:19 18.12.2022
607 Clear -1 1028 77 10000 3.6 120 13:37 18.12.2022
608 Clear -1 1029 80 10000 2.57 110 12:52 18.12.2022
609 Clear -2 1030 81 10000 2.57 110 12:19 18.12.2022
610 Clear -4 1030 85 10000 2.06 100 10:22 18.12.2022
611 Clear -6 1031 85 10000 2.06 110 08:47 18.12.2022
612 Clear -6 1030 85 10000 1.54 130 07:21 18.12.2022
613 Clear -6 1030 86 10000 1.54 130 06:20 18.12.2022
614 Clear -6 1030 87 10000 1.54 120 03:40 18.12.2022
615 Clear -5 1029 85 10000 2.06 150 00:34 18.12.2022
616 Clear -5 1028 86 10000 1.54 140 21:54 17.12.2022
617 Clear -4 1028 87 10000 2.06 150 19:27 17.12.2022
618 Clear -2 1027 83 10000 2.06 170 16:49 17.12.2022
619 Clear 0 1026 79 10000 0.51 0 14:30 17.12.2022
620 Clear -3 1025 86 10000 1.03 0 11:39 17.12.2022
621 Clear -4 1025 87 10000 0.51 0 10:47 17.12.2022
622 Mist -5 1025 87 5000 1.03 210 09:46 17.12.2022
623 Mist -5 1023 91 5000 1.03 90 07:48 17.12.2022
624 Mist -5 1023 92 5000 3.09 270 06:46 17.12.2022
625 Clear -2 1021 91 8000 1.54 180 23:57 16.12.2022
626 Clouds -2 1020 91 10000 0.51 0 21:34 16.12.2022
627 Clouds -2 1019 91 9000 1.03 50 19:57 16.12.2022
628 Clouds -1 1017 89 10000 0.51 0 16:55 16.12.2022
629 Clouds -1 1016 88 10000 1.03 0 14:49 16.12.2022
630 Clouds -1 1015 87 10000 1.54 30 13:48 16.12.2022
631 Clouds -3 1015 90 10000 1.03 0 11:59 16.12.2022
632 Clouds -4 1014 90 10000 0.51 0 10:22 16.12.2022
633 Clouds -7 1013 90 10000 0.51 0 09:26 16.12.2022
634 Clouds -8 1012 88 10000 1.54 110 08:25 16.12.2022
635 Clear -9 1012 87 10000 0.51 0 07:53 16.12.2022
636 Clear -5 1009 87 10000 1.03 90 23:31 15.12.2022
637 Clear -5 1009 86 10000 1.03 0 22:29 15.12.2022
638 Clear -4 1009 86 10000 0.51 0 20:40 15.12.2022
639 Clear -3 1009 86 10000 1.54 160 19:37 15.12.2022
640 Clear -3 1008 86 10000 1.54 150 18:25 15.12.2022
641 Clear -2 1008 85 10000 0.51 310 17:26 15.12.2022
642 Clear 0 1008 79 10000 1.54 230 15:36 15.12.2022
643 Clear 1 1008 79 10000 3.6 240 13:52 15.12.2022
644 Clear 0 1008 80 10000 4.12 240 12:34 15.12.2022
645 Clear -4 1007 89 10000 1.54 170 09:42 15.12.2022
646 Clear -5 1007 88 10000 1.03 170 08:54 15.12.2022
647 Clear -6 1005 87 10000 0.51 0 06:24 15.12.2022
648 Clear -6 1005 86 10000 2.06 240 04:54 15.12.2022
649 Mist -9 1003 92 4500 0.51 0 21:25 14.12.2022
650 Clear -9 1003 93 7000 0 0 20:59 14.12.2022
651 Mist -8 1003 93 6000 0.51 220 20:29 14.12.2022
652 Clear -5 1002 82 10000 0.51 70 18:26 14.12.2022
653 Clear -4 1001 80 10000 0.51 0 16:57 14.12.2022
654 Clear -3 1002 82 10000 3.09 80 15:40 14.12.2022
655 Clear -2 1002 82 10000 3.09 80 13:53 14.12.2022
656 Clear -8 1003 86 10000 3.09 80 11:31 14.12.2022
657 Clear -9 1004 86 10000 2.57 90 10:34 14.12.2022
658 Clear -10 1004 86 10000 3.09 90 08:51 14.12.2022
659 Clear -6 1008 88 10000 1.54 140 22:50 13.12.2022
660 Clear -6 1008 88 10000 1.03 120 21:49 13.12.2022
661 Clear -5 1009 81 10000 2.57 150 20:48 13.12.2022
662 Clear -5 1009 83 10000 2.57 160 20:25 13.12.2022
663 Clear -3 1010 82 10000 1.03 140 17:50 13.12.2022
664 Clear -2 1011 83 10000 1.54 100 15:55 13.12.2022
665 Clear -1 1011 84 10000 1.54 80 14:52 13.12.2022
666 Clear -1 1011 84 10000 1.54 80 14:52 13.12.2022
667 Clear -4 1012 90 10000 0.51 0 11:32 13.12.2022
668 Clear -5 1011 90 10000 0 0 10:36 13.12.2022
669 Clear -6 1011 90 10000 0.51 0 09:43 13.12.2022
670 Clouds -7 1011 88 10000 0.51 290 06:21 13.12.2022
671 Clear -5 1012 83 10000 1.16 224 22:23 12.12.2022
672 Fog -5 1012 86 4700 0.51 180 21:27 12.12.2022
673 Clouds -4 1012 87 10000 1.16 225 18:34 12.12.2022
674 Mist -3 1013 89 8000 1.03 90 17:19 12.12.2022
675 Clear -1 1012 85 10000 1.54 310 15:22 12.12.2022
676 Clear -1 1012 85 10000 1.54 310 15:22 12.12.2022
677 Clouds -2 1013 91 8000 1.03 250 12:24 12.12.2022
678 Clouds -6 1012 91 10000 0.98 283 09:19 12.12.2022
679 Fog -6 1011 90 5000 0.51 250 04:55 12.12.2022
680 Clouds -6 1010 90 10000 0.7 310 03:21 12.12.2022
681 Mist -5 1011 91 4300 0.51 0 22:54 11.12.2022
682 Clouds -4 1011 91 7000 0.51 0 20:48 11.12.2022
683 Clouds -4 1010 90 8000 0.51 0 19:43 11.12.2022
684 Mist -4 1010 90 7000 0.51 0 19:22 11.12.2022
685 Clouds -3 1010 89 7000 0.51 290 18:18 11.12.2022
686 Clouds -3 1010 87 10000 0 0 17:31 11.12.2022
687 Clouds -2 1010 86 10000 1.03 0 16:52 11.12.2022
688 Clouds -1 1009 80 10000 1.54 90 15:46 11.12.2022
689 Clouds 0 1010 83 10000 0.51 0 14:50 11.12.2022
690 Clouds -1 1009 80 10000 1.03 0 12:44 11.12.2022
691 Clouds -1 1010 86 10000 0.51 0 11:53 11.12.2022
692 Clouds -2 1011 86 10000 2.06 90 08:25 11.12.2022
693 Clouds -1 1011 89 10000 1.54 60 00:34 11.12.2022
694 Clouds -1 1011 90 10000 1.54 60 22:54 10.12.2022
695 Clouds -1 1011 90 10000 1.54 60 22:33 10.12.2022
696 Clouds -1 1011 92 10000 1.03 0 21:19 10.12.2022
697 Clouds -1 1011 91 8000 1.03 80 20:26 10.12.2022
698 Clouds -1 1011 95 9000 1.54 70 18:46 10.12.2022
699 Clouds -1 1011 93 9000 1.03 0 16:48 10.12.2022
700 Clouds -1 1011 91 8000 1.54 80 15:58 10.12.2022
701 Clouds -1 1011 91 8000 1.54 80 15:37 10.12.2022
702 Clouds -1 1010 93 7000 2.06 60 14:21 10.12.2022
703 Clouds -1 1010 93 7000 2.06 60 12:49 10.12.2022
704 Mist -1 1010 93 5000 2.57 80 11:35 10.12.2022
705 Clouds -1 1010 93 10000 3.09 80 10:34 10.12.2022
706 Clouds -1 1009 93 8000 3.09 80 08:37 10.12.2022
707 Clouds -1 1009 95 7000 3.09 90 07:19 10.12.2022
708 Fog -1 1008 95 550 1.54 60 23:56 09.12.2022
709 Fog -1 1008 94 500 1.54 70 22:44 09.12.2022
710 Fog -1 1007 95 350 1.03 0 21:48 09.12.2022
711 Fog -1 1006 94 300 1.03 0 21:21 09.12.2022
712 Fog -1 1007 95 400 2.06 90 20:41 09.12.2022
713 Fog 0 1007 94 1400 2.06 90 18:40 09.12.2022
714 Fog 0 1006 96 2100 1.54 110 17:45 09.12.2022
715 Clouds 0 1006 94 10000 1.54 90 16:30 09.12.2022
716 Clouds 1 1006 95 7000 2.06 90 15:33 09.12.2022
717 Mist 1 1006 95 5000 1.03 100 14:25 09.12.2022
718 Clouds -1 1007 96 6000 2.06 80 10:52 09.12.2022
719 Clouds -1 1007 94 6000 2.06 90 10:29 09.12.2022
720 Clouds -2 1006 90 7000 1.54 100 08:23 09.12.2022
721 Fog -2 1007 94 600 1.03 140 03:18 09.12.2022
722 Fog -1 1006 92 500 1.03 210 23:36 08.12.2022
723 Mist 0 1007 94 5000 1.03 0 20:56 08.12.2022
724 Mist 1 1006 92 7000 1.03 0 20:20 08.12.2022
725 Clear 2 1006 92 10000 1.03 250 16:51 08.12.2022
726 Clouds 4 1005 91 10000 3.09 270 14:40 08.12.2022
727 Clouds 4 1005 91 10000 3.6 270 14:20 08.12.2022
728 Rain 3 1006 94 10000 3.6 270 10:48 08.12.2022
729 Rain 3 1005 95 7000 3.09 260 09:34 08.12.2022
730 Drizzle 3 1005 92 10000 5.66 250 08:28 08.12.2022
731 Clouds 3 1009 92 10000 4.12 270 22:44 07.12.2022
732 Clouds 3 1009 92 10000 3.6 270 22:18 07.12.2022
733 Clouds 3 1009 92 10000 4.12 260 21:47 07.12.2022
734 Clouds 3 1010 93 10000 1.54 250 20:35 07.12.2022
735 Clouds 3 1011 92 10000 4.63 340 18:38 07.12.2022
736 Clouds 4 1011 89 10000 4.63 270 15:53 07.12.2022
737 Clouds 4 1011 90 10000 5.14 270 14:29 07.12.2022
738 Clouds 4 1012 93 10000 5.14 270 10:56 07.12.2022
739 Clouds 4 1012 93 10000 4.63 270 10:26 07.12.2022
740 Clouds 3 1012 93 10000 4.12 270 09:31 07.12.2022
741 Clouds 3 1012 93 10000 3.6 270 08:36 07.12.2022
742 Clouds 4 1012 94 10000 5.14 270 05:26 07.12.2022
743 Clouds 4 1013 96 6000 4.12 270 02:57 07.12.2022
744 Clouds 2 1015 93 6000 1.03 230 21:59 06.12.2022
745 Clouds 3 1016 93 10000 2.06 270 19:35 06.12.2022
746 Drizzle 3 1016 94 10000 1.54 320 17:20 06.12.2022
747 Clouds 3 1016 94 10000 3.6 280 16:30 06.12.2022
748 Clouds 4 1016 93 10000 3.6 280 15:37 06.12.2022
749 Clouds 4 1016 94 10000 3.6 280 14:40 06.12.2022
750 Clouds 4 1016 95 10000 3.6 290 14:19 06.12.2022
751 Clouds 4 1016 96 10000 4.63 310 12:41 06.12.2022
752 Clouds 4 1017 97 10000 4.12 300 11:58 06.12.2022
753 Drizzle 2 1016 96 1300 3.09 270 07:50 06.12.2022
754 Snow 1 1017 96 6000 3.09 270 03:25 06.12.2022
755 Clouds 2 1018 97 10000 2.57 280 23:44 05.12.2022
756 Clouds 2 1018 96 10000 1.54 270 21:56 05.12.2022
757 Clouds 2 1019 94 10000 2.06 290 20:54 05.12.2022
758 Clouds 2 1018 96 10000 1.54 300 20:22 05.12.2022
759 Clouds 2 1018 96 10000 1.54 290 19:36 05.12.2022
760 Clouds 2 1018 96 10000 0.51 0 16:55 05.12.2022
761 Clouds 2 1018 96 10000 1.54 30 15:31 05.12.2022
762 Clouds 2 1018 96 10000 1.54 40 14:52 05.12.2022
763 Clouds 2 1018 95 10000 2.57 70 12:58 05.12.2022
764 Clouds 2 1018 95 10000 2.57 70 12:38 05.12.2022
765 Snow 2 1018 94 10000 2.57 70 11:43 05.12.2022
766 Drizzle 1 1018 98 4600 1.54 50 09:23 05.12.2022
767 Mist 2 1018 95 4600 3.09 60 00:19 05.12.2022
768 Drizzle 2 1017 93 4200 3.6 70 22:44 04.12.2022
769 Mist 2 1018 93 4400 4.12 70 22:19 04.12.2022
770 Mist 2 1018 93 5000 4.12 70 21:37 04.12.2022
771 Drizzle 1 1019 96 4100 3.6 70 20:20 04.12.2022
772 Drizzle 1 1019 96 3800 3.6 70 19:23 04.12.2022
773 Drizzle 1 1019 96 3700 3.6 80 18:37 04.12.2022
774 Mist 1 1017 94 3800 4.12 70 17:22 04.12.2022
775 Drizzle 1 1017 91 3900 4.12 70 16:37 04.12.2022
776 Drizzle 1 1017 92 3200 4.63 70 16:19 04.12.2022
777 Drizzle 1 1018 92 2800 4.63 70 15:31 04.12.2022
778 Mist 1 1018 92 2800 4.63 70 14:32 04.12.2022
779 Mist 1 1019 94 3900 4.63 80 12:52 04.12.2022
780 Mist 1 1019 91 3900 4.63 80 12:33 04.12.2022
781 Mist 1 1019 91 5000 5.14 70 11:35 04.12.2022
782 Clouds 0 1019 91 6000 3.6 70 08:50 04.12.2022
783 Clouds -1 1019 90 6000 4.63 80 02:51 04.12.2022
784 Clouds -1 1020 89 7000 5.14 90 23:44 03.12.2022
785 Clouds -1 1020 89 7000 4.63 90 22:47 03.12.2022
786 Clouds -1 1020 89 7000 4.63 80 21:53 03.12.2022
787 Clouds -1 1020 88 8000 4.12 90 20:46 03.12.2022
788 Clouds 0 1020 85 8000 4.63 80 18:57 03.12.2022
789 Clouds 0 1020 85 8000 5.14 80 18:31 03.12.2022
790 Clouds 0 1021 85 8000 4.63 80 15:53 03.12.2022
791 Clouds 0 1021 87 8000 4.63 70 13:50 03.12.2022
792 Clouds 0 1022 89 8000 4.63 80 12:53 03.12.2022
793 Clouds 0 1022 84 8000 5.14 80 12:21 03.12.2022
794 Clouds -1 1023 89 8000 4.63 70 09:46 03.12.2022
795 Clouds -1 1024 92 9000 6.17 80 06:27 03.12.2022
796 Clouds 1 1024 90 9000 7.2 90 00:23 03.12.2022
797 Clouds 1 1024 90 10000 4.12 70 22:19 02.12.2022
798 Mist 1 1024 96 5000 4.12 60 20:53 02.12.2022
799 Clouds 1 1024 94 6000 5.14 70 18:18 02.12.2022
800 Snow 1 1025 92 7000 4.12 60 15:58 02.12.2022
801 Snow 1 1025 94 6000 4.63 60 14:38 02.12.2022
802 Snow 1 1025 90 8000 5.66 70 14:19 02.12.2022
803 Snow 2 1024 87 9000 5.14 70 12:51 02.12.2022
804 Clouds 2 1025 88 6000 5.14 70 11:31 02.12.2022
805 Mist 1 1025 93 5000 3.09 70 08:19 02.12.2022
806 Mist 1 1025 93 5000 3.6 70 07:23 02.12.2022
807 Clouds 2 1027 93 6000 3.6 70 22:54 01.12.2022
808 Clouds 2 1028 95 6000 2.57 70 21:44 01.12.2022
809 Mist 2 1028 92 5000 2.57 70 21:22 01.12.2022
810 Mist 2 1028 95 3100 3.6 80 19:19 01.12.2022
811 Mist 2 1027 95 5000 4.12 70 17:31 01.12.2022
812 Clouds 3 1027 90 6000 2.57 80 14:47 01.12.2022
813 Mist 2 1028 92 5000 3.6 70 11:22 01.12.2022
814 Mist 2 1028 92 3200 3.09 80 09:55 01.12.2022
815 Mist 2 1028 93 3200 3.09 80 09:37 01.12.2022
816 Mist 2 1027 97 3500 4.12 80 07:18 01.12.2022
817 Mist 4 1026 98 5000 2.57 70 23:59 30.11.2022
818 Mist 4 1026 98 3500 2.57 60 22:21 30.11.2022
819 Mist 5 1026 98 3200 2.57 60 21:19 30.11.2022
820 Mist 5 1026 95 3100 2.57 60 20:25 30.11.2022
821 Mist 5 1025 94 2800 2.57 60 19:35 30.11.2022
822 Mist 5 1025 95 4000 2.57 50 18:32 30.11.2022
823 Mist 5 1024 96 3400 2.57 60 16:53 30.11.2022
824 Mist 5 1024 95 1900 3.09 70 14:46 30.11.2022
825 Mist 5 1024 95 1900 3.09 70 14:46 30.11.2022
826 Mist 5 1024 95 2400 3.09 60 14:27 30.11.2022
827 Mist 5 1023 95 3400 2.57 50 12:29 30.11.2022
828 Mist 5 1023 94 4000 3.09 80 09:52 30.11.2022
829 Mist 5 1023 95 4900 3.6 90 08:38 30.11.2022
830 Mist 5 1022 95 5000 3.09 80 06:43 30.11.2022
831 Mist 5 1021 92 4300 2.57 110 23:30 29.11.2022
832 Mist 5 1020 92 4700 2.57 100 22:19 29.11.2022
833 Drizzle 5 1020 92 4500 2.06 110 20:52 29.11.2022
834 Drizzle 5 1020 91 4200 2.06 100 20:28 29.11.2022
835 Drizzle 6 1020 90 6000 2.57 110 18:44 29.11.2022
836 Clouds 6 1019 89 10000 2.57 90 16:51 29.11.2022
837 Clouds 6 1018 89 10000 2.57 90 15:38 29.11.2022
838 Clouds 7 1018 88 10000 2.06 90 14:48 29.11.2022
839 Clouds 6 1017 89 10000 1.54 80 12:38 29.11.2022
840 Clouds 6 1017 91 10000 1.54 80 11:31 29.11.2022
841 Clouds 6 1017 91 10000 2.57 80 10:31 29.11.2022
842 Clouds 5 1017 92 10000 2.57 80 09:28 29.11.2022
843 Clouds 5 1016 91 10000 2.57 80 07:27 29.11.2022
844 Clouds 6 1013 90 10000 2.57 80 00:29 29.11.2022
845 Clouds 6 1013 89 10000 2.06 90 23:27 28.11.2022
846 Clouds 6 1013 89 10000 2.06 90 22:21 28.11.2022
847 Clouds 6 1013 89 10000 1.54 110 21:43 28.11.2022
848 Clouds 6 1012 88 10000 2.57 80 20:30 28.11.2022
849 Clouds 6 1012 88 10000 2.06 100 19:37 28.11.2022
850 Clouds 6 1012 87 10000 2.57 110 18:28 28.11.2022
851 Rain 6 1012 86 10000 3.09 110 17:23 28.11.2022
852 Clouds 7 1011 82 10000 2.06 120 14:57 28.11.2022
853 Rain 7 1011 84 10000 3.09 100 13:56 28.11.2022
854 Clear 6 1011 86 10000 3.09 110 13:19 28.11.2022
855 Rain 6 1012 82 10000 2.06 120 11:36 28.11.2022
856 Rain 5 1012 84 10000 1.03 0 08:26 28.11.2022
857 Clouds 6 1012 80 10000 4.63 150 04:57 28.11.2022
858 Clouds 6 1012 80 10000 4.63 150 04:38 28.11.2022
859 Rain 6 1012 81 10000 5.14 130 03:22 28.11.2022
860 Rain 6 1014 77 10000 4.12 150 00:29 28.11.2022
861 Rain 7 1016 76 10000 4.12 150 22:24 27.11.2022
862 Rain 7 1017 77 10000 3.09 140 20:46 27.11.2022
863 Clear 7 1018 78 10000 2.57 100 18:39 27.11.2022
864 Rain 8 1019 79 10000 2.57 150 16:25 27.11.2022
865 Clear 8 1021 83 10000 2.57 140 13:54 27.11.2022
866 Clear 7 1022 86 10000 3.09 150 12:24 27.11.2022
867 Clear 4 1024 90 10000 3.09 160 09:31 27.11.2022
868 Clear 3 1025 91 10000 2.06 150 07:20 27.11.2022
869 Clear 5 1029 91 10000 1.54 180 23:23 26.11.2022
870 Clear 6 1028 92 10000 2.06 150 21:27 26.11.2022
871 Clouds 6 1029 92 10000 1.54 160 19:57 26.11.2022
872 Fog 6 1029 91 5000 1.54 140 18:41 26.11.2022
873 Clear 8 1029 89 10000 1.03 250 16:38 26.11.2022
874 Clouds 10 1028 88 10000 3.09 270 14:48 26.11.2022
875 Clouds 9 1029 91 10000 4.12 250 12:50 26.11.2022
876 Fog 7 1028 98 300 1.03 0 10:53 26.11.2022
877 Fog 5 1028 97 450 1.03 300 09:40 26.11.2022
878 Fog 4 1027 95 500 1.03 0 07:47 26.11.2022
879 Clouds 8 1021 93 10000 3.6 260 22:41 25.11.2022
880 Clouds 8 1020 92 10000 3.6 260 21:32 25.11.2022
881 Clouds 8 1019 93 10000 3.09 260 20:20 25.11.2022
882 Clouds 8 1016 92 10000 2.57 250 16:51 25.11.2022
883 Clouds 9 1016 91 10000 2.57 240 15:26 25.11.2022
884 Clouds 6 1013 93 10000 1.54 0 09:44 25.11.2022
885 Clear 5 1013 92 10000 2.06 130 08:43 25.11.2022
886 Clear 4 1012 92 10000 2.57 150 06:59 25.11.2022
887 Clear 4 1012 92 10000 2.57 150 06:59 25.11.2022
888 Clear 4 1012 92 10000 2.57 150 06:40 25.11.2022
889 Clear 4 1014 91 10000 1.54 150 00:29 25.11.2022
890 Clear 5 1013 90 10000 1.03 0 22:59 24.11.2022
891 Clear 6 1013 90 10000 2.06 160 21:59 24.11.2022
892 Clouds 7 1013 88 10000 2.06 150 20:58 24.11.2022
893 Clouds 8 1012 85 10000 1.54 210 19:20 24.11.2022
894 Clouds 9 1011 84 10000 1.54 210 17:43 24.11.2022
895 Clouds 9 1011 83 10000 1.54 210 17:21 24.11.2022
896 Clouds 10 1011 82 10000 4.12 250 15:29 24.11.2022
897 Clouds 10 1010 81 10000 4.63 240 14:22 24.11.2022
898 Clouds 10 1010 81 10000 4.63 240 14:22 24.11.2022
899 Clouds 10 1009 85 10000 3.09 220 11:59 24.11.2022
900 Clouds 8 1008 89 10000 2.57 200 10:37 24.11.2022
901 Clouds 6 1007 91 10000 2.06 120 07:54 24.11.2022
902 Clouds 6 1005 90 10000 2.57 180 03:23 24.11.2022
903 Rain 6 1003 84 10000 2.06 200 23:46 23.11.2022
904 Rain 6 1002 83 10000 3.6 170 22:24 23.11.2022
905 Clouds 5 1002 86 10000 2.06 140 21:30 23.11.2022
906 Clear 5 1001 86 10000 2.06 120 20:45 23.11.2022
907 Clear 5 1001 88 10000 1.54 140 19:27 23.11.2022
908 Clear 5 1001 88 10000 1.54 140 19:27 23.11.2022
909 Clear 5 1001 88 10000 1.54 140 19:27 23.11.2022
910 Clear 6 1001 86 10000 1.54 70 18:41 23.11.2022
911 Clouds 8 1000 79 10000 2.57 150 16:42 23.11.2022
912 Clouds 11 1000 79 10000 3.6 170 13:40 23.11.2022
913 Clouds 10 1000 80 10000 3.6 160 13:21 23.11.2022
914 Clouds 10 1000 82 10000 4.12 180 12:21 23.11.2022
915 Clouds 9 1000 84 10000 3.6 180 11:41 23.11.2022
916 Clouds 8 1000 87 10000 3.09 180 10:43 23.11.2022
917 Clouds 7 1000 87 10000 3.09 180 09:44 23.11.2022
918 Clouds 7 1000 88 10000 2.57 140 09:25 23.11.2022
919 Clouds 6 1000 89 10000 2.06 150 08:37 23.11.2022
920 Clouds 6 999 88 10000 3.09 150 05:22 23.11.2022
921 Clouds 6 999 88 10000 3.09 160 04:32 23.11.2022
922 Clouds 6 998 86 10000 3.09 150 23:23 22.11.2022
923 Clouds 5 998 87 10000 2.06 120 22:33 22.11.2022
924 Clouds 5 998 88 10000 1.54 120 21:34 22.11.2022
925 Rain 5 998 86 10000 2.06 130 20:45 22.11.2022
926 Rain 5 998 86 10000 2.06 130 20:45 22.11.2022
927 Clouds 5 998 89 10000 2.57 90 19:54 22.11.2022
928 Clouds 5 997 88 10000 2.57 110 17:56 22.11.2022
929 Clouds 5 997 85 10000 3.09 140 17:21 22.11.2022
930 Clouds 5 997 85 10000 3.09 140 17:21 22.11.2022
931 Clouds 5 997 85 10000 3.09 140 17:21 22.11.2022
932 Clear 6 997 86 10000 3.6 140 15:51 22.11.2022
933 Clouds 7 997 86 10000 2.06 120 13:42 22.11.2022
934 Clouds 5 997 89 10000 4.12 150 11:40 22.11.2022
935 Clouds 2 996 93 10000 2.06 120 09:20 22.11.2022
936 Clouds 2 995 93 7000 3.09 120 07:18 22.11.2022
937 Snow 0 996 92 6000 3.09 100 01:46 22.11.2022
938 Clouds 0 997 89 10000 4.63 100 23:40 21.11.2022
939 Clouds 0 998 88 10000 3.09 110 22:40 21.11.2022
940 Clouds 0 998 87 10000 2.57 130 21:58 21.11.2022
941 Clouds 0 998 90 10000 2.57 120 20:49 21.11.2022
942 Clear 0 999 88 10000 3.09 120 19:41 21.11.2022
943 Clouds 0 999 86 10000 3.09 110 18:54 21.11.2022
944 Clear 0 1000 87 10000 2.57 120 17:51 21.11.2022
945 Clear 0 1001 85 10000 2.57 130 16:53 21.11.2022
946 Clear 1 1001 83 10000 2.57 130 16:34 21.11.2022
947 Clear 1 1002 85 10000 3.6 150 15:24 21.11.2022
948 Clear 1 1003 84 10000 2.57 150 14:28 21.11.2022
949 Clear 2 1003 84 10000 3.09 150 13:43 21.11.2022
950 Fog -1 1005 93 3500 0.51 230 10:48 21.11.2022
951 Fog -3 1005 91 200 0.51 0 08:59 21.11.2022
952 Fog -3 1005 90 700 1.03 0 06:39 21.11.2022
953 Clouds 0 1005 88 8000 3.6 80 22:26 20.11.2022
954 Clouds 0 1005 87 6000 1.54 100 21:34 20.11.2022
955 Clear -1 1006 87 10000 2.57 90 20:24 20.11.2022
956 Clear 0 1007 85 10000 1.54 100 18:25 20.11.2022
957 Clouds 1 1008 83 10000 1.03 250 16:23 20.11.2022
958 Clouds 1 1009 80 10000 1.54 280 15:29 20.11.2022
959 Clouds 1 1009 76 10000 2.57 290 14:41 20.11.2022
960 Clouds 2 1009 75 10000 2.57 280 13:32 20.11.2022
961 Clouds 1 1009 75 10000 2.57 270 12:33 20.11.2022
962 Clouds 0 1010 82 10000 2.57 240 10:59 20.11.2022
963 Clouds -1 1010 85 10000 2.06 260 10:29 20.11.2022
964 Clouds -2 1010 87 10000 2.06 250 09:18 20.11.2022
965 Clouds -2 1011 87 10000 2.06 250 08:34 20.11.2022
966 Clouds -2 1011 87 10000 2.06 240 07:29 20.11.2022
967 Clouds -3 1011 88 10000 1.03 0 02:18 20.11.2022
968 Clouds -4 1013 89 10000 0.51 270 01:19 20.11.2022
969 Clouds -4 1013 90 10000 1.03 240 00:41 20.11.2022
970 Clouds -4 1013 90 10000 1.03 250 00:22 20.11.2022
971 Clear -4 1013 90 10000 1.03 260 23:49 19.11.2022
972 Clear -4 1013 90 10000 1.03 240 23:22 19.11.2022
973 Clear -3 1013 89 10000 1.03 260 22:35 19.11.2022
974 Clear -3 1013 89 10000 1.54 250 21:32 19.11.2022
975 Clear -3 1013 92 10000 1.03 0 20:44 19.11.2022
976 Clear -2 1013 87 10000 1.54 260 20:25 19.11.2022
977 Clear -2 1013 91 10000 1.03 0 18:55 19.11.2022
978 Clear -1 1013 84 10000 0.51 270 17:39 19.11.2022
979 Clear 0 1013 79 10000 0.51 0 17:19 19.11.2022
980 Clear 2 1014 73 10000 1.03 0 15:36 19.11.2022
981 Clear 2 1014 72 10000 0.51 0 13:46 19.11.2022
982 Clear 0 1015 80 10000 0.51 0 11:57 19.11.2022
983 Clear -3 1015 86 10000 2.06 70 10:19 19.11.2022
984 Clear -3 1015 88 10000 2.57 100 08:36 19.11.2022
985 Clear -4 1013 89 10000 4.12 70 04:46 19.11.2022
986 Clear -2 1012 84 10000 3.6 90 01:52 19.11.2022
987 Clear -1 1011 85 10000 5.66 90 23:37 18.11.2022
988 Clear -1 1011 84 10000 5.66 80 22:34 18.11.2022
989 Clear 0 1011 85 10000 5.66 100 21:37 18.11.2022
990 Clouds 0 1011 87 10000 6.17 100 20:59 18.11.2022
991 Snow 0 1010 85 10000 5.66 100 20:25 18.11.2022
992 Clouds 0 1010 88 10000 6.17 100 19:44 18.11.2022
993 Snow 0 1008 89 9000 7.72 90 17:46 18.11.2022
994 Snow 1 1008 89 10000 8.23 80 16:37 18.11.2022
995 Drizzle 2 1006 92 7000 7.72 80 12:53 18.11.2022
996 Drizzle 2 1005 94 5000 7.72 90 11:22 18.11.2022
997 Mist 3 1002 93 4200 7.2 90 07:53 18.11.2022
998 Clouds 4 1001 93 6000 6.17 90 05:45 18.11.2022
999 Clouds 4 1000 93 10000 6.17 90 04:53 18.11.2022
1000 Clouds 5 998 93 10000 5.66 100 23:52 17.11.2022
1001 Clouds 5 997 95 10000 5.66 100 20:48 17.11.2022
1002 Clouds 5 997 95 10000 6.17 90 20:25 17.11.2022
1003 Clouds 6 996 94 10000 5.66 100 19:49 17.11.2022
1004 Clouds 5 996 94 10000 5.66 100 18:34 17.11.2022
1005 Rain 5 996 93 10000 5.66 100 17:32 17.11.2022
1006 Drizzle 5 996 93 10000 5.66 100 16:33 17.11.2022
1007 Rain 5 995 92 10000 8.23 100 12:27 17.11.2022
1008 Rain 5 995 92 10000 5.66 110 11:19 17.11.2022
1009 Drizzle 5 996 93 10000 7.72 110 07:35 17.11.2022
1010 Clouds 6 1000 90 10000 6.17 110 01:30 17.11.2022
1011 Clouds 7 1001 89 10000 5.14 110 23:32 16.11.2022
1012 Clouds 7 1001 91 10000 5.66 100 22:24 16.11.2022
1013 Clouds 7 1002 93 10000 5.66 100 20:33 16.11.2022
1014 Clouds 7 1001 93 10000 4.12 110 18:49 16.11.2022
1015 Clouds 7 1001 93 10000 4.12 110 18:49 16.11.2022
1016 Clouds 7 1002 93 10000 4.63 110 18:30 16.11.2022
1017 Drizzle 7 1002 91 2700 4.12 100 15:58 16.11.2022
1018 Rain 7 1002 90 6000 3.6 110 11:54 16.11.2022
1019 Rain 8 1002 91 9000 4.63 110 07:45 16.11.2022
1020 Clear 11 1002 82 10000 2.57 90 01:46 16.11.2022
1021 Rain 12 1004 82 10000 3.09 110 23:36 15.11.2022
1022 Clear 12 1005 83 10000 2.57 120 21:42 15.11.2022
1023 Clear 12 1005 84 10000 3.09 120 20:19 15.11.2022
1024 Clear 12 1006 83 10000 3.09 120 18:53 15.11.2022
1025 Clear 13 1006 78 10000 3.09 130 17:36 15.11.2022
1026 Clear 13 1007 78 10000 2.57 130 16:20 15.11.2022
1027 Clear 14 1007 72 10000 3.09 140 15:37 15.11.2022
1028 Clear 15 1008 71 10000 4.12 150 13:57 15.11.2022
1029 Clear 15 1009 77 10000 3.6 160 12:54 15.11.2022
1030 Clear 14 1009 82 10000 3.6 170 11:22 15.11.2022
1031 Clouds 11 1010 88 10000 3.6 160 09:39 15.11.2022
1032 Clear 7 1011 90 10000 1.54 110 00:44 15.11.2022
1033 Clouds 7 1011 88 10000 2.57 130 00:23 15.11.2022
1034 Clouds 6 1011 91 10000 3.09 110 21:56 14.11.2022
1035 Clouds 6 1012 90 8000 4.12 90 20:44 14.11.2022
1036 Clear 6 1012 90 9000 3.09 90 19:42 14.11.2022
1037 Clear 7 1012 87 9000 2.06 100 18:25 14.11.2022
1038 Clouds 7 1015 81 9000 4.12 110 12:55 14.11.2022
1039 Clouds 7 1015 81 9000 4.12 110 12:55 14.11.2022
1040 Clouds 7 1015 81 9000 4.12 110 12:55 14.11.2022
1041 Clouds 7 1015 81 9000 4.12 110 12:55 14.11.2022
1042 Clouds 7 1015 81 9000 4.12 110 12:55 14.11.2022
1043 Clouds 6 1016 87 8000 4.12 110 11:47 14.11.2022
1044 Clouds 6 1017 87 7000 4.63 130 10:58 14.11.2022
1045 Clouds 5 1017 94 6000 4.12 120 08:34 14.11.2022
1046 Clouds 5 1017 92 7000 3.09 130 07:52 14.11.2022
1047 Clouds 6 1019 91 7000 3.6 110 02:32 14.11.2022
1048 Clouds 7 1020 91 7000 2.57 110 22:50 13.11.2022
1049 Clouds 7 1021 89 8000 4.12 100 21:41 13.11.2022
1050 Clouds 7 1022 90 10000 4.12 110 20:46 13.11.2022
1051 Clouds 7 1023 92 6000 5.14 100 18:54 13.11.2022
1052 Mist 7 1024 93 5000 4.63 100 17:49 13.11.2022
1053 Mist 6 1024 100 4600 6.17 80 15:41 13.11.2022
1054 Clouds 8 1025 93 6000 5.66 90 14:31 13.11.2022
1055 Clouds 8 1026 93 6000 6.17 90 12:56 13.11.2022
1056 Clear 7 1026 87 10000 5.14 90 11:35 13.11.2022
1057 Clear 6 1027 86 10000 4.12 100 10:36 13.11.2022
1058 Mist 4 1027 84 3400 2.57 100 05:53 13.11.2022
1059 Clear 6 1029 84 10000 2.06 100 23:54 12.11.2022
1060 Clear 6 1030 81 10000 4.12 90 21:40 12.11.2022
1061 Clear 7 1030 86 10000 3.09 80 20:54 12.11.2022
1062 Clear 8 1030 85 10000 1.03 0 18:59 12.11.2022
1063 Clear 10 1030 80 10000 2.06 90 16:55 12.11.2022
1064 Clear 12 1030 79 10000 2.57 100 15:48 12.11.2022
1065 Clear 13 1031 73 10000 1.54 150 13:39 12.11.2022
1066 Clear 8 1032 89 10000 1.03 0 09:41 12.11.2022
1067 Clear 5 1031 88 10000 1.03 0 07:48 12.11.2022
1068 Clear 8 1031 84 10000 0.51 140 23:45 11.11.2022
1069 Clear 9 1030 80 10000 0.51 0 20:57 11.11.2022
1070 Clear 9 1030 81 10000 0.51 0 20:34 11.11.2022
1071 Clear 10 1030 83 10000 0.51 130 19:27 11.11.2022
1072 Clear 11 1030 77 10000 0.51 0 18:33 11.11.2022
1073 Clear 12 1029 73 10000 1.54 220 17:40 11.11.2022
1074 Clear 16 1029 62 10000 5.14 250 14:33 11.11.2022
1075 Clear 16 1029 56 10000 5.14 260 13:55 11.11.2022
1076 Clear 14 1029 69 10000 4.12 250 12:26 11.11.2022
1077 Clear 10 1028 80 10000 3.6 230 08:59 11.11.2022
1078 Clear 9 1028 81 10000 3.09 230 08:26 11.11.2022
1079 Clear 10 1027 79 10000 3.09 250 00:39 11.11.2022
1080 Clear 11 1026 81 10000 3.6 230 22:53 10.11.2022
1081 Clear 11 1026 81 10000 3.09 210 21:44 10.11.2022
1082 Clear 11 1026 80 10000 3.09 210 21:26 10.11.2022
1083 Clear 11 1025 80 10000 3.09 220 20:25 10.11.2022
1084 Clear 12 1025 80 10000 3.09 220 19:56 10.11.2022
1085 Clear 12 1025 79 10000 3.09 220 18:45 10.11.2022
1086 Clouds 14 1024 75 10000 4.63 240 16:55 10.11.2022
1087 Clouds 14 1024 69 10000 4.63 250 16:25 10.11.2022
1088 Clouds 15 1023 72 10000 6.69 250 13:34 10.11.2022
1089 Clouds 11 1021 88 10000 5.66 250 09:38 10.11.2022
1090 Clear 10 1019 88 10000 2.57 230 07:57 10.11.2022
1091 Clouds 12 1014 77 10000 5.66 260 01:18 10.11.2022
1092 Clouds 13 1013 75 10000 6.17 250 22:58 09.11.2022
1093 Clear 13 1012 74 10000 6.69 250 21:32 09.11.2022
1094 Clear 13 1011 72 10000 4.12 240 20:42 09.11.2022
1095 Clear 13 1011 71 10000 6.17 250 20:22 09.11.2022
1096 Clear 13 1010 71 10000 4.63 240 19:26 09.11.2022
1097 Clear 14 1009 69 10000 3.6 220 17:45 09.11.2022
1098 Clouds 16 1008 71 10000 5.66 240 14:57 09.11.2022
1099 Clouds 16 1008 71 10000 6.17 240 14:28 09.11.2022
1100 Clouds 16 1007 67 10000 6.17 250 13:58 09.11.2022
1101 Clear 16 1007 70 10000 6.17 240 12:55 09.11.2022
1102 Clouds 15 1008 79 10000 4.63 200 09:40 09.11.2022
1103 Clear 14 1007 78 10000 5.14 200 07:47 09.11.2022
1104 Clear 14 1006 77 10000 5.66 200 06:55 09.11.2022
1105 Clear 15 1007 69 10000 6.17 210 22:44 08.11.2022
1106 Clear 15 1007 71 10000 6.17 200 21:42 08.11.2022
1107 Clear 15 1007 71 10000 6.17 200 21:42 08.11.2022
1108 Clear 15 1006 69 10000 6.17 200 20:55 08.11.2022
1109 Clear 15 1007 68 10000 6.17 200 20:21 08.11.2022
1110 Clear 15 1007 67 10000 5.14 200 19:28 08.11.2022
1111 Clear 15 1006 65 10000 5.66 190 17:37 08.11.2022
1112 Clear 16 1007 64 10000 4.63 170 15:37 08.11.2022
1113 Clear 17 1007 61 10000 4.63 190 14:36 08.11.2022
1114 Clear 16 1007 66 10000 4.12 120 13:33 08.11.2022
1115 Clear 14 1009 78 10000 4.12 150 11:30 08.11.2022
1116 Clear 11 1010 84 10000 5.14 170 07:45 08.11.2022
1117 Clear 11 1010 86 10000 3.09 170 06:28 08.11.2022
1118 Clouds 13 1012 82 10000 3.09 190 23:50 07.11.2022
1119 Clouds 13 1012 81 10000 4.12 200 21:56 07.11.2022
1120 Clouds 13 1011 81 10000 3.6 190 20:58 07.11.2022
1121 Clouds 13 1011 83 10000 3.6 190 19:52 07.11.2022
1122 Clouds 14 1011 78 10000 4.63 220 17:43 07.11.2022
1123 Clouds 14 1011 80 10000 5.14 220 15:40 07.11.2022
1124 Clouds 15 1010 75 10000 7.2 240 14:57 07.11.2022
1125 Clouds 15 1010 67 10000 5.14 240 13:51 07.11.2022
1126 Clouds 14 1010 75 10000 4.63 220 12:32 07.11.2022
1127 Clouds 13 1010 77 10000 4.63 220 10:45 07.11.2022
1128 Clouds 12 1010 78 10000 3.6 200 09:18 07.11.2022
1129 Clouds 11 1009 80 10000 4.63 220 06:54 07.11.2022
1130 Clouds 10 1008 80 10000 4.12 210 01:48 07.11.2022
1131 Clouds 10 1007 80 10000 6.17 180 23:47 06.11.2022
1132 Rain 10 1007 74 10000 6.17 200 21:22 06.11.2022
1133 Rain 10 1008 71 10000 3.6 190 20:49 06.11.2022
1134 Clear 11 1007 66 10000 3.09 150 19:57 06.11.2022
1135 Clear 10 1008 71 10000 3.09 150 19:28 06.11.2022
1136 Clear 10 1008 72 10000 4.12 170 18:20 06.11.2022
1137 Clear 11 1009 72 10000 4.63 170 17:42 06.11.2022
1138 Clear 11 1009 66 10000 3.6 160 17:18 06.11.2022
1139 Clear 12 1009 65 10000 3.6 160 16:19 06.11.2022
1140 Clear 12 1010 68 10000 3.09 180 14:53 06.11.2022
1141 Clear 12 1012 72 10000 4.63 170 12:46 06.11.2022
1142 Clear 11 1013 78 10000 5.14 190 10:56 06.11.2022
1143 Clear 9 1014 77 10000 3.6 190 09:52 06.11.2022
1144 Clear 9 1014 77 10000 3.6 190 09:52 06.11.2022
1145 Clouds 8 1014 79 10000 3.6 190 07:44 06.11.2022
1146 Clear 9 1016 77 10000 3.09 200 23:23 05.11.2022
1147 Clear 9 1017 77 10000 2.57 190 20:46 05.11.2022
1148 Clear 9 1017 78 10000 3.09 210 18:38 05.11.2022
1149 Clear 10 1017 79 10000 2.06 210 16:35 05.11.2022
1150 Clouds 12 1016 68 10000 5.66 240 14:43 05.11.2022
1151 Clouds 12 1016 75 10000 5.14 230 13:39 05.11.2022
1152 Clear 10 1017 84 10000 4.12 230 11:49 05.11.2022
1153 Clear 6 1015 92 10000 0.51 0 08:58 05.11.2022
1154 Mist 5 1015 93 8000 2.06 250 07:23 05.11.2022
1155 Mist 5 1014 93 9000 1.03 0 06:54 05.11.2022
1156 Clouds 7 1012 91 8000 1.54 270 00:22 05.11.2022
1157 Clouds 8 1011 89 10000 2.27 275 23:26 04.11.2022
1158 Clouds 8 1011 89 10000 2.27 275 23:26 04.11.2022
1159 Clear 8 1010 91 10000 1.54 260 20:44 04.11.2022
1160 Clear 9 1009 89 10000 2.06 250 19:31 04.11.2022
1161 Clouds 11 1008 81 10000 1.03 0 17:25 04.11.2022
1162 Clouds 13 1006 76 10000 3.6 270 14:20 04.11.2022
1163 Clouds 12 1005 74 10000 4.12 250 12:28 04.11.2022
1164 Clouds 12 1005 80 10000 5.14 260 11:43 04.11.2022
1165 Clouds 11 1004 84 10000 3.09 240 08:53 04.11.2022
1166 Clouds 10 1003 85 10000 4.63 250 07:46 04.11.2022
1167 Clouds 11 1002 82 10000 4.12 230 05:50 04.11.2022
1168 Clouds 11 1000 88 10000 2.06 120 00:25 04.11.2022
1169 Rain 12 1002 76 10000 3.09 150 20:53 03.11.2022
1170 Rain 12 1002 76 10000 3.09 150 20:32 03.11.2022
1171 Clear 13 1002 76 10000 3.09 130 19:40 03.11.2022
1172 Clear 13 1004 76 10000 3.09 110 17:52 03.11.2022
1173 Clear 13 1005 70 10000 2.06 110 16:53 03.11.2022
1174 Clear 14 1007 74 10000 3.6 140 14:53 03.11.2022
1175 Clouds 13 1010 76 10000 3.09 160 13:19 03.11.2022
1176 Clear 13 1010 76 10000 3.09 160 12:30 03.11.2022
1177 Clear 11 1012 80 10000 2.57 160 09:43 03.11.2022
1178 Clear 9 1014 81 10000 2.57 120 07:43 03.11.2022
1179 Clear 9 1019 76 10000 2.57 150 21:37 02.11.2022
1180 Clear 9 1019 76 10000 2.57 180 20:44 02.11.2022
1181 Clear 9 1020 74 10000 2.06 200 19:59 02.11.2022
1182 Clear 13 1019 59 10000 3.09 240 17:29 02.11.2022
1183 Clear 14 1019 60 10000 4.63 260 16:19 02.11.2022
1184 Clouds 15 1019 54 10000 8.23 260 14:58 02.11.2022
1185 Clouds 15 1018 56 10000 10.29 250 12:45 02.11.2022
1186 Clouds 14 1018 62 10000 9.26 250 11:50 02.11.2022
1187 Clouds 13 1016 70 10000 6.17 230 09:22 02.11.2022
1188 Clear 12 1015 77 10000 5.14 210 05:36 02.11.2022
1189 Clear 12 1016 72 10000 3.6 200 00:28 02.11.2022
1190 Clear 13 1017 67 10000 4.12 220 22:19 01.11.2022
1191 Clear 13 1017 66 10000 2.57 200 21:41 01.11.2022
1192 Clear 13 1016 65 10000 2.57 180 20:26 01.11.2022
1193 Clear 13 1016 67 10000 2.06 180 19:43 01.11.2022
1194 Clear 14 1016 66 10000 2.57 170 18:53 01.11.2022
1195 Clear 14 1016 69 10000 2.06 170 17:33 01.11.2022
1196 Clear 17 1016 63 10000 3.6 240 16:22 01.11.2022
1197 Clear 18 1015 49 10000 7.2 250 14:25 01.11.2022
1198 Clear 18 1014 58 10000 9.77 250 12:28 01.11.2022
1199 Clouds 17 1013 74 10000 4.63 230 11:24 01.11.2022
1200 Clouds 17 1013 79 10000 5.14 230 10:56 01.11.2022
1201 Rain 16 1012 85 10000 5.66 200 08:43 01.11.2022
1202 Clear 15 1011 88 10000 5.66 200 07:30 01.11.2022
1203 Clear 15 1011 88 10000 5.66 200 07:30 01.11.2022
1204 Clear 15 1011 88 10000 5.66 200 07:30 01.11.2022
1205 Clear 14 1011 92 10000 1.54 140 06:47 01.11.2022
1206 Clouds 13 1011 93 7000 2.06 120 05:57 01.11.2022
1207 Mist 12 1011 94 4800 3.09 100 03:38 01.11.2022
1208 Mist 14 1015 93 4600 4.63 90 21:57 31.10.2022
1209 Clouds 14 1015 91 8000 3.6 110 20:50 31.10.2022
1210 Clouds 15 1016 91 10000 3.6 100 19:53 31.10.2022
1211 Clear 15 1017 89 10000 3.6 100 17:51 31.10.2022
1212 Clear 16 1017 86 10000 4.12 90 16:42 31.10.2022
1213 Clear 17 1019 82 10000 2.06 70 13:29 31.10.2022
1214 Clouds 16 1020 85 10000 1.03 0 11:54 31.10.2022
1215 Fog 12 1021 93 400 0.51 0 08:38 31.10.2022
1216 Mist 13 1021 90 4700 2.57 270 05:33 31.10.2022
1217 Clear 14 1020 88 10000 3.09 260 02:23 31.10.2022
1218 Clear 15 1018 86 10000 2.06 240 23:19 30.10.2022
1219 Clear 15 1018 87 10000 2.06 240 23:19 30.10.2022
1220 Clear 15 1018 85 10000 1.03 250 21:40 30.10.2022
1221 Clear 15 1017 87 10000 1.03 220 20:37 30.10.2022
1222 Clear 17 1016 81 10000 1.03 110 18:39 30.10.2022
1223 Clear 21 1016 69 10000 0.51 0 16:18 30.10.2022
1224 Clear 21 1016 69 10000 0.51 0 16:18 30.10.2022
1225 Clear 22 1016 62 10000 2.06 160 13:53 30.10.2022
1226 Clear 22 1016 64 10000 1.54 160 13:20 30.10.2022
1227 Clear 20 1017 72 10000 2.06 240 11:42 30.10.2022
1228 Clear 17 1017 80 10000 1.54 130 09:37 30.10.2022
1229 Clear 14 1017 83 10000 0.51 0 08:38 30.10.2022
1230 Clear 17 1017 79 10000 1.54 140 02:56 30.10.2022
1231 Clear 16 1017 83 10000 1.54 130 00:28 30.10.2022
1232 Clear 16 1017 84 10000 2.06 140 23:44 29.10.2022
1233 Clear 17 1018 83 10000 1.03 0 21:27 29.10.2022
1234 Clear 19 1018 80 10000 2.06 180 18:21 29.10.2022
1235 Clear 21 1018 74 10000 1.03 110 17:20 29.10.2022
1236 Clear 21 1018 68 10000 1.03 0 15:38 29.10.2022
1237 Clear 21 1018 75 10000 2.06 200 14:48 29.10.2022
1238 Clear 19 1020 81 10000 1.54 180 12:35 29.10.2022
1239 Clear 18 1020 85 10000 1.54 180 11:32 29.10.2022
1240 Fog 14 1020 91 800 1.03 90 07:38 29.10.2022
1241 Fog 14 1020 91 800 1.03 90 07:38 29.10.2022
1242 Clouds 15 1020 93 10000 1.54 240 05:56 29.10.2022
1243 Clouds 16 1021 92 10000 1.03 0 04:18 29.10.2022
1244 Clear 18 1020 80 10000 4.63 270 23:42 28.10.2022
1245 Clear 19 1018 75 10000 1.54 200 20:56 28.10.2022
1246 Clear 20 1017 73 10000 2.06 210 19:29 28.10.2022
1247 Clear 20 1017 71 10000 2.57 180 18:31 28.10.2022
1248 Clear 24 1017 63 10000 3.09 210 15:37 28.10.2022
1249 Clear 24 1017 61 10000 4.12 200 14:44 28.10.2022
1250 Clear 23 1018 65 10000 3.09 190 12:58 28.10.2022
1251 Clear 21 1018 66 10000 3.09 190 11:53 28.10.2022
1252 Clear 20 1018 74 10000 2.57 190 11:25 28.10.2022
1253 Clear 17 1018 83 10000 0.51 0 09:49 28.10.2022
1254 Clear 15 1017 87 10000 1.54 120 08:34 28.10.2022
1255 Clear 16 1019 88 10000 1.54 140 03:51 28.10.2022
1256 Clear 16 1019 88 10000 1.54 140 03:51 28.10.2022
1257 Clear 16 1019 88 10000 1.54 140 03:51 28.10.2022
1258 Clear 17 1019 81 10000 2.57 170 23:50 27.10.2022
1259 Clear 17 1020 83 10000 2.57 170 22:58 27.10.2022
1260 Clear 17 1020 83 10000 3.09 170 21:56 27.10.2022
1261 Clear 17 1020 82 10000 1.54 160 20:30 27.10.2022
1262 Clear 17 1020 82 10000 1.54 160 20:30 27.10.2022
1263 Clear 18 1021 79 10000 2.06 150 18:23 27.10.2022
1264 Clear 20 1022 72 10000 4.12 150 14:52 27.10.2022
1265 Clear 16 1024 88 10000 2.06 150 11:33 27.10.2022
1266 Clear 12 1023 96 10000 1.03 0 07:30 27.10.2022
1267 Clear 13 1022 92 10000 0.51 0 00:22 27.10.2022
1268 Mist 13 1021 91 10000 0.51 150 23:46 26.10.2022
1269 Mist 13 1021 91 10000 0 0 22:38 26.10.2022
1270 Clear 14 1019 87 10000 1.03 180 20:36 26.10.2022
1271 Clear 18 1017 75 10000 2.57 200 17:27 26.10.2022
1272 Clear 18 1016 77 10000 1.54 130 14:53 26.10.2022
1273 Clear 15 1015 80 10000 2.06 150 12:39 26.10.2022
1274 Clear 13 1015 90 10000 2.06 140 11:32 26.10.2022
1275 Mist 10 1015 95 10000 1.03 100 09:18 26.10.2022
1276 Mist 9 1015 95 10000 1.54 100 08:44 26.10.2022
1277 Mist 10 1016 91 10000 0.51 0 00:50 26.10.2022
1278 Mist 10 1017 91 10000 1.03 0 00:29 26.10.2022
1279 Clear 11 1016 88 10000 1.03 0 21:58 25.10.2022
1280 Clear 12 1016 90 10000 2.06 180 21:25 25.10.2022
1281 Clear 12 1016 87 10000 1.03 0 20:26 25.10.2022
1282 Clear 14 1016 82 10000 1.03 230 18:38 25.10.2022
1283 Clouds 17 1015 69 10000 5.14 260 15:28 25.10.2022
1284 Clouds 16 1014 79 10000 5.66 250 11:40 25.10.2022
1285 Clouds 15 1014 89 10000 5.14 240 10:44 25.10.2022
1286 Clouds 14 1014 89 10000 4.12 240 10:25 25.10.2022
1287 Clouds 14 1012 87 10000 3.6 250 08:19 25.10.2022
1288 Clouds 14 1012 89 10000 4.63 250 07:54 25.10.2022
1289 Clouds 14 1012 90 10000 4.12 250 07:26 25.10.2022
1290 Rain 14 1011 87 10000 6.17 250 04:26 25.10.2022
1291 Clear 14 1010 86 10000 3.09 210 00:40 25.10.2022
1292 Clouds 15 1010 82 10000 2.57 220 23:50 24.10.2022
1293 Clear 15 1009 84 10000 4.12 220 22:24 24.10.2022
1294 Clouds 15 1009 82 10000 3.6 220 21:33 24.10.2022
1295 Clouds 16 1009 78 10000 5.14 230 20:44 24.10.2022
1296 Clouds 16 1009 78 10000 5.14 230 20:44 24.10.2022
1297 Clear 17 1008 73 10000 4.63 210 18:53 24.10.2022
1298 Clear 18 1007 67 10000 6.17 230 17:51 24.10.2022
1299 Clouds 18 1007 76 10000 5.66 220 16:45 24.10.2022
1300 Clouds 19 1007 70 10000 5.66 230 14:31 24.10.2022
1301 Clouds 19 1007 70 10000 7.72 220 13:41 24.10.2022
1302 Clear 19 1006 77 10000 5.14 200 11:55 24.10.2022
1303 Clear 15 1006 89 10000 5.14 190 08:50 24.10.2022
1304 Clear 14 1007 92 10000 2.57 160 00:52 24.10.2022
1305 Rain 15 1009 85 10000 1.54 130 21:23 23.10.2022
1306 Clear 16 1007 81 10000 2.06 100 19:51 23.10.2022
1307 Clear 17 1008 74 10000 3.09 100 17:59 23.10.2022
1308 Clear 17 1008 78 10000 2.06 130 17:27 23.10.2022
1309 Clear 18 1010 76 10000 3.09 140 15:19 23.10.2022
1310 Clear 16 1012 86 10000 1.54 140 12:59 23.10.2022
1311 Clear 14 1013 93 10000 2.06 120 10:59 23.10.2022
1312 Clear 10 1014 93 10000 1.54 110 08:18 23.10.2022
1313 Clear 13 1016 87 10000 1.54 200 23:40 22.10.2022
1314 Clear 14 1016 88 10000 2.06 220 22:31 22.10.2022
1315 Clear 14 1016 90 10000 1.54 220 21:42 22.10.2022
1316 Clear 15 1015 88 10000 2.06 220 20:49 22.10.2022
1317 Clouds 16 1015 87 10000 1.54 220 19:32 22.10.2022
1318 Clouds 16 1014 86 10000 6.17 240 18:55 22.10.2022
1319 Clouds 17 1014 79 10000 4.63 250 17:35 22.10.2022
1320 Rain 19 1013 75 10000 4.12 250 15:28 22.10.2022
1321 Clouds 19 1013 76 10000 4.63 240 14:36 22.10.2022
1322 Clouds 19 1013 81 10000 5.66 220 13:39 22.10.2022
1323 Clear 13 1012 95 10000 2.57 170 09:51 22.10.2022
1324 Clear 13 1011 96 10000 1.54 150 09:24 22.10.2022
1325 Fog 12 1010 96 10000 0.51 0 07:33 22.10.2022
1326 Fog 13 1010 95 10000 0.51 0 02:44 22.10.2022
1327 Clouds 13 1010 95 7000 1.03 0 23:44 21.10.2022
1328 Clear 14 1009 93 10000 1.54 160 21:34 21.10.2022
1329 Clear 15 1009 94 10000 1.54 150 20:56 21.10.2022
1330 Clear 15 1009 93 10000 1.54 160 19:19 21.10.2022
1331 Rain 16 1008 91 10000 2.57 210 16:51 21.10.2022
1332 Clear 17 1008 87 10000 3.6 190 13:56 21.10.2022
1333 Clear 17 1008 88 10000 2.06 190 12:39 21.10.2022
1334 Clear 14 1008 93 10000 1.03 0 10:28 21.10.2022
1335 Clear 14 1009 93 10000 2.06 150 09:42 21.10.2022
1336 Clear 13 1008 94 10000 4.12 140 08:37 21.10.2022
1337 Rain 12 1009 90 10000 1.54 150 06:21 21.10.2022
1338 Clear 12 1012 91 10000 2.57 140 00:21 21.10.2022
1339 Clouds 12 1012 91 10000 3.09 150 21:50 20.10.2022
1340 Rain 12 1013 86 7000 2.57 120 20:25 20.10.2022
1341 Drizzle 12 1013 82 10000 2.57 120 19:32 20.10.2022
1342 Clear 13 1014 76 10000 3.6 140 17:52 20.10.2022
1343 Clear 14 1014 75 10000 3.6 110 16:22 20.10.2022
1344 Clear 12 1016 77 10000 4.63 100 12:36 20.10.2022
1345 Clear 11 1017 72 10000 4.63 120 12:18 20.10.2022
1346 Clear 9 1018 83 10000 4.12 100 10:57 20.10.2022
1347 Clear 8 1018 88 10000 5.14 100 10:24 20.10.2022
1348 Clear 5 1019 88 10000 3.6 110 07:45 20.10.2022
1349 Clear 6 1021 88 10000 2.57 90 04:29 20.10.2022
1350 Rain 7 1023 85 10000 4.12 90 00:57 20.10.2022
1351 Clear 8 1024 82 10000 2.57 110 22:45 19.10.2022
1352 Clear 9 1025 80 10000 2.06 110 21:55 19.10.2022
1353 Clear 9 1026 81 10000 2.06 110 20:50 19.10.2022
1354 Clear 12 1026 77 10000 2.06 120 18:21 19.10.2022
1355 Clouds 13 1026 66 10000 2.57 110 17:24 19.10.2022
1356 Clouds 14 1027 62 10000 2.06 130 15:23 19.10.2022
1357 Clouds 13 1028 72 10000 2.06 50 12:45 19.10.2022
1358 Clouds 11 1028 86 10000 1.54 340 09:26 19.10.2022
1359 Clouds 11 1028 87 10000 1.03 310 08:26 19.10.2022
1360 Clouds 10 1027 92 10000 1.03 270 03:49 19.10.2022
1361 Clouds 11 1028 89 10000 2.57 300 00:25 19.10.2022
1362 Clouds 11 1028 89 10000 2.57 280 22:46 18.10.2022
1363 Clouds 11 1027 90 10000 1.54 250 21:37 18.10.2022
1364 Clouds 12 1027 86 10000 1.03 0 20:35 18.10.2022
1365 Clear 13 1027 81 10000 2.06 310 19:27 18.10.2022
1366 Clear 17 1026 69 10000 6.17 310 17:31 18.10.2022
1367 Clear 18 1025 61 10000 6.17 290 16:20 18.10.2022
1368 Clouds 18 1025 80 10000 3.6 280 13:57 18.10.2022
1369 Clouds 17 1026 90 10000 3.09 290 12:21 18.10.2022
1370 Clouds 16 1026 93 8000 2.57 280 11:19 18.10.2022
1371 Mist 15 1025 95 2200 1.03 0 09:27 18.10.2022
1372 Fog 15 1025 94 650 0.51 240 07:43 18.10.2022
1373 Rain 16 1025 93 10000 1.54 240 01:56 18.10.2022
1374 Clouds 18 1023 89 10000 2.06 240 21:50 17.10.2022
1375 Rain 19 1023 86 10000 1.54 250 20:50 17.10.2022
1376 Rain 19 1023 84 10000 2.06 280 20:30 17.10.2022
1377 Rain 19 1023 84 10000 2.06 280 20:30 17.10.2022
1378 Rain 20 1022 82 10000 2.06 280 19:50 17.10.2022
1379 Clouds 20 1022 78 10000 2.06 270 18:42 17.10.2022
1380 Clear 22 1020 75 10000 4.12 260 16:39 17.10.2022
1381 Clouds 22 1020 72 10000 6.69 240 15:29 17.10.2022
1382 Clouds 22 1020 72 10000 6.69 240 15:29 17.10.2022
1383 Clear 22 1019 72 10000 5.66 180 13:59 17.10.2022
1384 Clear 18 1019 88 10000 3.6 170 10:29 17.10.2022
1385 Clear 13 1019 90 10000 3.09 130 03:58 17.10.2022
1386 Clouds 14 1019 87 10000 1.54 90 23:25 16.10.2022
1387 Clear 14 1018 91 10000 1.03 0 21:46 16.10.2022
1388 Clear 14 1018 88 10000 0.51 0 20:33 16.10.2022
1389 Clear 15 1018 84 10000 0.51 0 19:45 16.10.2022
1390 Clear 18 1017 74 10000 3.09 250 17:50 16.10.2022
1391 Clouds 19 1016 59 10000 4.63 240 16:33 16.10.2022
1392 Clouds 19 1015 60 10000 5.14 270 15:56 16.10.2022
1393 Clouds 19 1015 64 10000 6.17 250 14:23 16.10.2022
1394 Clouds 18 1015 69 10000 6.69 240 12:21 16.10.2022
1395 Clear 16 1013 78 10000 4.12 210 10:27 16.10.2022
1396 Clear 13 1012 89 10000 2.57 180 08:35 16.10.2022
1397 Clear 16 1009 80 10000 4.12 240 23:50 15.10.2022
1398 Clouds 16 1008 90 10000 2.57 200 22:38 15.10.2022
1399 Clouds 16 1007 89 10000 2.57 190 21:23 15.10.2022
1400 Rain 17 1007 88 10000 2.06 180 20:23 15.10.2022
1401 Clouds 17 1006 84 10000 4.12 190 18:26 15.10.2022
1402 Clouds 19 1005 71 10000 4.63 180 15:46 15.10.2022
1403 Clouds 19 1006 78 10000 0.89 45 14:21 15.10.2022
1404 Clear 16 1007 88 10000 2.57 190 11:52 15.10.2022
1405 Mist 13 1007 95 5000 0.51 0 10:26 15.10.2022
1406 Fog 11 1007 94 200 0.51 0 08:31 15.10.2022
1407 Clouds 14 1007 94 10000 2.57 250 01:55 15.10.2022
1408 Clouds 14 1007 90 10000 2.06 170 23:31 14.10.2022
1409 Clouds 15 1007 89 10000 2.06 170 22:22 14.10.2022
1410 Clouds 15 1007 90 10000 2.57 160 21:27 14.10.2022
1411 Clouds 15 1007 90 10000 2.57 160 21:27 14.10.2022
1412 Rain 16 1009 82 10000 2.57 160 19:25 14.10.2022
1413 Clouds 17 1010 78 10000 2.57 170 16:26 14.10.2022
1414 Clouds 17 1012 79 10000 3.09 210 13:26 14.10.2022
1415 Clouds 15 1013 85 10000 3.6 220 11:39 14.10.2022
1416 Clouds 13 1014 93 9000 0.51 0 08:59 14.10.2022
1417 Clouds 13 1013 89 10000 2.06 200 06:54 14.10.2022
1418 Clouds 13 1014 92 10000 1.54 200 06:18 14.10.2022
1419 Clouds 13 1014 92 10000 1.54 230 05:42 14.10.2022
1420 Drizzle 13 1015 90 10000 2.06 200 03:43 14.10.2022
1421 Clouds 13 1015 90 10000 1.03 0 23:49 13.10.2022
1422 Rain 13 1016 88 10000 2.06 220 22:21 13.10.2022
1423 Clouds 14 1015 82 10000 4.12 250 21:21 13.10.2022
1424 Clouds 15 1015 80 10000 2.57 190 19:43 13.10.2022
1425 Clouds 15 1015 78 10000 2.06 200 18:53 13.10.2022
1426 Clear 16 1015 73 10000 2.57 210 18:22 13.10.2022
1427 Clouds 17 1015 71 10000 3.6 230 16:28 13.10.2022
1428 Clouds 17 1016 69 10000 5.14 240 15:41 13.10.2022
1429 Clouds 17 1016 71 10000 3.6 230 14:18 13.10.2022
1430 Clouds 16 1017 72 10000 4.12 200 12:44 13.10.2022
1431 Clouds 14 1017 78 10000 2.57 190 11:28 13.10.2022
1432 Clouds 10 1018 90 10000 2.57 160 09:21 13.10.2022
1433 Clear 9 1018 91 10000 2.06 160 07:39 13.10.2022
1434 Clear 8 1019 91 10000 1.03 170 06:28 13.10.2022
1435 Clear 8 1020 88 10000 0.51 0 01:46 13.10.2022
1436 Clear 9 1020 86 10000 1.54 170 00:41 13.10.2022
1437 Clouds 8 1020 87 10000 1.03 90 22:45 12.10.2022
1438 Clouds 8 1021 91 10000 0.51 80 21:51 12.10.2022
1439 Clear 9 1021 90 10000 0 0 21:20 12.10.2022
1440 Clear 10 1021 82 10000 1.54 100 20:39 12.10.2022
1441 Clear 12 1021 75 10000 1.03 0 19:23 12.10.2022
1442 Clear 15 1021 70 10000 1.54 160 18:18 12.10.2022
1443 Clear 15 1021 68 10000 2.57 170 17:42 12.10.2022
1444 Clear 16 1023 56 10000 3.6 160 14:51 12.10.2022
1445 Clear 15 1023 61 10000 4.63 160 13:54 12.10.2022
1446 Clouds 12 1024 79 10000 2.57 100 11:55 12.10.2022
1447 Clear 8 1024 92 10000 1.03 0 09:36 12.10.2022
1448 Clear 4 1025 89 10000 2.06 90 07:42 12.10.2022
1449 Clear 4 1025 89 10000 1.54 100 06:44 12.10.2022
1450 Clear 4 1025 91 10000 1.54 90 05:32 12.10.2022
1451 Clear 6 1026 94 10000 0.51 0 00:32 12.10.2022
1452 Clear 8 1026 92 10000 0.51 0 21:26 11.10.2022
1453 Clear 9 1026 89 10000 0 0 20:32 11.10.2022
1454 Clouds 13 1025 73 10000 1.03 310 18:27 11.10.2022
1455 Clouds 15 1025 59 10000 2.57 330 16:27 11.10.2022
1456 Clear 15 1026 63 10000 4.12 280 13:52 11.10.2022
1457 Clear 12 1026 75 10000 2.57 270 11:32 11.10.2022
1458 Clear 10 1026 85 10000 3.6 260 10:27 11.10.2022
1459 Clear 8 1024 93 10000 2.06 250 08:46 11.10.2022
1460 Clear 8 1023 93 10000 2.57 260 05:25 11.10.2022
1461 Clear 9 1021 93 10000 3.09 250 01:52 11.10.2022
1462 Clear 10 1021 93 10000 2.57 250 00:24 11.10.2022
1463 Clouds 13 1018 93 10000 5.14 300 21:21 10.10.2022
1464 Rain 15 1016 80 8000 7.2 270 19:45 10.10.2022
1465 Clear 17 1014 68 10000 3.6 260 18:25 10.10.2022
1466 Clear 18 1013 56 10000 4.12 270 16:43 10.10.2022
1467 Clouds 18 1014 58 10000 5.66 250 14:46 10.10.2022
1468 Clear 15 1014 63 10000 3.09 190 12:24 10.10.2022
1469 Clear 13 1014 71 10000 3.09 190 10:57 10.10.2022
1470 Clear 7 1015 87 10000 1.54 120 07:47 10.10.2022
1471 Clear 6 1015 88 10000 1.03 90 05:38 10.10.2022
1472 Clear 8 1016 85 10000 2.57 100 02:50 10.10.2022
1473 Clear 9 1018 79 10000 2.57 120 00:25 10.10.2022
1474 Clear 9 1019 80 10000 3.09 120 22:27 09.10.2022
1475 Clear 10 1019 83 10000 2.57 120 21:50 09.10.2022
1476 Rain 10 1020 86 10000 2.06 100 20:54 09.10.2022
1477 Rain 11 1020 80 10000 2.57 90 19:53 09.10.2022
1478 Clear 12 1020 77 10000 2.57 90 19:23 09.10.2022
1479 Clear 14 1020 73 10000 3.09 110 18:29 09.10.2022
1480 Clear 16 1021 55 10000 2.57 160 16:56 09.10.2022
1481 Clear 17 1022 53 10000 3.09 180 16:25 09.10.2022
1482 Clear 17 1022 52 10000 2.57 180 15:36 09.10.2022
1483 Clouds 17 1023 59 10000 3.6 160 14:28 09.10.2022
1484 Clear 15 1025 73 10000 2.06 0 12:57 09.10.2022
1485 Clear 13 1025 80 10000 1.54 140 11:44 09.10.2022
1486 Clear 11 1026 87 10000 1.03 0 10:24 09.10.2022
1487 Fog 6 1025 92 10000 1.03 90 07:57 09.10.2022
1488 Clear 7 1025 89 10000 0.51 0 03:33 09.10.2022
1489 Clear 8 1025 89 10000 1.03 230 02:23 09.10.2022
1490 Clear 9 1024 85 10000 2.57 260 23:56 08.10.2022
1491 Clear 10 1024 85 10000 2.06 250 22:53 08.10.2022
1492 Clear 10 1023 87 10000 2.57 250 21:43 08.10.2022
1493 Clear 11 1022 86 10000 2.99 273 20:25 08.10.2022
1494 Clouds 13 1020 77 10000 4.12 280 18:32 08.10.2022
1495 Clouds 14 1018 74 10000 6.69 270 15:59 08.10.2022
1496 Clouds 14 1019 72 10000 3.6 250 14:42 08.10.2022
1497 Clouds 15 1017 72 10000 6.69 250 12:38 08.10.2022
1498 Clouds 13 1017 86 10000 5.66 260 10:37 08.10.2022
1499 Clouds 12 1016 86 10000 3.6 240 09:52 08.10.2022
1500 Clouds 12 1015 87 10000 3.6 220 08:47 08.10.2022
1501 Clear 10 1015 80 10000 2.06 200 03:52 08.10.2022
1502 Clear 10 1016 84 10000 1.54 180 00:37 08.10.2022
1503 Clear 10 1017 83 10000 1.54 180 23:21 07.10.2022
1504 Clear 10 1017 83 10000 0.51 240 22:41 07.10.2022
1505 Clear 12 1018 82 10000 0.51 0 20:59 07.10.2022
1506 Clear 14 1018 74 10000 1.03 0 19:32 07.10.2022
1507 Clear 17 1018 62 10000 3.09 240 17:47 07.10.2022
1508 Clear 18 1019 54 10000 3.6 240 16:40 07.10.2022
1509 Clouds 18 1020 53 10000 3.6 240 14:55 07.10.2022
1510 Clear 16 1024 61 10000 4.63 210 12:37 07.10.2022
1511 Clear 11 1024 81 10000 1.54 210 09:56 07.10.2022
1512 Clear 9 1024 83 10000 3.09 170 09:19 07.10.2022
1513 Clear 7 1025 87 10000 2.57 170 07:51 07.10.2022
1514 Clear 9 1028 82 10000 2.57 210 01:37 07.10.2022
1515 Clear 10 1029 79 10000 1.03 190 22:51 06.10.2022
1516 Clear 11 1029 79 10000 1.54 190 21:48 06.10.2022
1517 Clear 12 1029 78 10000 1.54 230 21:25 06.10.2022
1518 Clear 13 1029 75 10000 2.06 210 20:30 06.10.2022
1519 Clear 15 1028 71 10000 2.57 250 18:39 06.10.2022
1520 Clear 16 1028 67 10000 4.12 250 18:19 06.10.2022
1521 Clouds 17 1028 54 10000 6.17 260 15:33 06.10.2022
1522 Clouds 16 1027 63 10000 5.66 270 11:45 06.10.2022
1523 Clouds 13 1023 82 10000 5.14 260 07:55 06.10.2022
1524 Clouds 14 1019 89 10000 4.63 250 03:38 06.10.2022
1525 Clouds 18 1016 76 10000 7.2 240 00:39 06.10.2022
1526 Clouds 17 1014 75 10000 3.6 230 21:41 05.10.2022
1527 Clear 17 1013 75 10000 2.57 180 19:30 05.10.2022
1528 Clear 19 1013 69 10000 3.6 210 17:36 05.10.2022
1529 Clouds 19 1013 62 10000 5.14 220 16:20 05.10.2022
1530 Clouds 19 1015 68 10000 7.2 230 14:48 05.10.2022
1531 Clouds 19 1015 71 10000 6.69 210 14:19 05.10.2022
1532 Clouds 18 1015 70 10000 6.69 210 14:19 05.10.2022
1533 Clouds 16 1016 77 10000 5.14 230 12:25 05.10.2022
1534 Clouds 14 1016 83 10000 4.12 190 09:39 05.10.2022
1535 Clear 12 1016 85 10000 3.09 190 07:44 05.10.2022
1536 Clear 12 1016 83 10000 3.09 190 06:21 05.10.2022
1537 Clear 13 1017 82 10000 2.57 190 04:27 05.10.2022
1538 Clear 13 1018 80 10000 2.06 210 00:53 05.10.2022
1539 Clear 13 1018 80 10000 2.57 180 00:27 05.10.2022
1540 Clear 13 1018 84 10000 2.57 200 22:39 04.10.2022
1541 Clear 14 1018 79 10000 2.57 180 20:39 04.10.2022
1542 Clear 17 1018 67 10000 2.06 180 18:59 04.10.2022
1543 Clear 17 1018 75 10000 2.06 180 18:38 04.10.2022
1544 Clear 18 1018 72 10000 4.12 200 17:48 04.10.2022
1545 Clear 19 1018 60 10000 3.09 190 16:35 04.10.2022
1546 Clear 17 1021 68 10000 3.09 220 12:58 04.10.2022
1547 Clear 12 1021 89 10000 1.03 0 09:46 04.10.2022
1548 Clear 10 1021 90 10000 0.51 0 07:24 04.10.2022
1549 Clear 10 1023 92 10000 1.54 250 02:27 04.10.2022
1550 Clear 11 1024 90 10000 2.06 260 23:41 03.10.2022
1551 Clear 12 1024 86 10000 2.57 250 21:53 03.10.2022
1552 Clouds 13 1023 80 10000 3.09 260 21:23 03.10.2022
1553 Clouds 14 1024 82 10000 3.09 260 20:19 03.10.2022
1554 Clouds 15 1024 76 10000 3.6 270 18:28 03.10.2022
1555 Clear 17 1024 73 10000 5.14 270 17:25 03.10.2022
1556 Clouds 17 1024 75 10000 6.17 280 15:47 03.10.2022
1557 Clouds 16 1025 77 10000 5.14 290 14:20 03.10.2022
1558 Clouds 15 1024 77 10000 4.12 270 12:30 03.10.2022
1559 Clear 13 1025 86 10000 5.14 280 10:39 03.10.2022
1560 Clouds 12 1024 90 10000 4.12 270 09:38 03.10.2022
1561 Drizzle 10 1023 92 10000 4.12 280 06:35 03.10.2022
1562 Clouds 10 1022 92 10000 3.6 280 03:34 03.10.2022
1563 Clear 11 1020 89 10000 2.57 270 22:39 02.10.2022
1564 Clouds 12 1018 90 10000 4.12 270 20:52 02.10.2022
1565 Clear 13 1016 90 10000 2.57 260 18:47 02.10.2022
1566 Clouds 14 1016 91 10000 2.57 270 17:53 02.10.2022
1567 Clouds 16 1015 82 10000 4.12 270 16:44 02.10.2022
1568 Clouds 16 1015 80 10000 5.14 270 16:18 02.10.2022
1569 Clouds 15 1014 83 10000 4.63 280 14:52 02.10.2022
1570 Rain 16 1014 75 10000 7.2 280 13:45 02.10.2022
1571 Clouds 16 1014 72 10000 6.69 270 12:30 02.10.2022
1572 Clouds 15 1014 79 10000 6.69 260 11:41 02.10.2022
1573 Clouds 15 1014 81 10000 5.66 270 11:21 02.10.2022
1574 Clear 13 1013 91 10000 4.63 250 09:29 02.10.2022
1575 Clouds 12 1013 92 10000 4.12 250 07:41 02.10.2022
1576 Clouds 12 1012 88 10000 5.14 250 02:55 02.10.2022
1577 Clouds 11 1011 90 10000 3.09 250 00:50 02.10.2022
1578 Clear 11 1011 90 10000 4.12 260 00:22 02.10.2022
1579 Clear 11 1009 89 10000 4.63 250 22:53 01.10.2022
1580 Clouds 12 1008 88 10000 4.63 260 20:54 01.10.2022
1581 Clear 13 1005 88 10000 4.63 260 18:51 01.10.2022
1582 Rain 14 1004 76 10000 5.66 270 16:42 01.10.2022
1583 Clouds 16 1002 78 10000 7.72 250 14:42 01.10.2022
1584 Clouds 14 1002 85 10000 6.17 240 13:32 01.10.2022
1585 Clouds 13 1001 89 10000 5.66 230 12:33 01.10.2022
1586 Clouds 11 1002 91 7000 5.66 210 11:21 01.10.2022
1587 Clouds 11 1001 91 10000 5.66 200 10:32 01.10.2022
1588 Drizzle 10 1001 92 10000 5.66 190 09:55 01.10.2022
1589 Rain 10 1002 90 10000 7.72 190 08:58 01.10.2022
1590 Rain 11 1004 77 10000 4.63 170 05:47 01.10.2022
1591 Clear 11 1006 78 10000 2.06 150 03:34 01.10.2022
1592 Clear 11 1007 79 10000 4.12 190 01:21 01.10.2022
1593 Clear 10 1009 78 10000 3.09 180 22:55 30.09.2022
1594 Clear 11 1009 78 10000 2.06 160 21:31 30.09.2022
1595 Clear 11 1009 82 10000 2.06 180 20:44 30.09.2022
1596 Clear 12 1009 82 10000 2.06 190 20:18 30.09.2022
1597 Clear 16 1009 54 10000 3.6 210 17:38 30.09.2022
1598 Clouds 17 1009 53 10000 3.09 230 16:25 30.09.2022
1599 Clouds 15 1010 59 10000 4.63 240 13:40 30.09.2022
1600 Clear 14 1010 67 10000 2.57 220 11:59 30.09.2022
1601 Clear 13 1010 71 10000 2.57 210 11:31 30.09.2022
1602 Clear 7 1009 91 10000 0 0 08:37 30.09.2022
1603 Fog 6 1008 92 7000 0.51 0 06:27 30.09.2022
1604 Clouds 8 1007 89 10000 1.03 0 02:42 30.09.2022
1605 Clouds 9 1006 84 10000 0.51 220 23:47 29.09.2022
1606 Clear 10 1005 78 10000 0.51 360 21:29 29.09.2022
1607 Clear 9 1004 87 10000 0.51 140 20:59 29.09.2022
1608 Clear 13 1003 74 10000 1.54 260 18:45 29.09.2022
1609 Clouds 15 1002 61 10000 2.57 270 17:32 29.09.2022
1610 Clear 15 1002 61 10000 2.57 270 16:28 29.09.2022
1611 Clear 15 1002 68 10000 2.57 240 15:36 29.09.2022
1612 Clear 14 1002 65 10000 2.06 240 14:35 29.09.2022
1613 Clouds 12 1002 79 10000 3.09 250 11:48 29.09.2022
1614 Fog 6 1000 93 7000 1.03 0 07:26 29.09.2022
1615 Fog 7 999 90 1100 0 0 02:52 29.09.2022
1616 Clear 8 999 94 10000 0.51 210 23:56 28.09.2022
1617 Clear 8 999 94 10000 0.51 210 23:56 28.09.2022
1618 Clear 7 999 97 10000 0.51 0 22:58 28.09.2022
1619 Clouds 8 999 95 10000 0.51 240 21:30 28.09.2022
1620 Clouds 8 999 95 10000 0.51 240 21:30 28.09.2022
1621 Fog 8 998 94 10000 1.03 220 20:25 28.09.2022
1622 Clouds 10 997 87 10000 1.54 280 18:42 28.09.2022
1623 Clouds 10 996 88 10000 2.06 260 15:32 28.09.2022
1624 Clouds 9 995 90 10000 2.06 270 13:27 28.09.2022
1625 Mist 9 995 93 3700 2.57 310 11:18 28.09.2022
1626 Rain 8 994 94 7000 2.57 340 09:18 28.09.2022
1627 Rain 8 994 94 7000 2.06 70 07:20 28.09.2022
1628 Drizzle 8 994 92 10000 1.03 170 04:34 28.09.2022
1629 Clouds 8 996 94 10000 1.54 190 01:36 28.09.2022
1630 Clouds 8 996 93 10000 1.03 0 23:27 27.09.2022
1631 Clear 9 996 94 10000 2.06 220 21:47 27.09.2022
1632 Clouds 9 996 94 10000 3.09 240 20:44 27.09.2022
1633 Rain 9 996 94 10000 2.06 220 19:48 27.09.2022
1634 Rain 9 996 94 10000 2.06 240 18:45 27.09.2022
1635 Rain 10 995 91 10000 3.09 240 17:45 27.09.2022
1636 Rain 11 995 85 10000 4.63 250 15:58 27.09.2022
1637 Rain 11 995 79 10000 5.14 250 14:58 27.09.2022
1638 Rain 12 995 84 10000 5.66 270 12:53 27.09.2022
1639 Clouds 12 994 83 10000 7.2 260 12:21 27.09.2022
1640 Clouds 10 993 93 10000 4.63 270 09:34 27.09.2022
1641 Rain 10 992 95 10000 3.6 270 06:56 27.09.2022
1642 Clouds 10 993 93 10000 3.09 190 02:41 27.09.2022
1643 Rain 10 993 90 10000 3.6 190 01:35 27.09.2022
1644 Rain 11 994 86 10000 3.09 190 23:35 26.09.2022
1645 Rain 11 995 86 10000 3.6 190 22:40 26.09.2022
1646 Drizzle 12 996 78 10000 4.63 200 20:46 26.09.2022
1647 Clouds 12 996 78 10000 4.63 200 19:32 26.09.2022
1648 Drizzle 12 997 83 10000 4.63 190 18:32 26.09.2022
1649 Rain 13 999 78 10000 4.12 200 16:36 26.09.2022
1650 Drizzle 13 1000 77 10000 5.14 220 14:37 26.09.2022
1651 Rain 15 1002 71 10000 4.63 220 11:30 26.09.2022
1652 Clouds 13 1002 71 10000 5.14 220 10:39 26.09.2022
1653 Clear 13 1002 71 10000 4.63 210 10:20 26.09.2022
1654 Clear 12 1003 80 10000 4.12 200 09:55 26.09.2022
1655 Clouds 12 1003 78 10000 3.09 200 09:24 26.09.2022
1656 Clear 11 1003 78 10000 3.6 200 08:57 26.09.2022
1657 Clear 9 1008 88 10000 1.03 0 02:57 26.09.2022
1658 Clear 10 1010 88 10000 1.03 190 23:57 25.09.2022
1659 Clouds 11 1010 85 10000 1.03 0 22:45 25.09.2022
1660 Clouds 11 1010 93 10000 0.51 0 21:35 25.09.2022
1661 Clear 11 1010 89 10000 0.51 230 20:48 25.09.2022
1662 Clear 13 1011 86 10000 1.54 290 19:43 25.09.2022
1663 Clear 14 1011 86 10000 3.09 300 18:43 25.09.2022
1664 Clear 15 1010 80 10000 2.57 300 18:20 25.09.2022
1665 Clouds 16 1011 75 10000 5.14 300 16:45 25.09.2022
1666 Clouds 16 1012 63 10000 3.09 330 15:45 25.09.2022
1667 Clouds 15 1011 75 10000 3.6 310 14:29 25.09.2022
1668 Drizzle 14 1012 89 10000 3.6 290 12:57 25.09.2022
1669 Clouds 12 1012 92 10000 3.6 280 10:36 25.09.2022
1670 Clouds 12 1012 96 10000 2.57 270 08:24 25.09.2022
1671 Drizzle 12 1012 96 4000 3.6 280 05:47 25.09.2022
1672 Mist 12 1012 96 2100 2.57 260 02:57 25.09.2022
1673 Rain 13 1012 92 10000 1.54 230 22:35 24.09.2022
1674 Rain 13 1012 94 10000 2.06 200 20:55 24.09.2022
1675 Rain 14 1012 91 9000 2.06 200 19:23 24.09.2022
1676 Rain 14 1012 93 10000 3.09 200 17:49 24.09.2022
1677 Drizzle 15 1012 89 10000 3.09 220 16:25 24.09.2022
1678 Rain 15 1012 86 10000 3.09 220 15:20 24.09.2022
1679 Rain 15 1013 77 10000 2.06 170 13:25 24.09.2022
1680 Rain 14 1013 82 10000 2.06 160 12:50 24.09.2022
1681 Rain 13 1012 86 10000 1.03 0 10:54 24.09.2022
1682 Clouds 12 1012 93 10000 0.51 0 09:40 24.09.2022
1683 Rain 12 1012 88 10000 1.03 0 08:43 24.09.2022
1684 Rain 12 1012 88 10000 1.03 0 08:43 24.09.2022
1685 Rain 12 1011 89 10000 0.51 0 07:24 24.09.2022
1686 Rain 13 1012 84 10000 1.03 0 04:40 24.09.2022
1687 Clear 13 1012 80 10000 0.51 240 02:19 24.09.2022
1688 Rain 14 1013 79 10000 0.51 0 22:28 23.09.2022
1689 Rain 14 1014 78 10000 0.51 90 21:28 23.09.2022
1690 Rain 15 1014 78 10000 0.51 80 20:56 23.09.2022
1691 Rain 16 1014 68 10000 1.54 160 20:20 23.09.2022
1692 Clear 17 1014 61 10000 1.03 0 18:27 23.09.2022
1693 Clear 19 1015 48 10000 3.09 190 13:45 23.09.2022
1694 Clear 14 1017 69 10000 2.57 160 10:27 23.09.2022
1695 Clear 11 1017 78 10000 1.54 140 09:29 23.09.2022
1696 Clear 9 1018 78 10000 2.57 160 04:59 23.09.2022
1697 Clear 10 1020 81 10000 1.54 110 23:31 22.09.2022
1698 Clear 11 1020 79 10000 1.54 100 22:41 22.09.2022
1699 Clear 11 1020 78 10000 2.06 110 22:19 22.09.2022
1700 Clear 13 1020 76 10000 1.54 120 20:45 22.09.2022
1701 Clear 15 1020 64 10000 1.54 150 19:23 22.09.2022
1702 Clear 18 1021 48 10000 3.6 190 16:53 22.09.2022
1703 Clear 15 1024 72 10000 1.54 120 11:36 22.09.2022
1704 Clear 12 1024 86 10000 1.03 0 10:20 22.09.2022
1705 Clear 8 1024 92 10000 0.51 0 08:39 22.09.2022
1706 Clear 6 1023 86 10000 0 0 06:27 22.09.2022
1707 Mist 7 1025 83 10000 0.51 30 02:39 22.09.2022
1708 Clear 10 1025 82 10000 0 0 22:32 21.09.2022
1709 Clear 10 1025 91 10000 0 0 21:38 21.09.2022
1710 Clear 14 1025 77 10000 0.51 360 19:36 21.09.2022
1711 Clear 16 1025 54 10000 1.54 290 17:46 21.09.2022
1712 Clouds 18 1025 45 10000 2.57 300 16:22 21.09.2022
1713 Clear 16 1027 52 10000 1.54 0 13:57 21.09.2022
1714 Clear 14 1027 67 10000 2.06 280 12:19 21.09.2022
1715 Clear 13 1027 79 10000 1.54 270 11:28 21.09.2022
1716 Clear 9 1027 91 10000 1.54 260 09:47 21.09.2022
1717 Fog 7 1026 91 250 0.51 260 08:53 21.09.2022
1718 Fog 6 1026 92 500 1.03 0 06:20 21.09.2022
1719 Fog 7 1025 91 500 1.03 0 02:44 21.09.2022
1720 Fog 8 1025 91 450 1.03 250 02:20 21.09.2022
1721 Mist 9 1025 90 10000 1.03 280 00:26 21.09.2022
1722 Clear 10 1024 91 10000 0.51 0 22:30 20.09.2022
1723 Clear 11 1023 90 10000 1.54 240 20:37 20.09.2022
1724 Clouds 13 1022 82 10000 3.09 280 19:24 20.09.2022
1725 Clouds 14 1022 66 10000 5.14 300 15:58 20.09.2022
1726 Clouds 15 1021 72 10000 3.6 300 14:34 20.09.2022
1727 Clouds 14 1021 84 10000 3.09 280 12:45 20.09.2022
1728 Clouds 10 1020 96 10000 2.57 270 08:51 20.09.2022
1729 Clouds 9 1020 94 10000 3.6 280 08:25 20.09.2022
1730 Clouds 9 1018 94 10000 4.12 280 04:44 20.09.2022
1731 Clouds 9 1018 91 10000 2.06 260 02:37 20.09.2022
1732 Clouds 10 1018 93 10000 2.57 260 22:50 19.09.2022
1733 Clear 10 1018 91 10000 3.6 270 21:38 19.09.2022
1734 Clear 11 1017 93 10000 4.12 270 20:45 19.09.2022
1735 Clouds 12 1017 90 10000 2.06 250 19:27 19.09.2022
1736 Rain 13 1016 87 10000 2.06 270 17:39 19.09.2022
1737 Clouds 16 1015 79 10000 5.14 270 13:56 19.09.2022
1738 Rain 16 1015 79 10000 4.12 290 12:48 19.09.2022
1739 Clouds 13 1015 84 10000 4.63 270 10:31 19.09.2022
1740 Clouds 10 1013 92 10000 4.12 280 08:42 19.09.2022
1741 Clouds 10 1011 92 10000 4.63 280 04:39 19.09.2022
1742 Clouds 10 1010 92 10000 4.63 300 01:53 19.09.2022
1743 Clouds 10 1008 89 10000 5.66 280 23:22 18.09.2022
1744 Rain 10 1008 89 10000 5.14 270 21:32 18.09.2022
1745 Clouds 11 1007 84 10000 5.66 290 19:58 18.09.2022
1746 Rain 11 1008 83 10000 3.6 260 17:53 18.09.2022
1747 Rain 11 1008 75 10000 9.26 310 16:59 18.09.2022
1748 Clouds 12 1008 79 10000 8.23 280 14:52 18.09.2022
1749 Clouds 13 1009 76 10000 8.23 270 13:46 18.09.2022
1750 Clouds 13 1009 77 10000 7.2 270 12:33 18.09.2022
1751 Rain 12 1009 77 10000 6.69 270 10:44 18.09.2022
1752 Clouds 10 1010 86 10000 5.14 270 03:37 18.09.2022
1753 Clear 9 1009 89 10000 3.6 270 01:23 18.09.2022
1754 Drizzle 10 1009 85 10000 6.69 280 23:59 17.09.2022
1755 Drizzle 11 1009 90 10000 4.63 280 21:35 17.09.2022
1756 Rain 11 1008 89 10000 6.69 290 19:40 17.09.2022
1757 Rain 11 1007 87 10000 7.2 290 18:46 17.09.2022
1758 Rain 11 1008 88 10000 4.12 280 15:51 17.09.2022
1759 Rain 15 1008 53 10000 9.77 290 13:38 17.09.2022
1760 Clear 13 1008 68 10000 6.17 270 10:56 17.09.2022
1761 Clear 11 1008 89 10000 5.66 270 08:34 17.09.2022
1762 Clouds 11 1007 91 10000 4.63 270 06:24 17.09.2022
1763 Rain 11 1006 92 10000 6.17 270 23:57 16.09.2022
1764 Rain 11 1005 92 10000 6.69 270 22:51 16.09.2022
1765 Rain 12 1005 88 10000 7.2 270 20:54 16.09.2022
1766 Rain 13 1005 78 10000 10.8 290 19:50 16.09.2022
1767 Clear 16 1005 67 10000 8.23 260 16:30 16.09.2022
1768 Rain 17 1005 52 10000 7.72 270 14:53 16.09.2022
1769 Clouds 17 1006 61 10000 7.2 280 13:42 16.09.2022
1770 Clouds 15 1006 66 10000 6.69 270 10:46 16.09.2022
1771 Clouds 12 1006 85 10000 4.63 270 08:19 16.09.2022
1772 Clouds 11 1006 94 10000 5.14 250 06:48 16.09.2022
1773 Clouds 12 1006 88 10000 4.63 260 05:58 16.09.2022
1774 Clear 11 1007 88 10000 4.63 260 02:35 16.09.2022
1775 Clouds 13 1006 84 10000 5.14 270 22:20 15.09.2022
1776 Clouds 14 1006 80 10000 4.63 270 20:39 15.09.2022
1777 Clouds 15 1005 72 10000 3.6 270 19:45 15.09.2022
1778 Clouds 17 1005 63 10000 5.14 290 18:26 15.09.2022
1779 Clear 18 1005 58 10000 6.17 280 17:29 15.09.2022
1780 Clouds 18 1005 62 10000 6.69 280 15:49 15.09.2022
1781 Clouds 18 1005 63 10000 5.66 280 12:51 15.09.2022
1782 Clouds 16 1005 71 10000 6.17 260 11:48 15.09.2022
1783 Clouds 14 1004 87 10000 3.09 260 09:46 15.09.2022
1784 Clouds 13 1004 89 10000 2.57 260 07:45 15.09.2022
1785 Clear 12 1004 92 10000 2.57 260 03:48 15.09.2022
1786 Clouds 14 1004 88 10000 2.06 260 23:30 14.09.2022
1787 Clear 15 1003 83 10000 0 0 20:47 14.09.2022
1788 Clear 17 1003 77 10000 1.03 0 19:33 14.09.2022
1789 Clear 18 1003 68 10000 1.03 0 17:48 14.09.2022
1790 Clear 18 1004 66 10000 1.54 300 16:37 14.09.2022
1791 Rain 19 1004 66 10000 2.06 300 15:27 14.09.2022
1792 Clouds 19 1005 68 10000 1.54 280 12:50 14.09.2022
1793 Clear 15 1005 78 10000 1.03 0 09:53 14.09.2022
1794 Clear 13 1006 89 10000 0.51 0 08:38 14.09.2022
1795 Clear 13 1006 89 10000 0.51 0 08:38 14.09.2022
1796 Clear 11 1006 92 10000 0.51 0 06:50 14.09.2022
1797 Clear 12 1006 88 10000 0.51 360 06:29 14.09.2022
1798 Clear 12 1007 92 10000 0.51 0 02:58 14.09.2022
1799 Clear 13 1008 92 10000 0.51 190 01:36 14.09.2022
1800 Clear 13 1008 86 10000 0.51 200 00:53 14.09.2022
1801 Clear 14 1008 87 10000 0.51 240 23:55 13.09.2022
1802 Clear 14 1008 87 10000 0.51 240 23:36 13.09.2022
1803 Clouds 14 1008 90 10000 1.79 330 23:18 13.09.2022
1804 Clear 16 1008 81 10000 0.51 0 22:28 13.09.2022
1805 Clear 16 1008 84 10000 1.54 330 21:38 13.09.2022
1806 Clouds 20 1007 75 10000 3.6 300 18:56 13.09.2022
1807 Clear 21 1007 71 10000 4.63 270 16:39 13.09.2022
1808 Clouds 20 1008 79 10000 3.6 290 15:19 13.09.2022
1809 Clouds 20 1008 81 10000 3.09 280 13:40 13.09.2022
1810 Clouds 18 1008 84 10000 2.57 280 10:30 13.09.2022
1811 Clouds 16 1008 87 10000 0.51 0 07:56 13.09.2022
1812 Clear 16 1009 76 10000 2.57 170 02:22 13.09.2022
1813 Clear 17 1011 74 10000 1.54 160 23:22 12.09.2022
1814 Clear 17 1011 77 10000 0.51 0 22:40 12.09.2022
1815 Clear 18 1012 77 10000 1.54 120 21:21 12.09.2022
1816 Clear 20 1012 75 10000 1.54 150 19:58 12.09.2022
1817 Clear 22 1013 56 10000 2.57 220 18:24 12.09.2022
1818 Clouds 23 1014 49 10000 2.57 160 15:50 12.09.2022
1819 Clear 21 1016 64 10000 2.06 190 12:30 12.09.2022
1820 Clear 18 1017 83 10000 1.03 0 10:30 12.09.2022
1821 Fog 12 1017 88 1300 0.51 100 07:33 12.09.2022
1822 Fog 12 1017 86 450 0.51 0 04:36 12.09.2022
1823 Fog 13 1018 86 1600 0.51 0 02:24 12.09.2022
1824 Clear 15 1018 90 10000 1.03 0 22:46 11.09.2022
1825 Clear 16 1017 79 10000 0.51 210 21:27 11.09.2022
1826 Clouds 17 1017 80 10000 0 0 20:44 11.09.2022
1827 Clear 18 1017 80 10000 1.54 230 19:39 11.09.2022
1828 Clouds 19 1017 76 10000 1.54 230 19:18 11.09.2022
1829 Clouds 21 1017 64 10000 4.12 300 17:28 11.09.2022
1830 Clouds 20 1018 71 10000 3.6 290 15:51 11.09.2022
1831 Clouds 18 1019 82 10000 3.6 280 13:26 11.09.2022
1832 Clouds 17 1018 88 10000 2.06 330 11:25 11.09.2022
1833 Mist 14 1017 95 5000 2.06 330 08:25 11.09.2022
1834 Fog 14 1016 96 600 2.06 330 05:30 11.09.2022
1835 Clear 15 1013 93 10000 0.51 0 23:51 10.09.2022
1836 Clouds 17 1013 91 10000 1.03 0 22:22 10.09.2022
1837 Clouds 18 1012 89 10000 0.51 330 20:33 10.09.2022
1838 Clouds 19 1012 68 10000 0.51 0 19:43 10.09.2022
1839 Clear 19 1011 74 10000 1.03 0 19:25 10.09.2022
1840 Clouds 20 1011 63 10000 1.54 240 17:27 10.09.2022
1841 Clouds 20 1011 60 10000 2.57 190 15:35 10.09.2022
1842 Clouds 20 1011 68 10000 2.06 210 13:36 10.09.2022
1843 Clouds 20 1011 72 10000 3.09 200 12:30 10.09.2022
1844 Clouds 18 1011 75 10000 2.57 200 10:31 10.09.2022
1845 Clouds 15 1010 90 10000 2.06 190 08:41 10.09.2022
1846 Clouds 15 1010 92 10000 2.06 190 08:20 10.09.2022
1847 Clear 14 1010 93 10000 0.51 0 03:48 10.09.2022
1848 Clouds 15 1010 91 10000 1.03 0 23:36 09.09.2022
1849 Clouds 15 1010 90 10000 1.03 0 22:36 09.09.2022
1850 Clouds 17 1009 89 10000 1.54 120 20:57 09.09.2022
1851 Mist 18 1009 87 5000 2.57 180 20:19 09.09.2022
1852 Clear 20 1008 78 10000 3.09 90 19:22 09.09.2022
1853 Clouds 21 1008 77 10000 1.54 150 17:19 09.09.2022
1854 Clouds 19 1010 66 10000 3.09 190 14:47 09.09.2022
1855 Rain 20 1008 67 10000 3.6 210 13:19 09.09.2022
1856 Clear 19 1009 80 10000 4.12 200 10:41 09.09.2022
1857 Clear 14 1008 91 10000 2.06 160 07:25 09.09.2022
1858 Clear 14 1008 90 10000 1.54 150 03:34 09.09.2022
1859 Clouds 16 1008 92 10000 1.54 140 22:34 08.09.2022
1860 Rain 16 1008 93 10000 1.54 150 21:51 08.09.2022
1861 Mist 16 1008 92 7000 1.03 0 20:46 08.09.2022
1862 Clear 16 1008 90 10000 1.54 150 20:24 08.09.2022
1863 Clouds 18 1008 89 10000 1.54 320 18:34 08.09.2022
1864 Rain 17 1008 94 10000 3.09 300 16:49 08.09.2022
1865 Rain 17 1007 94 10000 2.57 270 14:50 08.09.2022
1866 Rain 18 1007 93 10000 2.57 280 13:27 08.09.2022
1867 Rain 18 1007 90 10000 4.12 260 12:35 08.09.2022
1868 Rain 18 1007 89 9000 2.57 110 10:59 08.09.2022
1869 Rain 16 1007 95 8000 2.57 100 09:26 08.09.2022
1870 Clouds 15 1007 95 7000 2.06 60 06:43 08.09.2022
1871 Mist 16 1009 95 10000 1.54 90 03:18 08.09.2022
1872 Clear 16 1010 93 10000 0.51 0 02:36 08.09.2022
1873 Clear 17 1010 90 10000 0.51 0 02:18 08.09.2022
1874 Clouds 19 1011 84 10000 2.57 80 22:55 07.09.2022
1875 Clear 21 1011 87 10000 1.54 90 21:43 07.09.2022
1876 Clear 21 1011 87 10000 2.57 340 21:20 07.09.2022
1877 Clear 22 1011 79 10000 2.06 310 20:19 07.09.2022
1878 Clear 26 1010 55 10000 3.09 300 18:40 07.09.2022
1879 Clouds 27 1011 49 10000 2.06 0 15:21 07.09.2022
1880 Clouds 21 1013 83 10000 2.06 160 10:51 07.09.2022
1881 Clear 20 1013 85 10000 1.54 180 10:30 07.09.2022
1882 Rain 17 1013 89 9000 1.03 0 07:43 07.09.2022
1883 Clear 17 1012 85 10000 3.09 100 04:46 07.09.2022
1884 Clear 17 1013 83 10000 3.09 100 00:26 07.09.2022
1885 Clear 19 1014 78 10000 4.12 80 21:47 06.09.2022
1886 Clear 19 1014 76 10000 4.12 80 21:27 06.09.2022
1887 Clear 23 1014 61 10000 5.66 70 19:22 06.09.2022
1888 Clear 25 1014 53 10000 5.66 70 18:27 06.09.2022
1889 Clear 25 1015 51 10000 5.66 80 17:23 06.09.2022
1890 Clear 24 1016 50 10000 5.14 80 16:40 06.09.2022
1891 Clear 23 1016 57 10000 4.12 90 15:23 06.09.2022
1892 Clear 23 1016 57 10000 4.12 90 15:23 06.09.2022
1893 Clear 21 1017 59 10000 5.66 100 13:46 06.09.2022
1894 Clouds 20 1016 63 10000 5.66 90 13:25 06.09.2022
1895 Clouds 19 1017 66 10000 6.17 100 12:37 06.09.2022
1896 Clouds 17 1018 80 10000 4.12 110 10:46 06.09.2022
1897 Clouds 17 1018 77 10000 3.09 120 08:54 06.09.2022
1898 Clear 17 1017 78 10000 6.17 100 07:51 06.09.2022
1899 Rain 18 1017 82 10000 6.17 100 04:48 06.09.2022
1900 Clear 20 1019 70 10000 4.63 90 23:42 05.09.2022
1901 Clear 22 1019 61 10000 5.66 100 22:30 05.09.2022
1902 Clear 24 1019 46 10000 6.17 90 20:52 05.09.2022
1903 Clear 26 1019 41 10000 7.2 90 19:50 05.09.2022
1904 Clear 27 1019 39 10000 6.69 90 18:49 05.09.2022
1905 Clear 27 1019 46 10000 4.63 100 18:22 05.09.2022
1906 Clear 28 1019 44 10000 5.14 100 16:53 05.09.2022
1907 Clear 28 1019 43 10000 4.12 120 15:50 05.09.2022
1908 Clear 26 1020 48 10000 4.63 110 13:26 05.09.2022
1909 Clear 24 1021 52 10000 3.6 130 12:28 05.09.2022
1910 Clear 20 1022 65 10000 3.6 100 10:18 05.09.2022
1911 Clear 17 1021 71 10000 3.6 100 06:42 05.09.2022
1912 Clear 18 1021 65 10000 3.6 90 02:42 05.09.2022
1913 Clear 20 1020 60 10000 3.6 100 23:26 04.09.2022
1914 Clear 21 1020 59 10000 3.6 80 22:27 04.09.2022
1915 Clear 21 1020 58 10000 3.09 80 21:32 04.09.2022
1916 Clear 25 1019 48 10000 4.63 90 19:38 04.09.2022
1917 Clear 26 1019 43 10000 3.6 80 18:20 04.09.2022
1918 Clear 27 1019 41 10000 2.57 110 16:56 04.09.2022
1919 Clear 26 1018 40 10000 4.12 100 14:33 04.09.2022
1920 Clear 25 1019 43 10000 5.14 90 13:49 04.09.2022
1921 Clear 21 1019 53 10000 4.12 90 11:54 04.09.2022
1922 Clear 20 1019 56 10000 4.63 100 10:47 04.09.2022
1923 Clear 14 1018 70 10000 3.09 90 08:20 04.09.2022
1924 Clear 13 1017 72 10000 3.6 90 05:35 04.09.2022
1925 Clear 16 1016 62 10000 3.6 90 00:50 04.09.2022
1926 Clear 18 1015 52 10000 3.09 70 22:24 03.09.2022
1927 Clear 19 1015 46 10000 3.6 80 21:23 03.09.2022
1928 Clear 22 1013 39 10000 5.66 100 19:42 03.09.2022
1929 Clear 24 1013 35 10000 5.14 100 17:28 03.09.2022
1930 Clear 25 1013 34 10000 5.66 100 16:31 03.09.2022
1931 Clear 24 1014 35 10000 6.69 100 14:45 03.09.2022
1932 Clear 24 1014 35 10000 5.66 120 14:22 03.09.2022
1933 Clear 22 1014 39 10000 7.72 100 12:32 03.09.2022
1934 Clear 19 1015 51 10000 6.17 90 10:49 03.09.2022
1935 Clear 15 1015 61 10000 4.63 90 08:29 03.09.2022
1936 Clear 15 1015 61 10000 4.63 90 08:29 03.09.2022
1937 Clear 13 1015 78 10000 3.6 90 06:58 03.09.2022
1938 Clear 14 1015 71 10000 3.6 100 04:34 03.09.2022
1939 Clear 16 1016 58 10000 2.57 100 00:32 03.09.2022
1940 Clear 17 1016 52 10000 3.09 110 23:20 02.09.2022
1941 Clear 20 1015 45 10000 5.14 100 20:59 02.09.2022
1942 Clear 20 1015 44 10000 5.14 100 20:39 02.09.2022
1943 Clear 22 1015 39 10000 6.69 90 19:30 02.09.2022
1944 Clear 23 1015 38 10000 6.69 100 18:36 02.09.2022
1945 Clear 23 1015 37 10000 8.75 90 17:53 02.09.2022
1946 Clear 24 1016 37 10000 4.63 120 16:48 02.09.2022
1947 Clear 24 1017 36 10000 5.14 110 14:33 02.09.2022
1948 Clear 22 1018 40 10000 6.69 100 12:39 02.09.2022
1949 Clear 19 1019 61 10000 4.12 90 10:22 02.09.2022
1950 Clear 18 1019 65 10000 4.12 100 09:40 02.09.2022
1951 Clear 12 1019 87 10000 3.09 90 07:32 02.09.2022
1952 Clear 11 1019 85 10000 3.09 90 06:38 02.09.2022
1953 Clear 13 1020 83 10000 1.54 70 02:52 02.09.2022
1954 Clear 16 1020 62 10000 2.57 60 22:30 01.09.2022
1955 Clouds 17 1020 63 10000 3.31 93 21:43 01.09.2022
1956 Clear 18 1020 54 10000 3.09 90 21:25 01.09.2022
1957 Clear 19 1020 49 10000 3.09 90 20:43 01.09.2022
1958 Clear 22 1020 38 10000 3.09 110 18:54 01.09.2022
1959 Clear 23 1020 37 10000 5.14 50 17:22 01.09.2022
1960 Clear 23 1021 39 10000 2.57 120 15:56 01.09.2022
1961 Clear 23 1022 36 10000 5.14 80 14:22 01.09.2022
1962 Clear 22 1022 39 10000 5.14 100 12:58 01.09.2022
1963 Clear 20 1023 46 10000 4.12 90 11:52 01.09.2022
1964 Clear 20 1023 48 10000 4.63 90 11:31 01.09.2022
1965 Clear 18 1023 59 10000 4.63 100 10:19 01.09.2022
1966 Clear 13 1022 80 10000 2.57 90 07:51 01.09.2022
1967 Clear 12 1022 82 10000 2.57 80 06:22 01.09.2022
1968 Clear 14 1022 80 10000 2.06 70 01:32 01.09.2022
1969 Clear 16 1022 65 10000 2.57 60 23:29 31.08.2022
1970 Clear 18 1022 54 10000 1.54 70 21:30 31.08.2022
1971 Clear 21 1021 44 10000 4.12 70 19:46 31.08.2022
1972 Clear 22 1021 42 10000 5.14 80 18:18 31.08.2022
1973 Clear 23 1022 38 10000 4.63 90 15:45 31.08.2022
1974 Clouds 22 1023 43 10000 5.66 80 13:57 31.08.2022
1975 Clouds 20 1023 56 10000 6.17 80 12:20 31.08.2022
1976 Clear 18 1023 72 10000 5.14 60 10:52 31.08.2022
1977 Clouds 14 1023 82 10000 4.12 80 08:34 31.08.2022
1978 Clear 14 1022 81 10000 3.6 60 04:26 31.08.2022
1979 Clear 18 1021 73 10000 4.63 60 22:58 30.08.2022
1980 Clear 19 1021 73 10000 4.12 50 21:33 30.08.2022
1981 Clouds 20 1021 73 10000 4.63 60 20:47 30.08.2022
1982 Clear 24 1020 47 10000 1.54 360 17:25 30.08.2022
1983 Clear 23 1021 61 10000 2.06 0 14:41 30.08.2022
1984 Clouds 19 1023 70 10000 3.09 90 12:54 30.08.2022
1985 Clouds 17 1022 81 10000 2.06 70 11:21 30.08.2022
1986 Clouds 17 1023 81 10000 1.54 120 10:35 30.08.2022
1987 Mist 14 1021 92 1700 1.03 70 06:49 30.08.2022
1988 Clear 15 1021 87 10000 1.03 0 01:45 30.08.2022
1989 Clear 15 1021 87 10000 1.03 0 01:45 30.08.2022
1990 Clear 18 1020 78 10000 4.12 50 22:47 29.08.2022
1991 Clear 18 1020 77 10000 3.09 40 22:18 29.08.2022
1992 Clear 19 1020 69 10000 2.57 10 21:23 29.08.2022
1993 Clear 23 1019 53 10000 3.09 360 19:42 29.08.2022
1994 Clear 24 1019 50 10000 3.6 340 17:42 29.08.2022
1995 Clouds 24 1019 51 10000 3.6 350 17:24 29.08.2022
1996 Clouds 24 1021 53 10000 3.09 300 15:41 29.08.2022
1997 Clouds 23 1020 59 10000 3.6 270 14:18 29.08.2022
1998 Clouds 20 1021 69 10000 3.09 260 12:34 29.08.2022
1999 Clouds 17 1021 85 10000 3.6 270 10:49 29.08.2022
2000 Clouds 16 1020 80 10000 3.6 270 09:30 29.08.2022
2001 Clouds 15 1020 81 10000 3.09 260 07:35 29.08.2022
2002 Clouds 13 1020 82 10000 1.54 240 02:34 29.08.2022
2003 Clear 15 1020 76 10000 1.54 270 23:37 28.08.2022
2004 Clear 16 1019 82 10000 3.6 340 21:57 28.08.2022
2005 Clear 17 1019 67 10000 3.09 330 21:31 28.08.2022
2006 Clear 19 1018 55 10000 4.12 320 20:24 28.08.2022
2007 Clear 22 1017 43 10000 6.17 320 18:37 28.08.2022
2008 Clear 23 1018 43 10000 7.2 320 18:18 28.08.2022
2009 Clear 23 1017 42 10000 6.17 330 16:52 28.08.2022
2010 Clear 24 1018 41 10000 5.66 310 15:37 28.08.2022
2011 Clouds 22 1018 47 10000 6.17 310 13:34 28.08.2022
2012 Clouds 21 1018 52 10000 4.63 310 12:19 28.08.2022
2013 Clouds 18 1018 67 10000 4.12 280 10:27 28.08.2022
2014 Clouds 17 1018 73 10000 2.57 300 09:34 28.08.2022
2015 Clouds 15 1018 82 10000 3.6 280 08:28 28.08.2022
2016 Clouds 14 1017 88 10000 2.06 260 07:27 28.08.2022
2017 Clear 16 1017 81 10000 2.06 280 00:45 28.08.2022
2018 Clear 17 1017 77 10000 3.6 320 23:28 27.08.2022
2019 Clouds 19 1016 74 10000 5.14 320 22:27 27.08.2022
2020 Clouds 20 1015 69 10000 4.63 320 20:35 27.08.2022
2021 Clouds 22 1015 66 10000 4.63 310 19:26 27.08.2022
2022 Clouds 22 1015 71 10000 5.14 320 16:30 27.08.2022
2023 Clouds 22 1015 71 10000 3.6 320 15:31 27.08.2022
2024 Clouds 21 1014 69 10000 6.17 330 13:30 27.08.2022
2025 Clouds 20 1014 75 10000 5.14 310 12:20 27.08.2022
2026 Clouds 19 1014 85 10000 4.63 290 10:30 27.08.2022
2027 Clouds 19 1014 85 10000 4.12 290 09:36 27.08.2022
2028 Clouds 19 1014 88 10000 4.12 310 06:54 27.08.2022
2029 Clouds 20 1013 90 10000 4.12 310 01:21 27.08.2022
2030 Clouds 20 1014 90 10000 5.14 310 23:46 26.08.2022
2031 Thunderstorm 22 1013 88 10000 4.63 320 21:49 26.08.2022
2032 Clear 23 1012 89 10000 5.66 330 20:20 26.08.2022
2033 Clouds 27 1012 48 10000 5.14 310 17:59 26.08.2022
2034 Rain 27 1012 62 10000 3.09 10 16:32 26.08.2022
2035 Clouds 30 1011 47 10000 1.54 0 15:24 26.08.2022
2036 Clear 29 1012 55 10000 2.57 0 13:18 26.08.2022
2037 Clouds 27 1013 74 10000 2.57 120 11:48 26.08.2022
2038 Clear 26 1013 76 10000 2.57 90 11:22 26.08.2022
2039 Clear 23 1013 84 10000 2.57 70 09:45 26.08.2022
2040 Clear 21 1013 85 10000 3.6 90 03:59 26.08.2022
2041 Clear 23 1014 77 10000 3.09 80 00:39 26.08.2022
2042 Clear 25 1014 70 10000 3.6 90 22:44 25.08.2022
2043 Clear 26 1014 64 10000 3.6 90 20:55 25.08.2022
2044 Clear 28 1014 57 10000 5.14 100 19:35 25.08.2022
2045 Clear 29 1014 54 10000 5.14 110 18:35 25.08.2022
2046 Clear 29 1014 50 10000 4.63 90 17:32 25.08.2022
2047 Clear 29 1015 51 10000 6.17 90 16:45 25.08.2022
2048 Clouds 29 1015 51 10000 5.66 100 15:30 25.08.2022
2049 Clouds 29 1016 55 10000 5.14 100 13:58 25.08.2022
2050 Clear 26 1018 69 10000 4.63 90 11:21 25.08.2022
2051 Clear 25 1018 73 10000 3.6 90 10:42 25.08.2022
2052 Clear 19 1019 84 10000 2.06 90 07:35 25.08.2022
2053 Clear 18 1019 79 10000 3.09 90 03:44 25.08.2022
2054 Clear 22 1019 60 10000 3.09 90 23:37 24.08.2022
2055 Clear 24 1019 55 10000 4.12 90 22:56 24.08.2022
2056 Clear 25 1019 48 10000 3.6 90 21:55 24.08.2022
2057 Clear 25 1019 46 10000 3.6 80 21:28 24.08.2022
2058 Clear 28 1018 38 10000 4.63 90 19:56 24.08.2022
2059 Clear 31 1018 32 10000 4.12 90 17:28 24.08.2022
2060 Clear 31 1018 33 10000 4.63 100 15:54 24.08.2022
2061 Clear 31 1018 34 10000 3.09 120 15:28 24.08.2022
2062 Clear 29 1019 39 10000 3.09 120 12:51 24.08.2022
2063 Clear 27 1019 47 10000 3.09 120 11:19 24.08.2022
2064 Clear 21 1019 69 10000 2.57 110 08:45 24.08.2022
2065 Clear 17 1018 80 10000 2.06 100 06:23 24.08.2022
2066 Clear 21 1017 57 10000 2.06 120 00:55 24.08.2022
2067 Clear 23 1017 48 10000 2.06 100 22:41 23.08.2022
2068 Clear 24 1017 45 10000 2.57 100 21:55 23.08.2022
2069 Clear 26 1016 41 10000 3.6 100 20:47 23.08.2022
2070 Clear 28 1015 36 10000 4.63 100 19:18 23.08.2022
2071 Clear 29 1015 35 10000 4.12 100 17:59 23.08.2022
2072 Clear 30 1015 33 10000 3.6 130 17:28 23.08.2022
2073 Clear 30 1016 33 10000 4.12 110 16:24 23.08.2022
2074 Clear 28 1016 36 10000 4.12 140 14:30 23.08.2022
2075 Clear 27 1016 39 10000 4.12 110 12:46 23.08.2022
2076 Clear 24 1017 49 10000 3.6 140 10:58 23.08.2022
2077 Clear 24 1017 52 10000 3.6 140 10:33 23.08.2022
2078 Clear 22 1016 61 10000 3.09 110 09:32 23.08.2022
2079 Clear 20 1017 68 10000 2.57 110 08:46 23.08.2022
2080 Clear 19 1016 72 10000 2.57 110 08:18 23.08.2022
2081 Clear 18 1016 74 10000 2.57 100 07:31 23.08.2022
2082 Clear 18 1016 75 10000 3.09 90 06:22 23.08.2022
2083 Clear 20 1015 66 10000 3.6 120 01:45 23.08.2022
2084 Clear 21 1015 63 10000 3.09 120 00:27 23.08.2022
2085 Clear 22 1015 55 10000 2.57 110 23:32 22.08.2022
2086 Clear 22 1015 49 10000 2.57 110 22:24 22.08.2022
2087 Clear 25 1014 39 10000 2.57 80 20:29 22.08.2022
2088 Clear 26 1013 36 10000 3.09 80 19:41 22.08.2022
2089 Clear 27 1013 33 10000 3.09 60 18:37 22.08.2022
2090 Clear 28 1014 33 10000 2.57 0 15:46 22.08.2022
2091 Clear 28 1015 33 10000 3.09 0 15:18 22.08.2022
2092 Clear 24 1016 52 10000 2.06 0 11:45 22.08.2022
2093 Clear 18 1017 73 10000 2.57 80 09:24 22.08.2022
2094 Mist 13 1015 96 9000 1.03 270 05:51 22.08.2022
2095 Clear 16 1015 84 10000 1.03 0 00:57 22.08.2022
2096 Clear 16 1015 84 10000 1.03 0 00:36 22.08.2022
2097 Clear 17 1015 78 10000 0.51 0 23:21 21.08.2022
2098 Clear 20 1015 67 10000 1.03 250 21:55 21.08.2022
2099 Clear 21 1015 61 10000 1.03 0 21:19 21.08.2022
2100 Clear 24 1014 47 10000 3.09 280 19:58 21.08.2022
2101 Clear 26 1014 42 10000 3.6 270 18:36 21.08.2022
2102 Clear 26 1014 40 10000 4.63 270 16:48 21.08.2022
2103 Clear 26 1014 40 10000 3.6 290 15:52 21.08.2022
2104 Clear 27 1014 40 10000 4.63 260 14:41 21.08.2022
2105 Clear 25 1015 41 10000 3.6 0 13:48 21.08.2022
2106 Clouds 24 1015 48 10000 3.6 290 12:55 21.08.2022
2107 Clear 21 1016 54 10000 5.66 290 10:36 21.08.2022
2108 Clouds 17 1016 79 10000 1.03 0 08:57 21.08.2022
2109 Clouds 17 1016 80 10000 1.03 0 08:39 21.08.2022
2110 Clear 16 1016 85 10000 0.51 0 07:53 21.08.2022
2111 Clear 15 1015 86 10000 1.03 0 06:33 21.08.2022
2112 Clear 16 1016 83 10000 1.03 0 01:47 21.08.2022
2113 Clear 18 1016 82 10000 1.54 40 23:32 20.08.2022
2114 Clear 21 1016 67 10000 2.57 330 21:51 20.08.2022
2115 Clear 23 1016 59 10000 2.06 320 20:50 20.08.2022
2116 Clear 23 1015 61 10000 2.57 320 19:42 20.08.2022
2117 Clear 25 1015 59 10000 3.09 330 18:48 20.08.2022
2118 Clouds 25 1014 60 10000 3.6 320 18:25 20.08.2022
2119 Clouds 25 1014 60 10000 3.6 330 17:20 20.08.2022
2120 Clear 24 1015 73 10000 2.57 330 15:52 20.08.2022
2121 Clouds 22 1015 87 10000 2.06 310 14:20 20.08.2022
2122 Clouds 22 1015 79 10000 1.54 310 11:56 20.08.2022
2123 Clouds 21 1015 78 10000 1.54 310 11:36 20.08.2022
2124 Clouds 20 1014 78 10000 1.54 290 09:20 20.08.2022
2125 Clouds 19 1014 81 10000 1.03 0 07:18 20.08.2022
2126 Clouds 19 1013 73 10000 1.03 0 04:42 20.08.2022
2127 Clouds 20 1012 70 10000 0.7 149 00:55 20.08.2022
2128 Clear 20 1013 65 10000 0 0 23:25 19.08.2022
2129 Clear 21 1013 64 10000 0.51 0 22:36 19.08.2022
2130 Clear 25 1011 46 10000 2.57 340 20:41 19.08.2022
2131 Clear 27 1011 42 10000 3.6 340 18:55 19.08.2022
2132 Clear 27 1011 44 10000 4.12 340 15:55 19.08.2022
2133 Clear 27 1011 44 10000 4.12 340 15:55 19.08.2022
2134 Clear 27 1011 43 10000 4.12 340 15:55 19.08.2022
2135 Clear 26 1012 50 10000 4.12 280 13:41 19.08.2022
2136 Clouds 23 1013 66 10000 4.12 290 11:40 19.08.2022
2137 Clouds 20 1013 81 10000 3.09 310 10:30 19.08.2022
2138 Clouds 17 1012 91 10000 2.06 260 07:25 19.08.2022
2139 Clouds 19 1011 89 10000 0.89 270 03:19 19.08.2022
2140 Clear 20 1012 87 10000 2.57 330 00:36 19.08.2022
2141 Clear 21 1012 85 10000 3.09 340 23:48 18.08.2022
2142 Clouds 21 1012 84 10000 4.12 340 22:53 18.08.2022
2143 Clouds 22 1011 84 10000 4.63 340 22:18 18.08.2022
2144 Rain 22 1011 83 10000 3.09 340 21:40 18.08.2022
2145 Rain 24 1011 79 10000 3.09 320 20:32 18.08.2022
2146 Rain 25 1011 68 10000 1.54 330 19:32 18.08.2022
2147 Rain 25 1010 59 10000 2.57 360 18:19 18.08.2022
2148 Rain 26 1011 58 10000 2.57 310 17:19 18.08.2022
2149 Clouds 27 1011 55 10000 4.12 310 15:20 18.08.2022
2150 Clouds 26 1011 57 10000 4.12 300 14:20 18.08.2022
2151 Clouds 26 1012 59 10000 4.12 300 13:36 18.08.2022
2152 Clouds 24 1012 66 10000 3.6 280 12:26 18.08.2022
2153 Clouds 21 1012 82 6000 3.09 260 10:22 18.08.2022
2154 Clouds 21 1012 84 6000 3.09 270 09:42 18.08.2022
2155 Mist 18 1011 92 3000 1.54 260 07:24 18.08.2022
2156 Clear 19 1011 88 10000 3.09 260 04:38 18.08.2022
2157 Clear 20 1010 83 10000 0.51 180 23:37 17.08.2022
2158 Clear 21 1009 87 10000 1.03 340 21:53 17.08.2022
2159 Clear 24 1009 78 10000 2.06 80 20:20 17.08.2022
2160 Clear 25 1009 72 10000 1.54 340 19:31 17.08.2022
2161 Rain 27 1011 51 10000 6.17 190 17:37 17.08.2022
2162 Clouds 31 1009 42 10000 2.06 60 16:39 17.08.2022
2163 Clear 31 1009 39 10000 2.06 110 15:28 17.08.2022
2164 Clear 31 1010 40 10000 4.12 100 13:30 17.08.2022
2165 Clear 28 1011 52 10000 2.06 90 11:38 17.08.2022
2166 Clear 24 1010 69 10000 2.06 90 09:31 17.08.2022
2167 Clear 20 1010 79 10000 2.06 80 08:24 17.08.2022
2168 Clear 19 1010 79 10000 0.51 0 03:36 17.08.2022
2169 Clear 21 1010 74 10000 1.03 100 00:19 17.08.2022
2170 Clear 23 1009 71 10000 1.54 100 22:41 16.08.2022
2171 Clear 26 1008 54 10000 1.03 0 20:58 16.08.2022
2172 Clear 29 1008 39 10000 1.54 300 19:54 16.08.2022
2173 Clear 29 1007 41 10000 2.06 60 18:43 16.08.2022
2174 Clear 30 1007 39 10000 1.54 0 17:43 16.08.2022
2175 Clear 29 1008 44 10000 0.51 0 15:52 16.08.2022
2176 Clear 30 1008 43 10000 2.57 270 14:55 16.08.2022
2177 Clear 29 1008 42 10000 2.57 270 14:37 16.08.2022
2178 Clouds 28 1007 49 10000 1.54 180 12:58 16.08.2022
2179 Clear 26 1008 59 10000 2.06 210 10:59 16.08.2022
2180 Clear 24 1007 63 10000 2.57 230 09:50 16.08.2022
2181 Clear 22 1007 75 10000 1.03 0 08:47 16.08.2022
2182 Clear 19 1006 81 10000 0.51 0 07:33 16.08.2022
2183 Clear 20 1005 85 10000 1.54 220 02:50 16.08.2022
2184 Clear 21 1005 87 10000 1.54 160 22:31 15.08.2022
2185 Clear 21 1004 91 10000 1.54 80 21:55 15.08.2022
2186 Clear 21 1004 91 10000 1.54 80 21:34 15.08.2022
2187 Clear 23 1004 86 10000 0.51 0 20:19 15.08.2022
2188 Clouds 22 1003 81 10000 1.03 0 18:42 15.08.2022
2189 Rain 22 1004 82 10000 1.03 0 17:36 15.08.2022
2190 Rain 25 1004 69 10000 5.66 60 16:22 15.08.2022
2191 Clouds 32 1002 39 10000 2.57 0 13:57 15.08.2022
2192 Clear 31 1003 44 10000 3.6 170 12:37 15.08.2022
2193 Clouds 24 1004 57 10000 2.06 120 10:18 15.08.2022
2194 Rain 22 1004 61 10000 1.54 100 08:42 15.08.2022
2195 Clear 20 1003 83 10000 2.57 90 06:33 15.08.2022
2196 Clear 21 1004 77 10000 2.06 80 02:57 15.08.2022
2197 Clear 25 1005 60 10000 2.06 90 23:22 14.08.2022
2198 Clear 26 1006 47 10000 2.57 90 21:42 14.08.2022
2199 Clear 30 1005 41 10000 3.6 100 20:29 14.08.2022
2200 Clear 30 1005 40 10000 6.69 90 19:32 14.08.2022
2201 Clear 31 1006 38 10000 3.6 110 18:20 14.08.2022
2202 Clear 31 1007 39 10000 4.12 130 17:22 14.08.2022
2203 Clear 32 1008 41 10000 4.63 120 15:51 14.08.2022
2204 Clear 31 1009 44 10000 4.12 120 14:38 14.08.2022
2205 Clear 30 1009 46 10000 4.12 100 13:50 14.08.2022
2206 Clear 30 1009 45 10000 5.14 110 13:24 14.08.2022
2207 Clouds 29 1010 50 10000 4.12 110 12:34 14.08.2022
2208 Clouds 27 1011 58 10000 3.6 140 11:18 14.08.2022
2209 Clear 24 1012 69 10000 3.6 90 08:53 14.08.2022
2210 Clear 18 1012 83 10000 1.54 100 06:23 14.08.2022
2211 Clear 19 1013 78 10000 2.06 60 03:48 14.08.2022
2212 Clear 21 1015 78 10000 1.03 0 00:39 14.08.2022
2213 Clear 23 1015 71 10000 1.54 120 22:56 13.08.2022
2214 Clear 25 1015 59 10000 3.09 100 21:47 13.08.2022
2215 Clear 26 1014 54 10000 4.12 110 20:47 13.08.2022
2216 Clear 27 1014 50 10000 2.57 120 19:46 13.08.2022
2217 Clear 29 1015 45 10000 6.69 100 18:19 13.08.2022
2218 Clear 30 1016 41 10000 5.14 90 15:57 13.08.2022
2219 Clear 30 1016 40 10000 5.14 90 14:40 13.08.2022
2220 Clear 30 1017 39 10000 6.69 80 13:46 13.08.2022
2221 Clear 28 1018 42 10000 4.12 100 11:59 13.08.2022
2222 Clear 25 1018 45 10000 2.06 80 10:33 13.08.2022
2223 Clear 23 1018 50 10000 2.57 90 09:22 13.08.2022
2224 Clear 16 1018 74 10000 1.03 50 05:59 13.08.2022
2225 Clear 20 1018 56 10000 2.06 90 00:36 13.08.2022
2226 Clear 23 1018 46 10000 2.06 90 22:26 12.08.2022
2227 Clear 24 1018 41 10000 2.06 90 21:35 12.08.2022
2228 Clear 29 1017 30 10000 4.12 120 19:46 12.08.2022
2229 Clear 29 1017 29 10000 3.09 110 19:21 12.08.2022
2230 Clear 30 1018 28 10000 5.66 70 17:58 12.08.2022
2231 Clear 31 1018 26 10000 5.66 90 16:25 12.08.2022
2232 Clear 31 1019 28 10000 4.12 120 14:50 12.08.2022
2233 Clear 30 1020 28 10000 4.12 160 12:59 12.08.2022
2234 Clear 29 1020 31 10000 3.09 120 11:39 12.08.2022
2235 Clear 21 1020 56 10000 2.57 100 08:47 12.08.2022
2236 Clear 18 1020 65 10000 2.57 80 07:44 12.08.2022
2237 Clear 17 1020 69 10000 1.54 70 03:41 12.08.2022
2238 Clear 20 1020 55 10000 2.57 70 00:31 12.08.2022
2239 Clear 22 1020 50 10000 2.57 60 23:42 11.08.2022
2240 Clear 23 1020 44 10000 2.06 70 22:37 11.08.2022
2241 Clear 24 1021 38 10000 1.03 60 21:47 11.08.2022
2242 Clear 26 1020 37 10000 2.57 60 21:22 11.08.2022
2243 Clear 28 1019 32 10000 4.12 70 20:29 11.08.2022
2244 Clear 29 1019 29 10000 4.12 70 19:33 11.08.2022
2245 Clear 30 1019 28 10000 2.57 90 18:39 11.08.2022
2246 Clear 32 1020 25 10000 2.06 50 16:38 11.08.2022
2247 Clear 31 1021 27 10000 3.09 50 15:37 11.08.2022
2248 Clear 30 1022 29 10000 3.6 120 13:51 11.08.2022
2249 Clear 27 1023 41 10000 1.54 0 11:26 11.08.2022
2250 Clear 18 1024 65 10000 1.54 90 07:56 11.08.2022
2251 Clear 16 1023 71 10000 2.57 80 04:44 11.08.2022
2252 Clear 17 1023 70 10000 1.54 80 01:54 11.08.2022
2253 Clear 21 1024 56 10000 1.54 80 22:54 10.08.2022
2254 Clear 23 1023 48 10000 1.54 90 21:44 10.08.2022
2255 Clear 25 1023 43 10000 2.57 70 20:56 10.08.2022
2256 Clear 27 1023 37 10000 3.6 60 19:44 10.08.2022
2257 Clear 28 1024 35 10000 2.57 90 18:45 10.08.2022
2258 Clear 29 1024 32 10000 3.6 80 17:20 10.08.2022
2259 Clear 27 1026 37 10000 3.09 50 13:36 10.08.2022
2260 Clear 27 1026 39 10000 3.09 0 12:48 10.08.2022
2261 Clear 22 1027 57 10000 2.57 100 09:56 10.08.2022
2262 Clear 19 1027 67 10000 3.09 90 08:35 10.08.2022
2263 Clear 15 1027 75 10000 0.51 0 07:21 10.08.2022
2264 Clear 16 1027 84 10000 1.03 0 03:35 10.08.2022
2265 Clear 19 1027 63 10000 0.51 0 23:58 09.08.2022
2266 Clear 20 1026 57 10000 0.51 0 23:25 09.08.2022
2267 Clear 22 1026 48 10000 2.06 50 21:37 09.08.2022
2268 Clear 24 1026 44 10000 2.57 40 20:40 09.08.2022
2269 Clear 27 1025 36 10000 3.6 40 18:45 09.08.2022
2270 Clear 28 1026 35 10000 4.12 40 17:31 09.08.2022
2271 Clear 28 1026 35 10000 2.57 0 16:42 09.08.2022
2272 Clear 28 1026 36 10000 1.54 0 15:59 09.08.2022
2273 Clear 27 1027 39 10000 2.57 340 14:29 09.08.2022
2274 Clear 22 1027 54 10000 2.57 60 10:39 09.08.2022
2275 Clear 19 1027 68 10000 1.03 0 08:51 09.08.2022
2276 Clear 16 1027 78 10000 0.51 0 07:54 09.08.2022
2277 Clear 15 1026 85 10000 0.51 0 04:31 09.08.2022
2278 Clear 18 1026 80 10000 3.09 20 23:46 08.08.2022
2279 Clear 19 1026 72 10000 3.09 10 22:57 08.08.2022
2280 Clear 19 1026 71 10000 3.09 10 22:35 08.08.2022
2281 Clear 21 1025 56 10000 3.6 340 21:30 08.08.2022
2282 Clear 24 1024 45 10000 4.63 330 19:57 08.08.2022
2283 Clear 25 1023 43 10000 4.12 10 19:22 08.08.2022
2284 Clear 26 1023 39 10000 6.17 350 17:34 08.08.2022
2285 Clear 27 1024 36 10000 3.09 330 15:46 08.08.2022
2286 Clear 26 1024 36 10000 3.09 340 14:45 08.08.2022
2287 Clear 24 1025 38 10000 2.57 80 12:29 08.08.2022
2288 Clear 20 1025 54 10000 1.54 360 10:23 08.08.2022
2289 Clear 13 1023 78 10000 0.51 0 06:56 08.08.2022
2290 Clear 13 1023 84 10000 1.03 0 03:34 08.08.2022
2291 Clear 18 1023 57 10000 3.09 20 22:44 07.08.2022
2292 Clear 20 1022 51 10000 2.06 350 21:40 07.08.2022
2293 Clear 22 1022 44 10000 2.57 330 20:42 07.08.2022
2294 Clear 23 1022 40 10000 2.57 300 20:18 07.08.2022
2295 Clear 24 1022 37 10000 2.57 300 19:41 07.08.2022
2296 Clear 25 1022 35 10000 3.6 280 18:36 07.08.2022
2297 Clear 24 1022 37 10000 2.57 20 16:55 07.08.2022
2298 Clear 24 1022 37 10000 2.57 20 16:35 07.08.2022
2299 Clear 25 1023 37 10000 2.57 10 15:24 07.08.2022
2300 Clear 24 1024 37 10000 2.57 330 13:37 07.08.2022
2301 Clear 22 1025 42 10000 2.06 0 12:18 07.08.2022
2302 Clear 20 1025 54 10000 1.54 0 10:35 07.08.2022
2303 Clear 13 1025 81 10000 1.03 0 07:59 07.08.2022
2304 Clear 11 1026 85 10000 0.51 0 03:32 07.08.2022
2305 Clear 13 1026 82 10000 0.51 0 01:45 07.08.2022
2306 Clear 16 1026 68 10000 0.51 330 22:25 06.08.2022
2307 Clear 18 1026 58 10000 1.03 340 21:18 06.08.2022
2308 Clear 21 1025 49 10000 3.09 330 19:41 06.08.2022
2309 Clear 22 1025 43 10000 2.06 270 18:30 06.08.2022
2310 Clear 23 1025 39 10000 3.6 280 17:33 06.08.2022
2311 Clear 22 1026 41 10000 2.06 0 14:48 06.08.2022
2312 Clear 22 1026 43 10000 3.6 280 13:49 06.08.2022
2313 Clouds 19 1027 54 10000 4.12 300 11:59 06.08.2022
2314 Clouds 18 1027 61 10000 4.12 310 10:33 06.08.2022
2315 Clear 15 1025 76 10000 2.06 270 08:40 06.08.2022
2316 Clear 11 1024 87 10000 1.54 300 03:54 06.08.2022
2317 Clear 14 1022 78 10000 1.03 360 23:54 05.08.2022
2318 Clear 16 1021 66 10000 2.06 310 22:33 05.08.2022
2319 Clouds 21 1019 53 10000 6.69 320 19:59 05.08.2022
2320 Clouds 21 1018 76 10000 4.12 260 18:46 05.08.2022
2321 Clouds 20 1017 69 10000 3.6 250 18:25 05.08.2022
2322 Clouds 20 1017 77 10000 3.6 280 16:49 05.08.2022
2323 Clouds 19 1017 87 10000 3.09 310 15:22 05.08.2022
2324 Clouds 18 1017 88 10000 5.14 320 14:31 05.08.2022
2325 Mist 18 1016 90 4200 3.6 280 13:24 05.08.2022
2326 Clouds 19 1015 75 10000 2.57 320 12:30 05.08.2022
2327 Clouds 19 1014 88 10000 3.6 360 10:53 05.08.2022
2328 Rain 18 1014 90 10000 4.12 320 08:30 05.08.2022
2329 Clouds 18 1013 96 10000 3.6 310 06:56 05.08.2022
2330 Clouds 18 1013 96 10000 3.6 310 06:56 05.08.2022
2331 Clear 21 1013 80 10000 3.09 330 01:28 05.08.2022
2332 Clouds 24 1013 87 10000 3.6 330 22:32 04.08.2022
2333 Clouds 26 1012 66 10000 3.09 300 21:27 04.08.2022
2334 Clear 26 1012 55 10000 1.54 320 20:44 04.08.2022
2335 Clear 27 1011 55 10000 3.09 350 19:48 04.08.2022
2336 Clear 28 1011 47 10000 8.23 330 18:42 04.08.2022
2337 Clear 30 1011 48 10000 7.72 310 18:23 04.08.2022
2338 Clear 36 1010 28 10000 3.09 230 14:39 04.08.2022
2339 Clear 36 1010 28 10000 2.57 0 13:22 04.08.2022
2340 Clear 33 1011 34 10000 3.6 160 11:33 04.08.2022
2341 Clear 22 1012 80 10000 1.54 80 07:55 04.08.2022
2342 Clear 20 1013 82 10000 1.03 0 06:42 04.08.2022
2343 Clear 21 1013 79 10000 0.51 0 02:38 04.08.2022
2344 Clear 24 1013 73 10000 0.51 80 23:49 03.08.2022
2345 Clear 24 1013 71 10000 0 0 23:27 03.08.2022
2346 Clear 30 1013 46 10000 2.06 300 20:57 03.08.2022
2347 Clear 32 1013 39 10000 3.6 290 19:54 03.08.2022
2348 Clear 32 1012 38 10000 3.6 300 18:37 03.08.2022
2349 Clear 33 1013 34 10000 3.6 220 16:26 03.08.2022
2350 Clear 33 1014 35 10000 2.57 0 15:47 03.08.2022
2351 Clear 32 1015 39 10000 4.12 210 13:24 03.08.2022
2352 Clear 27 1015 51 10000 2.06 0 09:51 03.08.2022
2353 Clear 19 1014 81 10000 1.03 0 06:29 03.08.2022
2354 Clear 19 1015 80 10000 0.51 0 04:21 03.08.2022
2355 Clear 20 1015 81 10000 0 0 02:25 03.08.2022
2356 Clear 22 1015 72 10000 0.51 0 23:54 02.08.2022
2357 Clear 24 1015 57 10000 0.51 210 21:59 02.08.2022
2358 Clear 24 1015 55 10000 0.51 210 21:40 02.08.2022
2359 Clear 27 1014 48 10000 3.09 250 20:20 02.08.2022
2360 Clear 28 1015 44 10000 3.09 250 16:49 02.08.2022
2361 Clear 26 1017 45 10000 3.6 240 13:40 02.08.2022
2362 Clear 21 1018 63 10000 1.54 0 10:34 02.08.2022
2363 Clouds 16 1018 84 10000 2.06 100 08:27 02.08.2022
2364 Clouds 14 1018 90 10000 2.06 90 07:50 02.08.2022
2365 Clear 11 1018 94 10000 0.51 60 04:56 02.08.2022
2366 Clouds 13 1018 89 10000 0.42 329 01:58 02.08.2022
2367 Clear 16 1019 85 10000 2.57 350 23:21 01.08.2022
2368 Clouds 20 1017 72 10000 3.09 340 21:19 01.08.2022
2369 Clouds 22 1017 60 10000 4.63 330 19:45 01.08.2022
2370 Clouds 23 1016 58 10000 4.63 330 18:53 01.08.2022
2371 Clouds 23 1016 60 10000 3.6 320 16:55 01.08.2022
2372 Clouds 23 1016 60 10000 3.6 320 16:55 01.08.2022
2373 Clouds 23 1016 60 10000 3.6 320 16:55 01.08.2022
2374 Clouds 23 1016 61 10000 3.6 320 16:29 01.08.2022
2375 Clouds 22 1016 63 10000 3.6 310 15:34 01.08.2022
2376 Clouds 22 1016 66 10000 3.09 310 14:44 01.08.2022
2377 Clouds 21 1016 76 10000 5.66 330 13:29 01.08.2022
2378 Clouds 20 1016 90 10000 4.12 300 10:47 01.08.2022
2379 Clouds 18 1015 95 10000 4.63 310 08:53 01.08.2022
2380 Clouds 18 1014 95 10000 3.6 290 06:51 01.08.2022
2381 Clouds 19 1012 94 6000 5.66 270 04:31 01.08.2022
2382 Clouds 19 1013 95 10000 3.09 250 00:58 01.08.2022
2383 Clouds 18 1013 96 10000 1.03 0 22:44 31.07.2022
2384 Rain 19 1013 93 10000 1.03 0 22:18 31.07.2022
2385 Clouds 19 1013 91 10000 1.03 0 20:28 31.07.2022
2386 Rain 20 1014 79 10000 5.66 260 18:39 31.07.2022
2387 Clear 27 1013 47 10000 4.63 270 16:26 31.07.2022
2388 Clear 27 1013 42 10000 3.6 230 14:33 31.07.2022
2389 Clear 26 1015 52 10000 2.57 170 12:55 31.07.2022
2390 Clear 23 1016 72 10000 2.06 210 10:53 31.07.2022
2391 Clear 18 1017 92 10000 1.54 150 08:29 31.07.2022
2392 Clear 16 1017 92 10000 1.03 270 04:46 31.07.2022
2393 Clear 17 1018 92 10000 2.57 280 01:20 31.07.2022
2394 Clouds 20 1017 84 10000 2.57 270 22:40 30.07.2022
2395 Rain 20 1017 80 10000 3.6 230 21:50 30.07.2022
2396 Rain 21 1017 74 10000 3.6 230 21:32 30.07.2022
2397 Clear 23 1017 69 10000 2.06 300 20:28 30.07.2022
2398 Clear 25 1016 60 10000 3.09 290 19:42 30.07.2022
2399 Clouds 25 1016 61 10000 2.57 260 17:52 30.07.2022
2400 Clear 27 1016 47 10000 4.12 280 16:38 30.07.2022
2401 Clouds 26 1017 49 10000 2.57 0 15:30 30.07.2022
2402 Clear 24 1017 57 10000 4.12 290 13:23 30.07.2022
2403 Clear 23 1017 59 10000 3.6 280 12:22 30.07.2022
2404 Clear 20 1016 78 10000 2.57 270 10:45 30.07.2022
2405 Clouds 18 1016 86 10000 1.54 200 09:59 30.07.2022
2406 Rain 17 1016 94 10000 1.54 280 08:49 30.07.2022
2407 Rain 16 1017 93 10000 1.54 210 06:55 30.07.2022
2408 Clouds 17 1015 91 10000 5.66 290 02:33 30.07.2022
2409 Rain 20 1015 61 10000 4.63 320 23:30 29.07.2022
2410 Clear 22 1015 50 10000 4.63 320 21:36 29.07.2022
2411 Clear 24 1015 36 10000 2.57 40 20:50 29.07.2022
2412 Clear 26 1014 38 10000 4.12 60 19:45 29.07.2022
2413 Clear 27 1015 37 10000 4.63 80 16:59 29.07.2022
2414 Clear 25 1016 45 10000 4.63 80 14:38 29.07.2022
2415 Clear 23 1016 51 10000 3.09 60 12:41 29.07.2022
2416 Clear 18 1017 62 10000 4.63 90 08:52 29.07.2022
2417 Clear 16 1017 63 10000 4.12 100 08:22 29.07.2022
2418 Clear 15 1017 69 10000 3.09 90 04:39 29.07.2022
2419 Clear 17 1018 57 10000 2.57 70 23:46 28.07.2022
2420 Clear 19 1017 49 10000 3.09 60 21:38 28.07.2022
2421 Clear 21 1017 45 10000 3.6 60 20:50 28.07.2022
2422 Clear 22 1017 44 10000 3.6 60 20:18 28.07.2022
2423 Clear 23 1017 41 10000 2.06 50 19:40 28.07.2022
2424 Clear 24 1017 36 10000 2.06 350 17:46 28.07.2022
2425 Clear 24 1017 36 10000 3.6 90 17:23 28.07.2022
2426 Clear 24 1017 37 10000 4.63 100 16:40 28.07.2022
2427 Clouds 23 1019 40 10000 1.54 0 13:56 28.07.2022
2428 Clouds 21 1020 43 10000 2.57 0 12:39 28.07.2022
2429 Clear 12 1020 82 10000 0.51 10 07:46 28.07.2022
2430 Clear 9 1020 83 10000 0.51 250 05:39 28.07.2022
2431 Clear 9 1020 89 10000 0.51 310 05:20 28.07.2022
2432 Clear 15 1019 72 10000 2.57 350 23:20 27.07.2022
2433 Clear 18 1018 59 10000 3.09 330 21:30 27.07.2022
2434 Clear 20 1017 50 10000 2.57 320 19:48 27.07.2022
2435 Clouds 20 1018 50 10000 3.6 330 19:19 27.07.2022
2436 Clear 21 1018 42 10000 5.66 290 16:31 27.07.2022
2437 Clouds 21 1018 44 10000 4.12 300 15:51 27.07.2022
2438 Clear 21 1018 43 10000 6.69 320 14:41 27.07.2022
2439 Clear 20 1018 45 10000 4.12 310 13:34 27.07.2022
2440 Clear 17 1018 59 10000 4.12 280 09:29 27.07.2022
2441 Clear 14 1018 77 10000 2.57 260 07:47 27.07.2022
2442 Clear 12 1017 92 10000 0.51 0 04:53 27.07.2022
2443 Clear 16 1017 71 10000 1.54 340 23:21 26.07.2022
2444 Clear 18 1016 62 10000 2.57 310 21:49 26.07.2022
2445 Clouds 19 1016 58 10000 4.63 320 20:49 26.07.2022
2446 Clouds 20 1015 55 10000 5.14 300 19:22 26.07.2022
2447 Clouds 21 1015 55 10000 4.12 300 18:40 26.07.2022
2448 Clouds 21 1015 54 10000 5.14 320 17:47 26.07.2022
2449 Clouds 21 1014 61 10000 5.66 340 15:43 26.07.2022
2450 Clouds 21 1015 67 10000 3.09 320 14:38 26.07.2022
2451 Clouds 19 1014 85 10000 3.6 250 12:25 26.07.2022
2452 Clouds 22 1011 62 10000 6.17 260 09:59 26.07.2022
2453 Clouds 20 1011 72 10000 5.14 250 08:23 26.07.2022
2454 Clear 19 1011 82 10000 2.57 260 01:52 26.07.2022
2455 Clear 21 1011 66 10000 3.09 280 00:19 26.07.2022
2456 Clouds 23 1010 58 10000 3.6 270 22:40 25.07.2022
2457 Clouds 23 1009 66 10000 6.17 290 21:43 25.07.2022
2458 Clouds 24 1008 60 10000 6.69 290 20:43 25.07.2022
2459 Clouds 25 1008 62 10000 6.17 310 20:23 25.07.2022
2460 Clear 26 1008 56 10000 6.17 310 19:24 25.07.2022
2461 Clear 29 1006 35 10000 7.72 250 17:37 25.07.2022
2462 Clear 32 1006 34 10000 5.66 240 16:40 25.07.2022
2463 Clear 34 1006 31 10000 5.14 240 13:22 25.07.2022
2464 Clear 31 1007 37 10000 4.12 0 10:48 25.07.2022
2465 Clear 22 1009 56 10000 1.54 120 07:32 25.07.2022
2466 Clear 22 1013 70 10000 2.06 90 00:38 25.07.2022
2467 Clear 23 1014 67 10000 1.03 0 23:45 24.07.2022
2468 Clear 24 1014 63 10000 0.51 0 22:43 24.07.2022
2469 Clear 27 1014 48 10000 0.51 90 21:33 24.07.2022
2470 Clear 28 1014 44 10000 2.06 250 20:58 24.07.2022
2471 Clear 29 1014 40 10000 2.06 250 20:35 24.07.2022
2472 Clear 30 1014 37 10000 4.12 240 18:59 24.07.2022
2473 Clear 31 1015 34 10000 3.6 220 16:54 24.07.2022
2474 Clear 31 1016 32 10000 2.57 0 15:54 24.07.2022
2475 Clear 30 1017 35 10000 3.6 250 14:41 24.07.2022
2476 Clear 28 1018 36 10000 3.6 190 13:47 24.07.2022
2477 Clear 27 1019 39 10000 2.57 0 12:19 24.07.2022
2478 Clear 26 1018 44 10000 3.09 170 11:29 24.07.2022
2479 Clear 21 1019 59 10000 2.57 150 09:33 24.07.2022
2480 Clear 17 1019 79 10000 1.54 140 07:53 24.07.2022
2481 Clear 14 1019 84 10000 1.03 0 06:55 24.07.2022
2482 Clear 13 1020 88 10000 1.03 0 02:41 24.07.2022
2483 Clear 17 1020 74 10000 0.51 280 22:45 23.07.2022
2484 Clear 21 1018 52 10000 4.63 310 20:47 23.07.2022
2485 Clear 24 1018 44 10000 6.17 300 18:59 23.07.2022
2486 Clear 24 1018 44 10000 7.2 300 17:58 23.07.2022
2487 Clear 24 1018 44 10000 5.66 290 17:25 23.07.2022
2488 Clouds 25 1018 42 10000 6.69 300 16:21 23.07.2022
2489 Clouds 24 1018 44 10000 5.66 290 15:21 23.07.2022
2490 Clouds 24 1018 45 10000 5.14 270 14:50 23.07.2022
2491 Clouds 23 1018 47 10000 5.66 280 13:58 23.07.2022
2492 Clouds 21 1018 58 10000 4.12 280 11:48 23.07.2022
2493 Clouds 20 1018 65 10000 3.09 0 10:36 23.07.2022
2494 Clouds 19 1017 73 10000 2.57 310 09:28 23.07.2022
2495 Clear 14 1017 92 10000 1.03 0 06:40 23.07.2022
2496 Fog 14 1017 93 10000 0 0 03:37 23.07.2022
2497 Clear 16 1018 87 10000 0.51 200 23:59 22.07.2022
2498 Clouds 19 1018 75 10000 2.06 300 21:28 22.07.2022
2499 Clouds 20 1018 71 10000 2.06 320 19:58 22.07.2022
2500 Clouds 20 1018 71 10000 2.7 280 18:41 22.07.2022
2501 Clouds 20 1019 69 10000 3.6 280 17:38 22.07.2022
2502 Clouds 20 1019 67 10000 3.6 320 15:35 22.07.2022
2503 Clouds 19 1019 71 10000 4.12 300 12:41 22.07.2022
2504 Clouds 17 1019 86 10000 2.57 300 09:52 22.07.2022
2505 Clouds 17 1019 88 10000 3.09 270 09:20 22.07.2022
2506 Clouds 17 1019 90 10000 3.6 270 07:51 22.07.2022
2507 Mist 18 1018 92 4000 4.12 260 04:22 22.07.2022
2508 Clouds 19 1017 85 10000 3.6 250 23:29 21.07.2022
2509 Clouds 20 1017 89 10000 3.09 250 21:39 21.07.2022
2510 Clouds 23 1016 76 10000 3.09 210 19:41 21.07.2022
2511 Clouds 24 1016 67 10000 3.6 220 18:29 21.07.2022
2512 Clear 23 1017 75 10000 3.09 220 17:20 21.07.2022
2513 Clouds 24 1016 71 10000 5.9 238 15:49 21.07.2022
2514 Rain 25 1017 63 10000 4.12 250 14:46 21.07.2022
2515 Clouds 24 1018 61 10000 3.6 0 13:22 21.07.2022
2516 Clouds 22 1017 73 10000 4.63 250 11:43 21.07.2022
2517 Clouds 20 1017 92 10000 3.6 240 09:44 21.07.2022
2518 Clouds 21 1017 84 10000 3.6 240 08:53 21.07.2022
2519 Clear 21 1016 85 10000 3.09 240 07:50 21.07.2022
2520 Clear 20 1015 89 10000 4.12 350 06:26 21.07.2022
2521 Clear 23 1016 63 10000 6.17 250 02:23 21.07.2022
2522 Clear 27 1014 45 10000 6.17 350 22:24 20.07.2022
2523 Clear 28 1015 42 10000 5.14 350 21:49 20.07.2022
2524 Clear 31 1013 49 10000 7.72 350 20:46 20.07.2022
2525 Clear 35 1012 26 10000 6.17 320 19:46 20.07.2022
2526 Clear 37 1012 24 10000 4.63 310 18:53 20.07.2022
2527 Clear 38 1012 21 10000 1.54 260 18:30 20.07.2022
2528 Clear 39 1013 18 10000 2.57 220 16:49 20.07.2022
2529 Clear 39 1013 17 10000 4.12 140 15:32 20.07.2022
2530 Clear 38 1014 19 10000 4.12 160 14:35 20.07.2022
2531 Clear 37 1015 21 10000 4.12 150 12:51 20.07.2022
2532 Clear 34 1015 28 10000 3.6 160 10:29 20.07.2022
2533 Clear 20 1015 54 10000 2.06 110 05:52 20.07.2022
2534 Clear 24 1016 42 10000 2.57 90 00:58 20.07.2022
2535 Clear 25 1015 41 10000 2.57 90 00:40 20.07.2022
2536 Clear 27 1016 34 10000 3.09 90 22:35 19.07.2022
2537 Clear 29 1016 26 10000 3.6 90 21:54 19.07.2022
2538 Clear 32 1016 20 10000 4.12 90 20:49 19.07.2022
2539 Clear 36 1015 20 10000 5.14 80 19:22 19.07.2022
2540 Clear 36 1015 19 10000 4.63 70 18:35 19.07.2022
2541 Clear 36 1016 18 10000 2.57 0 17:53 19.07.2022
2542 Clear 37 1017 19 10000 2.06 0 15:26 19.07.2022
2543 Clear 34 1018 24 10000 2.57 160 12:44 19.07.2022
2544 Clear 32 1019 29 10000 2.06 120 11:32 19.07.2022
2545 Clear 28 1019 41 10000 1.54 100 09:51 19.07.2022
2546 Clear 24 1019 54 10000 1.54 90 08:46 19.07.2022
2547 Clear 18 1019 69 10000 1.03 80 07:19 19.07.2022
2548 Clear 15 1019 84 10000 0.51 0 06:27 19.07.2022
2549 Clear 15 1019 86 10000 0.51 0 05:18 19.07.2022
2550 Clear 17 1019 76 10000 0.51 0 02:38 19.07.2022
2551 Clear 21 1019 60 10000 0.51 140 23:54 18.07.2022
2552 Clouds 22 1019 58 10000 0.72 49 23:20 18.07.2022
2553 Clear 24 1019 50 10000 0.51 70 22:26 18.07.2022
2554 Clear 28 1019 39 10000 1.03 80 21:20 18.07.2022
2555 Clear 30 1019 30 10000 2.57 290 20:22 18.07.2022
2556 Clear 32 1019 24 10000 2.57 220 18:29 18.07.2022
2557 Clear 32 1021 23 10000 5.66 290 16:34 18.07.2022
2558 Clear 31 1022 23 10000 2.06 0 15:28 18.07.2022
2559 Clear 29 1023 28 10000 3.6 160 13:32 18.07.2022
2560 Clear 27 1023 33 10000 2.06 0 11:43 18.07.2022
2561 Clear 22 1023 48 10000 2.57 140 09:55 18.07.2022
2562 Clear 22 1023 48 10000 2.57 140 09:55 18.07.2022
2563 Clear 17 1024 68 10000 1.03 0 07:58 18.07.2022
2564 Clear 13 1024 87 10000 0.51 0 05:25 18.07.2022
2565 Clear 18 1025 62 10000 0.51 340 22:57 17.07.2022
2566 Clear 18 1026 59 10000 0.51 340 22:31 17.07.2022
2567 Clear 21 1025 46 10000 1.03 20 21:39 17.07.2022
2568 Clear 22 1025 43 10000 2.57 20 20:46 17.07.2022
2569 Clear 24 1024 41 10000 3.09 10 19:50 17.07.2022
2570 Clear 25 1024 37 10000 2.57 350 19:24 17.07.2022
2571 Clear 25 1025 34 10000 3.6 310 17:54 17.07.2022
2572 Clear 25 1025 34 10000 3.6 310 17:36 17.07.2022
2573 Clear 25 1025 32 10000 3.6 310 16:33 17.07.2022
2574 Clear 25 1026 34 10000 3.6 320 15:50 17.07.2022
2575 Clear 23 1026 42 10000 3.09 0 13:51 17.07.2022
2576 Clear 21 1027 48 10000 4.63 340 12:43 17.07.2022
2577 Clouds 17 1028 62 10000 3.09 270 10:20 17.07.2022
2578 Clear 11 1027 88 10000 1.03 240 06:59 17.07.2022
2579 Clear 11 1026 87 10000 0.51 0 02:35 17.07.2022
2580 Clear 14 1025 81 10000 0.51 0 23:26 16.07.2022
2581 Clear 14 1026 67 10000 1.03 350 22:33 16.07.2022
2582 Clear 18 1024 48 10000 4.63 330 20:40 16.07.2022
2583 Clear 20 1023 45 10000 7.2 320 18:58 16.07.2022
2584 Clear 21 1022 42 10000 7.2 300 17:47 16.07.2022
2585 Clear 22 1022 41 10000 7.2 320 15:54 16.07.2022
2586 Clouds 20 1020 47 10000 8.23 300 12:37 16.07.2022
2587 Clouds 18 1020 70 10000 7.72 300 10:28 16.07.2022
2588 Clouds 17 1019 81 10000 5.14 280 09:25 16.07.2022
2589 Clouds 16 1019 91 10000 5.66 270 08:41 16.07.2022
2590 Drizzle 15 1018 88 10000 5.66 270 07:23 16.07.2022
2591 Clouds 16 1018 78 10000 4.12 260 03:35 16.07.2022
2592 Clear 15 1019 79 10000 2.06 200 00:45 16.07.2022
2593 Clear 15 1020 79 10000 0.51 180 22:56 15.07.2022
2594 Clear 16 1020 73 10000 0 0 22:24 15.07.2022
2595 Clear 18 1021 58 10000 3.09 320 20:41 15.07.2022
2596 Clear 18 1020 58 10000 3.09 320 19:34 15.07.2022
2597 Clouds 19 1020 56 10000 4.63 330 18:23 15.07.2022
2598 Clear 19 1020 55 10000 6.17 280 17:19 15.07.2022
2599 Clouds 19 1021 49 10000 4.63 280 14:19 15.07.2022
2600 Clouds 18 1021 58 10000 5.14 300 12:37 15.07.2022
2601 Clouds 18 1020 55 10000 3.6 290 10:52 15.07.2022
2602 Clouds 14 1020 83 10000 3.09 260 07:48 15.07.2022
2603 Clear 12 1019 92 10000 2.06 270 03:41 15.07.2022
2604 Clear 13 1019 89 10000 1.03 290 00:40 15.07.2022
2605 Clouds 14 1019 88 10000 2.57 290 23:24 14.07.2022
2606 Clear 16 1019 73 10000 2.57 300 22:24 14.07.2022
2607 Clear 17 1019 66 10000 4.12 310 21:40 14.07.2022
2608 Clear 17 1018 63 10000 5.66 330 21:21 14.07.2022
2609 Clear 18 1018 56 10000 4.63 320 20:43 14.07.2022
2610 Clear 18 1018 57 10000 3.6 310 20:18 14.07.2022
2611 Clear 22 1017 45 10000 7.2 320 18:24 14.07.2022
2612 Clear 23 1017 42 10000 6.69 300 16:19 14.07.2022
2613 Clear 23 1017 41 10000 6.17 310 14:56 14.07.2022
2614 Clouds 23 1017 41 10000 4.63 310 13:51 14.07.2022
2615 Clouds 22 1017 47 10000 2.06 0 12:34 14.07.2022
2616 Clouds 20 1019 54 10000 2.57 0 11:26 14.07.2022
2617 Clouds 19 1019 56 10000 5.14 300 10:51 14.07.2022
2618 Clouds 17 1020 67 10000 1.54 350 08:52 14.07.2022
2619 Clouds 13 1020 95 10000 1.74 308 04:44 14.07.2022
2620 Clear 16 1019 89 10000 4.12 330 01:19 14.07.2022
2621 Clear 16 1019 89 10000 4.12 320 00:51 14.07.2022
2622 Clear 20 1018 77 10000 4.63 340 22:31 13.07.2022
2623 Clear 22 1018 56 10000 4.12 330 21:42 13.07.2022
2624 Clear 24 1017 57 10000 6.69 330 20:38 13.07.2022
2625 Clear 28 1016 44 10000 5.66 320 18:36 13.07.2022
2626 Clear 29 1016 41 10000 7.2 300 17:31 13.07.2022
2627 Clear 29 1016 41 10000 7.2 300 17:31 13.07.2022
2628 Clear 30 1016 35 10000 7.2 280 16:19 13.07.2022
2629 Clear 30 1016 38 10000 5.66 250 14:46 13.07.2022
2630 Clear 27 1018 36 10000 4.63 250 11:36 13.07.2022
2631 Clear 26 1018 41 10000 4.12 240 10:44 13.07.2022
2632 Clear 25 1018 47 10000 2.57 230 09:49 13.07.2022
2633 Clear 24 1019 51 10000 2.57 230 09:20 13.07.2022
2634 Rain 19 1019 77 10000 0.51 0 05:21 13.07.2022
2635 Clear 18 1022 83 10000 0.51 0 00:49 13.07.2022
2636 Clouds 19 1022 80 10000 1.6 306 23:21 12.07.2022
2637 Clear 22 1023 60 10000 1.54 310 21:49 12.07.2022
2638 Clear 24 1022 53 10000 1.54 330 20:54 12.07.2022
2639 Clear 25 1022 51 10000 1.54 330 20:36 12.07.2022
2640 Clear 27 1022 44 10000 3.09 340 18:53 12.07.2022
2641 Clear 28 1022 38 10000 4.12 320 17:29 12.07.2022
2642 Clear 27 1023 36 10000 3.09 270 15:35 12.07.2022
2643 Clear 25 1024 47 10000 3.6 290 13:43 12.07.2022
2644 Clear 22 1024 57 10000 2.57 0 11:59 12.07.2022
2645 Clear 21 1024 63 10000 2.06 0 10:46 12.07.2022
2646 Clouds 18 1024 73 10000 2.06 0 09:18 12.07.2022
2647 Clouds 16 1024 82 10000 1.54 320 07:55 12.07.2022
2648 Clouds 14 1024 94 10000 1.03 0 05:53 12.07.2022
2649 Clouds 14 1024 94 10000 1.03 0 05:34 12.07.2022
2650 Fog 14 1024 94 10000 0.51 190 01:32 12.07.2022
2651 Clouds 17 1023 90 10000 2.06 330 22:49 11.07.2022
2652 Clouds 18 1022 88 10000 2.17 297 21:37 11.07.2022
2653 Clouds 19 1022 84 10000 3.6 300 20:33 11.07.2022
2654 Clouds 19 1022 87 10000 3.09 310 19:28 11.07.2022
2655 Clouds 20 1022 86 10000 3.6 280 18:30 11.07.2022
2656 Clouds 18 1022 87 10000 3.6 300 16:34 11.07.2022
2657 Clouds 18 1022 85 10000 3.09 310 15:33 11.07.2022
2658 Clouds 19 1022 70 10000 4.12 290 13:27 11.07.2022
2659 Clouds 18 1022 75 10000 4.63 290 11:24 11.07.2022
2660 Clouds 17 1022 78 10000 4.12 300 10:18 11.07.2022
2661 Clouds 17 1022 79 10000 3.6 310 09:40 11.07.2022
2662 Clouds 16 1022 81 10000 2.57 270 08:32 11.07.2022
2663 Clouds 14 1022 94 10000 3.09 280 01:54 11.07.2022
2664 Clouds 15 1022 89 10000 3.09 310 23:55 10.07.2022
2665 Clouds 15 1022 86 10000 2.06 280 22:48 10.07.2022
2666 Clouds 17 1021 72 10000 5.14 310 20:56 10.07.2022
2667 Clouds 17 1021 71 10000 5.14 310 20:37 10.07.2022
2668 Clouds 18 1021 68 10000 5.66 310 19:38 10.07.2022
2669 Clear 18 1021 67 10000 6.69 300 18:43 10.07.2022
2670 Drizzle 18 1022 65 10000 5.14 300 17:35 10.07.2022
2671 Clouds 18 1022 64 10000 6.17 280 16:24 10.07.2022
2672 Clouds 18 1022 62 10000 7.2 300 15:20 10.07.2022
2673 Clouds 19 1022 49 10000 7.2 300 13:40 10.07.2022
2674 Clouds 18 1022 56 10000 7.72 290 12:26 10.07.2022
2675 Clouds 16 1022 66 10000 6.69 300 09:57 10.07.2022
2676 Clouds 15 1022 78 10000 5.66 290 08:44 10.07.2022
2677 Clear 14 1022 82 10000 5.14 280 07:29 10.07.2022
2678 Clouds 15 1023 76 10000 5.14 300 01:23 10.07.2022
2679 Clouds 16 1024 66 10000 4.63 300 22:27 09.07.2022
2680 Clouds 16 1024 64 10000 4.12 320 21:56 09.07.2022
2681 Clouds 18 1023 59 10000 7.2 320 20:23 09.07.2022
2682 Clouds 20 1022 61 10000 7.72 330 18:35 09.07.2022
2683 Clouds 21 1022 61 10000 9.26 330 17:33 09.07.2022
2684 Clouds 21 1022 71 10000 4.63 320 16:44 09.07.2022
2685 Clouds 19 1022 91 10000 3.09 310 15:40 09.07.2022
2686 Clouds 22 1023 55 10000 6.17 260 14:27 09.07.2022
2687 Clouds 22 1023 57 10000 6.17 290 13:49 09.07.2022
2688 Clouds 21 1023 63 10000 6.17 290 12:43 09.07.2022
2689 Clouds 19 1024 75 10000 5.14 300 11:19 09.07.2022
2690 Clouds 19 1025 77 10000 4.63 280 10:22 09.07.2022
2691 Clouds 16 1024 89 10000 2.06 260 07:45 09.07.2022
2692 Clouds 14 1025 94 10000 1.03 240 04:53 09.07.2022
2693 Clear 14 1026 92 10000 1.54 280 01:50 09.07.2022
2694 Clouds 17 1027 91 10000 1.54 310 22:53 08.07.2022
2695 Clouds 20 1026 83 10000 3.09 310 21:34 08.07.2022
2696 Clouds 21 1026 75 10000 5.66 280 20:40 08.07.2022
2697 Clouds 21 1026 68 10000 3.6 280 19:52 08.07.2022
2698 Clouds 20 1027 70 10000 5.66 300 18:23 08.07.2022
2699 Clouds 20 1028 72 10000 5.14 290 16:40 08.07.2022
2700 Clouds 19 1028 62 10000 5.66 290 14:51 08.07.2022
2701 Clouds 19 1028 62 10000 5.66 290 14:51 08.07.2022
2702 Clouds 20 1028 62 10000 5.14 290 13:26 08.07.2022
2703 Clouds 19 1028 62 10000 5.66 290 11:28 08.07.2022
2704 Clouds 17 1028 65 10000 5.66 280 10:27 08.07.2022
2705 Clouds 15 1028 81 10000 5.14 280 08:27 08.07.2022
2706 Clouds 14 1027 86 10000 4.12 280 06:49 08.07.2022
2707 Clouds 15 1026 79 10000 6.69 300 01:23 08.07.2022
2708 Clouds 15 1024 77 10000 7.72 300 22:57 07.07.2022
2709 Clouds 16 1024 76 10000 7.72 300 22:28 07.07.2022
2710 Clouds 17 1022 70 10000 6.69 310 20:22 07.07.2022
2711 Clouds 18 1021 70 10000 8.75 330 18:20 07.07.2022
2712 Clouds 18 1020 81 10000 7.2 320 16:46 07.07.2022
2713 Clouds 18 1018 88 10000 5.66 290 14:32 07.07.2022
2714 Clouds 17 1017 94 10000 6.17 300 13:18 07.07.2022
2715 Rain 17 1017 93 10000 6.17 280 12:24 07.07.2022
2716 Rain 17 1017 93 10000 6.17 280 12:24 07.07.2022
2717 Clouds 17 1016 93 10000 5.14 290 11:44 07.07.2022
2718 Drizzle 17 1015 90 9000 7.2 290 11:24 07.07.2022
2719 Drizzle 17 1015 92 10000 6.17 290 10:40 07.07.2022
2720 Clouds 17 1015 94 10000 4.12 270 10:22 07.07.2022
2721 Rain 15 1015 96 9000 4.12 240 06:40 07.07.2022
2722 Rain 16 1019 84 10000 3.63 237 00:32 07.07.2022
2723 Rain 17 1019 83 10000 2.72 256 23:36 06.07.2022
2724 Rain 17 1020 71 10000 5.14 280 23:18 06.07.2022
2725 Rain 18 1020 66 10000 5.14 280 22:52 06.07.2022
2726 Rain 18 1020 58 10000 5.14 280 22:34 06.07.2022
2727 Clear 20 1020 49 10000 4.63 290 20:30 06.07.2022
2728 Clear 20 1020 49 10000 4.63 290 20:30 06.07.2022
2729 Clear 20 1020 47 10000 4.63 280 19:33 06.07.2022
2730 Clear 21 1021 45 10000 5.14 260 17:22 06.07.2022
2731 Clouds 20 1022 45 10000 4.63 270 15:58 06.07.2022
2732 Clouds 19 1023 51 10000 5.14 270 12:57 06.07.2022
2733 Clouds 18 1023 52 10000 5.14 250 12:21 06.07.2022
2734 Clouds 18 1023 59 10000 5.14 280 10:55 06.07.2022
2735 Clear 16 1023 72 10000 3.6 280 09:27 06.07.2022
2736 Clear 16 1023 72 10000 3.6 280 09:27 06.07.2022
2737 Clear 15 1022 75 10000 3.09 270 07:44 06.07.2022
2738 Clear 15 1022 75 10000 3.09 270 07:44 06.07.2022
2739 Clear 14 1023 82 10000 2.57 280 06:49 06.07.2022
2740 Clear 14 1023 76 10000 2.06 300 00:38 06.07.2022
2741 Clear 17 1022 63 10000 2.57 330 22:43 05.07.2022
2742 Clear 20 1021 49 10000 5.14 320 20:49 05.07.2022
2743 Clear 22 1020 49 10000 5.14 340 20:31 05.07.2022
2744 Clear 22 1019 47 10000 4.12 330 19:38 05.07.2022
2745 Clear 23 1020 38 10000 2.57 0 17:51 05.07.2022
2746 Clear 24 1020 38 10000 6.17 310 17:19 05.07.2022
2747 Clear 24 1020 38 10000 5.66 310 16:25 05.07.2022
2748 Clear 24 1020 36 10000 5.66 270 14:54 05.07.2022
2749 Clear 23 1020 40 10000 6.17 300 13:36 05.07.2022
2750 Clear 22 1020 42 10000 6.17 270 12:24 05.07.2022
2751 Clear 21 1020 46 10000 4.12 260 10:46 05.07.2022
2752 Clear 20 1021 54 10000 4.12 280 09:57 05.07.2022
2753 Clear 17 1020 75 10000 1.54 260 08:21 05.07.2022
2754 Clouds 15 1020 89 10000 1.03 0 06:51 05.07.2022
2755 Clear 13 1020 92 10000 0.51 0 04:35 05.07.2022
2756 Clear 15 1019 94 10000 0.51 320 01:33 05.07.2022
2757 Clear 17 1020 72 10000 2.57 340 23:37 04.07.2022
2758 Clear 19 1019 55 10000 3.09 310 22:56 04.07.2022
2759 Clear 20 1018 61 10000 2.57 310 22:18 04.07.2022
2760 Clear 23 1017 50 10000 3.09 280 20:56 04.07.2022
2761 Clouds 23 1017 49 10000 0.45 248 20:36 04.07.2022
2762 Clear 24 1017 44 10000 4.63 280 19:56 04.07.2022
2763 Clear 24 1017 43 10000 4.63 280 19:37 04.07.2022
2764 Clear 25 1017 40 10000 5.14 260 18:35 04.07.2022
2765 Clear 25 1017 37 10000 5.66 250 16:51 04.07.2022
2766 Clear 25 1018 40 10000 4.12 260 15:35 04.07.2022
2767 Clear 23 1019 42 10000 4.63 260 13:44 04.07.2022
2768 Clouds 23 1018 44 10000 4.63 290 12:38 04.07.2022
2769 Clouds 20 1020 58 10000 3.6 270 10:39 04.07.2022
2770 Clouds 20 1019 60 10000 4.12 280 10:20 04.07.2022
2771 Clouds 17 1019 70 10000 2.57 290 08:33 04.07.2022
2772 Clear 13 1019 94 10000 2.06 250 05:57 04.07.2022
2773 Clear 17 1018 80 10000 1.54 310 00:44 04.07.2022
2774 Clear 17 1018 80 10000 1.54 310 00:44 04.07.2022
2775 Clear 17 1018 82 10000 2.06 320 23:38 03.07.2022
2776 Clouds 19 1017 82 10000 5.14 310 22:28 03.07.2022
2777 Clear 24 1015 46 10000 5.14 300 20:45 03.07.2022
2778 Clear 26 1015 41 10000 6.69 300 19:42 03.07.2022
2779 Clear 27 1015 36 10000 5.66 280 19:23 03.07.2022
2780 Clear 28 1015 30 10000 6.17 250 17:46 03.07.2022
2781 Clear 29 1014 31 10000 5.14 280 17:18 03.07.2022
2782 Clear 29 1016 33 10000 5.14 280 15:26 03.07.2022
2783 Clear 29 1015 35 10000 4.12 280 14:49 03.07.2022
2784 Clear 27 1016 36 10000 5.14 280 13:49 03.07.2022
2785 Clear 27 1016 36 10000 3.09 290 12:42 03.07.2022
2786 Clear 26 1017 40 10000 3.6 0 11:46 03.07.2022
2787 Clear 25 1017 44 10000 3.6 290 10:40 03.07.2022
2788 Clear 24 1017 43 10000 4.63 260 10:20 03.07.2022
2789 Clear 20 1015 61 10000 2.06 180 07:37 03.07.2022
2790 Clear 17 1016 74 10000 1.03 0 05:26 03.07.2022
2791 Clear 19 1017 71 10000 2.57 90 00:26 03.07.2022
2792 Clear 21 1017 55 10000 2.06 90 22:37 02.07.2022
2793 Clear 22 1017 51 10000 2.57 90 22:18 02.07.2022
2794 Clear 26 1017 38 10000 2.06 180 20:21 02.07.2022
2795 Clear 26 1018 36 10000 3.6 180 19:49 02.07.2022
2796 Clear 27 1019 35 10000 4.63 0 17:59 02.07.2022
2797 Clear 27 1019 34 10000 4.63 0 17:37 02.07.2022
2798 Clear 27 1020 36 10000 2.57 0 15:37 02.07.2022
2799 Clear 24 1022 42 10000 4.12 260 12:49 02.07.2022
2800 Clear 23 1023 45 10000 3.6 260 11:28 02.07.2022
2801 Clear 22 1023 48 10000 3.6 260 10:48 02.07.2022
2802 Clear 21 1023 49 10000 2.06 0 09:49 02.07.2022
2803 Clear 19 1022 62 10000 2.06 220 08:37 02.07.2022
2804 Clear 17 1022 66 10000 1.54 210 08:18 02.07.2022
2805 Clear 12 1021 88 10000 1.03 260 02:53 02.07.2022
2806 Clear 14 1021 86 10000 0 0 00:27 02.07.2022
2807 Clear 15 1020 82 10000 0.51 0 22:59 01.07.2022
2808 Clear 17 1019 80 10000 0.51 0 22:26 01.07.2022
2809 Clear 19 1019 59 10000 1.03 220 21:37 01.07.2022
2810 Clear 19 1018 73 10000 1.54 280 20:58 01.07.2022
2811 Clouds 20 1018 52 10000 2.57 280 19:48 01.07.2022
2812 Clouds 20 1018 52 10000 3.09 290 19:22 01.07.2022
2813 Clouds 19 1017 61 10000 6.17 260 16:38 01.07.2022
2814 Rain 17 1017 72 10000 4.12 270 14:21 01.07.2022
2815 Clouds 16 1017 82 10000 4.12 270 13:23 01.07.2022
2816 Clouds 16 1016 90 10000 3.09 260 10:53 01.07.2022
2817 Rain 16 1016 91 10000 3.6 250 10:19 01.07.2022
2818 Clouds 16 1014 90 10000 3.6 260 06:20 01.07.2022
2819 Clear 19 1011 91 10000 4.12 270 01:57 01.07.2022
2820 Clear 22 1008 85 10000 2.57 90 23:34 30.06.2022
2821 Clear 23 1009 64 10000 1.03 70 22:47 30.06.2022
2822 Clear 24 1008 81 10000 1.54 80 22:27 30.06.2022
2823 Clear 25 1009 57 10000 1.54 100 21:51 30.06.2022
2824 Clear 28 1008 64 10000 2.06 120 20:45 30.06.2022
2825 Clear 28 1008 63 10000 2.06 110 20:18 30.06.2022
2826 Clear 28 1008 57 10000 2.57 120 19:47 30.06.2022
2827 Clear 28 1009 60 10000 3.6 170 18:49 30.06.2022
2828 Rain 27 1009 66 10000 1.03 0 17:49 30.06.2022
2829 Clear 29 1009 46 10000 2.57 0 16:56 30.06.2022
2830 Clear 30 1010 43 10000 1.54 0 15:52 30.06.2022
2831 Clouds 30 1010 48 10000 2.06 0 13:51 30.06.2022
2832 Clouds 29 1011 50 10000 2.57 100 13:18 30.06.2022
2833 Clouds 28 1011 53 10000 3.09 130 12:32 30.06.2022
2834 Clear 25 1012 61 10000 3.6 100 10:19 30.06.2022
2835 Clear 24 1012 63 10000 3.6 100 09:40 30.06.2022
2836 Clear 21 1012 66 10000 3.09 110 08:26 30.06.2022
2837 Clear 18 1012 68 10000 3.09 110 07:40 30.06.2022
2838 Clear 16 1012 82 10000 1.54 70 03:35 30.06.2022
2839 Clear 20 1013 65 10000 2.06 80 23:39 29.06.2022
2840 Clear 21 1013 67 10000 3.09 90 22:41 29.06.2022
2841 Clear 22 1013 63 10000 2.57 110 22:19 29.06.2022
2842 Clear 24 1013 54 10000 3.09 110 20:35 29.06.2022
2843 Clear 25 1013 51 10000 4.12 100 19:56 29.06.2022
2844 Clear 26 1013 44 10000 5.66 100 17:55 29.06.2022
2845 Clear 26 1014 45 10000 5.66 100 17:32 29.06.2022
2846 Clear 27 1014 44 10000 5.66 110 16:23 29.06.2022
2847 Clouds 26 1015 51 10000 5.66 110 13:45 29.06.2022
2848 Clouds 26 1015 49 10000 5.14 130 12:38 29.06.2022
2849 Clear 23 1016 58 10000 4.12 110 09:50 29.06.2022
2850 Clear 22 1016 59 10000 4.12 110 09:26 29.06.2022
2851 Clear 15 1016 77 10000 1.54 80 06:29 29.06.2022
2852 Clear 14 1017 85 10000 1.03 90 04:44 29.06.2022
2853 Clear 16 1018 74 10000 0.51 80 00:53 29.06.2022
2854 Clear 17 1018 74 10000 0.51 80 00:34 29.06.2022
2855 Clear 19 1018 58 10000 1.03 80 22:52 28.06.2022
2856 Clear 21 1019 49 10000 1.03 0 21:59 28.06.2022
2857 Clear 21 1019 49 10000 1.03 0 21:40 28.06.2022
2858 Clear 22 1018 48 10000 1.03 0 21:22 28.06.2022
2859 Clear 24 1018 41 10000 2.06 0 19:54 28.06.2022
2860 Clear 25 1018 40 10000 2.06 240 19:30 28.06.2022
2861 Clear 25 1018 37 10000 1.54 0 18:40 28.06.2022
2862 Clear 26 1019 36 10000 2.06 0 16:58 28.06.2022
2863 Clear 26 1020 35 10000 2.06 0 15:55 28.06.2022
2864 Clear 25 1020 38 10000 3.09 280 14:52 28.06.2022
2865 Clear 24 1021 40 10000 2.57 0 14:19 28.06.2022
2866 Clouds 24 1022 42 10000 2.57 0 13:45 28.06.2022
2867 Clouds 23 1021 46 10000 3.09 240 12:30 28.06.2022
2868 Clear 20 1022 56 10000 3.6 300 10:23 28.06.2022
2869 Clear 18 1022 71 10000 3.6 280 08:55 28.06.2022
2870 Clear 18 1021 72 10000 3.6 280 08:33 28.06.2022
2871 Clouds 16 1021 85 10000 3.6 270 07:20 28.06.2022
2872 Clouds 15 1020 94 10000 4.63 260 03:55 28.06.2022
2873 Clouds 17 1018 97 10000 1.54 280 23:51 27.06.2022
2874 Clouds 17 1018 92 10000 1.03 200 23:26 27.06.2022
2875 Clouds 18 1018 89 10000 2.06 270 21:53 27.06.2022
2876 Clouds 19 1018 89 10000 2.57 270 21:22 27.06.2022
2877 Clouds 19 1016 83 10000 3.09 290 20:21 27.06.2022
2878 Mist 19 1016 89 4800 5.14 280 18:51 27.06.2022
2879 Clouds 20 1015 86 10000 5.66 290 17:38 27.06.2022
2880 Clouds 22 1015 73 10000 6.17 290 15:50 27.06.2022
2881 Clouds 24 1014 65 10000 5.14 280 14:18 27.06.2022
2882 Clouds 24 1014 64 10000 3.09 300 12:58 27.06.2022
2883 Clouds 23 1014 68 10000 3.6 310 11:40 27.06.2022
2884 Clear 21 1012 76 10000 2.06 320 09:45 27.06.2022
2885 Clear 20 1013 84 10000 2.06 260 08:43 27.06.2022
2886 Clear 19 1013 89 10000 1.03 0 07:39 27.06.2022
2887 Clouds 19 1013 89 10000 1.03 0 05:50 27.06.2022
2888 Clear 21 1013 78 10000 2.57 50 01:24 27.06.2022
2889 Clear 22 1015 64 10000 2.06 320 22:59 26.06.2022
2890 Clear 23 1014 56 10000 2.57 340 21:38 26.06.2022
2891 Clear 25 1014 53 10000 4.12 320 20:28 26.06.2022
2892 Clear 26 1014 50 10000 3.09 290 18:33 26.06.2022
2893 Clear 27 1015 47 10000 2.57 320 17:47 26.06.2022
2894 Clouds 27 1014 52 10000 4.63 300 15:37 26.06.2022
2895 Clouds 27 1014 52 10000 5.14 270 14:23 26.06.2022
2896 Clouds 28 1014 48 10000 4.63 270 13:24 26.06.2022
2897 Clear 26 1015 50 10000 3.6 290 11:41 26.06.2022
2898 Clear 26 1013 53 10000 3.09 260 10:42 26.06.2022
2899 Clear 25 1014 54 10000 4.12 270 10:19 26.06.2022
2900 Clear 23 1012 60 10000 3.09 260 08:27 26.06.2022
2901 Clear 18 1012 81 10000 1.03 0 06:19 26.06.2022
2902 Clear 21 1011 78 10000 1.03 0 00:37 26.06.2022
2903 Clear 22 1011 76 10000 1.03 80 00:19 26.06.2022
2904 Clear 22 1011 71 10000 1.03 0 23:31 25.06.2022
2905 Clear 23 1011 77 10000 1.03 0 22:46 25.06.2022
2906 Clouds 23 1011 92 10000 1.38 80 22:24 25.06.2022
2907 Clear 26 1011 58 10000 1.03 0 21:21 25.06.2022
2908 Clear 28 1011 39 10000 1.54 150 20:39 25.06.2022
2909 Clear 28 1011 37 10000 2.06 180 19:59 25.06.2022
2910 Clear 29 1010 41 10000 2.57 170 18:23 25.06.2022
2911 Clear 28 1010 43 10000 1.54 0 17:27 25.06.2022
2912 Clear 29 1012 37 10000 1.54 0 16:27 25.06.2022
2913 Clear 27 1012 45 10000 3.6 260 14:31 25.06.2022
2914 Clouds 26 1012 49 10000 2.57 270 12:46 25.06.2022
2915 Clouds 26 1012 51 10000 4.12 270 12:27 25.06.2022
2916 Clear 22 1012 68 10000 3.6 260 09:24 25.06.2022
2917 Clear 22 1012 68 10000 3.6 260 09:24 25.06.2022
2918 Clear 22 1011 70 10000 3.09 260 08:49 25.06.2022
2919 Clear 21 1012 73 10000 2.57 250 08:20 25.06.2022
2920 Clear 17 1011 96 10000 1.54 260 06:34 25.06.2022
2921 Clear 18 1009 95 10000 1.03 140 00:44 25.06.2022
2922 Clear 19 1008 93 10000 1.54 130 23:46 24.06.2022
2923 Clear 20 1007 94 10000 1.55 253 22:22 24.06.2022
2924 Clear 22 1006 86 10000 2.64 255 21:22 24.06.2022
2925 Clear 23 1007 83 10000 2.06 260 20:23 24.06.2022
2926 Clear 24 1006 81 10000 2.57 280 19:24 24.06.2022
2927 Clouds 24 1005 74 10000 4.09 245 18:51 24.06.2022
2928 Clouds 23 1005 72 10000 7.72 260 18:31 24.06.2022
2929 Clouds 25 1005 72 10000 3.6 170 17:47 24.06.2022
2930 Rain 26 1005 58 10000 2.57 0 16:34 24.06.2022
2931 Clear 24 1006 77 10000 4.63 190 14:30 24.06.2022
2932 Drizzle 25 1006 74 10000 5.14 200 13:58 24.06.2022
2933 Rain 26 1006 56 10000 2.57 210 12:28 24.06.2022
2934 Clear 27 1006 50 10000 3.09 210 11:40 24.06.2022
2935 Clear 26 1006 44 10000 3.09 240 10:26 24.06.2022
2936 Clear 26 1007 44 10000 3.09 200 09:41 24.06.2022
2937 Clear 25 1006 48 10000 2.57 160 08:53 24.06.2022
2938 Clear 22 1006 54 10000 2.06 130 07:39 24.06.2022
2939 Clear 20 1006 63 10000 3.09 110 06:42 24.06.2022
2940 Clear 19 1006 64 10000 2.06 100 06:18 24.06.2022
2941 Clear 20 1007 59 10000 3.09 90 03:33 24.06.2022
2942 Clear 24 1010 38 10000 3.09 100 22:59 23.06.2022
2943 Clear 24 1010 38 10000 3.09 100 22:40 23.06.2022
2944 Clear 29 1010 26 10000 5.14 90 20:58 23.06.2022
2945 Clear 29 1010 28 10000 5.14 90 20:35 23.06.2022
2946 Clear 30 1011 29 10000 3.6 110 19:34 23.06.2022
2947 Clear 31 1010 30 10000 2.06 0 17:52 23.06.2022
2948 Clear 31 1010 29 10000 3.6 100 17:23 23.06.2022
2949 Clear 31 1011 30 10000 3.09 0 15:50 23.06.2022
2950 Clear 31 1011 31 10000 3.6 0 15:24 23.06.2022
2951 Clear 29 1012 33 10000 3.6 0 13:40 23.06.2022
2952 Clear 27 1013 44 10000 3.09 90 11:27 23.06.2022
2953 Clear 24 1014 51 10000 3.6 100 10:35 23.06.2022
2954 Clear 21 1014 63 10000 3.09 110 08:53 23.06.2022
2955 Clear 14 1013 89 10000 0.51 350 03:35 23.06.2022
2956 Clear 16 1013 78 10000 2.06 30 00:26 23.06.2022
2957 Clear 18 1013 52 10000 2.06 30 23:30 22.06.2022
2958 Clear 20 1013 49 10000 3.09 20 22:39 22.06.2022
2959 Clear 24 1012 33 10000 2.57 350 21:22 22.06.2022
2960 Clear 25 1012 27 10000 2.57 350 20:42 22.06.2022
2961 Clear 26 1012 22 10000 1.54 350 19:56 22.06.2022
2962 Clear 27 1011 24 10000 2.57 300 18:46 22.06.2022
2963 Clear 27 1011 25 10000 2.57 340 17:27 22.06.2022
2964 Clear 27 1011 26 10000 3.09 350 16:24 22.06.2022
2965 Clear 27 1012 28 10000 2.57 320 15:26 22.06.2022
2966 Clear 25 1013 32 10000 3.09 0 14:19 22.06.2022
2967 Clear 25 1013 32 10000 1.54 0 13:37 22.06.2022
2968 Clear 25 1013 35 10000 2.57 0 13:18 22.06.2022
2969 Clouds 23 1014 43 10000 2.57 280 11:49 22.06.2022
2970 Clear 22 1013 49 10000 2.06 70 10:55 22.06.2022
2971 Clear 21 1013 55 10000 2.06 60 09:59 22.06.2022
2972 Clear 18 1014 66 10000 0.51 0 08:27 22.06.2022
2973 Clear 12 1012 89 10000 0.48 21 03:50 22.06.2022
2974 Clear 14 1013 81 10000 2.57 30 01:23 22.06.2022
2975 Clear 14 1012 79 10000 0.51 0 00:24 22.06.2022
2976 Clear 18 1013 63 10000 0.51 0 22:18 21.06.2022
2977 Clear 22 1012 41 10000 1.03 0 19:55 21.06.2022
2978 Clear 23 1012 40 10000 2.06 290 18:35 21.06.2022
2979 Clear 23 1013 37 10000 1.03 0 17:31 21.06.2022
2980 Clear 22 1014 45 10000 2.57 0 13:45 21.06.2022
2981 Clear 19 1015 57 10000 3.09 290 11:37 21.06.2022
2982 Clouds 16 1016 67 10000 4.12 260 09:54 21.06.2022
2983 Clouds 14 1016 74 10000 3.09 280 08:47 21.06.2022
2984 Clear 11 1015 90 10000 1.03 0 06:36 21.06.2022
2985 Clear 11 1015 89 10000 2.57 280 01:31 21.06.2022
2986 Clear 13 1015 84 10000 3.6 300 23:24 20.06.2022
2987 Clear 15 1015 79 10000 5.14 300 21:54 20.06.2022
2988 Clear 17 1014 59 10000 6.69 310 20:50 20.06.2022
2989 Clear 18 1013 53 10000 5.66 310 19:40 20.06.2022
2990 Clear 19 1013 47 10000 7.2 310 18:46 20.06.2022
2991 Clear 19 1012 47 10000 6.69 310 17:59 20.06.2022
2992 Clear 20 1013 47 10000 6.17 290 17:32 20.06.2022
2993 Clouds 20 1012 48 10000 6.17 290 15:56 20.06.2022
2994 Clouds 18 1013 58 10000 4.12 280 12:56 20.06.2022
2995 Clouds 15 1012 77 10000 4.12 300 11:18 20.06.2022
2996 Clear 14 1012 86 10000 2.57 260 09:41 20.06.2022
2997 Clouds 13 1013 91 10000 2.06 300 08:44 20.06.2022
2998 Rain 12 1013 97 10000 3.09 270 06:19 20.06.2022
2999 Rain 13 1012 92 10000 2.57 310 02:56 20.06.2022
3000 Clouds 14 1012 90 10000 2.06 310 00:32 20.06.2022
3001 Clouds 15 1012 89 10000 3.09 320 23:18 19.06.2022
3002 Rain 16 1012 89 10000 2.06 320 21:58 19.06.2022
3003 Clouds 16 1012 84 10000 2.06 320 21:40 19.06.2022
3004 Clear 18 1011 75 10000 4.12 360 20:44 19.06.2022
3005 Clear 20 1011 54 10000 5.14 330 19:48 19.06.2022
3006 Clear 20 1011 52 10000 5.66 330 19:20 19.06.2022
3007 Clear 20 1011 52 10000 5.66 320 18:30 19.06.2022
3008 Clear 21 1011 59 10000 7.2 320 17:22 19.06.2022
3009 Clear 22 1010 54 10000 6.69 330 16:36 19.06.2022
3010 Clear 24 1009 49 10000 5.66 340 15:43 19.06.2022
3011 Clear 25 1008 50 10000 3.6 360 15:24 19.06.2022
3012 Clear 25 1008 49 10000 3.09 290 14:20 19.06.2022
3013 Clear 24 1008 49 10000 5.14 310 13:37 19.06.2022
3014 Clear 23 1008 53 10000 5.14 350 11:40 19.06.2022
3015 Clear 22 1007 56 10000 2.57 60 10:47 19.06.2022
3016 Clear 19 1007 60 10000 5.66 350 08:54 19.06.2022
3017 Clear 18 1008 67 10000 4.12 350 08:22 19.06.2022
3018 Clear 17 1008 77 10000 5.14 50 05:44 19.06.2022
3019 Clear 19 1010 72 10000 3.09 100 02:32 19.06.2022
3020 Clear 20 1013 73 10000 2.57 50 00:26 19.06.2022
3021 Clear 21 1013 68 10000 3.09 40 23:36 18.06.2022
3022 Clear 22 1013 68 10000 3.09 20 22:45 18.06.2022
3023 Clear 24 1013 64 10000 2.06 360 21:43 18.06.2022
3024 Clear 26 1013 57 10000 4.12 360 20:49 18.06.2022
3025 Clear 26 1013 57 10000 4.12 360 20:49 18.06.2022
3026 Clear 29 1014 50 10000 4.63 350 19:40 18.06.2022
3027 Clear 30 1013 48 10000 5.66 340 18:54 18.06.2022
3028 Clear 32 1013 41 10000 4.12 300 17:43 18.06.2022
3029 Clear 32 1013 41 10000 6.17 290 17:22 18.06.2022
3030 Clear 31 1015 39 10000 6.17 300 15:37 18.06.2022
3031 Clear 32 1014 39 10000 5.66 280 14:48 18.06.2022
3032 Clear 30 1015 39 10000 5.66 270 13:42 18.06.2022
3033 Clear 29 1016 46 10000 5.14 260 11:58 18.06.2022
3034 Clear 27 1016 48 10000 5.14 260 10:56 18.06.2022
3035 Clear 27 1016 48 10000 5.14 260 10:56 18.06.2022
3036 Clear 25 1016 49 10000 4.12 250 09:28 18.06.2022
3037 Clear 24 1016 51 10000 3.6 240 08:32 18.06.2022
3038 Clear 21 1016 60 10000 2.57 210 07:23 18.06.2022
3039 Clear 18 1016 69 10000 2.06 160 03:58 18.06.2022
3040 Clear 18 1018 71 10000 1.03 0 01:27 18.06.2022
3041 Clear 19 1018 72 10000 1.54 160 00:49 18.06.2022
3042 Clear 20 1019 72 10000 1.54 160 23:59 17.06.2022
3043 Clear 20 1019 72 10000 1.54 140 23:29 17.06.2022
3044 Clear 23 1020 61 10000 1.54 140 21:33 17.06.2022
3045 Clear 24 1020 53 10000 1.03 0 20:26 17.06.2022
3046 Clear 26 1021 43 10000 1.03 0 18:59 17.06.2022
3047 Clear 25 1021 44 10000 0.51 0 17:46 17.06.2022
3048 Clear 25 1022 45 10000 1.03 0 16:43 17.06.2022
3049 Clear 26 1022 41 10000 1.54 260 16:19 17.06.2022
3050 Clear 26 1022 42 10000 2.06 200 15:37 17.06.2022
3051 Clouds 25 1022 40 10000 2.55 237 14:22 17.06.2022
3052 Clear 25 1023 39 10000 2.06 250 13:51 17.06.2022
3053 Rain 25 1023 39 10000 3.09 260 13:31 17.06.2022
3054 Clear 23 1024 41 10000 2.06 0 11:59 17.06.2022
3055 Clear 23 1024 42 10000 2.06 0 11:39 17.06.2022
3056 Clear 23 1024 43 10000 1.54 0 11:21 17.06.2022
3057 Clear 17 1025 59 10000 1.03 0 08:38 17.06.2022
3058 Clear 16 1024 69 10000 0.51 0 07:53 17.06.2022
3059 Clear 13 1024 83 10000 0.51 0 06:34 17.06.2022
3060 Clear 11 1023 86 10000 1.03 0 03:24 17.06.2022
3061 Clear 14 1023 82 10000 1.03 0 00:46 17.06.2022
3062 Clear 16 1023 67 10000 2.06 310 23:30 16.06.2022
3063 Clear 16 1023 59 10000 2.57 340 22:38 16.06.2022
3064 Clear 16 1023 59 10000 2.57 340 22:38 16.06.2022
3065 Clear 20 1022 45 10000 4.12 330 21:19 16.06.2022
3066 Clear 20 1022 45 10000 4.12 320 20:50 16.06.2022
3067 Clear 22 1022 45 10000 5.66 310 19:59 16.06.2022
3068 Clear 22 1022 44 10000 4.63 340 18:48 16.06.2022
3069 Clear 24 1021 39 10000 5.66 360 17:49 16.06.2022
3070 Clear 24 1020 38 10000 4.63 320 17:27 16.06.2022
3071 Clear 24 1021 36 10000 5.66 350 16:19 16.06.2022
3072 Clear 23 1021 37 10000 4.63 360 15:21 16.06.2022
3073 Clear 23 1021 40 10000 4.12 310 14:22 16.06.2022
3074 Clouds 22 1021 44 10000 4.12 310 12:53 16.06.2022
3075 Clouds 22 1020 46 10000 4.12 310 12:34 16.06.2022
3076 Clouds 20 1020 52 10000 3.6 360 11:21 16.06.2022
3077 Clouds 20 1020 54 10000 4.12 350 10:35 16.06.2022
3078 Clear 18 1020 61 10000 4.12 340 09:39 16.06.2022
3079 Clear 17 1019 68 10000 3.6 330 08:56 16.06.2022
3080 Clear 14 1019 81 10000 3.09 330 07:38 16.06.2022
3081 Clear 13 1018 81 10000 1.54 350 05:51 16.06.2022
3082 Clear 13 1018 85 10000 2.57 300 03:56 16.06.2022
3083 Clear 15 1018 79 10000 3.09 330 01:52 16.06.2022
3084 Clear 14 1018 86 10000 2.06 320 01:22 16.06.2022
3085 Clear 16 1018 67 10000 4.12 360 23:58 15.06.2022
3086 Clear 18 1018 59 10000 4.12 350 22:53 15.06.2022
3087 Clear 21 1017 49 10000 4.12 360 21:37 15.06.2022
3088 Clear 23 1017 43 10000 4.63 350 20:59 15.06.2022
3089 Clear 23 1017 43 10000 4.63 350 20:36 15.06.2022
3090 Clear 24 1017 33 10000 2.06 340 19:57 15.06.2022
3091 Clear 26 1016 36 10000 2.57 240 18:37 15.06.2022
3092 Clear 26 1016 36 10000 2.57 280 17:46 15.06.2022
3093 Clear 27 1018 33 10000 2.57 0 16:23 15.06.2022
3094 Clear 25 1018 37 10000 1.54 0 14:57 15.06.2022
3095 Clear 25 1018 40 10000 2.57 0 13:22 15.06.2022
3096 Clear 24 1018 41 10000 2.06 0 12:40 15.06.2022
3097 Clear 22 1018 47 10000 3.09 90 11:24 15.06.2022
3098 Clouds 20 1019 54 10000 1.83 72 10:22 15.06.2022
3099 Clear 17 1019 61 10000 4.12 90 08:59 15.06.2022
3100 Clear 14 1019 76 10000 2.57 90 07:36 15.06.2022
3101 Clear 10 1019 91 10000 3.09 80 05:36 15.06.2022
3102 Clear 10 1020 91 10000 1.54 90 02:47 15.06.2022
3103 Clear 11 1020 88 10000 1.54 90 01:36 15.06.2022
3104 Clear 13 1020 84 10000 1.03 70 00:19 15.06.2022
3105 Clear 14 1021 71 10000 1.03 0 23:38 14.06.2022
3106 Clear 15 1021 67 10000 2.57 30 22:46 14.06.2022
3107 Clear 17 1020 55 10000 2.06 20 21:43 14.06.2022
3108 Clear 20 1020 45 10000 1.54 10 20:58 14.06.2022
3109 Clear 20 1020 48 10000 1.54 10 20:38 14.06.2022
3110 Clear 20 1019 49 10000 1.03 0 19:47 14.06.2022
3111 Clear 21 1020 48 10000 0.51 0 18:33 14.06.2022
3112 Clouds 21 1021 44 10000 1.03 0 16:53 14.06.2022
3113 Clouds 21 1021 45 10000 1.03 0 16:34 14.06.2022
3114 Clouds 21 1021 46 10000 2.06 270 15:36 14.06.2022
3115 Clouds 20 1022 47 10000 3.09 290 14:53 14.06.2022
3116 Clouds 19 1022 51 10000 3.6 250 13:57 14.06.2022
3117 Clouds 18 1022 52 10000 3.6 270 12:58 14.06.2022
3118 Clouds 17 1022 55 10000 3.6 270 11:56 14.06.2022
3119 Clouds 17 1022 60 10000 4.12 290 10:51 14.06.2022
3120 Clouds 15 1023 59 10000 3.09 260 10:25 14.06.2022
3121 Clouds 13 1023 73 10000 2.06 260 08:52 14.06.2022
3122 Clouds 12 1022 77 10000 1.03 0 08:24 14.06.2022
3123 Clouds 9 1023 88 10000 0.51 0 06:19 14.06.2022
3124 Clear 8 1022 94 10000 0 0 03:45 14.06.2022
3125 Clear 9 1022 91 10000 1.03 0 01:37 14.06.2022
3126 Clear 10 1022 90 10000 1.03 230 00:21 14.06.2022
3127 Clear 13 1022 76 10000 2.06 330 22:39 13.06.2022
3128 Clear 14 1022 86 10000 2.06 340 22:19 13.06.2022
3129 Clouds 16 1021 71 10000 4.12 330 21:24 13.06.2022
3130 Clouds 18 1020 58 10000 4.12 300 19:59 13.06.2022
3131 Clouds 18 1020 55 10000 7.2 290 18:54 13.06.2022
3132 Clouds 18 1020 62 10000 6.69 290 17:55 13.06.2022
3133 Rain 18 1020 56 10000 6.17 300 17:23 13.06.2022
3134 Clear 19 1019 54 10000 7.72 300 16:30 13.06.2022
3135 Clouds 17 1020 77 10000 5.66 280 14:49 13.06.2022
3136 Clouds 17 1020 80 10000 4.12 310 14:31 13.06.2022
3137 Rain 16 1019 70 10000 11.83 270 13:31 13.06.2022
3138 Clouds 16 1019 73 10000 6.69 270 12:22 13.06.2022
3139 Clouds 18 1019 57 10000 5.66 280 10:36 13.06.2022
3140 Clouds 17 1019 64 10000 4.63 280 09:43 13.06.2022
3141 Clouds 15 1018 74 10000 2.57 260 08:34 13.06.2022
3142 Rain 12 1018 90 10000 1.03 0 06:35 13.06.2022
3143 Clouds 12 1018 93 10000 2.02 258 04:35 13.06.2022
3144 Clouds 14 1019 82 10000 1.03 10 01:45 13.06.2022
3145 Clouds 15 1018 91 10000 1.54 10 01:18 13.06.2022
3146 Clouds 16 1018 84 10000 2.06 340 23:43 12.06.2022
3147 Clouds 17 1019 72 10000 2.06 340 22:36 12.06.2022
3148 Clear 19 1018 55 10000 3.09 320 21:46 12.06.2022
3149 Clear 21 1018 49 10000 4.12 310 20:49 12.06.2022
3150 Clear 22 1018 46 10000 3.6 280 19:49 12.06.2022
3151 Clear 23 1018 40 10000 5.14 280 18:54 12.06.2022
3152 Clear 24 1018 37 10000 4.12 280 17:24 12.06.2022
3153 Clear 24 1020 35 10000 4.63 260 15:44 12.06.2022
3154 Clear 24 1020 39 10000 5.14 280 14:50 12.06.2022
3155 Clear 23 1020 38 10000 4.63 260 14:18 12.06.2022
3156 Clear 23 1020 40 10000 5.14 280 13:44 12.06.2022
3157 Clouds 23 1021 43 10000 5.62 265 12:28 12.06.2022
3158 Clouds 21 1022 48 10000 5.14 290 10:46 12.06.2022
3159 Clear 20 1021 56 10000 4.12 290 09:42 12.06.2022
3160 Clear 19 1021 66 10000 2.06 240 08:50 12.06.2022
3161 Clear 17 1020 74 10000 1.03 0 07:52 12.06.2022
3162 Clouds 14 1021 86 10000 1.51 271 06:27 12.06.2022
3163 Clear 15 1021 85 10000 1.54 360 03:54 12.06.2022
3164 Clear 16 1021 85 10000 1.54 250 02:27 12.06.2022
3165 Clear 16 1021 87 10000 1.03 0 01:35 12.06.2022
3166 Clear 17 1021 85 10000 1.54 300 00:48 12.06.2022
3167 Clear 16 1021 77 10000 1.03 0 00:19 12.06.2022
3168 Clear 17 1021 72 10000 1.54 240 23:21 11.06.2022
3169 Clear 18 1021 68 10000 1.54 240 22:37 11.06.2022
3170 Clear 23 1021 49 10000 2.57 280 21:18 11.06.2022
3171 Clear 24 1021 46 10000 4.12 280 20:26 11.06.2022
3172 Clear 25 1021 48 10000 6.17 280 19:36 11.06.2022
3173 Clear 25 1021 46 10000 6.17 280 18:45 11.06.2022
3174 Clear 25 1020 47 10000 6.69 280 18:26 11.06.2022
3175 Clear 25 1020 47 10000 5.14 260 17:47 11.06.2022
3176 Clear 25 1020 46 10000 6.17 260 17:26 11.06.2022
3177 Clear 25 1021 46 10000 4.12 270 16:43 11.06.2022
3178 Clear 25 1021 47 10000 5.14 280 16:18 11.06.2022
3179 Clear 24 1021 46 10000 5.66 250 14:44 11.06.2022
3180 Clouds 24 1021 48 10000 6.69 270 13:52 11.06.2022
3181 Clouds 24 1021 48 10000 5.66 260 11:55 11.06.2022
3182 Drizzle 22 1021 55 10000 7.2 250 10:30 11.06.2022
3183 Clouds 21 1021 62 10000 5.14 250 09:41 11.06.2022
3184 Clouds 20 1021 63 10000 3.6 250 08:38 11.06.2022
3185 Clear 19 1020 73 10000 2.06 210 06:33 11.06.2022
3186 Clear 18 1020 80 10000 2.06 190 05:33 11.06.2022
3187 Clear 19 1020 68 10000 2.06 170 02:55 11.06.2022
3188 Clear 20 1021 68 10000 1.54 170 01:41 11.06.2022
3189 Clear 20 1021 64 10000 1.54 170 00:55 11.06.2022
3190 Clear 19 1021 68 10000 1.54 210 23:25 10.06.2022
3191 Clear 20 1021 68 10000 1.54 200 22:20 10.06.2022
3192 Clear 20 1020 79 10000 1.54 230 21:22 10.06.2022
3193 Clear 22 1020 66 10000 2.06 240 20:37 10.06.2022
3194 Clouds 22 1020 60 10000 2.06 240 20:19 10.06.2022
3195 Clouds 23 1020 55 10000 3.6 240 19:19 10.06.2022
3196 Clouds 23 1021 57 10000 3.6 260 18:29 10.06.2022
3197 Clouds 22 1021 56 10000 4.12 250 17:42 10.06.2022
3198 Clouds 22 1021 56 10000 5.14 260 16:59 10.06.2022
3199 Clouds 22 1021 53 10000 5.14 240 16:23 10.06.2022
3200 Clouds 21 1021 56 10000 5.14 270 15:37 10.06.2022
3201 Clouds 22 1021 52 10000 6.17 260 13:55 10.06.2022
3202 Clouds 22 1022 50 10000 5.14 250 12:48 10.06.2022
3203 Clouds 21 1022 52 10000 5.14 220 11:43 10.06.2022
3204 Clear 20 1022 56 10000 4.63 240 10:45 10.06.2022
3205 Clear 20 1022 61 10000 2.06 230 09:48 10.06.2022
3206 Clear 17 1021 74 10000 1.54 210 08:33 10.06.2022
3207 Clear 14 1021 88 10000 0.51 0 07:24 10.06.2022
3208 Clear 12 1021 91 10000 0 0 06:43 10.06.2022
3209 Clear 12 1021 93 10000 0 0 06:24 10.06.2022
3210 Clouds 11 1020 92 10000 0.51 330 03:52 10.06.2022
3211 Clear 12 1020 93 10000 1.03 0 01:41 10.06.2022
3212 Clear 14 1019 90 10000 1.03 0 00:28 10.06.2022
3213 Clear 15 1019 88 10000 2.06 260 23:29 09.06.2022
3214 Clouds 18 1017 68 10000 2.57 270 21:58 09.06.2022
3215 Clouds 18 1017 81 10000 2.57 270 21:32 09.06.2022
3216 Clouds 19 1016 63 10000 3.6 260 20:54 09.06.2022
3217 Clear 20 1015 62 10000 3.09 280 19:59 09.06.2022
3218 Clear 20 1015 56 10000 4.12 270 18:54 09.06.2022
3219 Clouds 21 1015 58 10000 5.14 270 18:21 09.06.2022
3220 Clouds 22 1014 53 10000 4.12 300 16:50 09.06.2022
3221 Clouds 22 1013 57 10000 5.14 310 15:48 09.06.2022
3222 Clouds 21 1012 66 10000 6.69 280 14:35 09.06.2022
3223 Clouds 20 1012 72 10000 5.14 270 13:48 09.06.2022
3224 Clouds 19 1012 73 10000 6.17 270 13:27 09.06.2022
3225 Clouds 18 1012 74 10000 5.66 260 11:54 09.06.2022
3226 Clouds 18 1010 79 10000 4.63 250 10:53 09.06.2022
3227 Clouds 17 1010 86 10000 4.63 250 09:43 09.06.2022
3228 Clouds 16 1010 86 10000 5.14 250 09:23 09.06.2022
3229 Clouds 16 1010 86 10000 5.14 250 09:23 09.06.2022
3230 Clouds 15 1009 91 10000 4.12 250 07:44 09.06.2022
3231 Clouds 14 1008 94 10000 3.6 240 05:48 09.06.2022
3232 Clouds 14 1007 96 10000 2.57 220 02:20 09.06.2022
3233 Clouds 15 1007 95 10000 1.54 150 23:34 08.06.2022
3234 Rain 15 1006 95 10000 1.54 110 22:56 08.06.2022
3235 Rain 15 1006 95 10000 1.54 100 22:26 08.06.2022
3236 Rain 15 1006 96 10000 1.03 60 21:52 08.06.2022
3237 Rain 16 1006 92 10000 2.57 260 20:57 08.06.2022
3238 Rain 17 1006 88 9000 3.6 200 19:55 08.06.2022
3239 Rain 19 1005 74 10000 4.12 230 19:18 08.06.2022
3240 Rain 20 1006 60 10000 1.03 0 18:42 08.06.2022
3241 Clouds 22 1006 63 10000 3.58 188 16:39 08.06.2022
3242 Clouds 23 1006 53 10000 2.06 280 15:27 08.06.2022
3243 Clouds 23 1007 52 10000 3.09 210 13:37 08.06.2022
3244 Clouds 21 1007 59 10000 2.57 180 11:51 08.06.2022
3245 Clouds 21 1007 61 10000 2.97 215 11:24 08.06.2022
3246 Clouds 19 1009 75 10000 2.57 230 09:48 08.06.2022
3247 Clouds 18 1009 79 10000 3.09 200 09:20 08.06.2022
3248 Clouds 17 1009 86 10000 1.54 220 08:18 08.06.2022
3249 Clouds 13 1009 95 10000 0.51 0 05:36 08.06.2022
3250 Clear 13 1010 91 10000 0.51 0 02:39 08.06.2022
3251 Clouds 15 1011 89 10000 1.54 220 00:28 08.06.2022
3252 Clouds 15 1011 89 10000 2.06 210 23:25 07.06.2022
3253 Clouds 16 1011 86 10000 1.54 230 22:42 07.06.2022
3254 Clouds 16 1011 87 10000 2.06 240 22:20 07.06.2022
3255 Clouds 18 1011 82 10000 1.54 230 21:28 07.06.2022
3256 Clouds 19 1011 63 10000 2.57 250 20:52 07.06.2022
3257 Clear 19 1011 64 10000 2.57 280 20:31 07.06.2022
3258 Clear 20 1011 61 10000 4.12 280 19:24 07.06.2022
3259 Clouds 21 1010 56 10000 5.66 250 17:57 07.06.2022
3260 Clear 21 1010 57 10000 5.66 250 17:19 07.06.2022
3261 Clear 20 1010 62 10000 4.12 270 16:39 07.06.2022
3262 Clear 20 1010 60 10000 4.12 280 15:42 07.06.2022
3263 Clouds 21 1010 58 10000 6.69 290 15:23 07.06.2022
3264 Clouds 21 1010 52 10000 6.69 260 14:46 07.06.2022
3265 Clouds 21 1011 53 10000 7.72 250 13:50 07.06.2022
3266 Clouds 20 1011 52 10000 6.17 250 13:29 07.06.2022
3267 Clouds 20 1012 51 10000 6.17 250 12:44 07.06.2022
3268 Clouds 18 1012 59 10000 6.17 230 11:22 07.06.2022
3269 Clear 19 1011 51 10000 7.2 230 10:19 07.06.2022
3270 Clear 17 1011 67 10000 5.14 230 08:36 07.06.2022
3271 Clouds 15 1011 77 10000 3.09 190 07:22 07.06.2022
3272 Clouds 14 1012 82 10000 2.57 180 05:56 07.06.2022
3273 Clear 13 1013 84 10000 2.06 200 02:48 07.06.2022
3274 Clouds 15 1014 81 10000 3.6 260 00:35 07.06.2022
3275 Clear 17 1013 76 10000 3.09 250 23:34 06.06.2022
3276 Clear 17 1013 69 10000 2.06 240 22:41 06.06.2022
3277 Clear 18 1012 67 10000 2.57 250 21:41 06.06.2022
3278 Clear 20 1012 58 10000 3.09 220 20:19 06.06.2022
3279 Clear 21 1012 54 10000 3.6 200 19:23 06.06.2022
3280 Clear 21 1012 55 10000 4.63 220 18:46 06.06.2022
3281 Clear 21 1012 56 10000 4.12 220 17:51 06.06.2022
3282 Rain 20 1013 59 10000 5.66 230 16:39 06.06.2022
3283 Clear 22 1013 41 10000 5.66 250 15:40 06.06.2022
3284 Clear 22 1013 42 10000 7.2 230 14:56 06.06.2022
3285 Clouds 22 1014 47 10000 6.69 250 13:31 06.06.2022
3286 Clouds 21 1013 48 10000 6.69 230 12:39 06.06.2022
3287 Clouds 22 1013 51 10000 7.2 230 12:20 06.06.2022
3288 Clouds 21 1013 58 10000 6.69 230 11:42 06.06.2022
3289 Clouds 19 1013 68 10000 5.66 220 09:41 06.06.2022
3290 Clouds 17 1013 89 10000 3.6 220 08:35 06.06.2022
3291 Clouds 17 1013 86 10000 4.12 250 07:40 06.06.2022
3292 Clouds 17 1012 86 10000 2.06 210 05:48 06.06.2022
3293 Clouds 17 1011 89 10000 3.6 220 03:47 06.06.2022
3294 Clear 18 1010 90 10000 3.6 200 01:30 06.06.2022
3295 Clear 18 1011 93 10000 3.09 200 00:43 06.06.2022
3296 Clear 18 1011 97 10000 1.54 170 00:19 06.06.2022
3297 Clouds 19 1011 96 8000 2.06 120 22:57 05.06.2022
3298 Rain 19 1011 93 10000 2.57 110 21:33 05.06.2022
3299 Rain 20 1011 79 10000 4.12 140 20:23 05.06.2022
3300 Rain 22 1011 77 10000 6.17 80 18:47 05.06.2022
3301 Rain 23 1012 72 10000 2.57 130 17:57 05.06.2022
3302 Rain 23 1012 71 10000 2.57 130 17:36 05.06.2022
3303 Rain 23 1012 73 10000 3.6 120 17:18 05.06.2022
3304 Rain 24 1013 69 10000 4.63 110 16:45 05.06.2022
3305 Clear 25 1014 49 10000 6.69 100 14:46 05.06.2022
3306 Clear 25 1015 50 10000 8.23 100 13:55 05.06.2022
3307 Clear 23 1016 54 10000 6.69 100 11:56 05.06.2022
3308 Clear 22 1017 59 10000 5.14 100 10:45 05.06.2022
3309 Clear 21 1017 61 10000 5.66 100 10:23 05.06.2022
3310 Clear 18 1018 67 10000 3.6 100 08:45 05.06.2022
3311 Clear 18 1018 65 10000 4.63 100 08:21 05.06.2022
3312 Clear 12 1019 88 10000 2.06 90 05:23 05.06.2022
3313 Clear 13 1019 87 10000 1.54 100 04:33 05.06.2022
3314 Clear 13 1021 71 10000 2.57 80 01:45 05.06.2022
3315 Clear 13 1021 71 10000 2.57 80 01:45 05.06.2022
3316 Clear 14 1020 77 10000 2.57 80 01:23 05.06.2022
3317 Clear 14 1020 77 10000 2.57 80 01:23 05.06.2022
3318 Clear 17 1021 55 10000 2.06 60 22:45 04.06.2022
3319 Clear 21 1020 55 10000 2.06 30 21:21 04.06.2022
3320 Clear 24 1019 45 10000 1.03 0 18:54 04.06.2022
3321 Clear 25 1020 42 10000 3.6 30 16:48 04.06.2022
3322 Clear 25 1020 42 10000 3.6 30 16:48 04.06.2022
3323 Clear 25 1020 42 10000 2.57 0 16:20 04.06.2022
3324 Clear 25 1020 42 10000 2.57 0 15:27 04.06.2022
3325 Clear 23 1021 44 10000 2.06 0 13:54 04.06.2022
3326 Clear 20 1021 49 10000 3.6 70 11:23 04.06.2022
3327 Clear 20 1021 48 10000 3.09 50 10:52 04.06.2022
3328 Clear 18 1021 51 10000 2.06 60 09:46 04.06.2022
3329 Clear 16 1019 59 10000 3.09 60 08:44 04.06.2022
3330 Clear 15 1019 61 10000 1.54 40 07:59 04.06.2022
3331 Clear 13 1019 70 10000 1.03 0 06:20 04.06.2022
3332 Clear 15 1018 74 10000 2.57 40 02:56 04.06.2022
3333 Clear 17 1018 63 10000 3.6 40 00:20 04.06.2022
3334 Clear 19 1018 61 10000 3.09 40 22:49 03.06.2022
3335 Clear 20 1017 54 10000 3.09 50 21:43 03.06.2022
3336 Clear 21 1017 49 10000 3.6 50 20:38 03.06.2022
3337 Clear 23 1016 45 10000 3.09 60 19:19 03.06.2022
3338 Clear 24 1017 43 10000 2.57 100 16:54 03.06.2022
3339 Clear 24 1017 42 10000 4.12 80 15:51 03.06.2022
3340 Clear 23 1018 43 10000 4.63 100 13:51 03.06.2022
3341 Clear 21 1019 47 10000 4.12 80 11:51 03.06.2022
3342 Clear 18 1020 58 10000 3.09 110 09:54 03.06.2022
3343 Clear 16 1021 63 10000 4.12 100 09:29 03.06.2022
3344 Clear 12 1020 87 10000 3.09 90 07:42 03.06.2022
3345 Clear 10 1021 89 10000 2.57 80 06:46 03.06.2022
3346 Clear 9 1021 88 10000 1.54 90 06:27 03.06.2022
3347 Clear 9 1021 90 10000 0.51 110 02:50 03.06.2022
3348 Clear 12 1021 84 10000 2.06 90 23:36 02.06.2022
3349 Clear 15 1021 80 10000 0.51 0 21:58 02.06.2022
3350 Clear 18 1021 50 10000 0.51 0 20:34 02.06.2022
3351 Clouds 18 1021 48 10000 0.51 0 19:54 02.06.2022
3352 Clouds 18 1021 48 10000 0.51 0 19:36 02.06.2022
3353 Clear 18 1021 52 10000 2.06 280 18:34 02.06.2022
3354 Clouds 18 1021 55 10000 2.57 300 16:28 02.06.2022
3355 Clouds 19 1021 53 10000 3.09 250 15:30 02.06.2022
3356 Clouds 17 1021 55 10000 4.12 280 13:30 02.06.2022
3357 Clouds 17 1021 54 10000 4.63 270 12:46 02.06.2022
3358 Clouds 14 1021 65 10000 4.12 280 10:32 02.06.2022
3359 Clouds 13 1020 75 10000 2.57 290 09:29 02.06.2022
3360 Mist 11 1020 87 3700 2.57 260 08:30 02.06.2022
3361 Mist 10 1020 90 2500 2.57 250 07:58 02.06.2022
3362 Fog 8 1019 95 3800 1.54 250 06:20 02.06.2022
3363 Clear 8 1018 95 10000 2.06 280 03:49 02.06.2022
3364 Clear 10 1017 90 10000 2.57 260 00:39 02.06.2022
3365 Clear 11 1016 86 10000 2.06 250 22:57 01.06.2022
3366 Clouds 12 1015 85 10000 4.12 290 21:45 01.06.2022
3367 Rain 13 1015 81 10000 4.12 270 21:22 01.06.2022
3368 Rain 13 1015 81 10000 4.12 270 21:22 01.06.2022
3369 Rain 13 1015 81 10000 3.6 270 20:38 01.06.2022
3370 Clear 14 1014 79 10000 4.63 260 19:50 01.06.2022
3371 Rain 14 1014 80 10000 4.63 220 18:24 01.06.2022
3372 Rain 15 1014 74 10000 6.69 260 16:48 01.06.2022
3373 Clouds 17 1013 59 10000 8.23 280 15:39 01.06.2022
3374 Clouds 16 1013 76 10000 4.63 270 14:35 01.06.2022
3375 Clouds 16 1013 62 10000 4.63 270 12:46 01.06.2022
3376 Clouds 15 1013 61 10000 4.12 280 10:42 01.06.2022
3377 Clear 14 1013 63 10000 4.63 260 09:27 01.06.2022
3378 Clear 12 1013 78 10000 2.57 260 07:57 01.06.2022
3379 Clear 11 1012 87 10000 2.57 250 06:49 01.06.2022
3380 Clear 10 1012 88 10000 1.03 150 01:44 01.06.2022
3381 Clear 11 1013 85 10000 1.54 190 23:47 31.05.2022
3382 Clear 12 1013 82 10000 1.54 180 22:38 31.05.2022
3383 Clear 12 1013 82 10000 1.54 180 22:38 31.05.2022
3384 Clear 12 1013 82 10000 1.54 190 22:18 31.05.2022
3385 Clear 14 1012 76 10000 1.03 0 20:57 31.05.2022
3386 Clear 15 1012 74 10000 1.03 0 20:33 31.05.2022
3387 Clear 17 1011 57 10000 2.06 60 18:57 31.05.2022
3388 Rain 17 1012 58 10000 2.06 310 18:19 31.05.2022
3389 Rain 16 1013 51 10000 5.66 290 17:35 31.05.2022
3390 Clouds 19 1012 38 10000 0.51 0 15:42 31.05.2022
3391 Clear 19 1012 38 10000 2.06 220 14:36 31.05.2022
3392 Clear 18 1013 40 10000 2.06 0 12:39 31.05.2022
3393 Clear 17 1014 39 10000 2.57 130 12:18 31.05.2022
3394 Clear 15 1014 59 10000 2.06 0 09:50 31.05.2022
3395 Clear 9 1014 86 10000 1.03 0 07:41 31.05.2022
3396 Clear 9 1014 86 10000 1.03 0 07:41 31.05.2022
3397 Clear 6 1015 89 10000 1.03 0 05:25 31.05.2022
3398 Clear 7 1015 90 10000 0.51 0 02:51 31.05.2022
3399 Clouds 8 1015 89 10000 0.51 80 23:29 30.05.2022
3400 Clouds 9 1015 87 10000 1.03 80 22:59 30.05.2022
3401 Clouds 9 1014 86 10000 1.03 80 22:31 30.05.2022
3402 Clear 11 1014 84 10000 1.03 80 21:35 30.05.2022
3403 Clouds 14 1014 61 10000 1.03 0 20:31 30.05.2022
3404 Clear 14 1013 60 10000 1.03 0 19:26 30.05.2022
3405 Clear 14 1013 60 10000 3.6 280 17:43 30.05.2022
3406 Clouds 14 1013 61 10000 3.6 250 16:54 30.05.2022
3407 Clouds 14 1013 60 10000 3.6 240 15:43 30.05.2022
3408 Clouds 12 1012 64 10000 4.63 270 12:44 30.05.2022
3409 Clouds 11 1012 67 10000 2.57 280 10:57 30.05.2022
3410 Clouds 11 1011 73 10000 3.09 300 09:39 30.05.2022
3411 Clouds 10 1012 87 10000 2.06 270 07:24 30.05.2022
3412 Clouds 9 1011 91 10000 1.54 280 05:51 30.05.2022
3413 Clouds 9 1011 91 10000 2.57 300 02:36 30.05.2022
3414 Clouds 10 1012 91 10000 2.06 280 23:28 29.05.2022
3415 Drizzle 10 1011 88 10000 2.06 270 22:39 29.05.2022
3416 Clouds 11 1011 85 10000 3.61 298 21:31 29.05.2022
3417 Clouds 12 1010 75 10000 4.12 300 19:48 29.05.2022
3418 Clouds 12 1011 80 10000 4.12 300 19:27 29.05.2022
3419 Drizzle 13 1011 76 10000 6.17 300 17:48 29.05.2022
3420 Clouds 14 1011 74 10000 6.17 300 15:50 29.05.2022
3421 Clouds 13 1010 73 10000 6.17 300 15:32 29.05.2022
3422 Clouds 13 1011 83 10000 6.17 290 14:31 29.05.2022
3423 Clouds 12 1011 80 10000 4.12 270 11:55 29.05.2022
3424 Drizzle 12 1011 80 10000 3.6 270 10:44 29.05.2022
3425 Clouds 11 1012 77 10000 4.12 260 09:52 29.05.2022
3426 Clouds 10 1012 88 10000 3.6 260 06:57 29.05.2022
3427 Clouds 9 1013 92 10000 4.12 270 04:50 29.05.2022
3428 Clouds 9 1013 89 10000 3.6 270 04:31 29.05.2022
3429 Clouds 10 1015 81 10000 5.14 280 00:35 29.05.2022
3430 Clouds 10 1016 76 10000 4.63 280 23:42 28.05.2022
3431 Clear 10 1016 91 10000 2.57 260 22:46 28.05.2022
3432 Clear 11 1016 84 10000 4.44 288 21:42 28.05.2022
3433 Clear 13 1016 60 10000 7.2 300 20:30 28.05.2022
3434 Clouds 15 1015 55 10000 6.69 300 19:18 28.05.2022
3435 Clear 15 1015 49 10000 9.26 300 17:48 28.05.2022
3436 Clouds 16 1015 48 10000 7.72 310 16:53 28.05.2022
3437 Clouds 16 1015 51 10000 8.23 300 15:44 28.05.2022
3438 Clouds 15 1015 56 10000 9.26 300 14:37 28.05.2022
3439 Clouds 14 1016 80 10000 5.66 290 13:26 28.05.2022
3440 Clouds 14 1017 77 10000 7.72 270 12:41 28.05.2022
3441 Clouds 13 1017 65 10000 8.23 280 11:27 28.05.2022
3442 Clouds 12 1016 72 10000 0.89 248 10:25 28.05.2022
3443 Clouds 11 1016 80 10000 6.69 280 09:30 28.05.2022
3444 Clouds 10 1016 83 10000 6.69 280 07:47 28.05.2022
3445 Clouds 10 1016 87 10000 6.69 280 06:32 28.05.2022
3446 Clouds 10 1015 86 7000 7.72 310 03:53 28.05.2022
3447 Clouds 11 1017 85 10000 5.66 270 00:33 28.05.2022
3448 Clouds 12 1017 77 10000 5.66 270 23:34 27.05.2022
3449 Clouds 13 1017 68 10000 9.26 280 22:24 27.05.2022
3450 Clouds 14 1017 61 10000 7.72 280 20:57 27.05.2022
3451 Clouds 14 1017 58 10000 7.2 280 20:26 27.05.2022
3452 Clouds 15 1017 56 10000 7.53 292 19:51 27.05.2022
3453 Clear 15 1017 50 10000 9.77 280 19:32 27.05.2022
3454 Clear 17 1016 48 10000 9.26 290 18:29 27.05.2022
3455 Clear 17 1016 47 10000 9.77 280 16:42 27.05.2022
3456 Clear 18 1016 46 10000 9.26 280 15:34 27.05.2022
3457 Clear 18 1015 46 10000 9.26 280 14:44 27.05.2022
3458 Clouds 17 1016 48 10000 8.23 270 13:23 27.05.2022
3459 Clouds 17 1016 56 10000 9.26 280 11:41 27.05.2022
3460 Clouds 16 1016 55 10000 8.75 290 11:23 27.05.2022
3461 Clouds 16 1016 65 10000 6.69 270 10:32 27.05.2022
3462 Clouds 15 1016 79 10000 0.89 248 09:37 27.05.2022
3463 Clouds 14 1015 86 10000 5.66 280 08:19 27.05.2022
3464 Drizzle 13 1015 94 10000 3.09 270 05:47 27.05.2022
3465 Rain 15 1015 88 10000 4.12 250 02:53 27.05.2022
3466 Clouds 15 1016 93 10000 4.63 250 00:37 27.05.2022
3467 Drizzle 16 1017 90 10000 7.72 280 22:47 26.05.2022
3468 Clouds 17 1016 80 10000 5.92 262 21:42 26.05.2022
3469 Clouds 18 1016 66 10000 6.17 270 20:59 26.05.2022
3470 Clouds 19 1017 61 10000 5.66 250 19:24 26.05.2022
3471 Clouds 19 1018 56 10000 6.69 250 18:18 26.05.2022
3472 Clouds 19 1018 58 10000 5.14 260 16:56 26.05.2022
3473 Clouds 20 1018 54 10000 6.17 260 15:46 26.05.2022
3474 Clouds 20 1018 54 10000 6.69 270 14:46 26.05.2022
3475 Clouds 19 1018 54 10000 8.23 280 13:23 26.05.2022
3476 Clouds 18 1018 58 10000 7.2 270 11:36 26.05.2022
3477 Clouds 17 1017 75 10000 6.69 260 10:24 26.05.2022
3478 Clouds 16 1016 75 10000 5.66 270 09:35 26.05.2022
3479 Clouds 16 1017 78 10000 6.69 250 08:37 26.05.2022
3480 Clouds 15 1015 79 10000 5.66 240 05:22 26.05.2022
3481 Clear 16 1014 62 10000 5.14 240 00:57 26.05.2022
3482 Clear 16 1014 60 10000 3.6 240 23:40 25.05.2022
3483 Clear 16 1015 59 10000 2.57 230 22:29 25.05.2022
3484 Clear 16 1014 55 10000 2.57 240 21:33 25.05.2022
3485 Clear 17 1014 51 10000 3.6 250 20:38 25.05.2022
3486 Clear 18 1014 45 10000 5.14 250 19:31 25.05.2022
3487 Clear 19 1014 49 10000 5.66 250 17:46 25.05.2022
3488 Clouds 20 1013 47 10000 6.15 250 16:40 25.05.2022
3489 Clear 20 1013 45 10000 6.17 260 15:57 25.05.2022
3490 Clouds 20 1014 48 10000 6.69 240 14:55 25.05.2022
3491 Clouds 20 1014 48 10000 6.69 240 14:33 25.05.2022
3492 Clouds 19 1014 49 10000 5.14 230 13:56 25.05.2022
3493 Clouds 18 1014 52 10000 4.12 250 12:39 25.05.2022
3494 Clouds 17 1014 60 10000 5.14 260 10:54 25.05.2022
3495 Clouds 16 1014 62 10000 5.14 260 10:18 25.05.2022
3496 Clear 15 1014 73 10000 4.54 248 08:41 25.05.2022
3497 Clouds 12 1014 79 10000 2.9 224 07:23 25.05.2022
3498 Clouds 10 1012 91 10000 1.54 240 04:23 25.05.2022
3499 Clear 11 1011 92 10000 0.51 0 00:23 25.05.2022
3500 Clear 11 1010 92 10000 1.03 0 23:47 24.05.2022
3501 Clear 12 1010 91 10000 1.54 260 22:33 24.05.2022
3502 Clear 13 1010 85 10000 2.57 270 21:41 24.05.2022
3503 Clear 14 1009 83 10000 2.57 280 21:21 24.05.2022
3504 Clear 15 1008 72 10000 1.03 0 20:23 24.05.2022
3505 Clouds 17 1007 67 10000 4.12 290 18:56 24.05.2022
3506 Clouds 17 1007 67 10000 4.12 290 18:56 24.05.2022
3507 Clouds 19 1006 56 10000 5.66 240 16:53 24.05.2022
3508 Clouds 19 1006 58 10000 0.45 158 16:23 24.05.2022
3509 Clouds 18 1006 61 10000 7.2 240 14:59 24.05.2022
3510 Clouds 18 1005 63 10000 7.2 250 14:21 24.05.2022
3511 Clouds 15 1004 86 10000 4.12 260 12:50 24.05.2022
3512 Rain 14 1004 90 10000 4.12 260 11:40 24.05.2022
3513 Clouds 16 1003 78 10000 4.12 230 09:46 24.05.2022
3514 Clear 16 1002 84 10000 4.12 220 08:50 24.05.2022
3515 Clouds 14 1001 87 10000 2.06 210 06:58 24.05.2022
3516 Clouds 14 1000 90 10000 5.66 260 04:30 24.05.2022
3517 Rain 16 999 97 10000 10.29 270 02:37 24.05.2022
3518 Clouds 17 997 95 10000 4.12 200 01:42 24.05.2022
3519 Clouds 17 997 87 10000 1.54 140 23:33 23.05.2022
3520 Clear 20 997 78 10000 4.12 120 21:57 23.05.2022
3521 Rain 21 997 56 10000 4.12 120 21:39 23.05.2022
3522 Clear 21 998 56 10000 3.6 120 20:42 23.05.2022
3523 Clear 22 998 64 10000 5.14 120 19:33 23.05.2022
3524 Clear 22 998 60 10000 4.63 130 18:59 23.05.2022
3525 Clear 23 998 56 10000 4.63 130 18:35 23.05.2022
3526 Clear 24 999 53 10000 4.12 140 17:38 23.05.2022
3527 Clear 24 1002 46 10000 5.14 120 15:37 23.05.2022
3528 Clear 22 1003 55 10000 4.63 120 13:32 23.05.2022
3529 Clear 18 1005 66 10000 3.09 120 11:34 23.05.2022
3530 Clear 17 1005 65 10000 3.6 110 10:42 23.05.2022
3531 Clear 15 1006 73 10000 2.57 120 09:39 23.05.2022
3532 Clear 15 1007 70 10000 4.12 110 08:38 23.05.2022
3533 Clear 13 1008 79 10000 3.6 100 06:47 23.05.2022
3534 Clear 12 1009 81 10000 3.6 90 06:23 23.05.2022
3535 Clear 11 1010 85 10000 3.09 90 02:35 23.05.2022
3536 Clear 11 1011 86 10000 2.06 100 01:46 23.05.2022
3537 Clear 12 1011 85 10000 2.06 100 00:44 23.05.2022
3538 Clear 13 1012 76 10000 1.03 90 22:43 22.05.2022
3539 Clear 14 1013 67 10000 0.51 0 21:56 22.05.2022
3540 Clear 15 1013 67 10000 0.51 0 21:36 22.05.2022
3541 Clear 17 1013 51 10000 1.54 40 20:37 22.05.2022
3542 Clear 19 1013 49 10000 1.54 10 20:18 22.05.2022
3543 Clear 19 1013 50 10000 1.54 320 18:57 22.05.2022
3544 Clear 20 1013 47 10000 1.03 0 18:28 22.05.2022
3545 Clear 20 1014 45 10000 1.54 240 17:39 22.05.2022
3546 Clear 20 1014 46 10000 0.51 0 16:50 22.05.2022
3547 Clouds 19 1016 46 10000 2.06 330 14:55 22.05.2022
3548 Clouds 19 1017 48 10000 2.57 0 13:57 22.05.2022
3549 Clouds 18 1017 50 10000 2.57 270 12:53 22.05.2022
3550 Clouds 17 1017 54 10000 3.6 240 11:52 22.05.2022
3551 Clouds 15 1018 63 10000 2.06 0 10:27 22.05.2022
3552 Clouds 14 1017 71 10000 1.03 0 09:19 22.05.2022
3553 Clouds 11 1018 87 10000 0.51 250 07:22 22.05.2022
3554 Clouds 10 1017 91 10000 0.51 50 06:40 22.05.2022
3555 Clouds 10 1018 94 10000 1.03 0 03:20 22.05.2022
3556 Clear 12 1019 76 10000 2.06 290 00:44 22.05.2022
3557 Clear 13 1019 76 10000 2.06 270 23:56 21.05.2022
3558 Clear 12 1019 76 10000 2.06 280 23:21 21.05.2022
3559 Clear 14 1019 67 10000 3.09 290 21:55 21.05.2022
3560 Clear 15 1019 72 10000 2.57 290 21:26 21.05.2022
3561 Clear 17 1018 66 10000 5.66 300 20:27 21.05.2022
3562 Clouds 17 1018 59 10000 6.17 300 19:43 21.05.2022
3563 Clouds 18 1018 59 10000 7.72 280 18:21 21.05.2022
3564 Clouds 18 1018 61 10000 4.12 270 16:55 21.05.2022
3565 Clouds 18 1018 73 10000 4.63 270 14:38 21.05.2022
3566 Rain 16 1017 72 8000 5.14 300 13:54 21.05.2022
3567 Clouds 17 1018 68 10000 6.69 260 12:57 21.05.2022
3568 Clouds 17 1017 67 10000 6.69 260 12:37 21.05.2022
3569 Clouds 14 1017 77 10000 7.72 260 10:53 21.05.2022
3570 Clouds 14 1017 76 10000 6.17 250 09:49 21.05.2022
3571 Clouds 14 1017 80 10000 7.2 250 08:58 21.05.2022
3572 Clouds 13 1017 83 10000 6.69 260 08:34 21.05.2022
3573 Clouds 12 1016 86 10000 5.18 257 05:28 21.05.2022
3574 Clouds 14 1014 86 10000 8.75 280 00:58 21.05.2022
3575 Clouds 15 1013 92 10000 10.29 260 23:29 20.05.2022
3576 Clouds 18 1011 89 10000 7.72 240 22:24 20.05.2022
3577 Clouds 19 1009 82 10000 6.69 230 21:49 20.05.2022
3578 Clouds 19 1009 94 10000 3.09 140 20:58 20.05.2022
3579 Clouds 19 1010 95 9000 2.57 140 20:29 20.05.2022
3580 Clouds 19 1011 92 6000 2.57 110 19:27 20.05.2022
3581 Rain 20 1012 90 5000 2.06 110 18:47 20.05.2022
3582 Rain 21 1012 81 10000 3.09 120 17:43 20.05.2022
3583 Clear 25 1014 54 10000 2.06 0 16:21 20.05.2022
3584 Clear 24 1014 55 10000 2.06 160 15:53 20.05.2022
3585 Clear 23 1017 52 10000 2.06 0 14:31 20.05.2022
3586 Clear 23 1017 54 10000 1.54 0 13:56 20.05.2022
3587 Clear 20 1019 59 10000 2.06 0 11:45 20.05.2022
3588 Clouds 17 1021 69 10000 3.6 300 10:23 20.05.2022
3589 Clouds 16 1022 76 10000 3.09 260 08:50 20.05.2022
3590 Clouds 15 1021 90 10000 2.57 240 07:25 20.05.2022
3591 Clouds 15 1020 90 10000 3.26 276 06:36 20.05.2022
3592 Clouds 15 1020 92 6000 3.09 270 05:22 20.05.2022
3593 Clouds 17 1019 94 10000 4.12 270 00:54 20.05.2022
3594 Clear 17 1018 95 10000 2.57 260 22:57 19.05.2022
3595 Clear 17 1018 95 10000 0.51 0 22:25 19.05.2022
3596 Clear 17 1017 95 10000 2.06 240 21:48 19.05.2022
3597 Clear 18 1017 94 10000 1.54 190 21:23 19.05.2022
3598 Clear 18 1017 95 10000 1.54 180 20:39 19.05.2022
3599 Clear 18 1017 95 10000 2.06 160 19:52 19.05.2022
3600 Thunderstorm 20 1018 77 10000 8.75 280 18:31 19.05.2022
3601 Clear 28 1015 46 10000 4.63 200 16:51 19.05.2022
3602 Clear 29 1015 42 10000 4.12 190 15:19 19.05.2022
3603 Clear 28 1017 36 10000 4.12 190 14:25 19.05.2022
3604 Clear 28 1016 39 10000 4.63 180 13:47 19.05.2022
3605 Clear 26 1018 46 10000 3.09 160 11:41 19.05.2022
3606 Clear 23 1019 58 10000 3.09 160 09:29 19.05.2022
3607 Clear 21 1019 71 10000 2.57 160 07:52 19.05.2022
3608 Clear 18 1019 78 10000 2.57 160 06:18 19.05.2022
3609 Clear 18 1019 78 10000 2.57 160 06:18 19.05.2022
3610 Clouds 19 1019 90 10000 2.9 173 02:23 19.05.2022
3611 Clear 20 1020 79 10000 1.03 0 00:40 19.05.2022
3612 Clear 21 1020 79 10000 1.03 120 22:50 18.05.2022
3613 Clear 22 1020 75 10000 1.03 0 22:24 18.05.2022
3614 Clouds 23 1020 76 10000 2.76 159 21:30 18.05.2022
3615 Clear 26 1020 47 10000 1.54 190 20:47 18.05.2022
3616 Clear 27 1020 47 10000 2.06 200 20:18 18.05.2022
3617 Clear 27 1020 47 10000 2.06 200 20:18 18.05.2022
3618 Clear 27 1020 44 10000 3.09 210 18:33 18.05.2022
3619 Clear 28 1020 42 10000 3.09 210 17:41 18.05.2022
3620 Clear 28 1021 42 10000 3.09 220 17:23 18.05.2022
3621 Clear 28 1021 42 10000 3.09 210 16:34 18.05.2022
3622 Clear 29 1020 43 10000 2.57 240 15:42 18.05.2022
3623 Clear 28 1021 43 10000 3.09 0 14:35 18.05.2022
3624 Clear 26 1021 50 10000 4.63 210 13:41 18.05.2022
3625 Clear 26 1021 52 10000 3.09 180 12:43 18.05.2022
3626 Clear 25 1021 58 10000 3.6 180 11:34 18.05.2022
3627 Clear 23 1022 60 10000 4.12 150 10:56 18.05.2022
3628 Clear 20 1022 78 10000 2.57 130 09:31 18.05.2022
3629 Clear 17 1021 84 10000 2.06 110 07:51 18.05.2022
3630 Clear 16 1022 89 10000 2.57 110 06:41 18.05.2022
3631 Clear 16 1021 90 10000 2.57 90 01:22 18.05.2022
3632 Clear 17 1021 88 10000 2.06 100 00:23 18.05.2022
3633 Clear 18 1020 89 10000 1.03 0 21:57 17.05.2022
3634 Clouds 19 1020 72 10000 2.57 10 21:20 17.05.2022
3635 Clouds 19 1020 72 10000 2.57 10 21:20 17.05.2022
3636 Clear 21 1020 68 10000 4.12 270 20:19 17.05.2022
3637 Clear 23 1019 56 10000 2.57 250 19:28 17.05.2022
3638 Clear 24 1019 48 10000 3.09 270 17:51 17.05.2022
3639 Clear 24 1019 47 10000 4.63 310 16:59 17.05.2022
3640 Clear 24 1020 46 10000 4.63 320 16:30 17.05.2022
3641 Clouds 23 1020 47 10000 4.12 300 15:32 17.05.2022
3642 Clouds 23 1020 52 10000 4.12 270 14:30 17.05.2022
3643 Clouds 22 1020 52 10000 4.63 270 13:35 17.05.2022
3644 Clouds 23 1020 52 10000 4.12 280 13:35 17.05.2022
3645 Clouds 21 1021 60 10000 3.6 280 11:46 17.05.2022
3646 Clouds 18 1020 76 10000 3.09 270 09:35 17.05.2022
3647 Clouds 18 1019 82 10000 3.6 280 08:33 17.05.2022
3648 Clouds 15 1019 97 7000 2.06 260 06:48 17.05.2022
3649 Mist 15 1019 97 3200 1.54 260 03:41 17.05.2022
3650 Rain 16 1018 93 10000 5.14 300 00:43 17.05.2022
3651 Rain 18 1017 91 10000 6.69 260 22:43 16.05.2022
3652 Clear 20 1016 68 10000 4.12 250 21:41 16.05.2022
3653 Clear 21 1015 60 10000 1.54 210 20:47 16.05.2022
3654 Clear 22 1015 60 10000 1.54 190 19:46 16.05.2022
3655 Clear 23 1015 61 10000 1.54 180 18:20 16.05.2022
3656 Rain 24 1014 50 10000 2.06 140 15:50 16.05.2022
3657 Clear 25 1015 46 10000 4.63 100 13:56 16.05.2022
3658 Clear 25 1015 44 10000 3.6 130 13:23 16.05.2022
3659 Clear 22 1015 47 10000 4.63 120 11:25 16.05.2022
3660 Clear 18 1016 56 10000 4.12 110 09:37 16.05.2022
3661 Clear 12 1016 72 10000 4.12 90 06:56 16.05.2022
3662 Clear 11 1017 79 10000 3.6 80 03:58 16.05.2022
3663 Clear 14 1018 62 10000 3.6 90 23:30 15.05.2022
3664 Clear 16 1018 55 10000 2.06 90 22:30 15.05.2022
3665 Clear 18 1018 51 10000 2.57 90 21:46 15.05.2022
3666 Clear 20 1018 45 10000 3.09 80 20:54 15.05.2022
3667 Clear 22 1018 35 10000 3.6 80 19:33 15.05.2022
3668 Clear 22 1018 37 10000 3.6 60 17:51 15.05.2022
3669 Clear 22 1020 40 10000 3.6 70 15:59 15.05.2022
3670 Clear 21 1021 43 10000 3.09 50 13:58 15.05.2022
3671 Clear 21 1021 45 10000 2.06 0 12:50 15.05.2022
3672 Clear 19 1021 51 10000 2.06 0 11:39 15.05.2022
3673 Clear 17 1021 59 10000 2.13 96 10:27 15.05.2022
3674 Clear 15 1022 70 10000 2.57 90 08:45 15.05.2022
3675 Clear 8 1021 87 10000 1.03 70 06:58 15.05.2022
3676 Clear 7 1021 93 10000 0.51 70 05:47 15.05.2022
3677 Clear 10 1021 90 10000 0.51 0 00:49 15.05.2022
3678 Clear 11 1022 82 10000 0.51 0 23:39 14.05.2022
3679 Clear 13 1021 85 10000 2.06 10 22:47 14.05.2022
3680 Clear 16 1021 59 10000 2.57 360 21:29 14.05.2022
3681 Clear 17 1020 59 10000 3.09 360 20:51 14.05.2022
3682 Clear 18 1020 52 10000 3.6 360 19:38 14.05.2022
3683 Clouds 20 1020 54 10000 4.37 336 19:19 14.05.2022
3684 Clear 19 1020 48 10000 4.12 330 18:41 14.05.2022
3685 Clear 21 1019 45 10000 5.14 320 16:38 14.05.2022
3686 Clear 20 1020 46 10000 6.17 280 15:23 14.05.2022
3687 Clear 20 1019 49 10000 5.14 290 14:33 14.05.2022
3688 Clouds 18 1020 57 10000 5.14 280 12:24 14.05.2022
3689 Clouds 18 1019 61 10000 5.14 290 10:59 14.05.2022
3690 Clear 16 1020 65 10000 4.63 260 10:21 14.05.2022
3691 Clear 16 1019 67 10000 5.14 280 09:53 14.05.2022
3692 Clear 14 1020 70 10000 4.12 270 08:49 14.05.2022
3693 Clear 11 1018 85 10000 3.6 240 05:47 14.05.2022
3694 Clouds 11 1019 88 10000 2.06 230 02:32 14.05.2022
3695 Clear 12 1018 86 10000 3.09 320 23:36 13.05.2022
3696 Clear 13 1018 81 10000 2.06 240 22:58 13.05.2022
3697 Clear 13 1018 81 10000 2.06 240 22:25 13.05.2022
3698 Clear 15 1018 69 10000 2.57 250 21:39 13.05.2022
3699 Clear 16 1018 59 10000 4.12 260 20:45 13.05.2022
3700 Clear 17 1018 58 10000 5.66 260 20:24 13.05.2022
3701 Clouds 18 1018 51 10000 6.17 260 19:25 13.05.2022
3702 Clouds 19 1018 48 10000 5.66 260 17:50 13.05.2022
3703 Clouds 19 1017 52 10000 6.69 270 17:27 13.05.2022
3704 Clouds 18 1017 53 10000 8.23 260 16:18 13.05.2022
3705 Clouds 18 1017 51 10000 7.72 270 15:20 13.05.2022
3706 Clouds 17 1017 52 10000 6.69 260 13:29 13.05.2022
3707 Clouds 17 1017 54 10000 6.69 250 12:25 13.05.2022
3708 Clouds 16 1017 60 10000 7.2 250 10:46 13.05.2022
3709 Clear 14 1017 63 10000 5.66 250 09:33 13.05.2022
3710 Clouds 13 1016 67 10000 2.57 220 08:23 13.05.2022
3711 Clouds 13 1016 73 10000 3.6 210 07:42 13.05.2022
3712 Clouds 9 1016 85 10000 0.51 0 05:59 13.05.2022
3713 Clouds 10 1016 86 10000 2.26 249 02:44 13.05.2022
3714 Clear 12 1016 76 10000 0.51 0 23:46 12.05.2022
3715 Clear 13 1016 76 10000 1.54 250 22:44 12.05.2022
3716 Clear 15 1016 67 10000 2.06 250 21:54 12.05.2022
3717 Clear 18 1016 46 10000 3.6 260 20:25 12.05.2022
3718 Clear 19 1016 43 10000 5.14 240 18:41 12.05.2022
3719 Clear 20 1017 42 10000 5.14 250 16:57 12.05.2022
3720 Clear 20 1016 45 10000 5.14 290 15:50 12.05.2022
3721 Clear 19 1018 47 10000 5.14 250 14:20 12.05.2022
3722 Clouds 18 1018 48 10000 5.14 250 13:24 12.05.2022
3723 Clouds 16 1017 63 10000 6.17 250 10:40 12.05.2022
3724 Clouds 14 1016 70 10000 6.17 260 09:19 12.05.2022
3725 Clouds 13 1016 71 10000 6.17 270 08:41 12.05.2022
3726 Clouds 12 1014 75 10000 4.63 260 07:37 12.05.2022
3727 Clouds 13 1012 77 10000 8.23 280 05:32 12.05.2022
3728 Rain 14 1009 89 10000 1.54 320 02:24 12.05.2022
3729 Clear 18 1007 63 10000 2.06 240 23:56 11.05.2022
3730 Clear 19 1008 63 10000 1.54 280 22:31 11.05.2022
3731 Clear 20 1007 56 10000 3.09 280 21:32 11.05.2022
3732 Clear 22 1007 49 10000 4.12 280 20:52 11.05.2022
3733 Clear 25 1007 41 10000 8.23 260 17:56 11.05.2022
3734 Clear 25 1008 41 10000 7.2 260 16:49 11.05.2022
3735 Clear 25 1009 43 10000 8.23 260 14:50 11.05.2022
3736 Clear 25 1009 43 10000 9.26 250 14:26 11.05.2022
3737 Clear 25 1009 42 10000 5.66 260 13:44 11.05.2022
3738 Clouds 23 1010 46 10000 4.63 250 11:51 11.05.2022
3739 Clear 20 1010 67 10000 3.09 220 09:54 11.05.2022
3740 Clear 17 1011 76 10000 2.57 190 07:53 11.05.2022
3741 Rain 16 1012 86 10000 3.09 210 04:44 11.05.2022
3742 Rain 16 1014 92 10000 2.06 150 00:41 11.05.2022
3743 Clouds 18 1014 80 10000 7.2 330 22:30 10.05.2022
3744 Clear 20 1014 60 10000 8.75 310 21:45 10.05.2022
3745 Clear 22 1013 53 10000 2.57 230 20:48 10.05.2022
3746 Clear 23 1013 46 10000 3.6 240 19:25 10.05.2022
3747 Rain 25 1014 40 10000 5.14 250 17:47 10.05.2022
3748 Clear 26 1014 39 10000 5.66 240 16:41 10.05.2022
3749 Clear 25 1017 43 10000 5.14 230 13:59 10.05.2022
3750 Clear 25 1017 44 10000 3.6 220 12:36 10.05.2022
3751 Clear 23 1017 49 10000 3.09 210 11:49 10.05.2022
3752 Clear 23 1017 51 10000 3.6 200 11:18 10.05.2022
3753 Clear 21 1018 53 10000 3.09 220 09:57 10.05.2022
3754 Clear 19 1019 56 10000 2.06 200 09:18 10.05.2022
3755 Clear 13 1019 76 10000 1.54 150 06:35 10.05.2022
3756 Clear 13 1020 79 10000 2.06 150 02:48 10.05.2022
3757 Clear 15 1021 70 10000 1.03 0 00:24 10.05.2022
3758 Clear 16 1022 67 10000 1.54 130 22:43 09.05.2022
3759 Clear 19 1023 45 10000 2.06 120 21:48 09.05.2022
3760 Clear 20 1022 45 10000 1.54 140 20:23 09.05.2022
3761 Clear 23 1023 35 10000 1.03 0 18:35 09.05.2022
3762 Clear 23 1023 38 10000 2.06 100 17:33 09.05.2022
3763 Clear 22 1024 39 10000 2.06 0 16:28 09.05.2022
3764 Clear 22 1025 37 10000 3.09 170 15:48 09.05.2022
3765 Clear 22 1025 38 10000 2.57 130 14:46 09.05.2022
3766 Clear 21 1025 38 10000 2.57 130 13:59 09.05.2022
3767 Clear 20 1027 36 10000 2.57 120 13:32 09.05.2022
3768 Clear 18 1027 41 10000 3.09 120 11:54 09.05.2022
3769 Clear 17 1027 50 10000 2.57 100 10:50 09.05.2022
3770 Clear 16 1027 52 10000 2.57 90 10:29 09.05.2022
3771 Clear 10 1027 68 10000 2.06 90 07:57 09.05.2022
3772 Clear 7 1027 73 10000 3.09 90 06:42 09.05.2022
3773 Clear 7 1027 84 10000 0.51 0 02:37 09.05.2022
3774 Clear 7 1027 84 10000 0.51 0 02:37 09.05.2022
3775 Clear 7 1027 84 10000 0.51 0 02:37 09.05.2022
3776 Clear 7 1027 84 10000 0.51 0 02:37 09.05.2022
3777 Clear 10 1027 64 10000 1.54 320 23:29 08.05.2022
3778 Clear 10 1027 62 10000 2.06 350 22:42 08.05.2022
3779 Clear 13 1027 54 10000 1.54 330 21:37 08.05.2022
3780 Clear 16 1026 44 10000 2.57 330 20:25 08.05.2022
3781 Clear 18 1026 36 10000 3.09 340 19:37 08.05.2022
3782 Clear 18 1026 36 10000 2.57 330 18:49 08.05.2022
3783 Clear 18 1025 37 10000 3.09 340 17:45 08.05.2022
3784 Clear 18 1026 34 10000 2.06 0 16:23 08.05.2022
3785 Clear 17 1027 38 10000 3.09 340 15:24 08.05.2022
3786 Clear 16 1027 43 10000 3.09 340 14:23 08.05.2022
3787 Clear 13 1028 56 10000 3.6 300 11:53 08.05.2022
3788 Clouds 12 1028 62 10000 2.57 350 10:27 08.05.2022
3789 Clouds 11 1028 68 10000 3.09 320 09:54 08.05.2022
3790 Clear 9 1027 78 10000 1.54 310 08:23 08.05.2022
3791 Clouds 7 1025 88 10000 2.5 347 06:21 08.05.2022
3792 Clouds 9 1026 86 10000 2.57 330 03:22 08.05.2022
3793 Clouds 11 1025 82 10000 3.6 330 01:19 08.05.2022
3794 Clouds 12 1024 87 10000 2.06 320 23:57 07.05.2022
3795 Clouds 12 1024 91 10000 2.06 320 23:34 07.05.2022
3796 Clear 13 1024 91 10000 1.54 340 22:46 07.05.2022
3797 Clear 14 1023 94 10000 1.03 0 21:56 07.05.2022
3798 Clear 15 1023 92 10000 1.03 350 21:28 07.05.2022
3799 Clouds 16 1022 81 10000 3.76 352 20:25 07.05.2022
3800 Rain 18 1022 74 10000 4.12 310 18:52 07.05.2022
3801 Rain 19 1021 63 10000 2.9 332 16:50 07.05.2022
3802 Clouds 21 1022 52 10000 3.09 350 14:54 07.05.2022
3803 Clouds 19 1023 60 10000 1.54 290 11:28 07.05.2022
3804 Clouds 16 1023 70 10000 2.06 250 09:55 07.05.2022
3805 Clouds 14 1022 73 10000 1.54 270 08:33 07.05.2022
3806 Clear 12 1022 81 10000 1.54 260 07:25 07.05.2022
3807 Clear 11 1022 83 10000 1.54 260 06:42 07.05.2022
3808 Clear 12 1021 81 10000 0.51 0 04:18 07.05.2022
3809 Clear 13 1022 73 10000 0.51 300 23:51 06.05.2022
3810 Clear 15 1022 71 10000 0 0 22:40 06.05.2022
3811 Clear 17 1022 61 10000 1.03 190 21:54 06.05.2022
3812 Clear 17 1022 57 10000 1.03 220 21:29 06.05.2022
3813 Clear 20 1022 45 10000 2.06 250 19:47 06.05.2022
3814 Clear 19 1023 48 10000 1.54 250 19:24 06.05.2022
3815 Clear 19 1023 45 10000 2.06 250 18:30 06.05.2022
3816 Clear 20 1023 45 10000 3.09 280 17:34 06.05.2022
3817 Clear 21 1023 39 10000 2.57 270 15:51 06.05.2022
3818 Clear 20 1024 39 10000 3.6 250 15:18 06.05.2022
3819 Clear 20 1024 38 10000 4.12 250 13:45 06.05.2022
3820 Clear 20 1025 43 10000 2.06 0 12:47 06.05.2022
3821 Clear 18 1025 44 10000 2.06 200 11:58 06.05.2022
3822 Clear 18 1024 52 10000 1.54 0 10:41 06.05.2022
3823 Clear 15 1025 63 10000 1.54 70 09:47 06.05.2022
3824 Clear 14 1025 66 10000 1.03 0 09:18 06.05.2022
3825 Clear 10 1024 79 10000 0.51 0 07:40 06.05.2022
3826 Clear 7 1024 87 10000 0.51 0 06:25 06.05.2022
3827 Clear 8 1024 88 10000 1.54 290 02:54 06.05.2022
3828 Clear 9 1024 84 10000 0.51 0 01:57 06.05.2022
3829 Clear 12 1023 71 10000 1.03 330 22:50 05.05.2022
3830 Clear 13 1023 54 10000 1.03 340 21:46 05.05.2022
3831 Clear 15 1022 51 10000 2.57 330 20:34 05.05.2022
3832 Clear 18 1022 45 10000 4.12 340 18:43 05.05.2022
3833 Clear 18 1022 42 10000 4.12 340 16:40 05.05.2022
3834 Clear 18 1022 38 10000 3.09 330 14:55 05.05.2022
3835 Clear 17 1022 40 10000 1.54 0 13:27 05.05.2022
3836 Clear 16 1022 40 10000 2.57 240 12:54 05.05.2022
3837 Clear 13 1022 53 10000 3.09 290 10:59 05.05.2022
3838 Clear 12 1021 62 10000 2.06 310 09:40 05.05.2022
3839 Clear 9 1021 70 10000 2.06 330 08:30 05.05.2022
3840 Clear 5 1019 91 10000 1.03 340 05:44 05.05.2022
3841 Clear 8 1019 84 10000 1.54 300 02:20 05.05.2022
3842 Clear 8 1019 86 10000 1.03 0 01:35 05.05.2022
3843 Clear 9 1018 76 10000 2.57 350 23:55 04.05.2022
3844 Clear 10 1018 81 10000 2.06 310 22:50 04.05.2022
3845 Clear 12 1018 71 10000 1.03 0 21:59 04.05.2022
3846 Clear 12 1017 66 10000 1.54 20 21:29 04.05.2022
3847 Clouds 15 1017 58 10000 2.06 340 20:42 04.05.2022
3848 Clouds 15 1017 58 10000 2.57 320 19:56 04.05.2022
3849 Clouds 16 1017 58 10000 3.6 320 19:31 04.05.2022
3850 Clouds 17 1017 51 10000 4.12 330 18:22 04.05.2022
3851 Clouds 17 1017 51 10000 4.12 330 17:59 04.05.2022
3852 Clouds 17 1017 51 10000 3.09 330 15:57 04.05.2022
3853 Clouds 17 1017 51 10000 3.09 290 15:30 04.05.2022
3854 Clouds 16 1018 54 10000 1.03 0 14:21 04.05.2022
3855 Clear 16 1018 52 10000 2.06 270 13:50 04.05.2022
3856 Clouds 16 1018 53 10000 1.03 0 12:34 04.05.2022
3857 Clear 13 1018 60 10000 1.03 0 10:43 04.05.2022
3858 Clear 11 1018 64 10000 1.54 80 09:44 04.05.2022
3859 Clear 9 1018 71 10000 0.51 0 08:48 04.05.2022
3860 Clear 6 1018 81 10000 0.51 0 07:33 04.05.2022
3861 Clear 5 1018 88 10000 1.03 300 02:59 04.05.2022
3862 Clear 6 1018 91 10000 0.51 0 01:24 04.05.2022
3863 Clear 9 1018 76 10000 1.03 0 22:50 03.05.2022
3864 Clear 10 1018 77 10000 1.54 340 21:47 03.05.2022
3865 Clear 12 1018 66 10000 3.6 340 20:56 03.05.2022
3866 Clear 13 1017 64 10000 4.12 340 20:31 03.05.2022
3867 Clear 14 1017 62 10000 6.17 340 18:54 03.05.2022
3868 Clear 14 1017 62 10000 6.17 340 18:54 03.05.2022
3869 Clear 15 1017 62 10000 6.17 340 18:34 03.05.2022
3870 Clouds 16 1017 59 10000 5.14 340 17:19 03.05.2022
3871 Clouds 17 1017 53 10000 4.12 330 15:43 03.05.2022
3872 Clouds 17 1017 53 10000 4.12 330 15:43 03.05.2022
3873 Clouds 17 1018 49 10000 3.09 320 13:32 03.05.2022
3874 Clouds 15 1018 48 10000 2.06 330 12:30 03.05.2022
3875 Clear 14 1019 51 10000 3.09 310 10:58 03.05.2022
3876 Clear 12 1019 49 10000 1.54 0 09:58 03.05.2022
3877 Clear 8 1018 68 10000 1.03 0 07:59 03.05.2022
3878 Clear 5 1017 79 10000 1.54 330 06:45 03.05.2022
3879 Clear 7 1018 73 10000 2.57 320 01:53 03.05.2022
3880 Clear 12 1017 62 10000 4.63 10 22:45 02.05.2022
3881 Clear 13 1017 61 10000 4.63 10 22:25 02.05.2022
3882 Clear 14 1017 60 10000 2.57 340 21:24 02.05.2022
3883 Clouds 18 1017 61 10000 3.44 337 18:57 02.05.2022
3884 Clear 18 1017 51 10000 3.6 360 18:25 02.05.2022
3885 Clear 18 1017 49 10000 3.09 350 17:37 02.05.2022
3886 Clear 18 1018 45 10000 1.54 220 16:24 02.05.2022
3887 Clear 19 1018 42 10000 2.06 290 15:38 02.05.2022
3888 Clouds 19 1018 45 10000 2.06 80 14:19 02.05.2022
3889 Clear 17 1019 45 10000 2.06 0 12:45 02.05.2022
3890 Clear 15 1020 58 10000 2.06 140 11:20 02.05.2022
3891 Clear 11 1019 73 10000 1.03 0 09:31 02.05.2022
3892 Clear 8 1020 80 10000 0.51 0 07:57 02.05.2022
3893 Clear 6 1020 76 10000 2.06 90 05:37 02.05.2022
3894 Clouds 10 1021 72 10000 1.35 334 00:26 02.05.2022
3895 Clear 10 1021 72 10000 1.03 70 23:52 01.05.2022
3896 Clear 11 1022 64 10000 1.54 10 22:45 01.05.2022
3897 Clear 12 1021 61 10000 1.54 350 21:41 01.05.2022
3898 Clear 13 1022 57 10000 2.57 360 20:23 01.05.2022
3899 Clear 15 1021 51 10000 2.57 350 19:18 01.05.2022
3900 Clear 14 1022 51 10000 2.57 10 18:50 01.05.2022
3901 Clear 15 1021 48 10000 2.06 360 17:47 01.05.2022
3902 Clear 15 1021 48 10000 3.6 330 16:24 01.05.2022
3903 Clear 16 1022 43 10000 2.06 0 15:45 01.05.2022
3904 Clear 16 1023 42 10000 2.06 0 14:41 01.05.2022
3905 Clouds 14 1023 57 10000 1.54 220 11:53 01.05.2022
3906 Clear 10 1023 76 10000 1.03 0 09:33 01.05.2022
3907 Clear 10 1024 81 10000 1.54 360 08:49 01.05.2022
3908 Clouds 9 1023 76 10000 1.54 300 05:31 01.05.2022
3909 Clear 10 1023 74 10000 2.06 350 01:32 01.05.2022
3910 Clear 11 1023 65 10000 3.6 350 21:59 30.04.2022
3911 Clear 12 1023 64 10000 3.6 340 21:30 30.04.2022
3912 Clear 12 1023 64 10000 3.6 340 21:30 30.04.2022
3913 Clear 12 1023 64 10000 3.6 340 21:30 30.04.2022
3914 Clear 13 1022 56 10000 2.06 330 19:48 30.04.2022
3915 Clouds 14 1023 54 10000 3.6 340 18:50 30.04.2022
3916 Clouds 14 1023 56 10000 2.06 330 17:20 30.04.2022
3917 Clouds 13 1024 60 10000 2.06 340 15:50 30.04.2022
3918 Clouds 13 1024 61 10000 2.06 300 14:54 30.04.2022
3919 Clouds 12 1024 66 10000 3.6 310 13:41 30.04.2022
3920 Clouds 10 1025 76 10000 2.57 330 11:39 30.04.2022
3921 Clouds 9 1025 83 10000 2.57 330 10:55 30.04.2022
3922 Rain 8 1025 84 10000 2.06 300 09:54 30.04.2022
3923 Clouds 7 1025 84 10000 1.54 300 07:35 30.04.2022
3924 Clouds 8 1026 84 10000 2.57 310 03:45 30.04.2022
3925 Clear 8 1026 85 10000 4.12 350 23:54 29.04.2022
3926 Clear 9 1026 79 10000 4.63 350 22:36 29.04.2022
3927 Clear 10 1026 72 10000 6.17 350 21:54 29.04.2022
3928 Clear 11 1026 69 10000 3.09 330 21:19 29.04.2022
3929 Clear 13 1026 58 10000 4.63 340 19:48 29.04.2022
3930 Clear 15 1026 55 10000 4.63 340 18:58 29.04.2022
3931 Clear 16 1026 51 10000 5.14 320 17:33 29.04.2022
3932 Clear 16 1026 51 10000 4.12 340 15:58 29.04.2022
3933 Clear 16 1027 50 10000 3.09 350 14:34 29.04.2022
3934 Clear 16 1028 48 10000 2.57 330 13:27 29.04.2022
3935 Clear 15 1028 55 10000 2.06 350 12:26 29.04.2022
3936 Clear 10 1028 76 10000 1.03 0 09:48 29.04.2022
3937 Clear 6 1029 83 10000 1.03 0 07:42 29.04.2022
3938 Clouds 6 1028 84 10000 0.98 6 07:23 29.04.2022
3939 Clear 5 1029 88 10000 1.03 290 05:55 29.04.2022
3940 Clear 7 1030 82 10000 1.54 330 00:47 29.04.2022
3941 Clear 8 1030 88 10000 1.54 340 23:49 28.04.2022
3942 Clear 9 1030 76 10000 2.57 340 22:45 28.04.2022
3943 Clear 11 1029 71 10000 3.6 320 21:55 28.04.2022
3944 Clear 12 1029 71 10000 3.09 320 21:29 28.04.2022
3945 Clear 13 1029 66 10000 3.09 310 20:37 28.04.2022
3946 Clear 15 1028 58 10000 3.09 320 19:46 28.04.2022
3947 Clear 16 1027 52 10000 3.6 320 19:23 28.04.2022
3948 Clouds 17 1027 50 10000 3.6 330 18:37 28.04.2022
3949 Clear 17 1028 46 10000 2.06 20 17:32 28.04.2022
3950 Clear 17 1029 44 10000 2.57 0 16:41 28.04.2022
3951 Clear 16 1029 45 10000 3.09 350 16:19 28.04.2022
3952 Clear 16 1029 47 10000 5.14 290 15:40 28.04.2022
3953 Clouds 14 1030 49 10000 3.6 280 14:38 28.04.2022
3954 Clouds 14 1030 54 10000 3.6 260 13:19 28.04.2022
3955 Clouds 13 1030 54 10000 3.09 320 12:28 28.04.2022
3956 Clear 11 1030 60 10000 2.06 0 10:47 28.04.2022
3957 Clear 11 1030 61 10000 2.06 360 10:26 28.04.2022
3958 Clear 8 1030 73 10000 1.54 290 08:59 28.04.2022
3959 Clear 5 1028 80 10000 0.51 250 07:37 28.04.2022
3960 Clear 4 1028 88 10000 1.03 270 06:37 28.04.2022
3961 Clear 3 1028 91 10000 1.54 290 05:39 28.04.2022
3962 Clear 4 1028 89 10000 1.03 300 04:41 28.04.2022
3963 Clear 7 1027 85 10000 1.03 0 00:36 28.04.2022
3964 Clear 9 1026 72 10000 2.06 340 22:49 27.04.2022
3965 Clear 10 1026 66 10000 1.54 330 21:57 27.04.2022
3966 Clear 11 1026 63 10000 2.57 340 21:27 27.04.2022
3967 Clear 12 1025 57 10000 3.09 340 20:43 27.04.2022
3968 Clear 14 1025 54 10000 4.63 350 19:39 27.04.2022
3969 Clear 14 1025 54 10000 4.63 350 19:39 27.04.2022
3970 Clear 14 1025 54 10000 4.63 350 19:39 27.04.2022
3971 Clouds 15 1025 52 10000 4.12 350 19:18 27.04.2022
3972 Clouds 15 1025 51 10000 4.12 320 18:35 27.04.2022
3973 Clouds 17 1024 51 10000 3.09 300 17:26 27.04.2022
3974 Clouds 17 1024 51 10000 3.09 300 17:26 27.04.2022
3975 Clear 16 1025 47 10000 4.63 260 15:43 27.04.2022
3976 Clear 14 1025 55 10000 3.09 270 12:31 27.04.2022
3977 Clouds 12 1025 61 10000 3.09 310 11:23 27.04.2022
3978 Clouds 10 1025 72 10000 1.54 290 09:59 27.04.2022
3979 Clouds 6 1023 84 10000 2.14 311 07:28 27.04.2022
3980 Clear 5 1023 87 10000 1.54 280 05:50 27.04.2022
3981 Clear 7 1021 84 10000 3.09 310 02:21 27.04.2022
3982 Clear 8 1021 81 10000 3.6 310 00:57 27.04.2022
3983 Clear 9 1021 88 10000 4.12 320 23:58 26.04.2022
3984 Clear 9 1020 88 10000 4.12 330 23:23 26.04.2022
3985 Clear 9 1020 88 10000 3.6 320 22:42 26.04.2022
3986 Clear 11 1019 86 10000 5.66 320 21:49 26.04.2022
3987 Clear 12 1018 88 10000 3.6 290 20:54 26.04.2022
3988 Clear 12 1018 88 10000 3.6 290 20:34 26.04.2022
3989 Clear 13 1017 71 10000 2.06 280 19:33 26.04.2022
3990 Clear 14 1017 62 10000 1.54 260 18:51 26.04.2022
3991 Clear 14 1016 58 10000 2.06 260 18:18 26.04.2022
3992 Clear 14 1016 58 10000 2.06 260 18:18 26.04.2022
3993 Clear 15 1016 55 10000 1.03 0 17:32 26.04.2022
3994 Clouds 15 1017 55 10000 1.54 130 14:46 26.04.2022
3995 Clouds 16 1015 51 10000 1.03 0 13:34 26.04.2022
3996 Clouds 15 1016 52 10000 2.06 300 12:25 26.04.2022
3997 Clear 13 1016 71 10000 1.03 0 10:46 26.04.2022
3998 Clear 11 1015 77 10000 1.03 0 09:41 26.04.2022
3999 Clear 6 1015 90 10000 0.51 0 07:59 26.04.2022
4000 Fog 6 1014 89 6000 0.51 0 04:33 26.04.2022
4001 Clouds 7 1014 87 7000 1.54 230 02:20 26.04.2022
4002 Clear 8 1014 88 10000 0.51 190 00:26 26.04.2022
4003 Clear 9 1014 86 10000 1.54 190 22:49 25.04.2022
4004 Clear 10 1014 85 10000 1.03 0 21:44 25.04.2022
4005 Clear 11 1013 82 10000 1.03 250 20:45 25.04.2022
4006 Clear 11 1013 82 10000 1.03 250 20:45 25.04.2022
4007 Clear 12 1013 82 10000 1.54 290 19:34 25.04.2022
4008 Clear 13 1013 68 10000 1.03 0 18:23 25.04.2022
4009 Clear 13 1012 68 10000 2.06 240 17:32 25.04.2022
4010 Clouds 11 1013 76 10000 1.54 90 15:30 25.04.2022
4011 Clouds 11 1013 78 10000 2.06 70 14:54 25.04.2022
4012 Clouds 10 1012 82 10000 2.06 70 13:41 25.04.2022
4013 Clouds 8 1012 89 10000 3.09 70 11:49 25.04.2022
4014 Rain 8 1011 88 10000 3.09 70 10:27 25.04.2022
4015 Clouds 7 1010 92 10000 3.6 60 08:47 25.04.2022
4016 Clouds 7 1009 90 10000 4.12 80 06:49 25.04.2022
4017 Clouds 7 1008 89 10000 3.09 60 05:23 25.04.2022
4018 Clear 9 1008 87 10000 4.63 40 00:58 25.04.2022
4019 Clear 10 1007 80 10000 5.14 30 23:52 24.04.2022
4020 Clear 10 1006 74 10000 4.63 30 22:49 24.04.2022
4021 Clear 11 1006 72 10000 4.63 30 22:29 24.04.2022
4022 Clouds 12 1005 67 10000 4.63 40 21:41 24.04.2022
4023 Clouds 12 1005 65 10000 5.66 40 21:18 24.04.2022
4024 Clouds 13 1005 62 10000 4.63 20 20:35 24.04.2022
4025 Rain 14 1005 51 10000 4.12 70 19:48 24.04.2022
4026 Clouds 15 1004 52 10000 5.66 80 18:20 24.04.2022
4027 Clouds 16 1004 51 10000 5.14 50 17:29 24.04.2022
4028 Clouds 16 1003 50 10000 7.2 30 16:59 24.04.2022
4029 Clouds 15 1003 53 10000 7.2 30 16:35 24.04.2022
4030 Clouds 15 1003 52 10000 7.2 30 15:55 24.04.2022
4031 Clear 16 1003 51 10000 6.17 40 15:31 24.04.2022
4032 Clear 16 1003 51 10000 6.17 40 15:31 24.04.2022
4033 Clear 16 1004 51 10000 6.69 60 13:57 24.04.2022
4034 Clear 15 1004 54 10000 5.14 60 13:25 24.04.2022
4035 Clear 14 1005 58 10000 5.66 60 12:30 24.04.2022
4036 Clear 12 1005 59 10000 5.14 60 11:28 24.04.2022
4037 Clear 11 1004 61 10000 4.63 60 10:25 24.04.2022
4038 Clear 10 1005 63 10000 5.14 60 09:23 24.04.2022
4039 Clear 6 1005 82 10000 3.09 70 06:34 24.04.2022
4040 Clear 8 1005 73 10000 5.14 70 03:43 24.04.2022
4041 Clear 10 1005 65 10000 6.69 70 01:38 24.04.2022
4042 Clear 11 1005 61 10000 7.2 70 00:22 24.04.2022
4043 Clear 12 1005 58 10000 5.14 70 23:26 23.04.2022
4044 Clear 12 1005 60 10000 3.6 70 22:55 23.04.2022
4045 Clear 13 1006 55 10000 3.09 70 21:51 23.04.2022
4046 Clear 13 1006 55 10000 3.09 70 21:32 23.04.2022
4047 Clear 14 1006 47 10000 5.14 90 20:36 23.04.2022
4048 Clear 16 1006 41 10000 7.2 100 19:46 23.04.2022
4049 Clear 17 1005 42 10000 8.23 80 19:19 23.04.2022
4050 Clear 17 1005 41 10000 7.72 90 18:46 23.04.2022
4051 Clear 17 1005 39 10000 8.23 100 17:48 23.04.2022
4052 Clear 18 1006 40 10000 6.17 120 16:50 23.04.2022
4053 Clear 18 1006 39 10000 7.2 100 16:21 23.04.2022
4054 Clear 17 1007 41 10000 8.75 100 14:47 23.04.2022
4055 Clear 15 1009 45 10000 6.69 100 12:22 23.04.2022
4056 Clear 12 1009 54 10000 10.8 90 10:40 23.04.2022
4057 Clear 12 1009 54 10000 10.8 90 10:40 23.04.2022
4058 Clear 10 1009 69 10000 6.17 90 08:42 23.04.2022
4059 Clear 8 1009 79 10000 6.69 70 05:45 23.04.2022
4060 Clear 10 1009 76 10000 4.63 80 03:54 23.04.2022
4061 Clear 12 1009 86 10000 6.69 90 00:46 23.04.2022
4062 Clouds 12 1009 86 10000 5.66 80 23:27 22.04.2022
4063 Clear 12 1008 86 10000 6.69 80 21:59 22.04.2022
4064 Clear 12 1008 86 10000 6.69 80 21:40 22.04.2022
4065 Clouds 13 1008 81 10000 5.14 70 20:44 22.04.2022
4066 Clouds 13 1008 74 10000 6.17 80 20:25 22.04.2022
4067 Clouds 14 1007 68 10000 7.2 80 19:18 22.04.2022
4068 Clouds 15 1007 65 10000 7.2 70 18:34 22.04.2022
4069 Clouds 15 1007 60 10000 9.77 90 17:34 22.04.2022
4070 Clouds 16 1007 57 10000 6.69 90 16:29 22.04.2022
4071 Clouds 16 1007 60 10000 6.17 100 15:32 22.04.2022
4072 Clouds 15 1008 67 10000 6.69 80 14:41 22.04.2022
4073 Clouds 14 1008 67 10000 6.17 90 13:42 22.04.2022
4074 Clear 13 1009 69 10000 7.72 80 12:55 22.04.2022
4075 Clouds 10 1009 76 10000 5.14 70 11:24 22.04.2022
4076 Clouds 10 1009 78 10000 4.12 60 10:58 22.04.2022
4077 Clouds 10 1009 74 10000 4.12 60 10:40 22.04.2022
4078 Clouds 9 1009 75 10000 4.12 50 10:20 22.04.2022
4079 Clouds 9 1009 77 10000 4.12 70 09:42 22.04.2022
4080 Clear 8 1010 82 10000 5.66 80 08:49 22.04.2022
4081 Clear 8 1010 83 10000 4.12 70 06:54 22.04.2022
4082 Clouds 9 1012 93 10000 2.06 60 01:41 22.04.2022
4083 Clouds 10 1012 92 10000 3.6 70 23:39 21.04.2022
4084 Clear 10 1012 91 10000 3.6 80 22:48 21.04.2022
4085 Clouds 10 1012 94 10000 4.63 70 21:49 21.04.2022
4086 Clouds 12 1012 82 10000 4.63 80 20:34 21.04.2022
4087 Clouds 12 1012 73 10000 5.14 100 19:36 21.04.2022
4088 Clouds 13 1012 67 10000 6.69 90 18:32 21.04.2022
4089 Clouds 14 1012 64 10000 4.12 90 17:46 21.04.2022
4090 Clouds 13 1012 67 10000 2.06 140 16:21 21.04.2022
4091 Clear 13 1013 69 10000 1.54 140 15:19 21.04.2022
4092 Clear 13 1013 65 10000 3.09 110 14:29 21.04.2022
4093 Clear 13 1013 65 10000 3.6 110 13:22 21.04.2022
4094 Clear 12 1013 64 10000 2.57 30 12:29 21.04.2022
4095 Clear 9 1014 72 10000 3.09 50 10:19 21.04.2022
4096 Clear 7 1014 76 10000 1.54 360 08:49 21.04.2022
4097 Clouds 5 1013 85 10000 1.98 33 06:46 21.04.2022
4098 Clear 6 1014 81 10000 2.57 20 04:21 21.04.2022
4099 Clear 7 1014 80 10000 2.57 30 03:22 21.04.2022
4100 Clear 7 1014 87 10000 3.09 40 02:44 21.04.2022
4101 Clear 7 1014 87 10000 3.09 40 02:44 21.04.2022
4102 Clear 9 1015 75 10000 4.12 50 00:35 21.04.2022
4103 Clear 9 1016 66 10000 3.09 40 23:40 20.04.2022
4104 Clear 10 1015 67 10000 3.6 40 23:18 20.04.2022
4105 Clear 11 1016 58 10000 3.6 40 22:41 20.04.2022
4106 Clear 11 1015 59 10000 2.57 30 21:47 20.04.2022
4107 Clear 13 1015 50 10000 2.06 70 20:50 20.04.2022
4108 Clear 14 1015 46 10000 3.09 80 20:21 20.04.2022
4109 Clear 14 1015 40 10000 3.6 60 19:46 20.04.2022
4110 Clear 16 1015 39 10000 5.14 70 18:48 20.04.2022
4111 Clear 16 1015 39 10000 5.66 80 17:52 20.04.2022
4112 Clear 16 1015 37 10000 5.66 100 16:39 20.04.2022
4113 Clear 16 1015 40 10000 5.66 80 15:33 20.04.2022
4114 Clear 14 1017 49 10000 5.14 80 12:46 20.04.2022
4115 Clear 12 1017 51 10000 4.12 80 11:42 20.04.2022
4116 Clear 10 1019 59 10000 2.06 70 10:44 20.04.2022
4117 Clear 8 1018 63 10000 2.06 30 09:31 20.04.2022
4118 Clear 6 1018 67 10000 1.03 90 08:40 20.04.2022
4119 Clear 5 1018 68 10000 1.54 50 08:18 20.04.2022
4120 Clear 4 1018 76 10000 0.51 0 06:23 20.04.2022
4121 Clear 6 1017 65 10000 3.09 50 02:34 20.04.2022
4122 Clear 8 1017 57 10000 3.09 60 00:22 20.04.2022
4123 Clear 9 1017 55 10000 3.09 80 22:59 19.04.2022
4124 Clear 9 1017 55 10000 3.09 80 22:59 19.04.2022
4125 Clear 10 1016 56 10000 3.09 80 22:23 19.04.2022
4126 Clear 11 1017 53 10000 3.09 70 21:53 19.04.2022
4127 Clear 12 1016 43 10000 4.63 90 20:59 19.04.2022
4128 Clear 13 1016 43 10000 4.63 90 20:37 19.04.2022
4129 Clear 14 1015 35 10000 4.63 90 19:41 19.04.2022
4130 Clear 16 1014 33 10000 6.17 90 18:31 19.04.2022
4131 Clear 16 1014 32 10000 5.14 90 16:55 19.04.2022
4132 Clear 16 1014 32 10000 5.14 90 16:33 19.04.2022
4133 Clear 16 1014 32 10000 6.17 90 15:59 19.04.2022
4134 Clear 16 1015 32 10000 6.17 80 14:46 19.04.2022
4135 Clear 13 1015 37 10000 5.14 90 12:58 19.04.2022
4136 Clear 14 1016 37 10000 5.14 90 12:36 19.04.2022
4137 Clear 12 1016 38 10000 4.63 60 11:35 19.04.2022
4138 Clear 9 1016 52 10000 3.09 90 09:51 19.04.2022
4139 Clear 6 1015 75 10000 2.57 80 07:49 19.04.2022
4140 Clear 6 1015 75 10000 2.57 80 04:26 19.04.2022
4141 Clear 6 1015 76 10000 2.57 80 02:39 19.04.2022
4142 Clear 8 1016 71 10000 0.51 0 23:51 18.04.2022
4143 Clear 10 1016 62 10000 1.03 70 22:53 18.04.2022
4144 Clear 12 1017 51 10000 1.54 70 21:26 18.04.2022
4145 Clear 14 1017 50 10000 3.09 80 20:39 18.04.2022
4146 Clear 14 1016 48 10000 3.09 90 20:19 18.04.2022
4147 Clear 15 1017 44 10000 3.6 90 19:40 18.04.2022
4148 Clear 16 1016 40 10000 3.6 90 18:49 18.04.2022
4149 Clear 17 1017 39 10000 2.06 110 17:49 18.04.2022
4150 Clear 17 1017 39 10000 2.06 110 17:49 18.04.2022
4151 Clear 17 1017 36 10000 2.06 80 17:19 18.04.2022
4152 Clear 17 1017 34 10000 2.57 80 16:40 18.04.2022
4153 Clear 17 1018 37 10000 3.6 80 15:41 18.04.2022
4154 Clear 16 1019 35 10000 3.09 0 14:27 18.04.2022
4155 Clear 16 1019 37 10000 3.6 70 13:24 18.04.2022
4156 Clear 15 1020 39 10000 3.09 70 12:27 18.04.2022
4157 Clear 13 1021 51 10000 2.06 100 10:59 18.04.2022
4158 Clear 11 1021 56 10000 2.57 100 10:18 18.04.2022
4159 Clear 10 1021 58 10000 2.57 80 09:30 18.04.2022
4160 Clear 4 1021 81 10000 2.57 100 07:29 18.04.2022
4161 Clear 5 1022 74 10000 0.51 150 03:51 18.04.2022
4162 Clear 7 1024 61 10000 2.06 80 23:30 17.04.2022
4163 Clear 9 1024 54 10000 1.03 100 22:37 17.04.2022
4164 Clear 10 1024 49 10000 1.54 110 21:39 17.04.2022
4165 Clear 11 1024 44 10000 2.06 110 21:19 17.04.2022
4166 Clear 12 1024 39 10000 2.57 120 20:25 17.04.2022
4167 Clear 14 1024 33 10000 3.09 110 19:20 17.04.2022
4168 Clear 16 1025 31 10000 4.12 140 17:34 17.04.2022
4169 Clear 15 1027 29 10000 5.14 110 15:37 17.04.2022
4170 Clear 15 1028 29 10000 4.12 110 14:53 17.04.2022
4171 Clear 14 1028 31 10000 4.63 120 13:41 17.04.2022
4172 Clear 14 1029 31 10000 3.6 120 12:52 17.04.2022
4173 Clear 11 1030 40 10000 3.6 110 11:22 17.04.2022
4174 Clear 10 1031 52 10000 3.6 100 10:30 17.04.2022
4175 Clear 9 1031 56 10000 3.6 100 09:57 17.04.2022
4176 Clear 7 1031 58 10000 3.09 100 09:21 17.04.2022
4177 Clear 6 1031 65 10000 3.09 90 08:41 17.04.2022
4178 Clear 2 1031 80 10000 2.06 100 06:32 17.04.2022
4179 Clear 4 1032 80 10000 2.57 70 02:56 17.04.2022
4180 Clear 5 1033 71 10000 0.51 90 00:43 17.04.2022
4181 Clear 6 1033 65 10000 1.54 90 23:41 16.04.2022
4182 Clear 9 1033 56 10000 1.03 100 21:54 16.04.2022
4183 Clear 10 1033 52 10000 1.54 60 21:19 16.04.2022
4184 Clear 13 1032 39 10000 4.12 100 19:30 16.04.2022
4185 Clear 13 1033 38 10000 3.6 100 18:45 16.04.2022
4186 Clear 14 1033 35 10000 4.63 80 17:21 16.04.2022
4187 Clear 14 1033 35 10000 3.09 0 16:30 16.04.2022
4188 Clear 13 1034 37 10000 5.66 90 15:23 16.04.2022
4189 Clear 12 1034 41 10000 4.63 90 14:43 16.04.2022
4190 Clear 12 1034 45 10000 5.14 90 13:55 16.04.2022
4191 Clear 11 1035 50 10000 6.17 80 13:24 16.04.2022
4192 Clear 10 1035 56 10000 5.14 100 11:58 16.04.2022
4193 Clouds 8 1034 63 10000 5.14 90 10:35 16.04.2022
4194 Clear 7 1034 71 10000 5.66 90 09:38 16.04.2022
4195 Clear 6 1034 80 10000 3.6 100 08:52 16.04.2022
4196 Clear 3 1034 90 10000 3.6 90 07:23 16.04.2022
4197 Clear 4 1033 89 10000 5.66 80 05:45 16.04.2022
4198 Clouds 8 1031 90 10000 5.14 70 01:52 16.04.2022
4199 Clouds 9 1030 89 10000 3.6 60 23:53 15.04.2022
4200 Clouds 10 1030 90 10000 2.57 50 22:51 15.04.2022
4201 Clouds 10 1030 90 10000 3.09 30 22:31 15.04.2022
4202 Clouds 10 1029 92 10000 3.09 40 21:34 15.04.2022
4203 Clouds 10 1029 89 10000 2.06 20 20:38 15.04.2022
4204 Clouds 11 1028 86 10000 2.57 350 19:49 15.04.2022
4205 Clouds 11 1028 85 10000 3.09 340 19:30 15.04.2022
4206 Clouds 11 1028 84 10000 4.12 340 18:45 15.04.2022
4207 Clouds 12 1028 77 10000 4.12 340 18:23 15.04.2022
4208 Clouds 12 1027 74 10000 4.12 320 17:28 15.04.2022
4209 Clouds 12 1027 72 10000 5.14 310 16:25 15.04.2022
4210 Clouds 12 1027 76 10000 4.12 320 15:52 15.04.2022
4211 Clouds 12 1027 75 10000 5.14 330 14:20 15.04.2022
4212 Clouds 11 1026 76 10000 5.14 320 12:53 15.04.2022
4213 Clouds 11 1026 75 10000 4.12 320 12:26 15.04.2022
4214 Clouds 11 1025 76 10000 4.63 320 11:52 15.04.2022
4215 Clouds 10 1025 78 10000 4.63 320 10:48 15.04.2022
4216 Clouds 10 1024 78 10000 5.14 300 10:21 15.04.2022
4217 Clouds 9 1024 79 10000 3.6 310 09:23 15.04.2022
4218 Clouds 9 1025 86 10000 3.6 300 08:57 15.04.2022
4219 Drizzle 8 1024 90 10000 3.09 290 06:52 15.04.2022
4220 Clouds 8 1023 89 10000 4.63 310 05:56 15.04.2022
4221 Clouds 8 1022 92 10000 3.09 310 01:27 15.04.2022
4222 Clouds 11 1022 91 10000 3.09 310 23:29 14.04.2022
4223 Clouds 11 1021 88 10000 3.09 310 22:46 14.04.2022
4224 Clear 11 1021 87 10000 1.54 290 22:27 14.04.2022
4225 Clear 11 1021 88 10000 2.06 300 21:53 14.04.2022
4226 Clouds 15 1020 67 10000 2.57 320 19:53 14.04.2022
4227 Clouds 16 1020 73 10000 4.12 290 19:22 14.04.2022
4228 Clouds 17 1019 65 10000 2.57 300 17:56 14.04.2022
4229 Clouds 17 1019 69 10000 6.69 280 17:27 14.04.2022
4230 Clouds 17 1019 69 10000 4.63 270 16:32 14.04.2022
4231 Clouds 18 1019 67 10000 4.63 250 13:55 14.04.2022
4232 Clouds 17 1019 70 10000 4.12 250 13:26 14.04.2022
4233 Clouds 16 1019 76 10000 3.6 250 12:38 14.04.2022
4234 Clouds 15 1019 78 10000 3.6 250 12:19 14.04.2022
4235 Clear 15 1019 84 10000 3.6 260 11:21 14.04.2022
4236 Clear 14 1019 88 10000 3.6 260 10:36 14.04.2022
4237 Clouds 13 1019 93 10000 2.06 270 09:52 14.04.2022
4238 Clouds 12 1019 97 10000 1.54 230 08:39 14.04.2022
4239 Drizzle 12 1019 97 8000 1.03 0 06:24 14.04.2022
4240 Clouds 13 1019 90 10000 2.06 300 01:49 14.04.2022
4241 Clouds 16 1017 89 10000 4.12 340 22:45 13.04.2022
4242 Clouds 17 1017 82 10000 4.63 320 21:44 13.04.2022
4243 Clear 18 1016 70 10000 1.54 320 20:48 13.04.2022
4244 Clear 19 1016 63 10000 2.57 300 20:18 13.04.2022
4245 Clear 20 1016 56 10000 3.6 300 18:50 13.04.2022
4246 Clear 22 1015 50 10000 3.6 280 17:54 13.04.2022
4247 Clear 23 1015 48 10000 4.12 280 17:23 13.04.2022
4248 Clear 23 1016 46 10000 3.6 270 16:24 13.04.2022
4249 Clear 22 1015 46 10000 2.06 280 15:31 13.04.2022
4250 Clear 23 1015 44 10000 1.54 0 14:46 13.04.2022
4251 Clear 22 1016 48 10000 2.06 270 13:57 13.04.2022
4252 Clear 21 1015 47 10000 1.54 0 12:58 13.04.2022
4253 Clear 20 1015 48 10000 2.06 260 12:19 13.04.2022
4254 Clear 18 1014 49 10000 1.03 0 10:44 13.04.2022
4255 Clear 12 1014 63 10000 1.03 90 08:50 13.04.2022
4256 Clear 11 1014 64 10000 1.54 100 08:28 13.04.2022
4257 Clear 9 1013 70 10000 2.06 110 06:50 13.04.2022
4258 Clear 9 1013 69 10000 2.57 90 06:25 13.04.2022
4259 Clear 11 1012 61 10000 2.57 100 02:37 13.04.2022
4260 Clear 12 1012 60 10000 3.6 120 00:20 13.04.2022
4261 Clear 13 1013 52 10000 4.12 130 22:45 12.04.2022
4262 Clear 14 1013 45 10000 4.12 130 21:56 12.04.2022
4263 Clear 16 1012 44 10000 4.12 120 20:49 12.04.2022
4264 Clear 16 1012 44 10000 4.12 120 20:49 12.04.2022
4265 Clear 15 1012 43 10000 4.12 110 20:22 12.04.2022
4266 Clear 17 1013 39 10000 3.6 110 19:41 12.04.2022
4267 Clear 17 1012 42 10000 4.63 110 19:19 12.04.2022
4268 Clear 18 1012 39 10000 5.66 120 17:50 12.04.2022
4269 Clear 19 1012 38 10000 6.17 110 16:50 12.04.2022
4270 Clear 19 1013 41 10000 6.17 110 15:39 12.04.2022
4271 Clear 19 1013 41 10000 5.66 130 15:20 12.04.2022
4272 Clear 17 1013 43 10000 5.66 120 13:53 12.04.2022
4273 Clear 17 1014 44 10000 4.63 120 13:27 12.04.2022
4274 Clear 17 1014 44 10000 4.63 120 13:27 12.04.2022
4275 Clear 15 1014 48 10000 5.14 110 12:31 12.04.2022
4276 Clear 14 1015 51 10000 4.12 110 11:40 12.04.2022
4277 Clear 10 1015 62 10000 3.09 100 10:29 12.04.2022
4278 Clear 7 1015 71 10000 4.63 100 08:54 12.04.2022
4279 Clear 5 1015 79 10000 4.12 90 07:47 12.04.2022
4280 Clear 4 1015 80 10000 4.63 90 05:47 12.04.2022
4281 Clear 5 1015 78 10000 4.12 80 02:53 12.04.2022
4282 Clear 7 1016 66 10000 2.57 90 23:25 11.04.2022
4283 Clear 8 1016 63 10000 2.57 90 22:44 11.04.2022
4284 Clear 9 1016 60 10000 2.06 70 21:36 11.04.2022
4285 Clear 10 1016 56 10000 3.09 80 20:49 11.04.2022
4286 Clear 11 1016 52 10000 3.6 90 20:28 11.04.2022
4287 Clear 13 1016 43 10000 2.06 90 19:29 11.04.2022
4288 Clear 13 1016 41 10000 2.57 70 18:59 11.04.2022
4289 Clear 13 1016 40 10000 2.57 70 18:33 11.04.2022
4290 Clear 14 1016 41 10000 0.51 0 17:43 11.04.2022
4291 Clear 14 1016 42 10000 1.54 0 16:36 11.04.2022
4292 Clear 14 1017 40 10000 2.57 260 15:21 11.04.2022
4293 Clear 12 1019 43 10000 3.6 230 13:44 11.04.2022
4294 Clear 12 1019 47 10000 3.09 250 12:41 11.04.2022
4295 Clear 11 1020 47 10000 3.09 280 12:22 11.04.2022
4296 Clear 9 1019 58 10000 2.57 260 10:47 11.04.2022
4297 Clear 8 1019 65 10000 1.03 0 09:58 11.04.2022
4298 Clear 4 1019 84 10000 0.51 0 08:22 11.04.2022
4299 Clear 2 1019 89 10000 1.03 0 04:56 11.04.2022
4300 Clouds 4 1020 92 10000 1.54 250 23:55 10.04.2022
4301 Clouds 5 1020 82 10000 1.54 260 22:27 10.04.2022
4302 Clouds 5 1020 85 10000 0.51 0 21:52 10.04.2022
4303 Clouds 6 1019 79 10000 1.54 230 20:52 10.04.2022
4304 Clear 7 1019 84 10000 1.54 270 19:58 10.04.2022
4305 Clouds 7 1018 85 10000 2.73 295 19:34 10.04.2022
4306 Clouds 8 1018 72 10000 0.89 225 18:48 10.04.2022
4307 Rain 8 1019 67 10000 6.69 270 18:25 10.04.2022
4308 Clouds 9 1018 66 10000 7.72 300 17:43 10.04.2022
4309 Clouds 9 1018 61 10000 9.26 320 16:52 10.04.2022
4310 Clouds 8 1018 70 10000 8.23 290 15:38 10.04.2022
4311 Clouds 8 1018 77 10000 8.23 300 14:41 10.04.2022
4312 Clouds 8 1017 63 10000 7.72 280 13:22 10.04.2022
4313 Clouds 8 1016 62 10000 7.2 280 12:26 10.04.2022
4314 Clouds 7 1017 70 10000 8.23 280 11:36 10.04.2022
4315 Clouds 7 1017 76 10000 7.72 280 10:58 10.04.2022
4316 Clouds 6 1016 74 10000 7.2 270 10:23 10.04.2022
4317 Clouds 5 1016 77 10000 7.2 270 09:41 10.04.2022
4318 Clouds 4 1015 85 10000 0.89 225 08:26 10.04.2022
4319 Clear 3 1015 84 10000 4.63 260 07:47 10.04.2022
4320 Clouds 3 1015 87 10000 4.63 260 06:43 10.04.2022
4321 Clouds 3 1014 87 10000 5.66 260 03:36 10.04.2022
4322 Clouds 3 1013 87 10000 5.14 250 01:29 10.04.2022
4323 Clear 3 1012 87 10000 4.63 260 23:52 09.04.2022
4324 Clear 3 1011 88 10000 4.63 260 22:52 09.04.2022
4325 Clouds 4 1011 87 10000 5.14 250 21:48 09.04.2022
4326 Clouds 4 1011 92 10000 3.09 250 20:57 09.04.2022
4327 Rain 4 1010 92 10000 3.6 260 20:26 09.04.2022
4328 Rain 5 1010 87 10000 8.23 280 19:42 09.04.2022
4329 Clouds 5 1009 87 10000 4.63 250 19:18 09.04.2022
4330 Rain 5 1010 84 10000 4.12 240 18:22 09.04.2022
4331 Rain 6 1009 73 10000 5.14 300 17:40 09.04.2022
4332 Rain 7 1008 81 10000 7.2 300 16:53 09.04.2022
4333 Rain 8 1007 77 10000 3.6 270 15:59 09.04.2022
4334 Clouds 7 1007 77 10000 3.6 270 15:41 09.04.2022
4335 Clouds 7 1007 82 10000 0.89 248 14:44 09.04.2022
4336 Clouds 7 1007 82 10000 0.89 248 14:44 09.04.2022
4337 Rain 7 1007 72 10000 4.12 330 14:23 09.04.2022
4338 Clouds 8 1006 77 10000 8.23 280 13:21 09.04.2022
4339 Clouds 8 1005 71 10000 8.75 270 12:51 09.04.2022
4340 Clouds 8 1005 65 10000 8.23 270 11:40 09.04.2022
4341 Clouds 7 1004 73 10000 8.23 270 10:21 09.04.2022
4342 Clouds 6 1004 76 10000 8.23 270 09:47 09.04.2022
4343 Clouds 5 1004 81 10000 6.69 260 08:56 09.04.2022
4344 Clouds 4 1002 87 10000 5.14 270 07:29 09.04.2022
4345 Clouds 4 997 82 10000 5.14 270 02:53 09.04.2022
4346 Clear 4 996 87 10000 2.57 270 23:53 08.04.2022
4347 Clear 4 996 86 10000 1.54 240 22:55 08.04.2022
4348 Clouds 5 996 85 10000 2.06 230 21:29 08.04.2022
4349 Clouds 6 996 82 10000 0.51 120 20:39 08.04.2022
4350 Clouds 7 995 66 10000 11.83 300 19:32 08.04.2022
4351 Clouds 9 995 56 10000 6.69 240 18:31 08.04.2022
4352 Clear 9 994 57 10000 4.63 250 17:52 08.04.2022
4353 Clear 9 994 56 10000 3.6 270 17:26 08.04.2022
4354 Clouds 9 994 56 10000 5.14 270 16:49 08.04.2022
4355 Clouds 9 994 56 10000 5.14 260 15:57 08.04.2022
4356 Clouds 9 995 57 10000 5.14 260 15:26 08.04.2022
4357 Clouds 9 995 62 10000 8.23 250 14:33 08.04.2022
4358 Clouds 9 996 65 10000 7.72 250 13:46 08.04.2022
4359 Clouds 8 995 68 10000 6.69 260 13:27 08.04.2022
4360 Clouds 7 996 77 10000 7.72 260 12:18 08.04.2022
4361 Clouds 7 996 78 10000 8.23 260 10:37 08.04.2022
4362 Clouds 5 996 82 10000 6.17 260 09:38 08.04.2022
4363 Clouds 5 996 86 10000 1.79 203 08:51 08.04.2022
4364 Clouds 5 994 87 10000 8.23 280 06:55 08.04.2022
4365 Clouds 6 992 84 10000 5.14 290 05:18 08.04.2022
4366 Clouds 7 987 79 10000 10.29 270 01:29 08.04.2022
4367 Clouds 7 985 80 10000 10.29 260 00:25 08.04.2022
4368 Clouds 7 984 81 10000 10.29 250 22:59 07.04.2022
4369 Clouds 7 984 78 10000 10.29 250 22:39 07.04.2022
4370 Clouds 7 984 80 10000 10.8 250 22:21 07.04.2022
4371 Clear 7 984 82 10000 8.75 250 21:53 07.04.2022
4372 Clouds 7 983 86 10000 7.2 250 21:19 07.04.2022
4373 Clouds 7 983 87 10000 9.77 260 20:37 07.04.2022
4374 Clouds 11 981 54 10000 11.83 250 18:35 07.04.2022
4375 Clouds 12 980 57 10000 11.32 260 17:27 07.04.2022
4376 Clouds 12 980 63 10000 11.32 280 16:44 07.04.2022
4377 Clouds 12 980 63 10000 8.75 250 16:22 07.04.2022
4378 Clouds 10 981 82 10000 7.2 250 14:50 07.04.2022
4379 Clouds 7 981 95 10000 3.6 270 13:43 07.04.2022
4380 Clouds 9 980 82 10000 6.17 200 12:50 07.04.2022
4381 Clouds 10 981 83 10000 7.72 220 11:40 07.04.2022
4382 Clouds 11 983 73 10000 8.23 220 09:42 07.04.2022
4383 Clouds 11 985 75 10000 8.23 220 08:38 07.04.2022
4384 Clouds 10 988 79 10000 7.72 230 06:43 07.04.2022
4385 Clouds 10 991 79 10000 5.66 220 02:54 07.04.2022
4386 Clouds 10 992 82 10000 6.17 230 02:25 07.04.2022
4387 Clouds 10 994 80 10000 6.17 230 00:27 07.04.2022
4388 Clear 10 994 71 10000 6.17 230 22:51 06.04.2022
4389 Clouds 10 995 77 10000 6.69 230 22:27 06.04.2022
4390 Clouds 10 995 76 10000 5.66 220 21:45 06.04.2022
4391 Clouds 11 996 73 10000 7.2 220 20:40 06.04.2022
4392 Clouds 11 996 75 10000 6.69 220 19:54 06.04.2022
4393 Clouds 11 997 77 10000 6.69 220 18:52 06.04.2022
4394 Clouds 11 996 77 10000 8.23 230 18:32 06.04.2022
4395 Clouds 11 997 78 10000 8.23 240 17:35 06.04.2022
4396 Clouds 11 998 74 10000 7.72 230 16:38 06.04.2022
4397 Clouds 11 998 72 10000 7.2 230 15:48 06.04.2022
4398 Clouds 11 999 72 10000 8.23 240 15:21 06.04.2022
4399 Clouds 11 999 76 10000 8.75 240 13:25 06.04.2022
4400 Clouds 10 1000 75 10000 9.26 240 12:27 06.04.2022
4401 Clouds 10 1000 77 10000 8.23 240 10:48 06.04.2022
4402 Clouds 10 1000 79 10000 7.72 250 10:29 06.04.2022
4403 Clouds 10 1000 82 10000 7.72 240 09:41 06.04.2022
4404 Clouds 9 1000 89 7000 5.66 240 08:34 06.04.2022
4405 Clouds 9 1000 85 10000 6.69 240 07:53 06.04.2022
4406 Clouds 10 1001 89 10000 5.14 250 04:30 06.04.2022
4407 Clouds 9 1001 92 10000 5.14 260 23:54 05.04.2022
4408 Clouds 10 1002 90 10000 6.69 270 22:58 05.04.2022
4409 Clouds 10 1002 93 10000 5.66 260 21:23 05.04.2022
4410 Clouds 10 1001 91 10000 7.2 270 20:26 05.04.2022
4411 Clouds 10 1001 91 10000 5.66 270 19:52 05.04.2022
4412 Clouds 10 1001 88 10000 5.66 270 18:18 05.04.2022
4413 Clouds 9 1001 97 10000 4.12 260 16:55 05.04.2022
4414 Clouds 9 1002 97 10000 4.12 260 16:35 05.04.2022
4415 Clouds 9 1002 89 10000 4.12 250 15:35 05.04.2022
4416 Mist 9 1002 87 3400 3.6 270 14:37 05.04.2022
4417 Clouds 8 1003 85 6000 4.12 280 13:37 05.04.2022
4418 Clouds 8 1003 82 10000 5.14 280 11:51 05.04.2022
4419 Clouds 8 1003 82 10000 5.14 280 11:51 05.04.2022
4420 Clouds 8 1003 82 10000 5.14 280 11:33 05.04.2022
4421 Clouds 8 1003 83 10000 5.14 280 10:41 05.04.2022
4422 Clouds 6 1003 88 10000 4.12 290 08:55 05.04.2022
4423 Clouds 6 1002 89 10000 5.14 300 07:24 05.04.2022
4424 Clouds 7 1000 94 8000 4.63 260 02:39 05.04.2022
4425 Clouds 6 1000 92 10000 6.69 260 22:48 04.04.2022
4426 Clouds 6 1000 91 10000 7.72 260 22:29 04.04.2022
4427 Drizzle 6 999 89 10000 8.23 260 21:22 04.04.2022
4428 Clouds 6 1000 90 10000 9.77 250 20:50 04.04.2022
4429 Clouds 6 999 90 10000 10.29 250 20:22 04.04.2022
4430 Drizzle 5 1000 88 10000 11.83 250 19:26 04.04.2022
4431 Clouds 5 999 88 10000 11.83 250 18:37 04.04.2022
4432 Clouds 5 1001 88 7000 11.83 250 16:37 04.04.2022
4433 Drizzle 5 1001 87 10000 9.77 240 15:58 04.04.2022
4434 Drizzle 5 1002 86 10000 9.77 240 15:33 04.04.2022
4435 Clouds 4 1002 87 10000 9.77 230 14:46 04.04.2022
4436 Clouds 5 1003 82 10000 12.35 240 13:33 04.04.2022
4437 Clouds 5 1005 78 10000 9.77 230 12:23 04.04.2022
4438 Clouds 5 1007 70 10000 9.26 240 11:29 04.04.2022
4439 Clear 4 1009 70 10000 7.2 230 09:20 04.04.2022
4440 Clear 3 1013 84 10000 5.14 250 05:27 04.04.2022
4441 Clear 2 1016 89 10000 4.12 250 02:41 04.04.2022
4442 Clouds 3 1017 91 10000 3.6 260 22:47 03.04.2022
4443 Clouds 3 1018 88 10000 3.09 260 21:48 03.04.2022
4444 Clouds 4 1018 83 10000 2.06 240 21:19 03.04.2022
4445 Clouds 5 1018 77 10000 3.09 270 19:52 03.04.2022
4446 Clouds 6 1017 75 10000 4.63 270 18:34 03.04.2022
4447 Clouds 6 1017 78 10000 3.6 250 17:49 03.04.2022
4448 Clouds 6 1018 79 10000 2.57 240 17:27 03.04.2022
4449 Clouds 5 1018 74 10000 5.55 285 16:48 03.04.2022
4450 Clouds 6 1019 78 10000 5.66 270 15:32 03.04.2022
4451 Clouds 7 1019 58 10000 5.66 270 13:58 03.04.2022
4452 Clouds 6 1020 60 10000 6.17 280 12:56 03.04.2022
4453 Clouds 5 1020 56 10000 6.69 280 11:33 03.04.2022
4454 Clear 2 1020 67 10000 3.6 260 09:40 03.04.2022
4455 Clear 1 1020 72 10000 2.57 260 08:52 03.04.2022
4456 Clear -3 1020 75 10000 0.51 200 05:44 03.04.2022
4457 Clear -2 1020 63 10000 1.03 290 02:55 03.04.2022
4458 Clear 1 1019 47 10000 1.54 40 23:22 02.04.2022
4459 Clear 1 1019 47 10000 1.54 40 23:22 02.04.2022
4460 Clear 1 1019 44 10000 2.57 40 22:41 02.04.2022
4461 Clear 2 1019 42 10000 1.54 10 21:54 02.04.2022
4462 Clear 3 1019 40 10000 2.57 30 21:19 02.04.2022
4463 Clear 4 1018 37 10000 3.6 30 20:35 02.04.2022
4464 Clear 6 1016 37 10000 5.66 20 18:45 02.04.2022
4465 Clouds 6 1016 40 10000 7.72 40 18:18 02.04.2022
4466 Clouds 6 1015 42 10000 5.66 30 16:39 02.04.2022
4467 Clouds 6 1016 45 10000 5.14 20 15:23 02.04.2022
4468 Clouds 7 1016 44 10000 6.17 20 14:52 02.04.2022
4469 Clouds 6 1016 47 10000 6.17 30 14:20 02.04.2022
4470 Clouds 5 1016 52 10000 6.17 50 13:29 02.04.2022
4471 Clouds 4 1016 57 10000 7.2 50 11:56 02.04.2022
4472 Clouds 2 1015 68 10000 5.66 20 09:57 02.04.2022
4473 Clear 0 1014 76 10000 3.6 10 07:33 02.04.2022
4474 Clear 1 1013 76 10000 4.12 20 04:25 02.04.2022
4475 Clear 3 1012 59 10000 6.17 60 00:27 02.04.2022
4476 Clouds 3 1011 56 10000 7.2 60 23:53 01.04.2022
4477 Clear 3 1011 60 10000 5.14 40 22:34 01.04.2022
4478 Clouds 4 1010 59 10000 6.69 30 20:54 01.04.2022
4479 Clouds 4 1010 56 10000 6.69 30 20:32 01.04.2022
4480 Clear 5 1009 53 10000 6.69 30 19:39 01.04.2022
4481 Clear 5 1008 54 10000 6.17 30 19:18 01.04.2022
4482 Clear 5 1008 56 10000 8.23 30 18:35 01.04.2022
4483 Clouds 5 1007 54 10000 6.69 30 17:36 01.04.2022
4484 Clouds 5 1007 58 10000 6.17 40 15:45 01.04.2022
4485 Clouds 5 1007 53 10000 7.2 40 14:47 01.04.2022
4486 Clouds 4 1007 58 10000 6.69 50 13:38 01.04.2022
4487 Clear 3 1007 69 10000 6.17 40 12:33 01.04.2022
4488 Clouds 3 1007 75 10000 6.17 40 11:45 01.04.2022
4489 Clouds 1 1007 80 10000 4.12 40 10:41 01.04.2022
4490 Clouds 0 1006 89 10000 5.66 70 09:34 01.04.2022
4491 Mist -1 1005 95 2700 4.12 40 07:19 01.04.2022
4492 Mist 0 1004 91 2400 4.63 50 04:57 01.04.2022
4493 Mist 0 1004 91 2400 4.63 50 04:39 01.04.2022
4494 Mist 1 1004 89 3900 6.69 60 02:32 01.04.2022
4495 Clouds 2 1003 78 10000 7.2 50 01:31 01.04.2022
4496 Clouds 5 1003 48 10000 8.23 80 22:24 31.03.2022
4497 Clouds 4 1002 50 10000 7.72 70 21:37 31.03.2022
4498 Clouds 4 1002 60 10000 10.8 80 20:50 31.03.2022
4499 Clouds 4 1002 62 10000 10.8 80 20:28 31.03.2022
4500 Clouds 5 1001 61 10000 9.77 70 19:18 31.03.2022
4501 Clouds 5 1001 60 10000 8.75 80 18:31 31.03.2022
4502 Clouds 6 1001 52 10000 9.26 90 16:46 31.03.2022
4503 Clouds 7 1000 53 10000 10.29 80 15:54 31.03.2022
4504 Clear 7 1000 51 10000 9.26 80 15:23 31.03.2022
4505 Clouds 7 1001 53 10000 9.26 90 14:44 31.03.2022
4506 Clouds 6 1001 65 10000 6.69 100 13:28 31.03.2022
4507 Clouds 5 1001 73 10000 8.23 90 11:30 31.03.2022
4508 Clouds 4 1001 75 10000 6.17 90 10:19 31.03.2022
4509 Clouds 4 1001 81 10000 4.63 110 09:19 31.03.2022
4510 Clouds 4 1001 88 10000 2.06 90 07:31 31.03.2022
4511 Clear 4 1002 83 10000 2.57 70 01:27 31.03.2022
4512 Clouds 5 1002 79 10000 3.6 90 23:23 30.03.2022
4513 Clouds 6 1002 71 10000 1.79 68 21:50 30.03.2022
4514 Clouds 6 1003 68 10000 2.06 70 21:27 30.03.2022
4515 Clouds 7 1003 62 10000 3.09 70 20:22 30.03.2022
4516 Clouds 7 1002 62 10000 3.09 70 19:43 30.03.2022
4517 Clouds 7 1002 60 10000 3.09 70 18:40 30.03.2022
4518 Clouds 8 1002 57 10000 3.6 40 17:49 30.03.2022
4519 Clouds 8 1003 56 10000 3.09 40 16:58 30.03.2022
4520 Clouds 8 1003 56 10000 3.09 40 16:38 30.03.2022
4521 Clouds 8 1004 54 10000 3.09 20 15:38 30.03.2022
4522 Clouds 9 1003 51 10000 3.09 40 14:18 30.03.2022
4523 Clouds 9 1004 54 10000 3.09 40 13:19 30.03.2022
4524 Clouds 7 1005 64 10000 2.06 90 11:41 30.03.2022
4525 Clear 5 1005 73 10000 2.06 70 10:37 30.03.2022
4526 Clear 4 1005 81 10000 1.03 0 09:28 30.03.2022
4527 Clouds 1 1005 90 10000 0.51 0 07:59 30.03.2022
4528 Clear 1 1006 88 10000 0.51 130 05:41 30.03.2022
4529 Clear 1 1007 87 10000 0.51 130 04:54 30.03.2022
4530 Clear 3 1008 86 10000 1.03 0 00:43 30.03.2022
4531 Clear 5 1009 80 10000 2.06 320 22:35 29.03.2022
4532 Clear 6 1009 77 10000 2.06 320 21:46 29.03.2022
4533 Clear 7 1009 74 10000 3.09 340 20:54 29.03.2022
4534 Clear 8 1009 72 10000 3.6 350 20:24 29.03.2022
4535 Clouds 10 1008 61 10000 5.66 340 18:57 29.03.2022
4536 Clouds 11 1008 60 10000 5.66 340 18:36 29.03.2022
4537 Clouds 12 1008 56 10000 4.12 320 17:37 29.03.2022
4538 Clouds 12 1009 52 10000 6.17 340 16:58 29.03.2022
4539 Clouds 12 1010 53 10000 4.12 290 15:58 29.03.2022
4540 Clouds 12 1011 57 10000 4.63 290 14:53 29.03.2022
4541 Clouds 11 1011 59 10000 4.63 290 14:22 29.03.2022
4542 Clouds 9 1012 69 10000 3.6 280 12:55 29.03.2022
4543 Clouds 8 1012 71 10000 3.6 290 11:44 29.03.2022
4544 Clouds 7 1013 78 10000 3.09 310 10:51 29.03.2022
4545 Clouds 7 1013 81 10000 3.09 290 09:49 29.03.2022
4546 Clouds 7 1013 81 10000 3.09 290 09:49 29.03.2022
4547 Clouds 6 1014 89 9000 2.57 300 07:35 29.03.2022
4548 Clouds 6 1015 89 10000 2.2 279 04:41 29.03.2022
4549 Clouds 6 1016 89 10000 2.06 280 00:36 29.03.2022
4550 Clouds 7 1017 86 10000 2.57 340 23:23 28.03.2022
4551 Clear 7 1017 86 10000 2.57 340 22:52 28.03.2022
4552 Clear 7 1017 84 10000 2.06 350 22:26 28.03.2022
4553 Clear 9 1017 82 10000 4.12 340 20:56 28.03.2022
4554 Clear 9 1017 80 10000 3.09 330 20:21 28.03.2022
4555 Clear 10 1017 74 10000 2.57 290 19:41 28.03.2022
4556 Clear 12 1018 71 10000 3.6 320 18:56 28.03.2022
4557 Clear 12 1018 69 10000 3.6 320 18:36 28.03.2022
4558 Clear 13 1018 65 10000 4.12 330 17:39 28.03.2022
4559 Clear 13 1019 64 10000 3.6 320 16:19 28.03.2022
4560 Clouds 12 1021 71 10000 3.09 300 14:27 28.03.2022
4561 Clouds 11 1021 76 10000 3.09 310 13:47 28.03.2022
4562 Clouds 10 1022 79 10000 2.06 320 12:20 28.03.2022
4563 Mist 6 1023 100 8000 1.54 310 11:23 28.03.2022
4564 Fog 3 1024 100 900 2.57 320 09:41 28.03.2022
4565 Fog 4 1024 92 450 1.54 320 09:19 28.03.2022
4566 Fog 3 1024 92 400 2.06 320 08:22 28.03.2022
4567 Fog 4 1024 91 450 2.06 320 07:27 28.03.2022
4568 Fog 5 1026 89 450 1.03 320 03:43 28.03.2022
4569 Clear 7 1028 84 10000 1.03 230 23:28 27.03.2022
4570 Clear 9 1028 82 10000 1.03 300 22:24 27.03.2022
4571 Clear 9 1028 83 10000 1.03 0 21:41 27.03.2022
4572 Clear 10 1028 74 10000 1.03 310 20:54 27.03.2022
4573 Clear 13 1028 66 10000 1.54 300 19:46 27.03.2022
4574 Clear 14 1028 63 10000 1.54 320 18:55 27.03.2022
4575 Clear 14 1028 63 10000 2.06 330 18:26 27.03.2022
4576 Clear 15 1028 60 10000 2.57 330 17:38 27.03.2022
4577 Clear 14 1029 57 10000 1.54 330 15:59 27.03.2022
4578 Clear 14 1030 62 10000 1.54 0 14:55 27.03.2022
4579 Clouds 12 1031 71 10000 1.54 350 13:54 27.03.2022
4580 Clouds 12 1031 71 10000 1.54 350 13:54 27.03.2022
4581 Clouds 9 1032 80 8000 1.54 0 11:52 27.03.2022
4582 Clouds 8 1032 87 6000 0.51 0 10:47 27.03.2022
4583 Mist 6 1031 93 2300 1.03 0 08:36 27.03.2022
4584 Clouds 6 1031 95 9000 1.54 330 05:45 27.03.2022
4585 Clouds 7 1031 91 10000 1.54 310 00:47 27.03.2022
4586 Clouds 8 1031 89 10000 2.57 10 23:30 26.03.2022
4587 Clouds 8 1031 89 10000 3.6 350 22:35 26.03.2022
4588 Clear 9 1030 92 10000 4.12 340 21:33 26.03.2022
4589 Clear 11 1030 88 10000 3.09 330 20:20 26.03.2022
4590 Clouds 13 1029 83 10000 5.14 340 18:59 26.03.2022
4591 Clouds 14 1029 72 10000 7.2 330 17:47 26.03.2022
4592 Clouds 16 1029 66 10000 6.17 310 17:28 26.03.2022
4593 Clouds 16 1029 61 10000 7.2 330 16:24 26.03.2022
4594 Clouds 17 1030 55 10000 7.2 320 14:50 26.03.2022
4595 Clear 17 1030 50 10000 5.66 310 13:52 26.03.2022
4596 Clear 16 1030 47 10000 7.72 300 12:44 26.03.2022
4597 Clear 14 1031 54 10000 3.6 270 11:28 26.03.2022
4598 Clear 10 1031 64 9000 3.09 270 09:23 26.03.2022
4599 Clear 8 1030 71 7000 2.06 250 08:27 26.03.2022
4600 Clouds 5 1030 82 8000 2.06 260 05:54 26.03.2022
4601 Clear 6 1030 79 10000 1.54 280 03:58 26.03.2022
4602 Clear 9 1030 75 10000 1.03 0 23:21 25.03.2022
4603 Clear 10 1029 62 10000 1.54 320 21:28 25.03.2022
4604 Clear 10 1029 60 10000 1.54 320 20:45 25.03.2022
4605 Clear 13 1029 49 10000 1.54 290 19:27 25.03.2022
4606 Clear 14 1028 47 10000 2.57 300 18:46 25.03.2022
4607 Clear 14 1028 47 10000 2.57 300 18:46 25.03.2022
4608 Clear 16 1029 41 10000 3.09 310 17:35 25.03.2022
4609 Clear 17 1028 38 10000 2.57 340 16:41 25.03.2022
4610 Clear 17 1029 38 10000 3.09 340 15:52 25.03.2022
4611 Clear 17 1030 36 10000 1.54 0 13:51 25.03.2022
4612 Clear 16 1031 38 10000 1.54 0 12:20 25.03.2022
4613 Clear 11 1031 50 10000 0.51 0 09:47 25.03.2022
4614 Clear 9 1030 53 10000 0.51 0 09:19 25.03.2022
4615 Clear 4 1029 74 10000 0.51 330 07:48 25.03.2022
4616 Clear 4 1029 67 10000 0.51 310 07:21 25.03.2022
4617 Clear 3 1028 67 10000 0.51 0 04:35 25.03.2022
4618 Clear 6 1029 52 10000 1.54 70 23:55 24.03.2022
4619 Clear 7 1028 55 10000 1.54 80 22:24 24.03.2022
4620 Clear 8 1028 48 10000 1.54 80 21:29 24.03.2022
4621 Clear 11 1028 41 10000 1.03 0 19:50 24.03.2022
4622 Clear 14 1028 35 10000 1.03 100 18:49 24.03.2022
4623 Clear 16 1027 30 10000 2.57 90 17:38 24.03.2022
4624 Clear 17 1027 29 10000 2.57 80 16:41 24.03.2022
4625 Clear 17 1029 30 10000 2.57 70 14:58 24.03.2022
4626 Clear 17 1029 31 10000 2.57 70 14:39 24.03.2022
4627 Clear 17 1028 35 10000 2.57 50 13:41 24.03.2022
4628 Clear 16 1029 37 10000 1.54 110 12:39 24.03.2022
4629 Clear 14 1029 42 10000 2.57 90 11:31 24.03.2022
4630 Clear 10 1029 54 10000 2.06 80 09:34 24.03.2022
4631 Clear 8 1029 66 10000 2.06 90 08:39 24.03.2022
4632 Clear 3 1029 79 10000 2.06 80 06:18 24.03.2022
4633 Clear 7 1029 59 10000 0.51 0 01:20 24.03.2022
4634 Clear 9 1029 46 10000 3.6 70 22:26 23.03.2022
4635 Clear 9 1029 48 10000 1.54 60 21:25 23.03.2022
4636 Clear 10 1029 45 10000 1.03 80 20:46 23.03.2022
4637 Clear 12 1029 35 10000 0.51 0 19:33 23.03.2022
4638 Clear 16 1028 28 10000 2.06 100 18:19 23.03.2022
4639 Clear 17 1028 24 10000 2.06 100 17:31 23.03.2022
4640 Clear 18 1029 23 10000 1.54 0 16:18 23.03.2022
4641 Clear 18 1029 23 10000 2.06 70 14:49 23.03.2022
4642 Clear 17 1031 24 10000 2.57 130 13:34 23.03.2022
4643 Clear 15 1032 32 10000 1.54 0 11:38 23.03.2022
4644 Clear 8 1031 59 10000 1.03 0 08:51 23.03.2022
4645 Clear 1 1031 64 10000 1.03 0 06:26 23.03.2022
4646 Clear 2 1031 60 10000 1.03 0 03:52 23.03.2022
4647 Clear 6 1031 60 10000 1.54 110 00:28 23.03.2022
4648 Clear 8 1031 52 10000 2.57 90 21:56 22.03.2022
4649 Clear 9 1031 49 10000 2.06 100 21:26 22.03.2022
4650 Clear 10 1031 42 10000 1.54 80 20:30 22.03.2022
4651 Clear 13 1030 36 10000 2.57 90 19:27 22.03.2022
4652 Clear 14 1030 33 10000 2.57 100 18:50 22.03.2022
4653 Clear 16 1030 30 10000 3.6 90 17:44 22.03.2022
4654 Clear 18 1030 30 10000 3.6 90 16:58 22.03.2022
4655 Clear 18 1030 26 10000 2.57 100 15:48 22.03.2022
4656 Clear 18 1032 29 10000 2.57 90 15:21 22.03.2022
4657 Clear 18 1031 28 10000 3.09 70 14:45 22.03.2022
4658 Clear 18 1031 30 10000 3.6 70 13:52 22.03.2022
4659 Clear 16 1032 33 10000 1.54 110 12:34 22.03.2022
4660 Clear 15 1032 38 10000 2.06 90 11:24 22.03.2022
4661 Clear 11 1033 48 10000 1.54 80 09:42 22.03.2022
4662 Clear 4 1032 63 10000 3.09 90 07:35 22.03.2022
4663 Clear 4 1031 66 10000 3.09 100 03:58 22.03.2022
4664 Clear 5 1032 60 10000 2.57 90 01:27 22.03.2022
4665 Clear 8 1032 50 10000 2.57 100 22:57 21.03.2022
4666 Clear 8 1032 50 10000 2.57 110 21:37 21.03.2022
4667 Clear 9 1032 48 10000 2.57 100 20:44 21.03.2022
4668 Clear 10 1032 48 10000 3.09 100 20:23 21.03.2022
4669 Clear 11 1032 47 10000 2.57 100 19:47 21.03.2022
4670 Clear 12 1031 42 10000 3.09 110 18:48 21.03.2022
4671 Clear 14 1031 40 10000 3.6 110 17:36 21.03.2022
4672 Clear 15 1031 38 10000 4.12 120 16:59 21.03.2022
4673 Clear 15 1031 38 10000 4.12 120 16:33 21.03.2022
4674 Clear 15 1031 37 10000 4.12 110 15:43 21.03.2022
4675 Clear 15 1031 37 10000 4.63 110 14:37 21.03.2022
4676 Clear 14 1032 38 10000 4.12 110 13:20 21.03.2022
4677 Clear 12 1032 41 10000 4.12 130 11:59 21.03.2022
4678 Clear 12 1032 42 10000 4.12 120 11:28 21.03.2022
4679 Clear 9 1033 48 10000 4.12 120 09:51 21.03.2022
4680 Clear 4 1032 59 10000 3.09 110 07:39 21.03.2022
4681 Clear 3 1032 60 10000 2.57 110 06:18 21.03.2022
4682 Clear 5 1031 52 10000 3.6 110 02:23 21.03.2022
4683 Clear 8 1031 43 10000 5.14 120 22:57 20.03.2022
4684 Clear 8 1031 41 10000 4.63 110 22:29 20.03.2022
4685 Clear 9 1031 38 10000 4.12 110 21:38 20.03.2022
4686 Clear 10 1031 38 10000 4.12 110 20:56 20.03.2022
4687 Clear 10 1031 37 10000 4.12 110 20:36 20.03.2022
4688 Clear 10 1031 37 10000 4.63 110 19:54 20.03.2022
4689 Clear 11 1030 37 10000 6.17 120 19:24 20.03.2022
4690 Clear 13 1029 33 10000 7.72 120 17:48 20.03.2022
4691 Clear 13 1030 32 10000 7.2 120 17:26 20.03.2022
4692 Clear 13 1030 31 10000 7.72 120 16:36 20.03.2022
4693 Clear 13 1030 33 10000 9.26 130 14:50 20.03.2022
4694 Clear 12 1031 32 10000 8.23 130 13:39 20.03.2022
4695 Clear 11 1032 37 10000 8.75 110 12:19 20.03.2022
4696 Clear 6 1033 47 10000 9.26 90 09:59 20.03.2022
4697 Clear 3 1033 54 10000 7.72 100 08:21 20.03.2022
4698 Clear 2 1034 64 10000 8.23 80 06:39 20.03.2022
4699 Clear 3 1036 70 10000 7.72 80 03:25 20.03.2022
4700 Clear 5 1037 78 10000 6.17 70 00:54 20.03.2022
4701 Clear 5 1037 78 10000 6.17 70 00:54 20.03.2022
4702 Clear 5 1037 79 10000 6.17 70 00:34 20.03.2022
4703 Clear 6 1038 70 10000 4.63 70 22:31 19.03.2022
4704 Clear 7 1039 62 10000 4.12 80 21:26 19.03.2022
4705 Clear 9 1039 54 10000 5.14 70 19:29 19.03.2022
4706 Clear 9 1039 51 10000 7.2 70 18:38 19.03.2022
4707 Clear 10 1039 49 10000 7.72 70 17:52 19.03.2022
4708 Clear 11 1039 46 10000 8.23 90 16:57 19.03.2022
4709 Clear 11 1040 47 10000 8.23 70 15:40 19.03.2022
4710 Clouds 11 1041 48 10000 9.26 90 14:19 19.03.2022
4711 Clouds 11 1042 49 10000 7.72 80 12:56 19.03.2022
4712 Clouds 11 1043 51 10000 7.72 80 12:36 19.03.2022
4713 Clouds 10 1044 56 10000 6.17 90 11:45 19.03.2022
4714 Clear 6 1045 76 10000 4.63 70 09:31 19.03.2022
4715 Clear 2 1045 88 10000 3.09 70 05:44 19.03.2022
4716 Clear 4 1046 84 10000 1.54 80 02:34 19.03.2022
4717 Clear 6 1045 81 10000 3.6 60 00:32 19.03.2022
4718 Clear 6 1045 83 10000 2.06 60 22:59 18.03.2022
4719 Clear 7 1045 82 10000 1.54 40 22:22 18.03.2022
4720 Clear 9 1044 74 10000 1.03 70 20:31 18.03.2022
4721 Clouds 11 1044 66 10000 2.06 50 19:25 18.03.2022
4722 Clouds 11 1044 68 10000 2.57 40 18:58 18.03.2022
4723 Clouds 13 1043 56 10000 2.57 360 16:56 18.03.2022
4724 Clouds 13 1043 56 10000 2.57 360 16:34 18.03.2022
4725 Clouds 13 1043 54 10000 2.57 100 14:29 18.03.2022
4726 Clouds 13 1043 57 10000 2.06 0 13:40 18.03.2022
4727 Clear 10 1043 67 10000 1.03 0 11:37 18.03.2022
4728 Clear 8 1043 77 10000 1.03 0 10:27 18.03.2022
4729 Clear 5 1042 90 7000 0.51 0 08:50 18.03.2022
4730 Fog 0 1041 92 350 0.51 0 07:26 18.03.2022
4731 Fog 0 1040 93 800 0.51 340 05:20 18.03.2022
4732 Fog 1 1038 96 10000 0.51 0 01:51 18.03.2022
4733 Clear 2 1037 92 10000 0.51 360 23:59 17.03.2022
4734 Clear 3 1036 90 10000 0.51 0 22:50 17.03.2022
4735 Clear 4 1036 90 10000 1.03 0 22:19 17.03.2022
4736 Clear 4 1035 89 10000 1.03 280 21:30 17.03.2022
4737 Clear 5 1035 89 10000 1.54 300 20:53 17.03.2022
4738 Clear 5 1034 86 10000 1.54 270 20:19 17.03.2022
4739 Clear 5 1034 90 10000 0.51 220 19:38 17.03.2022
4740 Clear 7 1033 81 10000 1.03 240 18:52 17.03.2022
4741 Clouds 8 1032 80 10000 3.6 300 17:29 17.03.2022
4742 Clouds 9 1031 82 10000 4.12 310 16:20 17.03.2022
4743 Clouds 8 1030 84 10000 4.12 300 15:43 17.03.2022
4744 Clouds 8 1029 89 10000 4.63 290 14:59 17.03.2022
4745 Clouds 8 1029 88 10000 4.63 280 13:45 17.03.2022
4746 Clouds 8 1028 89 10000 4.12 280 12:46 17.03.2022
4747 Clouds 8 1026 88 9000 3.09 240 11:33 17.03.2022
4748 Clouds 9 1025 80 10000 3.6 200 10:43 17.03.2022
4749 Clouds 10 1024 66 10000 4.12 170 09:36 17.03.2022
4750 Clear 9 1023 76 10000 2.57 120 08:19 17.03.2022
4751 Clear 7 1022 80 10000 4.12 110 05:49 17.03.2022
4752 Clear 7 1023 80 10000 4.63 110 04:30 17.03.2022
4753 Clear 8 1023 74 10000 5.14 120 00:25 17.03.2022
4754 Clear 9 1024 75 10000 4.12 120 22:52 16.03.2022
4755 Clear 9 1024 74 10000 4.12 120 22:34 16.03.2022
4756 Clear 9 1024 74 10000 3.09 120 21:56 16.03.2022
4757 Clear 9 1024 73 10000 3.09 120 20:40 16.03.2022
4758 Clear 10 1024 70 10000 4.63 100 19:23 16.03.2022
4759 Clear 11 1024 67 10000 4.63 110 18:42 16.03.2022
4760 Clear 12 1024 63 10000 4.12 110 17:46 16.03.2022
4761 Clear 12 1025 66 10000 4.63 110 17:28 16.03.2022
4762 Clear 14 1025 61 10000 3.6 110 15:56 16.03.2022
4763 Clouds 13 1026 60 10000 4.12 120 14:38 16.03.2022
4764 Clear 13 1026 60 10000 5.14 110 13:36 16.03.2022
4765 Clear 12 1027 65 10000 5.14 100 12:43 16.03.2022
4766 Clear 9 1027 87 10000 2.06 90 11:23 16.03.2022
4767 Clouds 7 1028 92 8000 1.54 260 10:30 16.03.2022
4768 Mist 6 1027 95 3500 1.03 0 09:56 16.03.2022
4769 Fog 2 1026 92 100 1.54 110 07:23 16.03.2022
4770 Fog 3 1025 93 600 0.51 60 02:44 16.03.2022
4771 Clouds 5 1024 93 8000 2.06 70 22:54 15.03.2022
4772 Clouds 5 1024 92 8000 2.06 70 22:35 15.03.2022
4773 Clouds 8 1023 84 10000 2.57 50 20:51 15.03.2022
4774 Clouds 10 1023 78 10000 1.03 360 19:34 15.03.2022
4775 Clear 11 1023 72 10000 1.54 80 17:42 15.03.2022
4776 Clouds 12 1022 69 10000 3.09 80 16:35 15.03.2022
4777 Clear 12 1023 68 10000 2.57 100 15:28 15.03.2022
4778 Clear 12 1023 69 10000 1.54 0 14:47 15.03.2022
4779 Clear 11 1024 73 10000 2.57 150 13:55 15.03.2022
4780 Clear 11 1024 73 10000 2.57 150 13:55 15.03.2022
4781 Clear 11 1024 75 10000 2.06 140 13:20 15.03.2022
4782 Clear 10 1026 81 10000 1.54 150 11:32 15.03.2022
4783 Clear 8 1027 86 10000 2.06 140 10:21 15.03.2022
4784 Clouds 5 1027 91 6000 1.03 130 08:50 15.03.2022
4785 Clouds 4 1027 92 6000 0.51 0 07:53 15.03.2022
4786 Clouds 4 1027 92 6000 0.51 0 07:35 15.03.2022
4787 Fog 3 1027 91 700 1.54 90 05:42 15.03.2022
4788 Mist 5 1028 91 4000 1.03 250 00:25 15.03.2022
4789 Clouds 6 1028 90 10000 1.54 240 23:26 14.03.2022
4790 Clouds 6 1028 91 10000 1.54 250 22:37 14.03.2022
4791 Clouds 7 1028 91 7000 1.03 240 21:49 14.03.2022
4792 Clouds 8 1027 90 10000 1.54 230 20:54 14.03.2022
4793 Clouds 8 1027 90 10000 1.03 210 20:23 14.03.2022
4794 Clouds 8 1027 89 10000 1.54 220 19:21 14.03.2022
4795 Clouds 9 1026 87 10000 1.54 280 17:55 14.03.2022
4796 Clouds 9 1025 88 10000 4.12 270 17:24 14.03.2022
4797 Clouds 9 1025 88 8000 4.63 260 16:26 14.03.2022
4798 Clouds 9 1024 89 10000 3.09 240 14:41 14.03.2022
4799 Clouds 9 1023 87 10000 2.57 240 12:54 14.03.2022
4800 Clouds 9 1022 79 10000 4.63 270 10:54 14.03.2022
4801 Clouds 8 1022 65 10000 5.14 260 09:55 14.03.2022
4802 Clouds 7 1022 68 10000 3.09 260 09:22 14.03.2022
4803 Clouds 6 1021 60 10000 2.06 280 08:56 14.03.2022
4804 Clear 4 1020 55 10000 0.51 270 07:34 14.03.2022
4805 Clear 2 1019 53 10000 2.06 100 05:46 14.03.2022
4806 Clear 4 1018 50 10000 3.09 100 01:58 14.03.2022
4807 Clear 4 1018 49 10000 3.09 110 01:29 14.03.2022
4808 Clear 7 1017 40 10000 3.09 110 22:52 13.03.2022
4809 Clear 8 1017 36 10000 3.09 110 21:31 13.03.2022
4810 Clear 8 1017 35 10000 3.6 110 20:56 13.03.2022
4811 Clear 8 1017 35 10000 3.6 120 20:31 13.03.2022
4812 Clear 9 1017 34 10000 4.12 110 19:59 13.03.2022
4813 Clear 9 1017 33 10000 4.12 110 19:37 13.03.2022
4814 Clear 10 1016 33 10000 6.17 100 19:18 13.03.2022
4815 Clear 10 1016 33 10000 6.17 100 19:18 13.03.2022
4816 Clear 10 1016 34 10000 6.17 100 18:38 13.03.2022
4817 Clear 12 1016 30 10000 5.66 110 17:47 13.03.2022
4818 Clear 13 1016 29 10000 5.66 110 17:20 13.03.2022
4819 Clear 14 1016 28 10000 5.14 110 16:30 13.03.2022
4820 Clear 14 1016 28 10000 4.63 110 15:47 13.03.2022
4821 Clear 14 1016 27 10000 3.6 110 14:56 13.03.2022
4822 Clear 13 1016 29 10000 4.12 110 13:45 13.03.2022
4823 Clear 12 1016 31 10000 4.12 130 12:55 13.03.2022
4824 Clear 10 1017 33 10000 3.6 110 11:53 13.03.2022
4825 Clear 9 1017 34 10000 3.6 110 11:32 13.03.2022
4826 Clear 8 1017 36 10000 3.6 120 10:47 13.03.2022
4827 Clear 7 1017 38 10000 3.6 110 10:24 13.03.2022
4828 Clear 6 1017 43 10000 4.12 120 09:41 13.03.2022
4829 Clear 3 1017 51 10000 3.6 100 08:46 13.03.2022
4830 Clear 1 1017 57 10000 3.09 110 07:42 13.03.2022
4831 Clear 0 1017 61 10000 4.12 90 05:41 13.03.2022
4832 Clear 1 1018 54 10000 2.06 100 02:43 13.03.2022
4833 Clear 4 1018 44 10000 3.09 100 23:56 12.03.2022
4834 Clear 5 1019 41 10000 3.09 110 22:27 12.03.2022
4835 Clear 7 1019 34 10000 2.57 100 20:34 12.03.2022
4836 Clear 8 1019 35 10000 4.12 100 19:47 12.03.2022
4837 Clear 8 1019 35 10000 3.6 100 19:27 12.03.2022
4838 Clear 10 1019 34 10000 3.09 100 18:23 12.03.2022
4839 Clear 12 1019 34 10000 3.09 110 17:31 12.03.2022
4840 Clear 14 1019 33 10000 3.09 110 16:23 12.03.2022
4841 Clear 14 1019 28 10000 4.12 130 15:22 12.03.2022
4842 Clear 13 1019 30 10000 4.12 130 14:28 12.03.2022
4843 Clear 11 1019 31 10000 4.63 110 12:56 12.03.2022
4844 Clear 10 1020 31 10000 4.12 110 11:56 12.03.2022
4845 Clear 9 1020 32 10000 4.12 110 11:35 12.03.2022
4846 Clear 8 1020 31 10000 4.63 130 10:52 12.03.2022
4847 Clear 5 1020 36 10000 3.09 120 09:45 12.03.2022
4848 Clear 3 1020 40 10000 3.6 110 08:55 12.03.2022
4849 Clear 1 1020 44 10000 2.57 90 07:19 12.03.2022
4850 Clear 2 1019 47 10000 4.63 120 02:34 12.03.2022
4851 Clear 4 1019 41 10000 5.66 110 23:52 11.03.2022
4852 Clear 5 1019 42 10000 5.66 120 22:52 11.03.2022
4853 Clear 5 1020 39 10000 5.14 120 21:35 11.03.2022
4854 Clear 5 1020 41 10000 6.17 120 20:54 11.03.2022
4855 Clear 6 1019 39 10000 6.69 120 20:28 11.03.2022
4856 Clear 6 1019 38 10000 7.72 110 19:42 11.03.2022
4857 Clear 7 1019 37 10000 5.66 110 18:51 11.03.2022
4858 Clear 9 1018 32 10000 7.2 110 17:28 11.03.2022
4859 Clear 10 1019 32 10000 8.75 120 16:27 11.03.2022
4860 Clear 10 1019 33 10000 7.72 120 15:53 11.03.2022
4861 Clear 9 1020 32 10000 8.75 110 14:19 11.03.2022
4862 Clear 8 1021 35 10000 7.2 120 12:43 11.03.2022
4863 Clear 7 1021 36 10000 6.69 120 12:20 11.03.2022
4864 Clear 6 1022 39 10000 7.72 120 11:43 11.03.2022
4865 Clear 3 1022 50 10000 5.66 120 09:39 11.03.2022
4866 Clear 2 1023 58 10000 5.66 120 08:40 11.03.2022
4867 Clear 0 1023 67 10000 3.6 110 07:49 11.03.2022
4868 Clear 0 1023 70 10000 3.6 110 06:59 11.03.2022
4869 Clear 1 1023 70 10000 4.63 110 05:20 11.03.2022
4870 Clear 2 1024 70 10000 4.12 90 02:45 11.03.2022
4871 Clear 5 1024 66 10000 5.14 120 22:51 10.03.2022
4872 Clear 6 1024 63 10000 5.66 120 22:27 10.03.2022
4873 Clear 7 1025 62 10000 6.17 120 21:26 10.03.2022
4874 Clear 8 1025 62 10000 5.66 120 20:39 10.03.2022
4875 Clear 9 1024 54 10000 5.66 110 19:22 10.03.2022
4876 Clear 11 1024 49 10000 5.66 110 18:19 10.03.2022
4877 Clear 12 1025 38 10000 6.69 100 16:53 10.03.2022
4878 Clear 13 1025 39 10000 4.63 130 15:34 10.03.2022
4879 Clear 13 1025 41 10000 4.12 120 14:19 10.03.2022
4880 Clear 12 1026 43 10000 4.12 100 12:43 10.03.2022
4881 Clear 11 1027 46 10000 3.6 120 11:33 10.03.2022
4882 Clear 7 1027 56 10000 2.06 110 09:54 10.03.2022
4883 Clear 4 1027 66 10000 2.57 110 08:39 10.03.2022
4884 Clear 0 1026 78 10000 2.57 90 05:33 10.03.2022
4885 Clear 2 1026 75 10000 2.06 100 02:39 10.03.2022
4886 Clear 3 1025 64 10000 1.03 90 23:37 09.03.2022
4887 Clear 5 1025 62 10000 2.06 110 22:28 09.03.2022
4888 Clear 5 1024 60 10000 3.09 90 21:47 09.03.2022
4889 Clear 6 1025 54 10000 3.09 100 20:44 09.03.2022
4890 Clear 9 1024 43 10000 2.57 100 18:50 09.03.2022
4891 Clouds 12 1023 38 10000 3.6 120 17:28 09.03.2022
4892 Clouds 12 1023 38 10000 3.6 120 16:45 09.03.2022
4893 Clouds 13 1023 36 10000 4.12 130 15:37 09.03.2022
4894 Clear 12 1025 33 10000 3.09 160 14:19 09.03.2022
4895 Clear 12 1024 36 10000 4.12 140 13:25 09.03.2022
4896 Clear 11 1024 36 10000 2.57 160 12:20 09.03.2022
4897 Clear 10 1025 37 10000 2.57 160 11:45 09.03.2022
4898 Clear 8 1024 48 10000 1.54 140 10:50 09.03.2022
4899 Clear 5 1024 60 10000 2.06 140 09:22 09.03.2022
4900 Clear 3 1024 69 10000 1.54 120 08:42 09.03.2022
4901 Clear -1 1024 75 10000 0.51 0 04:49 09.03.2022
4902 Clear 1 1023 65 10000 2.06 80 00:55 09.03.2022
4903 Clear 2 1023 61 10000 2.57 120 23:21 08.03.2022
4904 Clear 3 1023 60 10000 2.06 110 22:45 08.03.2022
4905 Clear 4 1023 59 10000 2.57 120 21:28 08.03.2022
4906 Clear 5 1023 56 10000 2.06 120 20:54 08.03.2022
4907 Clear 5 1023 52 10000 3.09 110 19:55 08.03.2022
4908 Clear 7 1023 49 10000 3.09 100 18:45 08.03.2022
4909 Clear 8 1022 44 10000 4.63 110 17:50 08.03.2022
4910 Clear 10 1022 41 10000 3.6 130 16:33 08.03.2022
4911 Clear 10 1023 39 10000 5.66 130 14:22 08.03.2022
4912 Clear 9 1024 45 10000 4.63 140 12:44 08.03.2022
4913 Clear 8 1024 50 10000 4.12 120 11:53 08.03.2022
4914 Clear 7 1025 55 10000 4.12 120 11:34 08.03.2022
4915 Clouds 5 1025 68 10000 2.06 110 10:22 08.03.2022
4916 Clear -1 1025 86 10000 3.6 90 07:34 08.03.2022
4917 Clear -2 1025 87 10000 3.09 90 05:44 08.03.2022
4918 Clear -1 1026 90 10000 0.51 0 23:58 07.03.2022
4919 Clear 0 1026 88 10000 0 0 22:23 07.03.2022
4920 Clear 1 1026 85 10000 1.03 0 21:34 07.03.2022
4921 Clear 1 1026 84 10000 0.51 0 20:49 07.03.2022
4922 Clear 2 1026 82 10000 0.51 0 20:20 07.03.2022
4923 Clear 3 1025 76 10000 0.51 60 19:34 07.03.2022
4924 Clear 5 1026 69 10000 0 0 18:46 07.03.2022
4925 Clear 6 1026 57 10000 0.51 0 17:52 07.03.2022
4926 Clouds 7 1025 58 10000 0.51 0 16:56 07.03.2022
4927 Clouds 8 1025 55 10000 1.54 0 15:59 07.03.2022
4928 Clouds 7 1027 68 10000 1.93 63 13:52 07.03.2022
4929 Clouds 7 1027 68 10000 1.93 63 13:52 07.03.2022
4930 Clear 6 1027 69 10000 1.21 44 12:28 07.03.2022
4931 Fog 3 1027 79 450 1.54 290 10:39 07.03.2022
4932 Fog 0 1028 80 10000 2.57 310 08:57 07.03.2022
4933 Clouds 0 1027 80 10000 1.54 280 04:51 07.03.2022
4934 Clouds 0 1027 79 10000 0.51 300 00:23 07.03.2022
4935 Clouds 0 1026 74 10000 0.51 0 23:35 06.03.2022
4936 Clouds 0 1027 78 10000 1.03 330 22:42 06.03.2022
4937 Clouds 0 1026 78 10000 0.51 0 21:58 06.03.2022
4938 Clouds 0 1026 77 10000 0.51 0 20:49 06.03.2022
4939 Clouds 0 1026 78 10000 0.51 0 20:22 06.03.2022
4940 Clouds 2 1026 65 10000 1.03 130 18:56 06.03.2022
4941 Clouds 2 1025 62 10000 1.54 100 18:23 06.03.2022
4942 Clouds 3 1025 56 10000 3.09 60 17:21 06.03.2022
4943 Clouds 3 1025 57 10000 3.6 40 16:41 06.03.2022
4944 Clouds 4 1025 54 10000 4.12 40 15:49 06.03.2022
4945 Clouds 4 1025 54 10000 4.63 20 14:49 06.03.2022
4946 Clouds 4 1025 55 10000 4.63 20 14:31 06.03.2022
4947 Clouds 3 1026 53 10000 3.09 40 13:18 06.03.2022
4948 Clouds 3 1026 57 10000 0.89 68 12:31 06.03.2022
4949 Clouds 2 1026 65 10000 3.09 50 10:53 06.03.2022
4950 Clouds 2 1026 72 10000 3.6 40 09:54 06.03.2022
4951 Clouds 1 1025 76 10000 1.54 70 08:29 06.03.2022
4952 Clouds 0 1025 82 10000 1.54 90 07:34 06.03.2022
4953 Clouds 0 1024 88 10000 3.09 70 04:46 06.03.2022
4954 Clear 1 1024 77 10000 2.57 70 00:44 06.03.2022
4955 Clear 1 1024 77 10000 3.09 80 00:25 06.03.2022
4956 Clear 1 1024 76 10000 2.06 90 23:20 05.03.2022
4957 Clear 2 1024 73 10000 2.06 90 22:43 05.03.2022
4958 Clouds 2 1023 70 10000 2.06 70 21:45 05.03.2022
4959 Clouds 2 1023 69 10000 2.06 60 21:19 05.03.2022
4960 Clouds 4 1023 63 10000 3.09 90 19:24 05.03.2022
4961 Clouds 4 1023 64 10000 3.6 90 18:50 05.03.2022
4962 Clouds 5 1022 56 10000 3.6 100 17:41 05.03.2022
4963 Clouds 6 1022 52 10000 4.12 90 16:20 05.03.2022
4964 Clouds 7 1022 52 10000 3.6 100 15:30 05.03.2022
4965 Clouds 7 1022 51 10000 3.09 110 14:42 05.03.2022
4966 Clouds 7 1022 51 10000 4.12 100 14:24 05.03.2022
4967 Clouds 6 1023 52 10000 3.09 130 12:59 05.03.2022
4968 Clouds 5 1023 64 10000 4.63 110 11:43 05.03.2022
4969 Clouds 4 1024 68 10000 4.63 110 11:18 05.03.2022
4970 Clear 2 1024 79 10000 3.09 100 09:58 05.03.2022
4971 Clear 0 1024 82 10000 2.57 90 08:49 05.03.2022
4972 Clear -2 1023 88 10000 1.54 120 07:23 05.03.2022
4973 Clear -2 1023 86 10000 3.6 80 05:42 05.03.2022
4974 Clouds 0 1023 80 10000 1.54 110 01:30 05.03.2022
4975 Clouds 1 1023 82 10000 2.06 100 23:35 04.03.2022
4976 Clouds 1 1023 85 10000 2.57 100 22:41 04.03.2022
4977 Clouds 2 1024 79 10000 2.06 130 21:47 04.03.2022
4978 Clouds 2 1024 75 10000 2.06 110 20:49 04.03.2022
4979 Clouds 2 1024 75 10000 2.06 130 20:18 04.03.2022
4980 Clouds 2 1023 73 10000 2.57 120 19:35 04.03.2022
4981 Clouds 3 1023 66 10000 4.63 100 18:36 04.03.2022
4982 Clouds 4 1023 65 10000 3.6 120 17:30 04.03.2022
4983 Clouds 4 1023 63 10000 4.12 100 16:36 04.03.2022
4984 Clouds 5 1023 65 10000 4.63 100 15:27 04.03.2022
4985 Clouds 4 1024 69 10000 6.69 80 13:53 04.03.2022
4986 Clouds 4 1024 74 10000 6.17 80 12:51 04.03.2022
4987 Clouds 3 1024 72 10000 5.66 90 11:38 04.03.2022
4988 Clouds 2 1024 76 10000 2.57 130 10:42 04.03.2022
4989 Clouds 1 1024 82 10000 3.6 110 09:28 04.03.2022
4990 Clouds 1 1023 84 10000 1.54 110 08:31 04.03.2022
4991 Clouds 0 1023 86 10000 3.09 110 06:59 04.03.2022
4992 Clouds 1 1022 88 10000 3.6 130 03:28 04.03.2022
4993 Clouds 0 1022 89 10000 5.14 90 00:19 04.03.2022
4994 Clouds 1 1022 90 10000 5.66 80 22:19 03.03.2022
4995 Clouds 1 1022 90 10000 5.14 100 21:37 03.03.2022
4996 Clouds 1 1022 88 10000 6.17 80 20:56 03.03.2022
4997 Clouds 2 1022 87 10000 5.14 80 19:48 03.03.2022
4998 Clear 2 1021 84 10000 5.14 90 18:49 03.03.2022
4999 Clear 5 1020 79 10000 5.66 80 17:46 03.03.2022
5000 Clear 6 1020 72 10000 6.17 70 17:26 03.03.2022
5001 Clear 9 1019 51 10000 3.6 100 15:47 03.03.2022
5002 Clear 9 1020 47 10000 4.12 90 14:52 03.03.2022
5003 Clear 9 1020 46 10000 4.12 90 14:32 03.03.2022
5004 Clear 8 1020 52 10000 3.6 70 12:52 03.03.2022
5005 Clear 6 1021 61 10000 2.57 70 11:39 03.03.2022
5006 Clear 4 1021 68 10000 2.06 90 10:40 03.03.2022
5007 Clear 0 1021 80 10000 1.03 80 08:45 03.03.2022
5008 Clear -2 1021 83 10000 3.09 90 06:58 03.03.2022
5009 Clear -2 1021 83 10000 3.09 90 06:33 03.03.2022
5010 Clear 0 1022 74 10000 1.54 80 01:21 03.03.2022
5011 Clear 1 1022 67 10000 2.06 80 23:28 02.03.2022
5012 Clear 1 1022 70 10000 2.06 100 22:49 02.03.2022
5013 Clear 2 1022 67 10000 1.54 60 21:25 02.03.2022
5014 Clear 3 1022 67 10000 0.51 50 20:40 02.03.2022
5015 Clear 4 1022 55 10000 1.54 70 19:56 02.03.2022
5016 Clear 4 1022 54 10000 1.54 70 19:33 02.03.2022
5017 Clear 6 1022 49 10000 2.06 90 18:44 02.03.2022
5018 Clear 7 1022 46 10000 3.09 90 17:50 02.03.2022
5019 Clear 9 1022 44 10000 3.09 80 16:59 02.03.2022
5020 Clear 9 1022 45 10000 3.09 80 16:59 02.03.2022
5021 Clear 9 1022 43 10000 3.09 80 16:41 02.03.2022
5022 Clear 9 1023 39 10000 2.57 100 14:43 02.03.2022
5023 Clear 8 1024 45 10000 2.06 100 13:24 02.03.2022
5024 Clear 8 1025 44 10000 2.57 80 12:42 02.03.2022
5025 Clear 6 1025 52 10000 2.57 100 11:40 02.03.2022
5026 Clear 6 1025 56 10000 2.06 70 11:21 02.03.2022
5027 Clear 3 1025 73 10000 2.06 90 09:41 02.03.2022
5028 Clear 2 1026 78 10000 0.51 70 08:52 02.03.2022
5029 Clear 1 1026 78 10000 2.06 100 07:28 02.03.2022
5030 Clear 1 1025 78 10000 3.09 90 06:40 02.03.2022
5031 Clear 3 1027 65 10000 1.54 80 00:58 02.03.2022
5032 Clear 3 1027 64 10000 1.54 80 23:47 01.03.2022
5033 Clear 3 1027 63 10000 2.06 100 22:45 01.03.2022
5034 Clear 4 1028 59 10000 1.54 90 21:57 01.03.2022
5035 Clear 4 1028 58 10000 1.03 120 21:23 01.03.2022
5036 Clear 5 1028 57 10000 1.54 130 20:29 01.03.2022
5037 Clear 5 1028 57 10000 2.06 130 19:24 01.03.2022
5038 Clear 6 1028 55 10000 1.03 0 18:49 01.03.2022
5039 Clear 6 1028 53 10000 1.54 120 18:19 01.03.2022
5040 Clear 8 1028 52 10000 1.03 0 17:19 01.03.2022
5041 Clear 9 1027 47 10000 1.54 140 16:30 01.03.2022
5042 Clear 9 1028 46 10000 1.03 0 15:32 01.03.2022
5043 Clear 9 1028 47 10000 1.54 180 14:34 01.03.2022
5044 Clear 8 1028 45 10000 3.09 170 13:45 01.03.2022
5045 Clear 8 1029 47 10000 3.09 170 13:22 01.03.2022
5046 Clear 7 1029 50 10000 4.12 160 12:27 01.03.2022
5047 Clear 4 1029 56 10000 3.09 160 10:33 01.03.2022
5048 Clear 1 1030 71 10000 3.09 150 08:41 01.03.2022
5049 Clear -1 1030 78 10000 2.57 140 07:44 01.03.2022
5050 Clear -1 1030 79 10000 2.06 120 05:49 01.03.2022
5051 Clear 0 1031 78 10000 2.06 100 01:48 01.03.2022
5052 Clear 1 1031 79 10000 3.09 110 00:24 01.03.2022
5053 Clear 1 1031 79 10000 3.09 110 23:19 28.02.2022
5054 Clear 1 1032 79 10000 4.12 120 21:59 28.02.2022
5055 Clear 1 1032 80 10000 3.6 110 21:24 28.02.2022
5056 Clear 2 1032 82 10000 4.63 110 19:53 28.02.2022
5057 Clear 2 1032 82 10000 4.12 110 19:27 28.02.2022
5058 Clear 3 1032 79 10000 4.12 110 18:38 28.02.2022
5059 Clear 5 1032 69 10000 4.12 120 17:24 28.02.2022
5060 Clear 6 1032 66 10000 5.14 130 16:33 28.02.2022
5061 Clear 7 1032 66 10000 4.63 100 15:23 28.02.2022
5062 Clear 7 1033 68 10000 5.14 100 14:31 28.02.2022
5063 Clear 6 1033 70 10000 5.66 90 13:47 28.02.2022
5064 Clear 5 1033 77 10000 5.14 90 12:41 28.02.2022
5065 Clear 5 1033 75 10000 4.12 100 11:55 28.02.2022
5066 Clear 4 1034 84 8000 3.09 110 10:48 28.02.2022
5067 Clear 3 1034 86 8000 3.6 110 10:20 28.02.2022
5068 Clear 1 1034 85 10000 3.6 110 09:32 28.02.2022
5069 Clear -1 1033 89 10000 2.57 100 08:29 28.02.2022
5070 Clear -2 1033 92 10000 2.06 110 07:28 28.02.2022
5071 Clear -1 1033 86 10000 1.54 110 04:44 28.02.2022
5072 Clear 0 1033 85 10000 3.09 110 04:23 28.02.2022
5073 Clear 2 1033 78 10000 3.09 120 23:27 27.02.2022
5074 Clear 2 1033 76 10000 2.57 120 22:33 27.02.2022
5075 Clear 3 1033 75 10000 2.57 120 21:51 27.02.2022
5076 Clear 3 1033 77 10000 3.09 130 20:59 27.02.2022
5077 Clear 4 1033 73 10000 3.6 110 20:27 27.02.2022
5078 Clear 4 1033 75 10000 3.6 120 19:57 27.02.2022
5079 Clear 4 1033 72 10000 3.09 120 19:26 27.02.2022
5080 Clear 5 1033 67 10000 1.34 90 18:47 27.02.2022
5081 Clear 6 1033 62 10000 5.14 120 17:55 27.02.2022
5082 Clouds 8 1033 61 10000 4.63 110 16:45 27.02.2022
5083 Clouds 8 1033 58 10000 4.63 110 16:21 27.02.2022
5084 Clouds 8 1034 62 10000 4.12 140 13:25 27.02.2022
5085 Clouds 7 1035 67 10000 4.12 120 12:32 27.02.2022
5086 Clear 5 1036 82 10000 2.06 140 10:56 27.02.2022
5087 Clear 4 1036 83 10000 1.54 120 10:18 27.02.2022
5088 Clear 3 1036 86 10000 2.06 90 09:44 27.02.2022
5089 Clear 1 1036 89 10000 2.57 80 09:19 27.02.2022
5090 Clear -1 1035 88 10000 2.57 90 07:37 27.02.2022
5091 Clear -1 1035 88 10000 3.6 80 05:38 27.02.2022
5092 Clear 0 1035 85 10000 2.06 80 01:53 27.02.2022
5093 Clear 1 1035 83 10000 2.57 90 23:22 26.02.2022
5094 Clear 2 1035 89 10000 1.54 90 21:49 26.02.2022
5095 Clear 2 1035 83 10000 1.54 60 20:58 26.02.2022
5096 Clear 3 1034 81 10000 1.03 70 20:19 26.02.2022
5097 Clear 3 1034 86 10000 0.51 40 19:46 26.02.2022
5098 Clear 4 1034 78 10000 0.51 330 19:22 26.02.2022
5099 Clouds 8 1033 71 10000 2.06 320 17:46 26.02.2022
5100 Clouds 9 1033 59 10000 2.57 340 16:51 26.02.2022
5101 Clouds 9 1033 58 10000 2.06 320 15:57 26.02.2022
5102 Clouds 9 1034 58 10000 2.57 300 15:23 26.02.2022
5103 Clouds 9 1034 60 10000 2.57 290 14:54 26.02.2022
5104 Clouds 9 1034 61 10000 2.57 290 14:33 26.02.2022
5105 Clouds 7 1035 72 10000 2.57 300 13:19 26.02.2022
5106 Clouds 7 1035 72 10000 2.57 310 12:23 26.02.2022
5107 Clouds 6 1034 81 10000 3.6 330 11:28 26.02.2022
5108 Clouds 5 1034 84 10000 3.6 310 10:49 26.02.2022
5109 Clouds 3 1032 88 10000 3.09 280 08:55 26.02.2022
5110 Clouds 2 1031 89 10000 3.6 270 06:51 26.02.2022
5111 Clouds 3 1028 90 10000 5.14 270 01:27 26.02.2022
5112 Clear 3 1026 91 10000 5.14 280 22:55 25.02.2022
5113 Clouds 3 1025 91 10000 4.12 270 21:43 25.02.2022
5114 Clouds 3 1024 91 10000 3.6 260 21:25 25.02.2022
5115 Clouds 3 1023 92 10000 3.09 260 20:33 25.02.2022
5116 Clouds 3 1022 94 10000 3.6 300 19:18 25.02.2022
5117 Clouds 5 1019 86 10000 7.72 260 17:29 25.02.2022
5118 Clouds 4 1018 90 10000 7.2 260 16:32 25.02.2022
5119 Clouds 4 1018 89 10000 6.17 260 15:47 25.02.2022
5120 Clouds 4 1017 85 10000 6.17 260 15:21 25.02.2022
5121 Clouds 5 1017 78 6000 9.77 270 14:42 25.02.2022
5122 Clouds 5 1017 78 6000 9.77 270 14:42 25.02.2022
5123 Clouds 6 1016 74 10000 8.23 250 13:36 25.02.2022
5124 Clouds 5 1017 75 10000 7.72 250 12:56 25.02.2022
5125 Clouds 5 1016 81 10000 8.23 240 11:28 25.02.2022
5126 Clouds 5 1015 77 10000 8.75 240 10:43 25.02.2022
5127 Clouds 5 1015 76 10000 7.72 240 10:22 25.02.2022
5128 Clouds 4 1015 73 10000 6.69 240 09:18 25.02.2022
5129 Clouds 3 1015 80 10000 6.17 240 07:41 25.02.2022
5130 Clouds 3 1014 82 10000 6.17 240 05:51 25.02.2022
5131 Clouds 3 1014 80 10000 5.66 240 04:41 25.02.2022
5132 Clouds 3 1011 87 10000 5.14 260 00:22 25.02.2022
5133 Clouds 4 1008 88 10000 7.72 260 21:58 24.02.2022
5134 Clouds 4 1008 88 10000 7.72 260 21:58 24.02.2022
5135 Clouds 4 1008 88 10000 7.72 260 21:39 24.02.2022
5136 Clouds 4 1007 89 10000 8.23 270 21:19 24.02.2022
5137 Clouds 4 1006 92 10000 7.72 270 19:42 24.02.2022
5138 Clouds 5 1004 91 5000 16.46 290 18:45 24.02.2022
5139 Clouds 9 1002 68 10000 5.66 220 18:19 24.02.2022
5140 Clouds 10 1001 65 10000 6.69 220 17:40 24.02.2022
5141 Clouds 10 1002 69 10000 8.75 230 16:50 24.02.2022
5142 Clouds 10 1003 69 10000 8.23 240 16:24 24.02.2022
5143 Clouds 11 1004 66 10000 8.75 230 14:56 24.02.2022
5144 Clouds 11 1004 63 10000 8.75 230 14:36 24.02.2022
5145 Clouds 11 1006 60 10000 9.26 220 13:40 24.02.2022
5146 Clouds 11 1007 61 10000 7.2 230 12:54 24.02.2022
5147 Clouds 8 1009 68 10000 3.6 200 10:41 24.02.2022
5148 Clouds 8 1011 72 10000 3.09 210 09:24 24.02.2022
5149 Clouds 8 1012 71 10000 3.09 230 08:41 24.02.2022
5150 Clouds 7 1013 71 10000 3.09 220 05:58 24.02.2022
5151 Clouds 6 1016 70 10000 4.63 190 01:58 24.02.2022
5152 Clear 5 1018 71 10000 4.12 210 23:40 23.02.2022
5153 Clear 6 1019 69 10000 1.54 0 21:43 23.02.2022
5154 Clear 6 1020 66 10000 1.54 160 20:31 23.02.2022
5155 Clear 7 1020 65 10000 2.57 180 19:48 23.02.2022
5156 Clear 8 1020 63 10000 3.09 210 18:42 23.02.2022
5157 Clear 9 1021 63 10000 3.09 230 17:45 23.02.2022
5158 Clear 11 1022 55 10000 1.79 225 15:26 23.02.2022
5159 Clouds 10 1023 62 10000 6.69 260 13:28 23.02.2022
5160 Clouds 9 1023 65 10000 6.69 260 12:24 23.02.2022
5161 Clouds 7 1023 74 10000 5.66 260 10:44 23.02.2022
5162 Clouds 5 1023 86 10000 4.63 260 09:00 23.02.2022
5163 Clouds 5 1022 86 10000 5.66 270 08:23 23.02.2022
5164 Clouds 5 1020 83 10000 5.66 270 06:53 23.02.2022
5165 Clouds 6 1016 88 10000 6.69 270 01:21 23.02.2022
5166 Clouds 6 1014 88 10000 7.72 280 23:39 22.02.2022
5167 Clouds 7 1012 88 10000 7.72 280 22:51 22.02.2022
5168 Clouds 7 1011 89 10000 11.32 300 21:50 22.02.2022
5169 Clouds 8 1010 89 6000 10.8 280 21:31 22.02.2022
5170 Clouds 8 1009 93 7000 8.75 250 20:59 22.02.2022
5171 Clouds 8 1009 94 8000 8.23 250 20:30 22.02.2022
5172 Clouds 8 1009 93 8000 7.72 240 19:47 22.02.2022
5173 Clouds 8 1009 91 8000 7.72 230 19:28 22.02.2022
5174 Clouds 7 1010 91 10000 7.2 230 18:21 22.02.2022
5175 Clouds 7 1011 90 10000 4.12 220 17:24 22.02.2022
5176 Clouds 7 1011 90 8000 4.63 220 16:41 22.02.2022
5177 Clouds 7 1012 82 10000 5.66 230 15:56 22.02.2022
5178 Clouds 8 1013 72 10000 5.14 240 14:48 22.02.2022
5179 Clouds 7 1015 69 10000 6.69 260 12:48 22.02.2022
5180 Clouds 6 1015 81 10000 6.17 280 10:53 22.02.2022
5181 Clouds 4 1014 86 10000 6.17 270 08:53 22.02.2022
5182 Clouds 3 1013 87 10000 6.17 280 07:27 22.02.2022
5183 Clouds 4 1013 86 10000 7.2 280 06:30 22.02.2022
5184 Clouds 5 1010 86 10000 6.69 290 02:45 22.02.2022
5185 Clouds 5 1005 88 10000 8.75 280 22:53 21.02.2022
5186 Clouds 5 1002 87 10000 7.2 270 21:46 21.02.2022
5187 Clouds 5 1001 85 10000 6.69 270 20:37 21.02.2022
5188 Clouds 5 998 85 10000 9.26 310 18:47 21.02.2022
5189 Clouds 5 995 91 10000 8.23 280 17:39 21.02.2022
5190 Clouds 5 992 86 10000 7.72 230 15:25 21.02.2022
5191 Clouds 4 992 86 10000 7.72 230 14:22 21.02.2022
5192 Clouds 4 993 83 10000 11.32 240 13:30 21.02.2022
5193 Clouds 6 994 72 10000 9.77 240 12:24 21.02.2022
5194 Clouds 5 994 73 10000 10.8 250 11:20 21.02.2022
5195 Clouds 5 994 78 10000 10.29 250 09:54 21.02.2022
5196 Clouds 5 992 84 10000 10.8 270 05:35 21.02.2022
5197 Clouds 10 988 85 10000 11.32 230 00:18 21.02.2022
5198 Clouds 10 991 88 10000 11.32 230 22:27 20.02.2022
5199 Clouds 9 992 89 10000 9.26 230 21:42 20.02.2022
5200 Clouds 9 994 91 10000 9.26 230 20:59 20.02.2022
5201 Clouds 9 994 90 10000 9.26 230 20:41 20.02.2022
5202 Clouds 9 996 90 10000 8.23 230 19:36 20.02.2022
5203 Clouds 9 997 89 10000 8.23 230 18:51 20.02.2022
5204 Clouds 9 997 89 10000 8.75 240 18:31 20.02.2022
5205 Clouds 9 997 89 10000 8.75 240 18:31 20.02.2022
5206 Clouds 10 998 85 10000 9.77 240 17:49 20.02.2022
5207 Clouds 9 1000 88 10000 9.26 240 15:41 20.02.2022
5208 Clouds 9 1001 89 9000 9.26 240 14:47 20.02.2022
5209 Clouds 8 1002 92 10000 6.69 240 13:23 20.02.2022
5210 Clouds 7 1003 92 10000 5.66 220 12:28 20.02.2022
5211 Clouds 5 1004 90 10000 4.63 180 10:47 20.02.2022
5212 Clouds 5 1005 88 10000 3.6 200 10:19 20.02.2022
5213 Clouds 4 1008 86 10000 3.09 240 08:50 20.02.2022
5214 Clouds 4 1003 89 10000 5.14 190 00:54 20.02.2022
5215 Clouds 4 1003 89 10000 5.14 190 00:54 20.02.2022
5216 Clouds 4 1004 89 10000 6.17 180 00:30 20.02.2022
5217 Clouds 4 1007 82 10000 7.2 210 22:47 19.02.2022
5218 Clouds 5 1007 83 10000 6.69 210 22:22 19.02.2022
5219 Clouds 6 1008 68 10000 7.2 230 20:51 19.02.2022
5220 Clouds 6 1009 59 10000 5.14 220 19:48 19.02.2022
5221 Clear 6 1009 59 10000 4.63 220 19:25 19.02.2022
5222 Clear 6 1010 60 10000 5.14 230 18:32 19.02.2022
5223 Clear 6 1010 57 10000 6.69 250 17:35 19.02.2022
5224 Clouds 7 1010 57 10000 9.26 250 16:22 19.02.2022
5225 Clouds 7 1010 58 10000 9.26 260 14:56 19.02.2022
5226 Clouds 7 1010 59 10000 9.26 260 14:37 19.02.2022
5227 Clouds 7 1009 61 10000 9.26 250 12:50 19.02.2022
5228 Clouds 6 1009 68 10000 10.29 260 11:36 19.02.2022
5229 Clouds 5 1007 68 10000 12.35 260 09:36 19.02.2022
5230 Clouds 4 1002 81 10000 2.24 225 06:54 19.02.2022
5231 Clouds 7 996 53 10000 16.46 250 02:52 19.02.2022
5232 Clouds 7 992 61 10000 11.32 260 23:28 18.02.2022
5233 Clouds 7 991 75 10000 16.46 250 21:49 18.02.2022
5234 Clouds 8 989 69 10000 12.35 250 20:39 18.02.2022
5235 Clouds 9 987 62 10000 15.95 240 19:52 18.02.2022
5236 Clouds 10 987 59 10000 11.83 250 18:50 18.02.2022
5237 Clouds 10 987 64 10000 11.83 240 18:20 18.02.2022
5238 Clouds 11 988 81 10000 6.69 210 17:25 18.02.2022
5239 Clouds 10 992 86 10000 7.2 200 14:48 18.02.2022
5240 Clouds 9 994 88 10000 5.66 190 13:54 18.02.2022
5241 Clouds 8 996 89 10000 0.89 90 12:51 18.02.2022
5242 Clouds 7 998 85 10000 4.63 170 11:58 18.02.2022
5243 Clouds 7 998 85 10000 4.63 170 11:58 18.02.2022
5244 Clouds 7 999 82 10000 4.63 160 11:21 18.02.2022
5245 Clouds 6 1003 87 10000 2.06 150 09:30 18.02.2022
5246 Clear 5 1006 86 10000 3.6 230 06:52 18.02.2022
5247 Clouds 5 1007 84 10000 4.12 250 05:38 18.02.2022
5248 Clouds 6 1007 64 10000 7.72 270 22:47 17.02.2022
5249 Clouds 7 1006 67 10000 7.72 270 21:43 17.02.2022
5250 Clouds 7 1006 68 10000 8.75 270 20:52 17.02.2022
5251 Clouds 7 1006 70 10000 8.75 270 20:34 17.02.2022
5252 Clouds 6 1004 74 10000 7.72 270 19:43 17.02.2022
5253 Clouds 6 1004 78 10000 9.77 270 18:38 17.02.2022
5254 Clouds 7 1002 72 10000 8.23 280 17:48 17.02.2022
5255 Clouds 9 1001 58 10000 11.32 270 16:20 17.02.2022
5256 Clouds 9 999 62 10000 10.29 280 14:57 17.02.2022
5257 Clouds 9 999 61 10000 17.49 270 14:19 17.02.2022
5258 Clouds 9 997 61 10000 13.89 270 12:24 17.02.2022
5259 Clouds 8 996 74 10000 3.13 225 11:21 17.02.2022
5260 Clouds 9 991 61 10000 14.4 280 08:38 17.02.2022
5261 Clouds 13 983 86 10000 11.83 250 00:29 17.02.2022
5262 Clouds 12 985 91 10000 10.8 240 22:39 16.02.2022
5263 Clouds 11 987 87 10000 8.23 230 20:46 16.02.2022
5264 Clouds 12 989 81 10000 9.77 240 19:42 16.02.2022
5265 Clouds 12 990 84 10000 2.24 225 18:36 16.02.2022
5266 -273 0 0 0 0 0 17:36 16.02.2022
5267 Clouds 12 991 86 10000 8.23 240 17:35 16.02.2022
5268 Clouds 11 993 92 5000 8.23 250 15:26 16.02.2022
5269 Clouds 11 992 91 5000 8.23 240 14:46 16.02.2022
5270 Clouds 10 993 90 10000 9.26 230 12:34 16.02.2022
5271 Clouds 9 993 91 9000 6.69 220 11:52 16.02.2022
5272 Clouds 8 994 90 10000 7.2 200 10:52 16.02.2022
5273 Clouds 8 995 90 10000 6.69 200 10:29 16.02.2022
5274 Clouds 7 998 89 10000 6.17 200 06:56 16.02.2022
5275 Clouds 7 1001 84 10000 6.69 220 03:46 16.02.2022
5276 Clouds 7 1005 75 10000 5.66 220 22:35 15.02.2022
5277 Clouds 7 1005 70 10000 7.72 210 21:59 15.02.2022
5278 Clouds 7 1005 70 10000 7.72 210 21:59 15.02.2022
5279 Clouds 7 1005 67 10000 7.72 210 21:39 15.02.2022
5280 Clouds 7 1005 63 10000 6.17 210 21:21 15.02.2022
5281 Clear 7 1006 65 10000 5.66 200 20:48 15.02.2022
5282 Clear 7 1007 67 10000 5.14 200 19:48 15.02.2022
5283 Clear 7 1007 74 10000 4.12 210 18:41 15.02.2022
5284 Clouds 7 1007 74 10000 5.14 210 18:18 15.02.2022
5285 Clouds 7 1008 76 10000 4.63 230 17:46 15.02.2022
5286 Clouds 9 1008 70 10000 5.66 230 16:20 15.02.2022
5287 Clouds 9 1009 68 10000 7.72 250 14:35 15.02.2022
5288 Clouds 9 1009 72 10000 5.14 240 13:26 15.02.2022
5289 Clouds 8 1009 76 10000 6.69 250 11:43 15.02.2022
5290 Clouds 8 1009 78 10000 6.17 250 10:39 15.02.2022
5291 Clouds 7 1009 81 10000 4.12 240 09:23 15.02.2022
5292 Clouds 7 1007 81 10000 4.12 240 06:47 15.02.2022
5293 Clear 7 1004 75 10000 3.6 190 00:26 15.02.2022
5294 Clear 8 1004 73 10000 3.09 210 21:59 14.02.2022
5295 Clear 8 1004 75 10000 2.57 210 21:19 14.02.2022
5296 Clear 9 1003 76 10000 3.09 200 20:19 14.02.2022
5297 Clouds 9 1003 78 10000 1.54 210 19:30 14.02.2022
5298 Clouds 9 1002 83 10000 4.12 220 18:24 14.02.2022
5299 Clouds 10 1002 80 10000 4.12 210 17:37 14.02.2022
5300 Clouds 11 1002 80 10000 5.14 200 17:18 14.02.2022
5301 Clouds 12 1001 81 10000 6.69 210 15:52 14.02.2022
5302 Clouds 12 1000 67 10000 6.17 200 13:36 14.02.2022
5303 Clear 12 1000 61 10000 5.66 200 12:59 14.02.2022
5304 Clear 12 1000 61 10000 5.66 200 12:32 14.02.2022
5305 Clear 11 1000 62 10000 6.17 210 11:39 14.02.2022
5306 Clear 10 1000 64 10000 5.66 170 10:22 14.02.2022
5307 Clear 8 1000 65 10000 5.14 170 08:26 14.02.2022
5308 Clear 7 1001 66 10000 7.72 180 07:26 14.02.2022
5309 Clear 7 1005 67 10000 6.69 190 23:19 13.02.2022
5310 Clear 7 1005 67 10000 6.17 180 22:41 13.02.2022
5311 Clear 7 1006 67 10000 6.69 200 22:22 13.02.2022
5312 Clear 7 1006 68 10000 7.2 200 21:24 13.02.2022
5313 Clear 7 1007 71 10000 4.63 180 20:28 13.02.2022
5314 Clear 7 1008 72 10000 3.09 170 19:23 13.02.2022
5315 Clear 7 1008 69 10000 0.89 135 18:41 13.02.2022
5316 Clear 7 1009 58 10000 3.09 170 17:32 13.02.2022
5317 Clear 9 1010 50 10000 4.63 180 15:53 13.02.2022
5318 Clear 9 1011 48 10000 4.12 180 14:50 13.02.2022
5319 Clear 8 1012 49 10000 3.6 190 13:39 13.02.2022
5320 Clear 7 1013 50 10000 4.63 190 12:44 13.02.2022
5321 Clear 5 1015 61 10000 4.63 190 10:46 13.02.2022
5322 Clear 4 1015 65 10000 4.12 190 10:27 13.02.2022
5323 Clear 1 1016 76 10000 2.57 190 08:57 13.02.2022
5324 Clear 2 1018 76 10000 2.57 190 02:50 13.02.2022
5325 Clear 2 1020 77 10000 3.6 210 00:33 13.02.2022
5326 Clear 2 1021 76 10000 3.09 190 22:56 12.02.2022
5327 Clear 2 1021 75 10000 3.09 190 22:32 12.02.2022
5328 Clear 2 1022 73 10000 3.6 180 21:18 12.02.2022
5329 Clear 3 1023 71 10000 1.03 0 20:25 12.02.2022
5330 Clear 3 1024 71 10000 1.54 150 18:54 12.02.2022
5331 Clear 3 1024 72 10000 1.54 150 18:36 12.02.2022
5332 Clear 4 1024 69 10000 2.57 180 17:55 12.02.2022
5333 Clear 5 1025 63 10000 4.12 210 16:54 12.02.2022
5334 Clear 6 1025 58 10000 5.14 210 16:18 12.02.2022
5335 Clear 6 1026 56 10000 5.14 210 15:23 12.02.2022
5336 Clouds 6 1027 59 10000 5.14 190 14:30 12.02.2022
5337 Clear 5 1029 68 10000 3.6 190 12:26 12.02.2022
5338 Clear 3 1031 79 10000 3.6 190 10:34 12.02.2022
5339 Clear 1 1031 84 10000 2.06 180 09:38 12.02.2022
5340 Clear -1 1031 86 10000 1.03 0 08:48 12.02.2022
5341 Clouds -1 1031 89 10000 1.03 0 07:47 12.02.2022
5342 Clear -1 1032 91 10000 1.03 160 05:31 12.02.2022
5343 Clear -1 1033 92 10000 0.51 0 02:20 12.02.2022
5344 Clear 0 1033 92 10000 1.03 0 00:31 12.02.2022
5345 Clear 1 1033 86 10000 2.06 260 22:24 11.02.2022
5346 Clear 1 1032 85 10000 2.06 260 21:43 11.02.2022
5347 Clear 2 1032 83 10000 2.06 290 20:37 11.02.2022
5348 Clouds 2 1031 78 10000 2.57 250 19:31 11.02.2022
5349 Clouds 3 1030 77 10000 2.57 280 18:58 11.02.2022
5350 Clouds 4 1029 82 10000 5.14 310 17:28 11.02.2022
5351 Clouds 4 1028 83 10000 6.17 310 16:58 11.02.2022
5352 Clouds 4 1026 90 10000 6.17 320 15:33 11.02.2022
5353 Clouds 5 1025 88 10000 6.69 320 14:38 11.02.2022
5354 Clouds 5 1024 90 10000 8.23 320 14:20 11.02.2022
5355 Clouds 5 1022 90 10000 9.26 320 13:47 11.02.2022
5356 Clouds 5 1021 91 10000 9.77 300 13:28 11.02.2022
5357 Rain 5 1019 91 7000 7.2 260 11:26 11.02.2022
5358 Clouds 4 1018 88 10000 7.72 250 09:38 11.02.2022
5359 Clouds 4 1017 88 10000 7.2 240 08:36 11.02.2022
5360 Clouds 3 1017 88 8000 5.66 230 07:47 11.02.2022
5361 Clouds 3 1017 89 10000 3.6 220 06:31 11.02.2022
5362 Clouds 4 1018 85 10000 3.09 240 02:24 11.02.2022
5363 Clouds 5 1019 90 10000 2.57 250 00:44 11.02.2022
5364 Clouds 5 1019 87 10000 3.09 260 22:39 10.02.2022
5365 Clouds 6 1019 84 10000 3.6 250 21:43 10.02.2022
5366 Rain 6 1019 83 10000 4.12 250 20:50 10.02.2022
5367 Clouds 6 1019 83 10000 4.63 250 20:24 10.02.2022
5368 Rain 6 1018 86 10000 4.63 230 19:24 10.02.2022
5369 Rain 6 1018 88 10000 4.63 240 18:33 10.02.2022
5370 Clouds 7 1018 84 10000 4.63 250 17:25 10.02.2022
5371 Clouds 7 1018 86 10000 4.63 270 16:47 10.02.2022
5372 Clouds 7 1018 85 10000 5.14 270 15:42 10.02.2022
5373 Clouds 7 1017 88 10000 5.66 260 15:24 10.02.2022
5374 Clouds 7 1017 87 10000 4.63 260 14:35 10.02.2022
5375 Clouds 7 1017 88 10000 2.57 240 13:59 10.02.2022
5376 Rain 7 1017 90 10000 3.6 290 13:19 10.02.2022
5377 Drizzle 7 1017 90 4500 3.6 270 11:57 10.02.2022
5378 Drizzle 8 1017 89 4500 3.6 270 11:32 10.02.2022
5379 Clouds 8 1016 83 10000 4.12 250 10:25 10.02.2022
5380 Clouds 8 1016 84 10000 3.09 240 09:46 10.02.2022
5381 Clouds 8 1017 84 10000 1.54 230 08:42 10.02.2022
5382 Clouds 8 1017 82 10000 2.06 200 06:33 10.02.2022
5383 Clouds 8 1019 83 10000 2.06 210 03:21 10.02.2022
5384 Clouds 9 1021 86 10000 3.6 240 00:56 10.02.2022
5385 Clouds 9 1021 86 10000 3.6 240 00:38 10.02.2022
5386 Clouds 9 1021 86 10000 3.6 250 00:20 10.02.2022
5387 Clouds 9 1022 85 10000 4.63 260 22:56 09.02.2022
5388 Clouds 9 1022 84 10000 4.63 260 22:33 09.02.2022
5389 Clouds 9 1022 83 10000 5.66 250 21:47 09.02.2022
5390 Clouds 9 1022 84 10000 4.63 250 21:27 09.02.2022
5391 Clouds 9 1022 83 10000 5.14 250 20:44 09.02.2022
5392 Clouds 9 1022 83 10000 5.14 250 20:44 09.02.2022
5393 Clouds 9 1022 83 10000 5.14 250 20:22 09.02.2022
5394 Clouds 9 1022 80 10000 5.14 250 19:42 09.02.2022
5395 Clouds 9 1021 80 10000 5.14 250 18:38 09.02.2022
5396 Clouds 9 1022 87 10000 6.69 260 16:57 09.02.2022
5397 Clouds 10 1022 83 10000 6.17 260 16:20 09.02.2022
5398 Clouds 10 1022 81 10000 7.2 260 15:23 09.02.2022
5399 Clouds 9 1022 86 10000 7.72 240 12:53 09.02.2022
5400 Clouds 9 1022 90 10000 6.17 240 11:29 09.02.2022
5401 Clouds 8 1022 91 10000 6.17 240 10:34 09.02.2022
5402 Clouds 9 1023 86 10000 6.69 250 09:50 09.02.2022
5403 Clouds 9 1023 82 10000 6.69 250 09:21 09.02.2022
5404 Clouds 9 1023 82 10000 7.2 250 08:44 09.02.2022
5405 Clouds 9 1023 80 10000 6.17 240 05:57 09.02.2022
5406 Clouds 9 1024 84 10000 7.2 240 03:51 09.02.2022
5407 Clouds 9 1024 84 10000 6.69 240 03:25 09.02.2022
5408 Mist 9 1024 94 4800 6.17 260 23:45 08.02.2022
5409 Drizzle 9 1024 94 4000 6.17 260 23:19 08.02.2022
5410 Drizzle 9 1024 95 3500 6.17 260 22:38 08.02.2022
5411 Clouds 9 1024 92 10000 5.66 260 22:19 08.02.2022
5412 Drizzle 9 1024 91 6000 6.69 260 21:22 08.02.2022
5413 Drizzle 9 1024 91 6000 6.69 260 21:22 08.02.2022
5414 Drizzle 9 1024 91 6000 6.17 260 20:57 08.02.2022
5415 Drizzle 9 1024 91 6000 6.17 260 20:34 08.02.2022
5416 Clouds 9 1023 91 10000 5.66 250 19:18 08.02.2022
5417 Clouds 9 1023 91 10000 6.69 260 17:57 08.02.2022
5418 Clouds 9 1022 90 10000 6.69 260 16:55 08.02.2022
5419 Mist 9 1022 90 5000 6.17 260 15:46 08.02.2022
5420 Clouds 10 1022 87 10000 7.72 260 14:58 08.02.2022
5421 Clouds 10 1022 85 10000 6.69 250 13:39 08.02.2022
5422 Clouds 9 1022 85 10000 8.23 250 12:21 08.02.2022
5423 Clouds 9 1022 88 10000 7.2 250 10:47 08.02.2022
5424 Clouds 7 1022 91 10000 6.69 250 09:47 08.02.2022
5425 Clouds 7 1022 92 10000 7.2 250 08:34 08.02.2022
5426 Clouds 5 1022 88 10000 6.69 250 05:46 08.02.2022
5427 Clouds 5 1022 85 10000 7.2 250 04:40 08.02.2022
5428 Clouds 5 1022 84 10000 7.2 250 04:22 08.02.2022
5429 Clouds 5 1022 81 10000 5.66 250 03:36 08.02.2022
5430 Clouds 5 1022 81 10000 5.66 250 03:18 08.02.2022
5431 Clouds 5 1022 81 10000 5.66 250 03:18 08.02.2022
5432 Clouds 5 1023 80 10000 5.14 250 02:59 08.02.2022
5433 Clouds 5 1023 80 10000 5.14 250 02:36 08.02.2022
5434 Clear 5 1023 80 10000 5.14 260 02:18 08.02.2022
5435 Clear 5 1023 79 10000 5.14 260 01:44 08.02.2022
5436 Clear 5 1024 80 10000 4.63 260 01:24 08.02.2022
5437 Clear 4 1024 81 10000 5.14 260 00:55 08.02.2022
5438 Clear 4 1024 83 10000 5.14 260 00:19 08.02.2022
5439 Clear 4 1024 83 10000 5.66 260 23:42 07.02.2022
5440 Clear 4 1024 83 10000 4.63 260 23:18 07.02.2022
5441 Clear 4 1024 84 10000 4.12 270 22:56 07.02.2022
5442 Clear 4 1024 84 10000 4.12 260 22:18 07.02.2022
5443 Clear 4 1024 84 10000 3.6 270 21:47 07.02.2022
5444 Clouds 4 1024 84 10000 4.12 270 21:26 07.02.2022
5445 Clouds 4 1023 84 10000 4.12 270 20:41 07.02.2022
5446 Clouds 4 1023 86 10000 3.09 270 20:18 07.02.2022
5447 Clouds 4 1023 86 10000 3.09 270 19:45 07.02.2022
5448 Rain 4 1022 82 10000 7.72 290 18:22 07.02.2022
5449 Clouds 4 1021 82 10000 9.26 280 16:53 07.02.2022
5450 Clouds 4 1020 82 10000 7.2 280 16:20 07.02.2022
5451 Clouds 5 1020 85 10000 5.14 270 15:48 07.02.2022
5452 Clouds 5 1018 86 10000 1.34 248 13:37 07.02.2022
5453 Rain 6 1017 78 10000 8.23 290 13:19 07.02.2022
5454 Clouds 6 1016 80 10000 3.13 225 11:58 07.02.2022
5455 Clouds 6 1016 80 10000 3.13 225 11:58 07.02.2022
5456 Clouds 6 1017 81 10000 9.26 290 11:37 07.02.2022
5457 Clouds 4 1015 89 10000 1.79 248 10:52 07.02.2022
5458 Clouds 4 1014 86 10000 1.34 225 10:32 07.02.2022
5459 Rain 4 1013 88 10000 1.79 248 09:53 07.02.2022
5460 Clouds 4 1012 89 10000 1.34 248 09:18 07.02.2022
5461 Clouds 4 1012 88 10000 0.89 248 08:43 07.02.2022
5462 Clouds 3 1009 88 10000 1.34 248 07:26 07.02.2022
5463 Clouds 3 1008 88 10000 2.24 248 06:34 07.02.2022
5464 Clouds 2 1003 88 10000 1.79 248 03:48 07.02.2022
5465 Clouds 3 998 86 10000 1.79 248 00:47 07.02.2022
5466 Rain 3 997 88 10000 2.24 225 23:49 06.02.2022
5467 Clouds 4 996 87 10000 1.79 248 22:55 06.02.2022
5468 Clouds 4 996 88 10000 1.79 225 22:34 06.02.2022
5469 Clouds 3 995 93 10000 0.89 225 21:36 06.02.2022
5470 Rain 4 995 91 10000 1.34 248 20:56 06.02.2022
5471 Rain 4 995 90 10000 1.34 225 20:36 06.02.2022
5472 Clouds 5 994 86 10000 1.79 225 19:45 06.02.2022
5473 Clouds 5 995 88 10000 6.69 250 18:48 06.02.2022
5474 Clouds 5 995 89 10000 1.34 225 17:58 06.02.2022
5475 Clouds 5 995 89 10000 1.34 225 17:21 06.02.2022
5476 Clouds 5 994 90 10000 1.79 225 16:48 06.02.2022
5477 Rain 5 994 88 7000 0.89 248 15:49 06.02.2022
5478 Rain 6 993 87 9000 3.13 225 15:27 06.02.2022
5479 Rain 6 993 90 10000 2.24 225 14:47 06.02.2022
5480 Rain 7 994 86 10000 2.24 203 13:28 06.02.2022
5481 Rain 7 995 86 10000 2.24 225 12:59 06.02.2022
5482 Rain 7 998 89 10000 1.34 203 11:38 06.02.2022
5483 Rain 7 1000 87 10000 9.77 240 10:31 06.02.2022
5484 Rain 7 1000 87 10000 9.77 240 10:31 06.02.2022
5485 Clouds 7 1001 89 10000 9.26 240 09:25 06.02.2022
5486 Rain 7 1001 88 10000 2.68 225 08:40 06.02.2022
5487 Rain 6 1004 89 10000 1.79 225 05:36 06.02.2022
5488 Clouds 6 1006 88 10000 8.23 240 03:18 06.02.2022
5489 Rain 6 1008 88 10000 1.79 225 02:24 06.02.2022
5490 Clouds 6 1010 80 10000 2.24 225 00:29 06.02.2022
5491 Clouds 6 1011 73 10000 1.79 225 22:36 05.02.2022
5492 Clouds 6 1012 72 10000 2.24 225 21:32 05.02.2022
5493 Clouds 6 1013 71 10000 7.2 240 20:25 05.02.2022
5494 Clouds 6 1014 71 10000 1.34 225 19:48 05.02.2022
5495 Clouds 6 1014 72 10000 2.24 203 19:18 05.02.2022
5496 Clouds 6 1015 70 10000 0.89 225 17:45 05.02.2022
5497 Clouds 6 1015 70 10000 1.79 225 17:27 05.02.2022
5498 Clouds 6 1016 69 10000 1.79 225 15:42 05.02.2022
5499 Clouds 6 1016 69 10000 2.24 225 15:21 05.02.2022
5500 Clouds 6 1016 70 10000 2.24 225 12:54 05.02.2022
5501 Clouds 6 1016 73 10000 2.68 248 12:31 05.02.2022
5502 Clouds 5 1016 83 10000 1.79 248 10:52 05.02.2022
5503 Clouds 5 1016 85 10000 0.89 225 10:22 05.02.2022
5504 Clouds 4 1016 85 10000 1.79 225 09:44 05.02.2022
5505 Clouds 4 1014 85 10000 1.34 248 07:54 05.02.2022
5506 Clouds 4 1013 83 10000 0.89 225 06:57 05.02.2022
5507 Clouds 4 1012 83 10000 1.79 225 04:30 05.02.2022
5508 Clouds 4 1010 86 10000 1.34 248 01:19 05.02.2022
5509 Clouds 4 1010 83 10000 1.34 248 00:53 05.02.2022
5510 Clouds 4 1009 88 10000 1.79 248 23:46 04.02.2022
5511 Clouds 4 1009 89 10000 1.34 225 23:28 04.02.2022
5512 Clouds 3 1007 94 10000 1.34 248 21:54 04.02.2022
5513 Clouds 3 1007 92 10000 2.24 248 21:36 04.02.2022
5514 Clouds 3 1006 94 10000 1.79 248 21:18 04.02.2022
5515 Rain 5 1003 90 10000 2.24 225 19:59 04.02.2022
5516 Rain 8 1002 78 10000 0.45 203 17:43 04.02.2022
5517 Rain 9 1004 79 10000 6.17 220 15:42 04.02.2022
5518 Clouds 9 1004 82 10000 6.17 220 14:55 04.02.2022
5519 Clouds 9 1005 83 10000 0.89 225 13:33 04.02.2022
5520 Clouds 9 1006 82 10000 0.45 270 12:43 04.02.2022
5521 Clouds 8 1007 83 10000 0.45 180 11:42 04.02.2022
5522 Clouds 7 1008 86 10000 0.45 203 10:36 04.02.2022
5523 Clouds 7 1009 86 10000 0.45 248 08:36 04.02.2022
5524 Clouds 7 1009 87 10000 4.12 210 06:47 04.02.2022
5525 Clouds 6 1010 89 10000 4.63 250 02:46 04.02.2022
5526 Clouds 6 1010 88 10000 5.14 250 01:52 04.02.2022
5527 Clouds 6 1011 89 10000 5.66 240 23:29 03.02.2022
5528 Clouds 6 1011 91 10000 4.63 250 22:33 03.02.2022
5529 Clouds 6 1011 88 10000 0.45 248 21:49 03.02.2022
5530 Clouds 6 1011 89 10000 0.45 225 20:38 03.02.2022
5531 Clouds 6 1011 89 10000 0.45 225 20:38 03.02.2022
5532 Clouds 6 1011 88 10000 4.12 240 20:18 03.02.2022
5533 Clouds 7 1011 87 10000 0.89 225 19:30 03.02.2022
5534 Clouds 7 1011 88 10000 0.89 225 18:35 03.02.2022
5535 Clouds 7 1011 88 10000 0.89 225 17:32 03.02.2022
5536 Clouds 7 1012 92 10000 0.89 248 16:25 03.02.2022
5537 Clouds 8 1013 92 10000 4.12 250 14:37 03.02.2022
5538 Clouds 8 1014 92 10000 7.2 260 12:52 03.02.2022
5539 Rain 7 1015 94 7000 2.06 220 10:58 03.02.2022
5540 Drizzle 6 1015 95 6000 2.57 220 08:36 03.02.2022
5541 Rain 4 1017 89 10000 1.54 160 04:27 03.02.2022
5542 Clear 2 1019 87 10000 2.06 200 00:31 03.02.2022
5543 Clear 2 1019 88 10000 1.54 210 23:36 02.02.2022
5544 Clear 2 1020 91 10000 2.06 240 21:55 02.02.2022
5545 Clear 3 1020 88 10000 2.06 250 21:31 02.02.2022
5546 Clouds 3 1020 87 10000 2.06 240 20:40 02.02.2022
5547 Clouds 3 1020 86 10000 2.06 250 19:58 02.02.2022
5548 Clouds 4 1019 85 10000 1.03 240 19:26 02.02.2022
5549 Clouds 4 1019 82 10000 2.06 250 18:39 02.02.2022
5550 Clouds 5 1018 79 10000 2.57 300 17:44 02.02.2022
5551 Clouds 5 1018 77 10000 0.89 248 17:19 02.02.2022
5552 Clouds 6 1017 72 10000 1.34 248 16:31 02.02.2022
5553 Clouds 7 1014 73 10000 1.34 248 12:55 02.02.2022
5554 Clouds 6 1014 76 10000 1.34 248 12:18 02.02.2022
5555 Clouds 6 1013 78 10000 9.26 290 11:32 02.02.2022
5556 Clouds 6 1012 83 10000 1.79 225 09:46 02.02.2022
5557 Clouds 5 1009 80 10000 1.34 248 07:32 02.02.2022
5558 Clouds 6 1004 83 10000 1.34 270 22:51 01.02.2022
5559 Clouds 7 1004 89 10000 1.79 270 21:40 01.02.2022
5560 Rain 6 1003 89 3800 1.79 248 19:58 01.02.2022
5561 Drizzle 7 1003 94 10000 1.34 248 17:41 01.02.2022
5562 Clouds 6 1003 95 10000 1.34 248 16:39 01.02.2022
5563 Clouds 5 1005 92 10000 9.77 250 13:56 01.02.2022
5564 Clouds 4 1007 92 4500 1.34 248 12:42 01.02.2022
5565 Clouds 4 1010 86 10000 8.23 250 11:20 01.02.2022
5566 Clouds 2 1014 94 10000 0.45 270 02:34 01.02.2022
5567 Clouds 2 1014 93 10000 0.45 270 23:41 31.01.2022
5568 Clouds 2 1014 94 10000 4.12 310 22:57 31.01.2022
5569 Clouds 2 1013 94 10000 4.12 310 21:39 31.01.2022
5570 Drizzle 3 1012 94 7000 3.09 320 20:50 31.01.2022
5571 Clouds 3 1011 94 10000 4.12 320 20:27 31.01.2022
5572 Clouds 2 1009 94 10000 3.6 360 19:29 31.01.2022
5573 Clouds 3 1008 96 10000 0.45 23 18:25 31.01.2022
5574 Clouds 3 922 96 10000 2.57 20 17:26 31.01.2022
5575 Clouds 4 1005 94 7000 3.09 10 16:29 31.01.2022
5576 Clouds 5 890 94 10000 4.12 290 14:54 31.01.2022
5577 Clouds 4 1002 93 10000 5.14 280 13:52 31.01.2022
5578 Clouds 4 1002 91 10000 0.45 248 12:38 31.01.2022
5579 Clouds 4 1001 92 10000 0.45 270 11:47 31.01.2022
5580 Clouds 4 918 95 10000 0.45 270 10:50 31.01.2022
5581 Clouds 3 917 97 9000 0.89 270 09:59 31.01.2022
5582 Snow 2 1001 96 6000 2.06 190 08:59 31.01.2022
5583 Snow 1 917 96 6000 2.06 190 08:39 31.01.2022
5584 Snow 1 917 96 3000 2.06 180 08:20 31.01.2022
5585 Snow 2 920 91 8000 0.45 225 06:18 31.01.2022
5586 Clouds 3 898 84 10000 3.09 240 00:46 31.01.2022
5587 Clouds 4 900 82 10000 4.12 270 22:40 30.01.2022
5588 Clouds 4 900 81 10000 3.6 270 22:22 30.01.2022
5589 Clouds 4 933 79 10000 0.45 270 21:38 30.01.2022
5590 Clouds 4 904 77 10000 5.66 270 21:18 30.01.2022
5591 Clouds 4 933 77 10000 0.89 270 20:45 30.01.2022
5592 Clouds 5 934 75 10000 0.45 248 20:27 30.01.2022
5593 Clouds 5 934 73 10000 0.89 270 19:24 30.01.2022
5594 Clouds 5 906 70 10000 1.34 225 18:36 30.01.2022
5595 Clouds 5 935 73 10000 1.34 248 17:54 30.01.2022
5596 Clouds 6 842 72 10000 8.23 300 17:21 30.01.2022
5597 Clouds 6 906 70 10000 1.34 270 16:39 30.01.2022
5598 Clouds 6 842 74 10000 1.79 0 16:21 30.01.2022
5599 Clouds 6 1023 62 10000 8.23 310 15:49 30.01.2022
5600 Clouds 6 1023 62 10000 8.75 300 15:31 30.01.2022
5601 Clouds 6 935 70 10000 1.34 248 14:46 30.01.2022
5602 Clouds 6 1022 67 10000 1.79 225 12:46 30.01.2022
5603 Clouds 6 1022 67 10000 1.79 248 11:53 30.01.2022
5604 Clouds 5 1021 69 10000 2.24 248 10:29 30.01.2022
5605 Clouds 5 1020 71 10000 1.34 225 09:50 30.01.2022
5606 Clouds 5 1019 76 10000 1.79 248 08:52 30.01.2022
5607 Clouds 5 903 83 10000 2.24 225 06:55 30.01.2022
5608 Rain 6 930 83 10000 1.79 225 01:55 30.01.2022
5609 Clouds 6 899 86 10000 11.32 280 00:19 30.01.2022
5610 Clouds 7 1015 75 10000 2.24 248 22:58 29.01.2022
5611 Clouds 8 1015 74 10000 1.79 248 21:47 29.01.2022
5612 Clouds 8 1015 80 10000 3.58 248 21:23 29.01.2022
5613 Clouds 8 1014 85 10000 1.79 248 20:22 29.01.2022
5614 Rain 9 901 86 10000 2.24 225 19:33 29.01.2022
5615 Rain 10 900 88 10000 4.02 248 18:51 29.01.2022
5616 Rain 10 897 92 10000 1.34 0 18:18 29.01.2022
5617 Clouds 9 897 95 10000 0.89 0 17:27 29.01.2022
5618 Drizzle 9 898 94 5000 0.45 0 15:44 29.01.2022
5619 Drizzle 9 930 93 10000 1.79 248 13:58 29.01.2022
5620 Drizzle 9 1015 88 10000 10.29 250 13:38 29.01.2022
5621 Drizzle 9 899 91 10000 9.26 250 13:20 29.01.2022
5622 Drizzle 8 900 92 6000 10.8 250 11:40 29.01.2022
5623 Drizzle 7 900 93 6000 1.34 0 10:46 29.01.2022
5624 Clouds 6 901 93 10000 9.26 260 08:42 29.01.2022
5625 Rain 6 935 91 9000 1.34 225 03:53 29.01.2022
5626 Rain 5 938 86 10000 0.89 248 00:34 29.01.2022
5627 Clouds 5 1028 82 10000 4.12 230 23:43 28.01.2022
5628 Clouds 4 939 83 10000 2.57 230 22:48 28.01.2022
5629 Clouds 4 1029 80 10000 3.09 220 22:20 28.01.2022
5630 Clouds 4 1030 79 10000 3.09 230 20:42 28.01.2022
5631 Clouds 4 1030 79 10000 3.09 240 20:23 28.01.2022
5632 Clouds 4 1030 75 10000 2.06 260 19:28 28.01.2022
5633 Clouds 4 1031 81 10000 2.57 260 18:38 28.01.2022
5634 Clouds 6 1031 74 10000 0.89 248 16:39 28.01.2022
5635 Clouds 7 1030 67 10000 0.89 270 14:59 28.01.2022
5636 Clouds 7 1030 67 10000 0.89 248 13:23 28.01.2022
5637 Clouds 5 1030 77 10000 6.69 300 11:52 28.01.2022
5638 Clouds 5 1029 82 10000 1.34 248 10:32 28.01.2022
5639 Clouds 4 1028 83 10000 7.2 290 09:47 28.01.2022
5640 Clouds 4 1026 88 10000 0.89 248 07:43 28.01.2022
5641 Clouds 4 1024 86 10000 1.34 248 06:30 28.01.2022
5642 Clouds 4 1022 84 10000 1.34 270 03:51 28.01.2022
5643 Clouds 4 1021 83 10000 0.89 248 02:28 28.01.2022
5644 Clouds 4 1021 84 10000 1.34 270 01:57 28.01.2022
5645 Clouds 4 1020 82 10000 1.34 248 01:29 28.01.2022
5646 Clouds 4 931 90 10000 1.79 270 22:39 27.01.2022
5647 Clouds 4 902 89 10000 0.89 225 21:40 27.01.2022
5648 Clouds 5 1018 88 10000 1.79 248 20:59 27.01.2022
5649 Clouds 5 902 88 10000 1.34 270 19:45 27.01.2022
5650 Clouds 6 930 91 10000 1.79 248 18:20 27.01.2022
5651 Clouds 7 930 93 5000 1.79 270 16:55 27.01.2022
5652 Clouds 6 899 94 9000 0.45 0 14:23 27.01.2022
5653 Clouds 5 899 94 6000 7.72 260 12:49 27.01.2022
5654 Clouds 5 899 94 6000 7.72 260 12:49 27.01.2022
5655 Clouds 5 899 94 6000 7.72 260 12:49 27.01.2022
5656 Clouds 5 1017 93 8000 7.2 260 11:54 27.01.2022
5657 Drizzle 4 899 91 4000 8.23 250 09:48 27.01.2022
5658 Clouds 3 899 91 4800 8.23 250 08:40 27.01.2022
5659 Clouds 4 900 88 10000 3.13 0 07:52 27.01.2022
5660 Clouds 4 902 90 10000 0.89 0 03:34 27.01.2022
5661 Drizzle 3 1024 93 4200 6.69 240 00:24 27.01.2022
5662 Drizzle 3 904 93 6000 0.45 0 22:28 26.01.2022
5663 Clouds 3 937 93 7000 1.34 248 21:44 26.01.2022
5664 Clouds 3 904 93 6000 5.66 260 20:50 26.01.2022
5665 Mist 3 904 93 4400 4.63 260 20:31 26.01.2022
5666 Mist 3 1027 92 4000 0.89 248 19:38 26.01.2022
5667 Drizzle 3 1027 92 3000 1.34 225 18:47 26.01.2022
5668 Drizzle 3 1027 91 2800 1.34 225 18:18 26.01.2022
5669 Drizzle 3 937 93 2500 0.89 225 17:33 26.01.2022
5670 Drizzle 2 938 93 2000 0.89 248 16:47 26.01.2022
5671 Drizzle 3 938 92 2300 0.45 225 15:56 26.01.2022
5672 Mist 2 1028 88 3800 5.66 260 14:32 26.01.2022
5673 Mist 2 1030 88 4500 0.89 270 12:18 26.01.2022
5674 Mist 2 1030 89 4300 1.34 248 10:50 26.01.2022
5675 Drizzle 2 1029 89 4500 1.34 248 09:52 26.01.2022
5676 Clouds 2 938 90 7000 0.89 248 08:46 26.01.2022
5677 Clouds 2 939 94 10000 0.45 248 06:28 26.01.2022
5678 Clouds 2 939 93 10000 0.45 270 06:28 26.01.2022
5679 Clouds 2 939 93 10000 0.45 270 06:28 26.01.2022
5680 Clouds 2 939 93 10000 0.45 270 06:28 26.01.2022
5681 Clouds 3 1031 90 8000 0.45 270 00:21 26.01.2022
5682 Clouds 3 1031 89 9000 0.45 270 23:37 25.01.2022
5683 Clouds 3 1031 91 8000 2.06 300 22:48 25.01.2022
5684 Clouds 3 1032 90 7000 2.06 260 22:18 25.01.2022
5685 Clouds 3 1031 92 6000 1.54 260 21:23 25.01.2022
5686 Mist 4 1032 93 5000 1.54 270 20:45 25.01.2022
5687 Mist 3 1032 93 5000 2.06 270 19:53 25.01.2022
5688 Mist 4 941 94 5000 1.54 260 18:50 25.01.2022
5689 Mist 4 1032 92 5000 2.06 280 17:47 25.01.2022
5690 Mist 4 1032 89 5000 2.06 280 17:18 25.01.2022
5691 Drizzle 4 1032 90 5000 0.45 270 16:34 25.01.2022
5692 Clouds 4 1032 89 8000 0.45 270 15:39 25.01.2022
5693 Clouds 5 941 91 9000 0.45 270 14:58 25.01.2022
5694 Clouds 5 942 91 9000 0.89 270 14:38 25.01.2022
5695 Drizzle 4 1033 86 8000 2.06 260 11:30 25.01.2022
5696 Clouds 4 1033 88 10000 1.03 0 09:21 25.01.2022
5697 Clouds 3 1033 88 10000 1.03 260 07:46 25.01.2022
5698 Clouds 3 1033 89 10000 2.57 330 06:54 25.01.2022
5699 Clouds 3 1033 93 10000 1.54 310 05:23 25.01.2022
5700 Clouds 4 1034 86 10000 1.54 280 00:20 25.01.2022
5701 Clouds 4 847 91 10000 1.54 270 23:36 24.01.2022
5702 Clouds 4 847 91 10000 1.54 260 23:18 24.01.2022
5703 Clouds 4 910 93 10000 2.06 280 22:42 24.01.2022
5704 Clouds 4 847 93 10000 1.54 290 21:57 24.01.2022
5705 Clouds 4 910 94 10000 1.54 290 21:57 24.01.2022
5706 Clouds 5 943 93 10000 1.54 290 21:32 24.01.2022
5707 Clouds 5 943 91 10000 1.54 280 20:33 24.01.2022
5708 Clouds 5 943 90 10000 2.06 310 19:57 24.01.2022
5709 Clouds 5 943 91 10000 2.06 310 19:35 24.01.2022
5710 Clouds 5 943 91 10000 1.54 290 18:35 24.01.2022
5711 Clouds 5 943 89 10000 2.06 250 17:24 24.01.2022
5712 Clouds 5 943 89 10000 2.57 250 16:55 24.01.2022
5713 Clouds 6 942 89 10000 1.54 250 16:21 24.01.2022
5714 Clouds 6 1033 89 10000 2.57 240 14:49 24.01.2022
5715 Clouds 6 943 89 10000 2.57 220 13:38 24.01.2022
5716 Clouds 6 943 91 10000 1.54 210 12:32 24.01.2022
5717 Clouds 6 943 95 10000 1.03 0 11:20 24.01.2022
5718 Clouds 5 943 97 10000 0.51 0 09:49 24.01.2022
5719 Clouds 5 911 98 10000 0.51 200 08:54 24.01.2022
5720 Clouds 5 943 96 10000 1.03 150 07:20 24.01.2022
5721 Clouds 5 943 96 10000 1.03 150 07:19 24.01.2022
5722 Clouds 5 943 96 10000 1.03 150 07:19 24.01.2022
5723 Clouds 6 944 96 6000 1.03 260 01:32 24.01.2022
5724 Clouds 6 944 96 7000 1.03 260 00:45 24.01.2022
5725 Clouds 6 944 96 6000 1.03 0 00:26 24.01.2022
5726 Clouds 6 944 98 7000 1.54 270 22:43 23.01.2022
5727 Clouds 6 944 96 8000 1.03 0 21:50 23.01.2022
5728 Drizzle 6 944 98 10000 2.06 290 21:26 23.01.2022
5729 Drizzle 6 944 98 9000 0.45 270 20:48 23.01.2022
5730 Drizzle 6 944 98 2300 0.45 270 19:54 23.01.2022
5731 Drizzle 6 944 96 5000 0.45 270 18:52 23.01.2022
5732 Drizzle 6 944 96 3800 0.45 248 17:52 23.01.2022
5733 Drizzle 6 943 96 3500 0.45 270 16:48 23.01.2022
5734 Drizzle 7 943 96 3000 0.45 248 15:18 23.01.2022
5735 Drizzle 7 943 96 4000 0.89 270 14:32 23.01.2022
5736 Drizzle 6 943 96 5000 0.45 248 13:27 23.01.2022
5737 Drizzle 6 944 95 4000 0.89 248 12:36 23.01.2022
5738 Drizzle 6 944 95 6000 0.89 248 12:18 23.01.2022
5739 Drizzle 6 943 96 5000 0.89 248 11:24 23.01.2022
5740 Drizzle 5 943 96 2500 0.89 248 10:43 23.01.2022
5741 Drizzle 5 943 96 5000 0.89 248 10:19 23.01.2022
5742 Drizzle 5 943 95 4500 0.45 270 09:19 23.01.2022
5743 Clouds 5 942 96 9000 0.45 270 05:58 23.01.2022
5744 Clouds 5 909 98 10000 3.09 290 01:54 23.01.2022
5745 Clouds 5 909 98 10000 3.09 290 01:34 23.01.2022
5746 Clouds 5 941 94 10000 3.09 280 00:31 23.01.2022
5747 Clouds 5 941 94 10000 0.45 270 23:57 22.01.2022
5748 Clouds 5 941 96 10000 0.45 293 22:47 22.01.2022
5749 Clouds 5 942 96 10000 3.09 270 21:38 22.01.2022
5750 Clouds 5 941 95 10000 0.45 270 20:24 22.01.2022
5751 Clouds 6 911 94 10000 0.45 270 19:27 22.01.2022
5752 Clouds 6 941 94 6000 0.45 248 18:29 22.01.2022
5753 Clouds 6 941 96 10000 1.34 248 17:41 22.01.2022
5754 Clouds 6 940 94 10000 0.89 248 16:57 22.01.2022
5755 Clouds 6 940 95 10000 1.34 248 15:55 22.01.2022
5756 Clouds 7 941 95 5000 0.89 248 15:37 22.01.2022
5757 Clouds 7 940 94 3500 1.34 225 13:59 22.01.2022
5758 Clouds 7 940 95 4000 0.89 248 12:58 22.01.2022
5759 Clouds 7 940 95 4500 0.89 248 12:30 22.01.2022
5760 Clouds 7 908 94 10000 5.14 300 11:57 22.01.2022
5761 Drizzle 6 939 96 7000 1.34 248 10:38 22.01.2022
5762 Drizzle 6 907 96 7000 4.63 290 10:19 22.01.2022
5763 Clouds 6 939 95 10000 0.89 270 08:54 22.01.2022
5764 Clouds 6 939 95 10000 0.45 270 08:27 22.01.2022
5765 Clouds 6 938 96 4200 1.34 248 05:20 22.01.2022
5766 Clouds 6 908 95 3800 1.79 248 01:58 22.01.2022
5767 Clouds 6 908 94 4500 2.24 248 23:49 21.01.2022
5768 Clouds 6 937 95 6000 1.34 248 22:44 21.01.2022
5769 Drizzle 5 905 96 2800 6.17 280 20:45 21.01.2022
5770 Clouds 4 904 93 6000 0.45 0 18:41 21.01.2022
5771 Clouds 4 937 91 10000 0.89 248 17:45 21.01.2022
5772 Clouds 4 938 92 10000 3.6 280 15:48 21.01.2022
5773 Clouds 4 939 92 10000 0.45 248 14:37 21.01.2022
5774 Clouds 3 1029 90 10000 6.24 298 12:42 21.01.2022
5775 Clouds 2 938 93 10000 0.89 248 11:29 21.01.2022
5776 Clouds 2 938 93 10000 0.89 248 10:27 21.01.2022
5777 Clouds 1 937 93 9000 0.45 248 08:50 21.01.2022
5778 Clouds 0 937 93 10000 0.89 270 07:26 21.01.2022
5779 Clear -1 936 91 10000 0.45 248 01:48 21.01.2022
5780 Clear 0 935 88 10000 0.45 270 22:46 20.01.2022
5781 Clear 0 935 88 10000 0.45 270 21:48 20.01.2022
5782 Clouds 0 935 90 10000 0.89 248 20:57 20.01.2022
5783 Clouds 1 934 88 10000 0.89 248 19:40 20.01.2022
5784 Clouds 1 1023 88 10000 0.89 248 19:18 20.01.2022
5785 Clouds 1 932 89 10000 0.89 248 17:32 20.01.2022
5786 Clouds 1 932 91 10000 0.45 270 15:46 20.01.2022
5787 Clouds 1 932 89 10000 1.79 225 15:26 20.01.2022
5788 Clouds 2 904 85 10000 1.34 248 13:54 20.01.2022
5789 Clouds 2 933 86 10000 0.89 270 13:54 20.01.2022
5790 Clouds 2 903 87 3400 0.89 293 12:43 20.01.2022
5791 Snow 2 903 85 9000 0.89 248 12:21 20.01.2022
5792 Clouds 2 932 87 10000 0.89 225 10:55 20.01.2022
5793 Clouds 1 900 88 10000 5.66 290 09:43 20.01.2022
5794 Clouds 1 931 88 10000 0.89 248 08:35 20.01.2022
5795 Clouds 3 930 92 10000 1.34 248 06:18 20.01.2022
5796 Clouds 4 930 90 10000 1.34 270 23:52 19.01.2022
5797 Clouds 5 898 93 10000 6.69 270 22:37 19.01.2022
5798 Drizzle 4 897 93 6000 7.2 260 21:24 19.01.2022
5799 Clouds 4 1015 91 7000 1.79 225 20:53 19.01.2022
5800 Clouds 4 898 93 4800 7.72 260 20:22 19.01.2022
5801 Drizzle 4 929 92 6000 1.34 248 18:48 19.01.2022
5802 Clouds 4 898 88 10000 5.66 240 17:50 19.01.2022
5803 Clouds 4 930 89 10000 0.89 248 16:59 19.01.2022
5804 Clouds 4 900 87 10000 5.14 240 14:43 19.01.2022
5805 Clouds 4 933 89 10000 1.34 248 12:53 19.01.2022
5806 Clouds 4 1023 88 10000 0.89 225 11:43 19.01.2022
5807 Clouds 3 1024 91 10000 0.45 248 10:38 19.01.2022
5808 Clouds 2 1024 92 10000 0.45 248 09:34 19.01.2022
5809 Clear 1 936 93 10000 2.06 190 07:18 19.01.2022
5810 Mist 1 937 92 4000 0.51 0 05:19 19.01.2022
5811 Clouds 5 943 92 10000 3.09 270 23:41 18.01.2022
5812 Clouds 5 913 88 10000 2.57 260 23:18 18.01.2022
5813 Clouds 6 944 91 10000 1.54 250 21:20 18.01.2022
5814 Clouds 6 944 93 10000 2.06 270 19:55 18.01.2022
5815 Clouds 6 944 92 10000 0.45 270 19:37 18.01.2022
5816 Clouds 6 945 91 10000 2.06 290 18:57 18.01.2022
5817 Clouds 7 945 89 10000 0.45 270 17:59 18.01.2022
5818 Clouds 7 945 89 10000 2.06 260 17:27 18.01.2022
5819 Clouds 7 945 89 10000 0.45 225 15:50 18.01.2022
5820 Clouds 7 1036 90 10000 3.09 290 15:23 18.01.2022
5821 Clouds 7 1036 92 10000 3.6 290 13:26 18.01.2022
5822 Clouds 6 946 96 7000 0.45 270 10:49 18.01.2022
5823 Drizzle 6 946 95 4200 0.45 248 09:39 18.01.2022
5824 Drizzle 5 912 95 4400 1.03 0 07:58 18.01.2022
5825 Drizzle 5 945 95 4400 1.54 310 07:21 18.01.2022
5826 Clouds 5 910 89 10000 3.6 270 00:21 18.01.2022
5827 Clouds 4 942 90 10000 2.57 290 22:30 17.01.2022
5828 Clouds 4 942 88 10000 3.09 280 21:36 17.01.2022
5829 Clouds 5 941 86 10000 0.45 248 20:29 17.01.2022
5830 Clouds 5 940 89 10000 4.12 330 18:31 17.01.2022
5831 Clouds 5 940 89 10000 0.45 248 17:51 17.01.2022
5832 Clouds 6 939 91 10000 0.89 248 16:45 17.01.2022
5833 Clouds 7 938 86 10000 1.79 270 15:23 17.01.2022
5834 Clouds 7 937 89 10000 0.89 248 14:57 17.01.2022
5835 Clouds 7 1025 93 8000 2.24 225 13:27 17.01.2022
5836 Drizzle 7 1024 94 3500 1.34 248 12:56 17.01.2022
5837 Clouds 6 936 94 10000 1.79 248 11:49 17.01.2022
5838 Clouds 5 936 92 10000 2.24 203 10:25 17.01.2022
5839 Clouds 5 1024 88 10000 1.79 248 09:35 17.01.2022
5840 Clouds 6 1023 84 10000 1.34 248 07:43 17.01.2022
5841 Clouds 6 1023 84 10000 1.34 225 07:18 17.01.2022
5842 Clouds 6 936 92 10000 2.24 248 00:56 17.01.2022
5843 Clouds 6 903 91 9000 6.17 270 22:30 16.01.2022
5844 Clouds 5 934 92 9000 1.34 270 20:36 16.01.2022
5845 Clouds 5 934 91 10000 0.89 248 18:52 16.01.2022
5846 Clouds 5 902 90 9000 0.45 0 17:59 16.01.2022
5847 Clouds 5 905 88 9000 0.89 270 17:23 16.01.2022
5848 Clouds 5 901 91 8000 0.45 0 16:38 16.01.2022
5849 Drizzle 4 901 93 4500 4.63 260 14:31 16.01.2022
5850 Mist 4 932 93 4500 0.45 293 13:49 16.01.2022
5851 Drizzle 3 900 94 3200 5.66 250 12:48 16.01.2022
5852 Drizzle 3 932 93 3000 1.34 248 11:43 16.01.2022
5853 Mist 3 900 94 4800 4.12 230 10:55 16.01.2022
5854 Mist 2 1020 93 4800 0.89 248 10:19 16.01.2022
5855 Mist 2 932 95 3800 4.63 240 09:51 16.01.2022
5856 Mist 2 900 96 4000 4.63 240 09:22 16.01.2022
5857 Mist 2 900 96 4000 4.63 240 09:22 16.01.2022
5858 Clouds 2 900 96 10000 6.69 260 07:33 16.01.2022
5859 Clouds 2 934 92 10000 0.45 225 00:42 16.01.2022
5860 Clouds 3 934 92 10000 0.45 90 23:49 15.01.2022
5861 Clouds 4 935 90 10000 0.45 158 21:37 15.01.2022
5862 Clouds 4 936 90 10000 2.57 170 21:19 15.01.2022
5863 Clouds 4 936 89 10000 2.06 160 20:39 15.01.2022
5864 Clouds 4 937 88 10000 0.45 90 19:29 15.01.2022
5865 Clouds 5 937 89 10000 0.45 90 18:37 15.01.2022
5866 Clouds 5 937 89 10000 0.45 135 16:57 15.01.2022
5867 Clouds 6 938 87 10000 0.45 0 15:39 15.01.2022
5868 Clouds 6 939 92 10000 0.89 0 13:39 15.01.2022
5869 Clouds 5 940 94 7000 1.03 0 11:46 15.01.2022
5870 Mist 5 940 96 2800 1.03 0 10:24 15.01.2022
5871 Fog 5 940 95 600 1.03 0 05:27 15.01.2022
5872 Drizzle 5 941 98 3000 0.45 270 23:44 14.01.2022
5873 Drizzle 5 942 97 3000 0.45 270 21:37 14.01.2022
5874 Drizzle 5 941 97 2000 0.45 270 20:37 14.01.2022
5875 Drizzle 5 941 97 2100 3.09 280 19:57 14.01.2022
5876 Drizzle 5 942 95 2400 0.45 270 18:44 14.01.2022
5877 Drizzle 5 941 95 2400 0.45 270 17:53 14.01.2022
5878 Drizzle 5 941 95 2400 1.34 270 16:47 14.01.2022
5879 Mist 5 942 93 4500 0.89 270 15:33 14.01.2022
5880 Clouds 6 942 92 7000 1.79 270 14:29 14.01.2022
5881 Clouds 5 942 92 7000 1.79 270 12:59 14.01.2022
5882 Clouds 5 942 91 7000 0.89 270 11:59 14.01.2022
5883 Clouds 5 942 92 7000 0.89 248 10:40 14.01.2022
5884 Clouds 4 909 93 6000 5.14 270 08:53 14.01.2022
5885 Mist 4 941 93 4800 1.34 248 07:35 14.01.2022
5886 Mist 3 942 93 4000 1.34 270 03:19 14.01.2022
5887 Clouds 3 1034 91 7000 1.34 270 00:35 14.01.2022
5888 Clouds 3 943 93 6000 1.34 270 21:55 13.01.2022
5889 Clouds 3 944 92 6000 1.34 248 21:30 13.01.2022
5890 Clouds 3 944 92 7000 1.34 270 20:27 13.01.2022
5891 Clouds 3 944 92 8000 0.89 248 19:30 13.01.2022
5892 Clouds 3 944 92 9000 1.34 248 18:49 13.01.2022
5893 Clouds 4 944 91 6000 0.89 270 16:57 13.01.2022
5894 Mist 5 944 89 5000 0.45 270 15:46 13.01.2022
5895 Mist 5 944 89 5000 0.45 270 15:26 13.01.2022
5896 Mist 5 848 90 5000 6.17 270 13:36 13.01.2022
5897 Mist 4 848 93 4500 6.17 270 11:38 13.01.2022
5898 Mist 3 911 94 3500 5.14 260 09:24 13.01.2022
5899 Mist 3 911 95 3500 5.66 260 08:30 13.01.2022
5900 Mist 3 945 95 3500 5.14 260 07:59 13.01.2022
5901 Mist 3 945 94 3500 0.89 248 07:20 13.01.2022
5902 Mist 3 945 93 4500 5.66 260 05:21 13.01.2022
5903 Mist 2 911 93 4500 5.66 260 04:55 13.01.2022
5904 Clouds 3 945 92 10000 0.45 270 01:39 13.01.2022
5905 Clear 3 946 93 10000 3.09 260 23:54 12.01.2022
5906 Clear 2 945 93 10000 3.09 260 23:34 12.01.2022
5907 Clouds 2 945 93 7000 2.57 260 22:32 12.01.2022
5908 Clouds 3 915 91 7000 3.09 260 21:43 12.01.2022
5909 Clouds 3 915 91 8000 3.6 250 21:19 12.01.2022
5910 Clouds 3 946 92 8000 3.6 250 20:47 12.01.2022
5911 Clouds 3 945 93 6000 2.06 260 19:22 12.01.2022
5912 Clouds 4 917 92 10000 0.45 270 18:25 12.01.2022
5913 Clouds 4 912 96 9000 3.09 300 16:57 12.01.2022
5914 Clouds 5 912 93 9000 3.09 280 15:38 12.01.2022
5915 Clouds 5 945 93 7000 0.45 293 14:39 12.01.2022
5916 Clouds 4 916 92 6000 0.45 270 12:57 12.01.2022
5917 Mist 3 944 94 4200 0.89 270 09:57 12.01.2022
5918 Clouds 3 943 91 10000 3.6 260 07:58 12.01.2022
5919 Clouds 3 1035 90 10000 0.45 270 07:33 12.01.2022
5920 Clear 2 943 93 10000 1.03 0 02:38 12.01.2022
5921 Clear 1 942 94 10000 0.51 0 23:27 11.01.2022
5922 Clear 1 942 94 10000 0.51 0 22:40 11.01.2022
5923 Clear 1 942 94 10000 1.54 160 22:18 11.01.2022
5924 Clouds 0 1034 93 9000 0.45 90 20:40 11.01.2022
5925 Clouds 1 911 93 7000 1.54 160 19:40 11.01.2022
5926 Mist 2 912 92 4000 1.54 130 17:55 11.01.2022
5927 Mist 2 912 91 5000 1.54 120 16:47 11.01.2022
5928 Clouds 3 912 92 9000 0.89 90 16:28 11.01.2022
5929 Clouds 4 912 92 9000 2.06 130 14:57 11.01.2022
5930 Clouds 4 912 92 9000 0.89 113 14:38 11.01.2022
5931 Clouds 4 913 93 6000 0.89 90 13:53 11.01.2022
5932 Mist 4 912 94 4500 0.45 90 13:28 11.01.2022
5933 Mist 3 846 94 2500 1.54 140 12:36 11.01.2022
5934 Fog 3 912 95 100 0.45 68 10:45 11.01.2022
5935 Fog 2 911 94 100 1.54 120 08:27 11.01.2022
5936 Fog 1 1032 93 250 1.03 100 04:30 11.01.2022
5937 Fog 1 1031 93 250 1.03 100 04:30 11.01.2022
5938 Fog 3 939 94 700 0.51 210 00:28 11.01.2022
5939 Mist 3 939 94 1200 0.51 0 23:40 10.01.2022
5940 Mist 3 939 94 4500 0.51 80 22:43 10.01.2022
5941 Clouds 4 939 94 7000 0 0 22:18 10.01.2022
5942 Clouds 4 939 93 9000 0 0 21:42 10.01.2022
5943 Clouds 4 965 93 9000 0.51 0 21:18 10.01.2022
5944 Clouds 5 938 92 9000 0 0 20:55 10.01.2022
5945 Clouds 5 938 92 10000 1.03 80 20:23 10.01.2022
5946 Clouds 5 938 92 10000 1.03 240 19:39 10.01.2022
5947 Clouds 5 938 92 10000 1.54 320 19:19 10.01.2022
5948 Clouds 5 937 91 10000 2.06 300 18:47 10.01.2022
5949 Clouds 5 904 92 10000 2.06 270 16:59 10.01.2022
5950 Clouds 5 852 92 10000 2.06 270 16:41 10.01.2022
5951 Clouds 6 935 90 10000 0.45 270 14:58 10.01.2022
5952 Clouds 6 934 91 10000 2.57 270 13:35 10.01.2022
5953 Clouds 5 933 93 9000 0.45 270 11:57 10.01.2022
5954 Clouds 5 932 92 9000 0.45 270 11:24 10.01.2022
5955 Clouds 4 931 93 10000 0.89 270 09:40 10.01.2022
5956 Clouds 3 895 93 10000 3.09 270 05:52 10.01.2022
5957 Clouds 3 894 93 10000 2.57 260 04:48 10.01.2022
5958 Clouds 4 923 92 10000 0.45 270 01:22 10.01.2022
5959 Clouds 4 923 91 10000 0.45 270 00:22 10.01.2022
5960 Clouds 4 894 89 10000 0.45 248 23:28 09.01.2022
5961 Clouds 4 894 89 10000 0.45 270 22:21 09.01.2022
5962 Clouds 4 921 92 10000 0.45 270 21:42 09.01.2022
5963 Clouds 4 921 92 10000 0.45 270 21:42 09.01.2022
5964 Clouds 4 893 91 10000 0.45 270 21:22 09.01.2022
5965 Clouds 4 892 91 10000 4.63 260 20:49 09.01.2022
5966 Clouds 4 892 91 10000 4.12 260 20:29 09.01.2022
5967 Clouds 5 892 88 10000 0.45 248 19:44 09.01.2022
5968 Clouds 5 892 88 10000 0.45 248 19:22 09.01.2022
5969 Clouds 5 918 90 10000 0.45 248 18:49 09.01.2022
5970 Clouds 5 888 90 10000 5.14 260 18:30 09.01.2022
5971 Clouds 5 887 91 10000 5.14 260 17:30 09.01.2022
5972 Clouds 5 887 91 10000 5.14 270 16:51 09.01.2022
5973 Clouds 5 886 93 10000 5.14 270 15:52 09.01.2022
5974 Clouds 5 886 92 10000 5.14 270 15:33 09.01.2022
5975 Clouds 5 885 93 10000 6.17 270 14:39 09.01.2022
5976 Clouds 5 915 93 10000 1.34 270 13:50 09.01.2022
5977 Rain 5 914 94 10000 1.34 270 12:31 09.01.2022
5978 Rain 4 913 95 10000 1.79 270 11:48 09.01.2022
5979 Rain 3 912 93 10000 4.12 250 09:59 09.01.2022
5980 Rain 2 911 93 10000 4.12 250 09:41 09.01.2022
5981 Drizzle 3 910 92 10000 0.45 225 08:30 09.01.2022
5982 Clouds 3 910 85 10000 0.45 68 02:31 09.01.2022
5983 Clouds 3 911 85 10000 1.34 68 01:20 09.01.2022
5984 Clouds 3 912 85 10000 1.34 90 23:38 08.01.2022
5985 Clouds 3 913 86 10000 0.89 135 22:59 08.01.2022
5986 Clouds 3 914 85 10000 1.34 90 21:33 08.01.2022
5987 Clouds 3 916 84 10000 1.34 158 20:45 08.01.2022
5988 Clouds 3 886 86 10000 1.34 0 20:24 08.01.2022
5989 Clouds 3 917 84 10000 1.79 135 19:58 08.01.2022
5990 Clear 3 919 83 10000 0.89 90 17:51 08.01.2022
5991 Clear 3 892 80 10000 0.45 90 17:21 08.01.2022
5992 Clouds 3 921 85 10000 2.24 0 15:47 08.01.2022
5993 Clouds 3 922 87 10000 0.45 203 14:40 08.01.2022
5994 Clear 4 924 87 10000 0.89 203 12:44 08.01.2022
5995 Clear 2 1009 89 10000 3.6 250 10:59 08.01.2022
5996 Clear 2 924 93 10000 0.45 0 10:25 08.01.2022
5997 Clear 1 924 92 10000 2.57 230 09:44 08.01.2022
5998 Clouds 1 1008 93 10000 2.57 250 07:18 08.01.2022
5999 Clouds 1 923 92 10000 4.12 240 02:39 08.01.2022
6000 Clouds 1 895 91 10000 3.09 210 00:41 08.01.2022
6001 Snow 2 895 91 10000 4.12 230 22:40 07.01.2022
6002 Clouds 3 924 90 10000 0.45 158 20:56 07.01.2022
6003 Clear 3 924 89 10000 0.45 135 19:56 07.01.2022
6004 Clear 3 924 89 10000 0.45 135 19:56 07.01.2022
6005 Clear 3 924 89 10000 0.45 135 19:56 07.01.2022
6006 Clouds 3 924 88 10000 0.89 68 18:54 07.01.2022
6007 Clouds 3 924 88 10000 0.45 68 18:34 07.01.2022
6008 Clouds 3 924 87 10000 0.89 68 17:25 07.01.2022
6009 Clouds 3 924 88 10000 0.89 68 16:23 07.01.2022
6010 Clouds 3 924 89 10000 4.12 230 13:53 07.01.2022
6011 Clouds 3 924 90 10000 0.45 90 13:19 07.01.2022
6012 Clouds 3 924 89 10000 0.45 180 12:48 07.01.2022
6013 Clouds 2 925 90 10000 0.89 135 09:21 07.01.2022
6014 Clear 1 927 87 10000 0.45 180 02:54 07.01.2022
6015 Clear 1 928 89 10000 0.45 0 01:53 07.01.2022
6016 Clear 1 928 89 10000 0.45 0 01:27 07.01.2022
6017 Clear 1 928 89 10000 0.45 0 00:57 07.01.2022
6018 Clear 1 929 90 10000 3.6 200 22:46 06.01.2022
6019 Clear 1 930 90 10000 3.09 200 21:23 06.01.2022
6020 Clear 1 930 90 10000 3.09 210 20:20 06.01.2022
6021 Clear 1 930 92 10000 2.57 200 19:41 06.01.2022
6022 Clouds 2 930 90 10000 2.06 220 17:54 06.01.2022
6023 Clouds 2 930 90 10000 2.06 220 17:34 06.01.2022
6024 Clouds 3 930 87 10000 3.09 240 16:42 06.01.2022
6025 Clouds 4 899 85 10000 3.09 260 15:46 06.01.2022
6026 Clouds 4 930 83 10000 3.09 260 15:25 06.01.2022
6027 Clouds 5 930 84 10000 0.45 203 14:43 06.01.2022
6028 Clouds 4 930 87 10000 0.45 225 14:18 06.01.2022
6029 Clouds 3 1017 85 10000 4.12 260 12:43 06.01.2022
6030 Clouds 2 1017 88 10000 3.6 260 11:42 06.01.2022
6031 Clouds 2 1017 88 10000 3.6 260 11:42 06.01.2022
6032 Clouds 2 1017 88 10000 3.09 270 11:22 06.01.2022
6033 Clouds 0 927 93 10000 3.09 260 08:51 06.01.2022
6034 Clouds 4 923 88 10000 1.79 248 00:52 06.01.2022
6035 Clouds 4 922 90 10000 1.34 248 23:37 05.01.2022
6036 Clouds 4 921 89 10000 1.79 225 22:56 05.01.2022
6037 Clouds 4 921 90 10000 1.34 225 22:31 05.01.2022
6038 Clouds 4 921 90 10000 0.89 248 21:47 05.01.2022
6039 Clouds 5 893 89 10000 1.34 225 20:56 05.01.2022
6040 Clouds 5 892 89 10000 0.89 248 20:18 05.01.2022
6041 Clouds 5 919 91 10000 1.34 225 18:42 05.01.2022
6042 Clouds 5 918 91 10000 1.34 270 17:23 05.01.2022
6043 Clouds 4 887 92 10000 6.17 280 16:38 05.01.2022
6044 Clouds 4 886 91 10000 6.69 260 15:26 05.01.2022
6045 Clouds 3 885 92 10000 0.89 0 13:51 05.01.2022
6046 Clouds 3 915 92 4000 1.34 248 12:59 05.01.2022
6047 Clouds 3 916 84 10000 1.79 225 10:32 05.01.2022
6048 Clear 2 914 85 10000 0.89 225 07:47 05.01.2022
6049 Clear 3 914 87 10000 0.89 248 06:24 05.01.2022
6050 Clear 4 915 91 10000 0.45 270 00:58 05.01.2022
6051 Clear 4 914 92 10000 3.09 260 23:27 04.01.2022
6052 Clear 4 914 90 10000 0.45 248 22:42 04.01.2022
6053 Clear 4 914 90 10000 2.57 250 21:21 04.01.2022
6054 Clouds 5 914 90 10000 0.45 270 19:20 04.01.2022
6055 Clouds 6 913 93 10000 4.12 290 17:51 04.01.2022
6056 Clouds 6 913 90 7000 0.45 248 16:43 04.01.2022
6057 Clouds 6 913 90 8000 0.45 270 16:23 04.01.2022
6058 Clouds 8 913 87 10000 0.89 248 14:54 04.01.2022
6059 Clouds 8 913 87 10000 0.89 248 14:34 04.01.2022
6060 Clouds 8 913 87 10000 0.89 248 13:27 04.01.2022
6061 Clouds 8 914 88 10000 3.09 220 10:41 04.01.2022
6062 Clouds 8 914 89 10000 0.45 0 09:20 04.01.2022
6063 Clouds 7 914 89 10000 3.6 230 08:30 04.01.2022
6064 Clouds 8 918 89 10000 2.57 210 02:31 04.01.2022
6065 Clouds 8 893 86 10000 0.45 0 00:41 04.01.2022
6066 Clouds 8 893 87 10000 4.12 230 23:19 03.01.2022
6067 Clouds 8 894 91 10000 0.45 0 21:52 03.01.2022
6068 Clouds 8 894 91 10000 3.6 230 21:32 03.01.2022
6069 Clouds 7 894 92 10000 0.89 0 19:56 03.01.2022
6070 Clouds 8 894 90 10000 4.63 250 18:48 03.01.2022
6071 Clouds 8 894 88 10000 6.69 240 18:27 03.01.2022
6072 Clouds 9 896 82 10000 0.89 248 16:58 03.01.2022
6073 Clouds 11 924 79 10000 1.79 248 14:56 03.01.2022
6074 Clouds 11 924 79 10000 1.34 225 14:30 03.01.2022
6075 Clouds 11 925 80 10000 1.34 225 12:39 03.01.2022
6076 Clouds 10 1007 80 10000 1.79 225 11:35 03.01.2022
6077 Clouds 10 925 85 10000 2.68 225 10:27 03.01.2022
6078 Clouds 10 897 85 10000 1.34 225 08:47 03.01.2022
6079 Clouds 9 925 88 10000 2.24 225 07:34 03.01.2022
6080 Clouds 11 1005 86 9000 1.79 248 23:55 02.01.2022
6081 Clouds 11 1005 85 10000 1.79 225 23:21 02.01.2022
6082 Clouds 11 1005 87 10000 0.45 225 22:53 02.01.2022
6083 Clouds 11 1008 86 10000 3.6 240 21:39 02.01.2022
6084 Clouds 11 1009 83 10000 5.14 250 20:33 02.01.2022
6085 Clouds 12 1009 82 10000 1.79 225 19:54 02.01.2022
6086 Clouds 12 1009 82 10000 1.79 248 19:29 02.01.2022
6087 Clouds 12 1009 83 10000 1.34 225 18:44 02.01.2022
6088 Clouds 12 1009 82 10000 1.34 225 17:43 02.01.2022
6089 Clouds 12 1008 82 10000 0.89 225 17:22 02.01.2022
6090 Clouds 13 1008 76 10000 1.34 225 16:59 02.01.2022
6091 Clouds 13 1008 81 10000 2.24 225 16:24 02.01.2022
6092 Clouds 13 1008 82 10000 1.79 225 14:21 02.01.2022
6093 Clear 13 1008 84 10000 0.45 203 12:39 02.01.2022
6094 Clear 12 1009 88 10000 1.34 158 11:57 02.01.2022
6095 Rain 12 1010 90 10000 0.89 203 11:23 02.01.2022
6096 Clouds 12 1011 89 10000 0.89 90 10:44 02.01.2022
6097 Clouds 12 1013 89 10000 0.45 180 08:42 02.01.2022
6098 Clear 11 1016 87 10000 0.45 180 03:25 02.01.2022
6099 Clear 10 1018 87 10000 1.34 90 23:58 01.01.2022
6100 Clear 10 1018 86 10000 0.89 158 23:39 01.01.2022
6101 Clear 11 1019 85 10000 1.34 135 22:55 01.01.2022
6102 Clear 11 1019 85 10000 0.89 135 22:19 01.01.2022
6103 Clear 11 1020 85 10000 1.34 135 21:43 01.01.2022
6104 Clear 11 1020 83 10000 0.45 68 20:53 01.01.2022
6105 Clear 12 1021 81 10000 1.34 90 19:55 01.01.2022
6106 Clouds 13 1021 83 10000 3.09 210 18:58 01.01.2022
6107 Clouds 13 1022 82 10000 2.57 210 17:58 01.01.2022
6108 Clouds 13 1022 83 10000 3.09 230 16:37 01.01.2022
6109 Clouds 13 1022 83 10000 3.09 230 16:19 01.01.2022
6110 Clouds 14 1022 82 10000 3.09 230 15:22 01.01.2022
6111 Clouds 14 1022 78 10000 4.12 250 13:42 01.01.2022
6112 Clouds 14 1023 81 10000 0.45 248 12:49 01.01.2022
6113 Clouds 13 1023 85 10000 4.12 250 11:51 01.01.2022
6114 Clouds 13 1023 85 10000 0.45 203 11:22 01.01.2022
6115 Clouds 13 1023 87 10000 4.12 260 10:26 01.01.2022
6116 Clouds 13 1023 88 10000 0.89 248 09:41 01.01.2022
6117 Clouds 12 1022 88 10000 0.45 270 08:25 01.01.2022
6118 Clouds 12 1022 88 10000 0.89 248 07:41 01.01.2022
6119 Clouds 12 1021 88 10000 0.89 225 06:46 01.01.2022
6120 Clouds 12 1021 88 10000 0.45 248 05:26 01.01.2022
6121 Clouds 12 1021 88 10000 0.89 225 04:37 01.01.2022
6122 Clouds 13 1020 90 10000 2.24 225 00:53 01.01.2022
6123 Clouds 13 1019 90 10000 1.34 225 23:22 31.12.2021
6124 Clouds 13 1018 90 10000 1.34 225 21:52 31.12.2021
6125 Clouds 13 1017 90 10000 1.79 248 20:33 31.12.2021
6126 Clouds 13 1016 85 10000 1.79 248 19:30 31.12.2021
6127 Clouds 13 1015 82 10000 6.69 270 18:32 31.12.2021
6128 Clouds 13 1014 85 10000 1.34 248 17:38 31.12.2021
6129 Clouds 13 1014 84 10000 1.79 248 17:18 31.12.2021
6130 Clouds 14 1014 82 10000 2.24 225 16:21 31.12.2021
6131 Clouds 14 1013 79 10000 2.24 225 15:53 31.12.2021
6132 Clouds 14 1013 79 10000 1.34 225 15:28 31.12.2021
6133 Clouds 14 1013 80 10000 1.79 225 14:47 31.12.2021
6134 Clouds 14 1013 79 10000 1.79 225 14:28 31.12.2021
6135 Clouds 14 1014 80 10000 1.34 225 13:36 31.12.2021
6136 Clouds 14 1014 80 10000 2.68 225 12:45 31.12.2021
6137 Clouds 14 1015 81 10000 1.34 225 11:43 31.12.2021
6138 Clouds 14 1015 81 10000 1.79 225 11:24 31.12.2021
6139 Clouds 14 1015 81 10000 1.79 225 10:34 31.12.2021
6140 Clouds 14 1015 82 10000 1.79 225 09:52 31.12.2021
6141 Clouds 14 1014 82 10000 1.79 225 09:32 31.12.2021
6142 Clouds 13 1015 83 10000 6.69 250 08:25 31.12.2021
6143 Clouds 13 1015 87 10000 1.79 225 07:30 31.12.2021
6144 Drizzle 13 1015 94 5000 1.34 225 23:23 30.12.2021
6145 Clouds 13 1014 93 8000 1.79 248 22:33 30.12.2021
6146 Drizzle 13 1014 94 3800 1.34 225 21:54 30.12.2021
6147 Mist 13 1014 94 3800 1.34 225 21:36 30.12.2021
6148 Drizzle 13 1014 94 3200 2.24 225 20:45 30.12.2021
6149 Clouds 13 1014 95 3000 1.34 248 20:24 30.12.2021
6150 Clouds 13 1014 95 3200 0.89 248 19:44 30.12.2021
6151 Clouds 13 1013 95 10000 0.45 225 18:29 30.12.2021
6152 Drizzle 13 1013 94 3500 0.89 248 17:52 30.12.2021
6153 Clouds 13 1012 93 3500 1.34 270 16:19 30.12.2021
6154 Clouds 13 1012 92 3000 1.34 248 15:42 30.12.2021
6155 Clouds 13 1011 93 2500 1.79 225 14:38 30.12.2021
6156 Clouds 13 1011 94 10000 1.79 248 13:49 30.12.2021
6157 Clouds 13 1011 95 3800 1.79 225 12:40 30.12.2021
6158 Clouds 12 1011 94 10000 0.45 248 10:58 30.12.2021
6159 Clouds 12 1011 93 10000 0.45 225 09:56 30.12.2021
6160 Clouds 11 1011 93 10000 4.63 250 08:56 30.12.2021
6161 Clouds 10 1010 91 10000 0.45 158 06:52 30.12.2021
6162 Clouds 10 1009 94 10000 1.34 225 03:42 30.12.2021
6163 Clouds 10 1008 95 10000 0.89 248 02:42 30.12.2021
6164 Drizzle 8 1006 96 4000 2.06 180 23:42 29.12.2021
6165 Drizzle 7 1005 96 3200 2.57 170 23:22 29.12.2021
6166 Clouds 7 1005 95 10000 2.57 160 22:19 29.12.2021
6167 Clouds 7 1005 95 4800 0.45 90 21:33 29.12.2021
6168 Rain 7 1005 95 9000 0.45 90 20:38 29.12.2021
6169 Clouds 7 1006 95 10000 1.54 170 19:48 29.12.2021
6170 Clouds 7 1005 95 10000 1.54 150 18:52 29.12.2021
6171 Clouds 8 1006 94 10000 2.06 190 17:56 29.12.2021
6172 Clouds 8 1006 94 10000 1.54 200 17:27 29.12.2021
6173 Clouds 8 1006 94 10000 1.03 230 16:24 29.12.2021
6174 Clouds 8 1006 95 10000 1.03 240 15:48 29.12.2021
6175 Drizzle 8 1006 94 7000 0.45 248 14:19 29.12.2021
6176 Clouds 8 1005 95 8000 0.89 248 12:39 29.12.2021
6177 Mist 8 1005 96 2600 0.45 270 11:43 29.12.2021
6178 Mist 7 1004 95 2200 0.45 270 09:59 29.12.2021
6179 Drizzle 6 1002 96 3200 0.45 270 07:52 29.12.2021
6180 Drizzle 6 1001 95 3000 0.89 248 06:39 29.12.2021
6181 Drizzle 6 1000 95 2500 0.45 270 06:18 29.12.2021
6182 Mist 6 1000 95 5000 2.06 240 05:39 29.12.2021
6183 Clouds 6 998 92 10000 2.06 250 02:46 29.12.2021
6184 Clouds 6 995 92 10000 3.09 240 00:23 29.12.2021
6185 Clouds 6 995 91 10000 2.57 240 23:35 28.12.2021
6186 Clouds 6 994 91 10000 2.57 210 22:42 28.12.2021
6187 Clouds 6 994 93 10000 2.06 230 22:24 28.12.2021
6188 Clouds 6 993 93 10000 2.57 240 21:38 28.12.2021
6189 Clouds 6 993 95 10000 2.06 170 20:40 28.12.2021
6190 Clouds 6 992 95 10000 2.06 170 19:25 28.12.2021
6191 Clouds 6 991 95 10000 3.09 170 18:39 28.12.2021
6192 Clouds 6 991 94 10000 3.09 160 17:59 28.12.2021
6193 Clouds 6 991 90 10000 0.45 68 16:34 28.12.2021
6194 Clouds 6 991 89 10000 0.89 68 15:50 28.12.2021
6195 Clouds 7 991 88 10000 0.45 90 15:21 28.12.2021
6196 Clouds 7 992 88 10000 1.34 90 14:48 28.12.2021
6197 Clouds 7 992 88 10000 1.34 90 14:21 28.12.2021
6198 Clouds 7 993 88 10000 0.89 113 13:42 28.12.2021
6199 Clouds 7 993 89 10000 0.89 68 13:24 28.12.2021
6200 Clouds 7 993 89 10000 0.89 68 13:24 28.12.2021
6201 Clouds 7 993 90 10000 1.79 90 12:49 28.12.2021
6202 Clouds 6 994 91 10000 1.79 90 11:46 28.12.2021
6203 Clouds 3 996 94 10000 3.09 100 08:35 28.12.2021
6204 Clouds 3 996 93 10000 3.09 100 06:42 28.12.2021
6205 Clear 2 1000 92 10000 3.6 120 23:44 27.12.2021
6206 Clear 2 999 92 10000 0.45 90 23:23 27.12.2021
6207 Clear 2 1000 92 10000 0.89 68 21:42 27.12.2021
6208 Clouds 2 1000 92 10000 3.6 110 21:21 27.12.2021
6209 Clouds 2 1000 92 10000 0.89 90 20:23 27.12.2021
6210 Clouds 2 1001 92 10000 0.89 90 19:41 27.12.2021
6211 Clouds 2 1001 92 10000 0.45 68 18:34 27.12.2021
6212 Clouds 2 1001 92 9000 0.45 68 17:48 27.12.2021
6213 Clouds 2 1001 91 10000 2.06 110 16:40 27.12.2021
6214 Clouds 1 1001 91 10000 4.12 100 15:52 27.12.2021
6215 Rain 2 1001 89 10000 0.45 68 14:33 27.12.2021
6216 Rain 1 1002 90 10000 0.45 68 13:39 27.12.2021
6217 Clouds 1 1002 89 10000 0.45 68 12:36 27.12.2021
6218 Clouds -1 1003 89 10000 0.89 68 10:31 27.12.2021
6219 Clouds -1 1002 88 10000 0.89 68 09:47 27.12.2021
6220 Clouds -2 1003 88 10000 1.34 68 07:50 27.12.2021
6221 Clouds -2 1003 88 10000 0.45 68 07:29 27.12.2021
6222 Snow -3 1005 86 10000 1.34 68 02:19 27.12.2021
6223 Clouds -4 1007 85 10000 0.89 68 23:58 26.12.2021
6224 Clouds -4 1007 85 10000 1.34 68 23:36 26.12.2021
6225 Clouds -4 1007 81 10000 0.45 68 22:23 26.12.2021
6226 Clouds -4 1008 80 10000 1.34 68 20:59 26.12.2021
6227 Clear -4 1008 79 10000 1.79 45 19:47 26.12.2021
6228 Clear -4 1009 82 10000 1.79 68 18:24 26.12.2021
6229 Clear -4 1009 82 10000 0.89 90 16:55 26.12.2021
6230 Clear -2 1010 80 10000 0.89 68 14:29 26.12.2021
6231 Clear -3 1010 77 10000 1.34 68 13:40 26.12.2021
6232 Clear -3 1010 78 10000 1.79 68 13:20 26.12.2021
6233 Clear -4 1010 78 10000 1.34 90 12:33 26.12.2021
6234 Clear -7 1011 84 10000 1.34 90 10:42 26.12.2021
6235 Clear -9 1011 85 10000 0.45 68 09:25 26.12.2021
6236 Clear -9 1011 85 10000 2.57 100 08:44 26.12.2021
6237 Clear -9 1011 84 10000 3.09 100 07:58 26.12.2021
6238 Clear -8 1012 85 10000 2.57 80 01:29 26.12.2021
6239 Clear -7 1012 84 10000 0.45 68 23:56 25.12.2021
6240 Clear -7 1012 85 10000 1.54 100 23:27 25.12.2021
6241 Clear -7 1013 84 10000 2.57 90 22:26 25.12.2021
6242 Clear -6 1013 83 10000 2.06 110 21:00 25.12.2021
6243 Clear -6 1013 82 10000 2.06 110 19:27 25.12.2021
6244 Clear -6 1014 83 10000 0.45 68 18:56 25.12.2021
6245 Clear -5 1013 81 10000 3.09 80 17:38 25.12.2021
6246 Clear -4 1013 77 10000 0.89 45 16:41 25.12.2021
6247 Clear -3 1013 72 10000 1.79 68 15:24 25.12.2021
6248 Clear -2 1012 72 10000 1.79 90 13:31 25.12.2021
6249 Clear -4 1013 84 10000 4.12 90 11:53 25.12.2021
6250 Clear -5 1012 86 10000 0.89 68 09:57 25.12.2021
6251 Clear -5 1012 87 10000 0.89 113 09:37 25.12.2021
6252 Clear -4 1010 87 10000 0.89 45 04:34 25.12.2021
6253 Clouds -2 1009 85 10000 2.24 45 01:27 25.12.2021
6254 Clouds -1 1008 88 10000 2.68 68 23:47 24.12.2021
6255 Snow 1 1005 97 4500 0.45 68 19:50 24.12.2021
6256 Rain 1 1005 97 5000 1.54 350 19:24 24.12.2021
6257 Snow 2 1003 95 4800 1.54 300 16:59 24.12.2021
6258 Clouds 2 1002 93 7000 2.06 310 16:22 24.12.2021
6259 Snow 3 1002 92 8000 2.06 320 15:48 24.12.2021
6260 Clouds 3 1001 95 6000 0.45 248 15:19 24.12.2021
6261 Clouds 4 1000 94 8000 4.12 350 14:31 24.12.2021
6262 Clouds 5 999 96 5000 7.2 350 13:42 24.12.2021
6263 Clouds 7 999 96 3500 7.2 10 12:49 24.12.2021
6264 Clouds 9 998 90 10000 2.24 248 12:21 24.12.2021
6265 Clouds 9 998 92 9000 2.24 248 11:40 24.12.2021
6266 Clouds 9 998 93 10000 2.24 225 11:18 24.12.2021
6267 Clouds 9 998 93 5000 1.79 225 10:33 24.12.2021
6268 Drizzle 8 997 95 7000 1.79 248 08:36 24.12.2021
6269 Mist 8 997 96 4800 1.34 225 07:58 24.12.2021
6270 Clouds 7 996 96 4500 0.89 248 06:18 24.12.2021
6271 Clouds 5 999 96 3500 0.89 248 00:20 24.12.2021
6272 Clouds 4 999 94 3500 5.14 260 23:33 23.12.2021
6273 Clouds 4 999 94 5000 0.89 225 22:44 23.12.2021
6274 Clouds 4 999 94 8000 0.45 248 22:21 23.12.2021
6275 Clouds 4 1000 93 9000 4.63 240 21:38 23.12.2021
6276 Clouds 3 1001 93 5000 0.89 270 20:21 23.12.2021
6277 Rain 2 1002 91 9000 2.57 210 19:27 23.12.2021
6278 Snow 1 1003 90 10000 1.03 0 17:58 23.12.2021
6279 Snow 1 1003 90 10000 1.54 170 17:18 23.12.2021
6280 Snow 1 1005 89 10000 0.51 0 16:26 23.12.2021
6281 Snow 1 1004 89 10000 1.54 190 15:32 23.12.2021
6282 Rain 1 1005 87 10000 2.57 190 14:56 23.12.2021
6283 Snow 1 1005 85 10000 0.45 135 14:38 23.12.2021
6284 Clear 1 1006 83 10000 0.45 0 13:23 23.12.2021
6285 Clouds 0 1009 84 10000 0.45 203 10:54 23.12.2021
6286 Clouds 0 1010 86 10000 0.45 0 09:52 23.12.2021
6287 Clear 0 1010 86 10000 0.45 158 09:31 23.12.2021
6288 Snow 0 1010 86 10000 0.45 90 08:25 23.12.2021
6289 Clear -1 1013 88 10000 0.89 68 04:39 23.12.2021
6290 Clear -2 1018 91 10000 0.89 90 23:43 22.12.2021
6291 Clear -2 1018 91 10000 0.45 90 22:49 22.12.2021
6292 Clear -2 1019 91 10000 0.45 158 21:57 22.12.2021
6293 Clear -2 1021 91 10000 0.45 0 21:30 22.12.2021
6294 Clear -3 1020 91 10000 0.45 0 20:52 22.12.2021
6295 Clear -2 1020 93 10000 0.45 113 20:33 22.12.2021
6296 Clear -3 1020 92 10000 0.45 90 19:37 22.12.2021
6297 Clouds -2 1023 93 9000 0.45 68 18:19 22.12.2021
6298 Clear -2 1023 91 10000 0.45 90 17:37 22.12.2021
6299 Clear -1 1024 91 10000 1.54 160 15:49 22.12.2021
6300 Clouds -1 1024 90 10000 1.03 0 13:46 22.12.2021
6301 Clear -1 1025 90 10000 1.03 0 12:44 22.12.2021
6302 Clear -3 1025 91 10000 0.45 68 10:48 22.12.2021
6303 Clouds -3 1026 92 7000 0.45 68 09:40 22.12.2021
6304 Mist -4 1026 93 1800 0.45 113 07:48 22.12.2021
6305 Fog -4 1026 92 300 0.89 68 05:51 22.12.2021
6306 Fog -4 1026 92 400 1.03 0 05:28 22.12.2021
6307 Fog -3 1026 92 400 0.45 90 04:54 22.12.2021
6308 Fog -3 1026 92 300 0.89 90 04:31 22.12.2021
6309 Fog -3 1025 94 150 1.54 180 03:34 22.12.2021
6310 Fog -3 1025 93 200 0.45 68 01:37 22.12.2021
6311 Fog -3 1026 91 200 0.45 90 23:33 21.12.2021
6312 Fog -3 1025 94 150 0.45 90 22:29 21.12.2021
6313 Fog -3 1026 93 150 0.45 90 21:51 21.12.2021
6314 Fog -3 1025 93 150 1.03 0 21:24 21.12.2021
6315 Fog -2 1025 94 150 1.54 170 20:23 21.12.2021
6316 Fog -2 1025 93 100 1.03 0 19:52 21.12.2021
6317 Fog -2 1025 94 100 1.03 0 19:26 21.12.2021
6318 Fog -2 1025 94 150 0.51 0 18:22 21.12.2021
6319 Fog -2 1025 94 100 0.51 0 17:51 21.12.2021
6320 Fog -2 1025 95 100 0.51 0 16:39 21.12.2021
6321 Clouds -1 1025 91 10000 0.27 120 15:29 21.12.2021
6322 Fog -1 1027 89 150 1.03 0 13:51 21.12.2021
6323 Fog -1 1026 92 150 1.03 0 13:31 21.12.2021
6324 Fog -1 1024 92 150 1.03 0 11:57 21.12.2021
6325 Clouds -2 1026 91 10000 0.38 229 10:25 21.12.2021
6326 Fog -3 1027 92 150 1.03 0 09:33 21.12.2021
6327 Fog -3 1024 93 150 1.03 0 08:28 21.12.2021
6328 Fog -3 1026 91 150 1.03 0 07:32 21.12.2021
6329 Fog -3 1026 91 300 1.03 0 06:50 21.12.2021
6330 Fog -3 1027 91 600 0.51 290 03:20 21.12.2021
6331 Fog -2 1027 92 900 1.03 290 00:46 21.12.2021
6332 Fog -2 1026 93 500 1.03 250 23:34 20.12.2021
6333 Fog -1 1026 93 900 1.03 0 22:33 20.12.2021
6334 Fog -1 1026 92 700 1.03 0 21:48 20.12.2021
6335 Fog -1 1026 93 800 1.03 260 21:24 20.12.2021
6336 Fog -1 1026 93 800 1.03 250 20:48 20.12.2021
6337 Fog -1 1026 93 2800 1.03 0 19:55 20.12.2021
6338 Fog -1 1026 93 2800 1.03 0 19:31 20.12.2021
6339 Clear 0 1027 95 10000 1.03 0 18:54 20.12.2021
6340 Clear 0 1027 93 10000 1.54 290 17:55 20.12.2021
6341 Clear 1 1027 88 10000 2.06 270 17:25 20.12.2021
6342 Clear 2 1027 86 10000 2.57 270 16:42 20.12.2021
6343 Clear 3 1027 85 10000 2.06 290 15:51 20.12.2021
6344 Clear 4 1027 82 10000 0.45 248 14:53 20.12.2021
6345 Clear 3 1027 85 10000 0.45 248 13:18 20.12.2021
6346 Clear 1 1028 91 10000 2.06 270 11:23 20.12.2021
6347 Clear -1 1027 93 9000 1.54 280 09:51 20.12.2021
6348 Fog -1 1027 93 5000 1.03 0 09:31 20.12.2021
6349 Fog -1 1027 92 800 1.54 290 08:42 20.12.2021
6350 Fog -1 1027 93 700 1.54 270 07:50 20.12.2021
6351 Fog -1 1027 93 700 1.54 270 07:50 20.12.2021
6352 Fog -1 1026 93 500 1.54 270 07:30 20.12.2021
6353 Fog 0 1026 93 300 1.54 280 04:36 20.12.2021
6354 Clear 4 1025 90 10000 2.06 330 23:59 19.12.2021
6355 Clouds 4 1025 88 10000 2.57 320 22:51 19.12.2021
6356 Clear 5 1024 87 10000 0.45 248 21:50 19.12.2021
6357 Clouds 5 1024 84 10000 0.45 248 21:30 19.12.2021
6358 Clouds 6 1024 83 10000 0.45 248 20:32 19.12.2021
6359 Clouds 7 1024 82 10000 0.45 248 19:51 19.12.2021
6360 Clouds 7 1024 81 10000 5.66 340 19:22 19.12.2021
6361 Clouds 7 1023 87 10000 0.89 225 18:29 19.12.2021
6362 Clouds 7 1023 87 10000 0.89 225 18:29 19.12.2021
6363 Clouds 7 1023 88 10000 1.34 248 17:52 19.12.2021
6364 Clouds 7 1022 86 10000 1.34 248 17:19 19.12.2021
6365 Clouds 7 1023 90 10000 1.34 225 16:26 19.12.2021
6366 Drizzle 7 1024 92 10000 1.34 248 15:42 19.12.2021
6367 Drizzle 7 1024 92 10000 1.34 248 15:20 19.12.2021
6368 Clouds 7 1024 92 9000 1.79 248 14:41 19.12.2021
6369 Clouds 7 1025 92 10000 1.34 248 13:22 19.12.2021
6370 Clouds 7 1026 92 4000 2.24 225 12:36 19.12.2021
6371 Clouds 7 1026 92 4000 1.79 225 12:18 19.12.2021
6372 Clouds 7 1027 92 8000 1.34 225 11:18 19.12.2021
6373 Drizzle 7 1027 90 10000 2.24 248 10:25 19.12.2021
6374 Clouds 7 1027 89 10000 1.79 248 09:37 19.12.2021
6375 Clouds 7 1028 89 10000 1.79 248 07:50 19.12.2021
6376 Clouds 7 1029 90 10000 1.34 248 04:45 19.12.2021
6377 Clouds 7 1031 87 10000 1.79 248 01:19 19.12.2021
6378 Clouds 7 1031 90 10000 1.34 248 00:52 19.12.2021
6379 Clouds 8 1033 92 10000 0.89 248 22:36 18.12.2021
6380 Clouds 8 1033 93 10000 1.34 248 21:57 18.12.2021
6381 Clouds 8 1033 93 10000 0.89 248 21:35 18.12.2021
6382 Clouds 8 1033 95 10000 0.45 248 20:44 18.12.2021
6383 Clouds 8 1034 95 10000 0.89 248 19:59 18.12.2021
6384 Clouds 8 1034 95 10000 1.34 248 19:20 18.12.2021
6385 Clouds 8 1035 95 10000 0.89 203 18:21 18.12.2021
6386 Clouds 7 1035 95 10000 0.89 248 17:48 18.12.2021
6387 Drizzle 7 1035 96 10000 0.89 225 16:26 18.12.2021
6388 Drizzle 7 1035 98 10000 0.89 248 15:26 18.12.2021
6389 Drizzle 7 1035 98 6000 0.89 248 14:32 18.12.2021
6390 Drizzle 7 1036 95 2700 0.89 248 13:20 18.12.2021
6391 Drizzle 7 1037 98 1800 0.89 248 11:21 18.12.2021
6392 Drizzle 6 1037 98 2000 0.89 248 09:39 18.12.2021
6393 Mist 6 1037 97 3000 0.45 248 08:46 18.12.2021
6394 Mist 6 1037 98 3500 0.45 248 08:19 18.12.2021
6395 Drizzle 7 1038 97 5000 2.06 300 02:20 18.12.2021
6396 Clouds 7 1038 95 6000 0.45 270 00:27 18.12.2021
6397 Mist 7 1038 95 3000 3.6 310 23:39 17.12.2021
6398 Drizzle 7 1039 98 2200 2.06 280 21:56 17.12.2021
6399 Mist 7 1038 96 5000 2.57 280 20:58 17.12.2021
6400 Mist 7 1038 96 5000 0.45 248 20:38 17.12.2021
6401 Clouds 7 1038 93 6000 2.06 270 19:18 17.12.2021
6402 Clouds 7 1038 92 10000 0.45 270 18:38 17.12.2021
6403 Clouds 7 1039 91 10000 3.6 300 17:26 17.12.2021
6404 Clouds 8 1038 89 10000 0.89 248 16:44 17.12.2021
6405 Clouds 8 1038 91 10000 0.45 248 16:21 17.12.2021
6406 Clouds 8 1038 90 10000 0.89 225 15:20 17.12.2021
6407 Clouds 8 1038 91 10000 3.09 310 14:38 17.12.2021
6408 Drizzle 8 1039 91 8000 0.45 248 12:46 17.12.2021
6409 Clouds 7 1039 91 10000 3.6 310 11:27 17.12.2021
6410 Drizzle 7 1038 92 9000 4.12 310 09:59 17.12.2021
6411 Clouds 7 1038 95 10000 3.6 310 08:58 17.12.2021
6412 Drizzle 7 1038 97 7000 2.06 310 08:29 17.12.2021
6413 Drizzle 7 1038 100 6000 2.57 300 05:41 17.12.2021
6414 Mist 7 1038 95 4500 2.06 300 02:52 17.12.2021
6415 Clouds 8 1039 87 10000 1.54 300 23:20 16.12.2021
6416 Clouds 8 1038 87 10000 2.06 350 22:24 16.12.2021
6417 Clouds 8 1038 87 10000 2.06 350 22:24 16.12.2021
6418 Clouds 8 1038 90 10000 3.6 330 21:47 16.12.2021
6419 Clouds 8 1038 90 10000 2.57 330 21:20 16.12.2021
6420 Clouds 8 1038 89 10000 2.06 290 20:28 16.12.2021
6421 Clouds 8 1038 89 10000 2.06 320 19:36 16.12.2021
6422 Clouds 8 1038 93 10000 2.06 300 18:38 16.12.2021
6423 Clouds 9 1037 92 10000 3.09 310 17:49 16.12.2021
6424 Clouds 9 1037 93 10000 0.45 293 17:19 16.12.2021
6425 Clouds 9 1036 93 9000 2.57 300 16:20 16.12.2021
6426 Clouds 9 1036 92 7000 2.57 280 14:50 16.12.2021
6427 Drizzle 9 1036 94 3200 0.45 248 12:57 16.12.2021
6428 Drizzle 9 1035 95 1800 0.45 270 11:20 16.12.2021
6429 Mist 9 1035 94 3000 0.45 248 10:48 16.12.2021
6430 Mist 9 1035 94 3200 0.89 248 09:59 16.12.2021
6431 Mist 8 1033 100 3200 4.12 270 07:21 16.12.2021
6432 Drizzle 8 1032 97 1800 4.63 270 06:19 16.12.2021
6433 Clouds 8 1031 90 9000 0.45 248 00:53 16.12.2021
6434 Clouds 8 1031 87 10000 2.06 260 23:21 15.12.2021
6435 Clouds 8 1030 83 10000 2.57 260 22:29 15.12.2021
6436 Clouds 9 1031 88 10000 0.45 248 21:49 15.12.2021
6437 Clouds 9 1031 88 10000 0.45 248 21:26 15.12.2021
6438 Clouds 9 1030 90 10000 3.6 260 19:55 15.12.2021
6439 Clouds 9 1030 88 10000 3.6 250 19:35 15.12.2021
6440 Clouds 9 1030 88 10000 0.45 248 18:36 15.12.2021
6441 Clouds 9 1029 90 10000 0.45 225 17:49 15.12.2021
6442 Clouds 9 1029 90 10000 0.45 203 17:27 15.12.2021
6443 Clouds 9 1029 89 10000 4.12 250 16:26 15.12.2021
6444 Clouds 9 1029 89 10000 4.12 260 15:45 15.12.2021
6445 Clouds 10 1029 89 10000 0.89 225 15:27 15.12.2021
6446 Clouds 10 1029 90 10000 4.63 240 13:59 15.12.2021
6447 Drizzle 9 1029 92 8000 0.45 248 12:24 15.12.2021
6448 Clouds 9 1029 94 7000 4.12 250 10:24 15.12.2021
6449 Drizzle 9 1029 93 4000 3.09 240 08:48 15.12.2021
6450 Clouds 9 1027 93 9000 0.45 225 05:59 15.12.2021
6451 Clouds 8 1027 95 6000 2.06 230 00:47 15.12.2021
6452 Drizzle 8 1027 93 3500 2.57 230 23:41 14.12.2021
6453 Mist 8 1027 93 4500 2.06 240 22:47 14.12.2021
6454 Drizzle 8 1027 93 3200 2.57 240 21:48 14.12.2021
6455 Drizzle 8 1027 92 4500 3.09 250 20:26 14.12.2021
6456 Drizzle 8 1027 92 3800 3.09 250 19:40 14.12.2021
6457 Mist 8 1026 92 4500 2.57 240 18:42 14.12.2021
6458 Drizzle 8 1026 91 5000 2.57 240 17:58 14.12.2021
6459 Drizzle 8 1026 93 9000 3.6 250 16:58 14.12.2021
6460 Drizzle 8 1026 93 9000 3.6 250 16:35 14.12.2021
6461 Clouds 9 1025 89 8000 3.6 260 14:52 14.12.2021
6462 Clouds 9 1025 85 10000 0.45 225 13:24 14.12.2021
6463 Clouds 9 1025 82 10000 4.63 260 11:56 14.12.2021
6464 Clouds 8 1025 87 10000 4.12 260 11:22 14.12.2021
6465 Clouds 8 1025 87 10000 3.6 250 09:55 14.12.2021
6466 Clouds 8 1025 87 10000 0.45 225 09:34 14.12.2021
6467 Clouds 8 1025 85 10000 3.09 260 08:23 14.12.2021
6468 Clouds 8 1024 85 10000 3.09 240 07:42 14.12.2021
6469 Clouds 8 1026 87 10000 2.57 210 01:46 14.12.2021
6470 Clouds 9 1026 86 10000 3.09 220 22:49 13.12.2021
6471 Clouds 9 1026 87 10000 3.09 220 21:52 13.12.2021
6472 Clouds 9 1026 87 10000 2.57 240 20:59 13.12.2021
6473 Clouds 9 1027 87 10000 2.57 230 20:31 13.12.2021
6474 Clouds 9 1027 89 10000 2.57 240 19:52 13.12.2021
6475 Clouds 9 1027 89 10000 1.54 240 17:56 13.12.2021
6476 Clouds 9 1026 89 10000 2.06 230 17:23 13.12.2021
6477 Clouds 9 1026 89 10000 2.06 230 17:23 13.12.2021
6478 Clouds 9 1026 88 10000 3.09 250 15:49 13.12.2021
6479 Clouds 10 1026 88 10000 2.57 250 15:18 13.12.2021
6480 Clouds 10 1026 90 10000 3.09 240 13:38 13.12.2021
6481 Clouds 10 1026 90 10000 0.45 225 12:42 13.12.2021
6482 Clouds 10 1026 91 10000 3.09 250 11:54 13.12.2021
6483 Clouds 10 1026 91 10000 3.09 250 11:35 13.12.2021
6484 Clouds 10 1026 93 10000 2.57 250 10:41 13.12.2021
6485 Clouds 9 1025 94 7000 0.45 203 08:52 13.12.2021
6486 Clouds 9 1025 94 6000 4.12 260 07:37 13.12.2021
6487 Mist 9 1024 96 4500 3.6 260 05:23 13.12.2021
6488 Drizzle 8 1023 96 6000 4.63 260 00:43 13.12.2021
6489 Drizzle 7 1022 95 2500 4.12 260 21:59 12.12.2021
6490 Drizzle 7 1022 95 2500 4.12 260 21:33 12.12.2021
6491 Drizzle 7 1021 94 4500 4.12 240 19:38 12.12.2021
6492 Drizzle 7 1021 95 3500 3.6 250 18:35 12.12.2021
6493 Drizzle 6 1020 94 3300 4.12 240 16:58 12.12.2021
6494 Mist 6 1020 95 3500 4.63 240 16:27 12.12.2021
6495 Mist 6 1020 94 2200 0.45 203 15:41 12.12.2021
6496 Drizzle 6 1020 94 4500 4.12 240 15:21 12.12.2021
6497 Drizzle 5 1020 92 10000 0.89 248 14:28 12.12.2021
6498 Clouds 5 1020 90 10000 0.89 225 12:55 12.12.2021
6499 Clouds 5 1020 90 10000 0.45 180 12:24 12.12.2021
6500 Clouds 4 1020 91 6000 0.45 113 11:43 12.12.2021
6501 Clouds 4 1020 90 10000 0.45 135 10:45 12.12.2021
6502 Clouds 3 1020 91 10000 0.89 68 10:21 12.12.2021
6503 Clouds 3 1020 90 10000 0.45 90 08:50 12.12.2021
6504 Clouds 3 1021 86 10000 0.45 113 07:31 12.12.2021
6505 Clear 3 1021 88 10000 2.06 200 05:56 12.12.2021
6506 Clouds 3 1021 90 10000 2.57 170 04:55 12.12.2021
6507 Clouds 2 1021 92 6000 2.06 230 02:52 12.12.2021
6508 Clouds 1 1021 91 10000 1.03 200 23:28 11.12.2021
6509 Clouds 1 1020 91 9000 2.06 200 22:21 11.12.2021
6510 Clouds 1 1020 91 9000 1.54 180 21:47 11.12.2021
6511 Clouds 1 1019 88 8000 2.57 260 20:21 11.12.2021
6512 Clear 1 1018 87 10000 2.06 250 19:21 11.12.2021
6513 Clear 1 1018 87 10000 2.06 250 19:21 11.12.2021
6514 Clear 1 1018 90 10000 3.6 230 18:49 11.12.2021
6515 Clear 1 1018 86 10000 3.09 240 17:56 11.12.2021
6516 Clear 2 1017 86 10000 2.57 240 16:39 11.12.2021
6517 Clear 3 1016 85 10000 2.06 260 15:46 11.12.2021
6518 Clear 4 1015 77 10000 3.6 250 14:46 11.12.2021
6519 Clear 3 1014 85 10000 3.09 260 12:41 11.12.2021
6520 Clouds 1 1013 92 10000 2.57 260 11:18 11.12.2021
6521 Clouds 0 1012 94 7000 1.03 260 09:45 11.12.2021
6522 Fog 0 1008 94 900 2.06 260 05:36 11.12.2021
6523 Mist 0 1002 92 2600 1.03 0 00:50 11.12.2021
6524 Mist 0 1002 93 2400 0.45 45 23:44 10.12.2021
6525 Mist 0 1001 92 2200 1.03 90 23:18 10.12.2021
6526 Fog 0 1000 93 600 0.89 45 21:51 10.12.2021
6527 Clouds 0 999 96 6000 0.45 45 20:35 10.12.2021
6528 Clouds 0 998 95 8000 0.89 45 19:19 10.12.2021
6529 Clouds 1 997 92 10000 0.45 45 17:54 10.12.2021
6530 Clouds 3 996 85 10000 0.45 45 16:41 10.12.2021
6531 Clouds 4 995 83 10000 0.45 90 15:47 10.12.2021
6532 Clouds 4 995 79 10000 0.89 45 15:28 10.12.2021
6533 Clouds 5 995 76 10000 0.89 68 14:56 10.12.2021
6534 Clouds 5 995 77 10000 0.89 68 13:50 10.12.2021
6535 Clouds 5 995 79 10000 0.89 90 13:18 10.12.2021
6536 Clouds 4 995 83 10000 0.45 68 11:43 10.12.2021
6537 Clouds 4 995 84 10000 0.89 68 11:19 10.12.2021
6538 Clouds 3 996 86 10000 2.57 120 09:53 10.12.2021
6539 Clouds 3 996 86 10000 0.89 68 08:23 10.12.2021
6540 Clouds 3 997 87 10000 0.89 68 05:46 10.12.2021
6541 Clouds 3 999 87 10000 0.45 68 02:47 10.12.2021
6542 Clouds 3 1002 84 10000 0.89 90 23:43 09.12.2021
6543 Clouds 3 1002 84 10000 4.12 170 22:44 09.12.2021
6544 Clouds 3 1003 84 10000 3.6 190 22:23 09.12.2021
6545 Clouds 3 1003 87 10000 1.54 150 21:40 09.12.2021
6546 Clouds 3 1003 89 10000 1.54 290 20:38 09.12.2021
6547 Clouds 3 1004 88 10000 1.54 200 19:46 09.12.2021
6548 Clouds 3 1004 88 10000 1.54 200 19:46 09.12.2021
6549 Clouds 3 1004 89 10000 1.54 200 19:20 09.12.2021
6550 Clouds 4 1004 88 10000 1.03 0 18:24 09.12.2021
6551 Clouds 4 1004 87 10000 0.51 210 17:48 09.12.2021
6552 Clouds 4 1004 86 10000 1.03 0 17:24 09.12.2021
6553 Clouds 4 1004 86 10000 1.54 210 16:41 09.12.2021
6554 Clouds 4 1004 86 10000 1.54 120 15:31 09.12.2021
6555 Clouds 4 1003 86 10000 1.54 130 14:43 09.12.2021
6556 Clouds 3 1004 89 6000 1.54 130 12:49 09.12.2021
6557 Mist 3 1004 90 5000 1.54 120 12:24 09.12.2021
6558 Mist 2 1004 92 3500 0.45 68 10:47 09.12.2021
6559 Mist 1 1004 92 2600 0.45 45 08:19 09.12.2021
6560 Mist 2 1003 93 4000 0.45 68 03:59 09.12.2021
6561 Clouds 2 1002 91 10000 2.06 100 01:43 09.12.2021
6562 Clouds 2 1002 91 10000 3.6 90 23:38 08.12.2021
6563 Clouds 2 1002 91 10000 2.57 80 22:59 08.12.2021
6564 Clouds 2 1002 90 10000 2.57 80 22:37 08.12.2021
6565 Clear 2 1002 90 10000 1.54 110 21:39 08.12.2021
6566 Clouds 3 1002 89 10000 2.57 120 20:58 08.12.2021
6567 Clear 3 1001 89 10000 2.57 110 19:57 08.12.2021
6568 Clear 3 1001 89 10000 2.57 100 19:29 08.12.2021
6569 Clear 3 1001 88 10000 0.45 68 18:22 08.12.2021
6570 Clear 4 1000 87 10000 2.57 80 16:55 08.12.2021
6571 Clear 4 999 84 10000 0.45 158 15:45 08.12.2021
6572 Clear 5 999 84 10000 1.34 68 15:23 08.12.2021
6573 Clouds 5 999 83 10000 0.45 68 13:27 08.12.2021
6574 Clouds 4 999 84 10000 0.89 203 10:45 08.12.2021
6575 Clouds 4 999 84 10000 0.89 203 10:45 08.12.2021
6576 Clouds 4 999 84 10000 1.34 68 10:23 08.12.2021
6577 Clouds 3 999 85 10000 1.34 113 08:54 08.12.2021
6578 Clouds 2 998 85 10000 2.24 68 06:36 08.12.2021
6579 Clear 2 1000 86 10000 1.79 90 01:20 08.12.2021
6580 Clear 2 1002 88 10000 1.34 68 23:23 07.12.2021
6581 Clear 2 1004 95 10000 3.6 120 21:26 07.12.2021
6582 Clouds 2 1005 93 8000 1.34 90 20:26 07.12.2021
6583 Clouds 2 1006 95 9000 2.57 130 19:21 07.12.2021
6584 Clouds 3 1007 92 9000 2.57 140 18:32 07.12.2021
6585 Clouds 3 1008 94 10000 0.45 68 17:27 07.12.2021
6586 Clouds 4 1008 94 10000 0.45 45 16:56 07.12.2021
6587 Clouds 4 1008 94 10000 0.89 68 16:26 07.12.2021
6588 Clouds 4 1009 91 10000 2.57 200 14:38 07.12.2021
6589 Clouds 4 1009 91 10000 2.06 180 13:41 07.12.2021
6590 Clouds 3 1008 93 10000 2.06 190 12:22 07.12.2021
6591 Clouds 3 1009 92 10000 1.54 220 11:19 07.12.2021
6592 Clouds 2 1008 94 10000 2.06 180 09:36 07.12.2021
6593 Snow 2 1007 94 7000 0.45 68 07:35 07.12.2021
6594 Snow 1 1006 94 3500 2.06 110 05:51 07.12.2021
6595 Snow 1 1006 94 2800 2.57 120 05:26 07.12.2021
6596 Clear 1 1008 88 10000 1.34 68 23:36 06.12.2021
6597 Clear 1 1009 88 10000 0.89 68 22:41 06.12.2021
6598 Clouds 1 1010 89 9000 2.57 130 21:59 06.12.2021
6599 Clouds 1 1010 89 9000 0.45 90 21:31 06.12.2021
6600 Clouds 1 1011 89 10000 0.89 68 20:32 06.12.2021
6601 Clouds 1 1011 89 10000 2.57 120 19:24 06.12.2021
6602 Clouds 1 1012 88 10000 0.89 68 18:42 06.12.2021
6603 Clouds 2 1012 88 10000 1.34 68 17:54 06.12.2021
6604 Clouds 2 1012 88 10000 0.89 68 17:33 06.12.2021
6605 Clouds 2 1013 87 10000 0.89 68 15:52 06.12.2021
6606 Clouds 2 1013 87 10000 1.34 68 14:40 06.12.2021
6607 Clouds 2 1014 88 9000 1.34 90 13:28 06.12.2021
6608 Clouds 2 1014 88 9000 1.34 68 12:37 06.12.2021
6609 Clouds 2 1015 93 9000 0.45 68 10:23 06.12.2021
6610 Snow 2 1014 94 5000 0.45 68 07:40 06.12.2021
6611 Clouds 2 1012 95 6000 0.45 45 02:28 06.12.2021
6612 Clouds 3 1010 92 6000 0.45 45 22:26 05.12.2021
6613 Mist 3 1009 94 4800 0.45 45 21:25 05.12.2021
6614 Clouds 3 1008 93 6000 2.57 60 20:52 05.12.2021
6615 Clouds 3 1008 92 6000 0.89 45 20:18 05.12.2021
6616 Clouds 3 1007 92 10000 4.12 60 19:24 05.12.2021
6617 Clouds 3 1007 90 10000 1.54 50 18:29 05.12.2021
6618 Clouds 3 1006 89 10000 0.51 0 17:49 05.12.2021
6619 Clouds 3 1006 91 10000 1.03 90 17:20 05.12.2021
6620 Clouds 5 1005 86 10000 1.03 40 16:28 05.12.2021
6621 Clouds 6 1005 85 10000 1.03 270 15:59 05.12.2021
6622 Clouds 6 1003 79 10000 1.03 0 14:48 05.12.2021
6623 Clouds 6 1003 78 10000 1.54 200 14:29 05.12.2021
6624 Clouds 6 1003 80 10000 2.57 210 13:35 05.12.2021
6625 Clouds 6 1003 85 10000 0.45 113 12:45 05.12.2021
6626 Clouds 6 1003 85 10000 2.57 190 12:26 05.12.2021
6627 Clouds 5 1003 90 10000 0.45 158 11:44 05.12.2021
6628 Clouds 4 1002 92 10000 1.54 150 10:25 05.12.2021
6629 Clouds 4 1000 89 10000 0.51 0 09:41 05.12.2021
6630 Clouds 4 997 90 10000 3.6 240 05:30 05.12.2021
6631 Clouds 3 995 91 8000 2.06 190 01:24 05.12.2021
6632 Clouds 3 995 91 8000 2.06 190 01:24 05.12.2021
6633 Snow 1 994 91 9000 0.45 68 22:45 04.12.2021
6634 Snow 1 993 92 6000 1.54 140 21:38 04.12.2021
6635 Rain 2 993 90 8000 0.45 68 20:47 04.12.2021
6636 Clouds 3 993 88 10000 2.06 140 19:54 04.12.2021
6637 Clouds 3 993 88 10000 3.09 130 19:24 04.12.2021
6638 Clouds 4 993 91 10000 1.79 90 17:52 04.12.2021
6639 Clouds 4 993 91 10000 0.89 68 17:32 04.12.2021
6640 Clouds 4 993 93 10000 0.45 68 16:47 04.12.2021
6641 Clouds 4 993 91 10000 0.45 90 16:27 04.12.2021
6642 Clouds 5 995 87 10000 0.89 68 12:57 04.12.2021
6643 Clouds 4 996 89 10000 0.89 68 11:40 04.12.2021
6644 Clouds 4 996 89 10000 1.34 68 11:18 04.12.2021
6645 Clouds 3 997 87 10000 0.45 68 09:44 04.12.2021
6646 Clouds 3 997 92 10000 0.45 68 08:35 04.12.2021
6647 Clouds 3 997 91 10000 0.45 113 05:18 04.12.2021
6648 Clouds 3 997 88 10000 0.45 135 04:39 04.12.2021
6649 Clouds 4 1000 87 10000 0.45 203 23:48 03.12.2021
6650 Clouds 3 1000 87 10000 0.45 225 22:54 03.12.2021
6651 Clouds 3 1000 88 10000 0.89 225 21:58 03.12.2021
6652 Clouds 3 1000 88 10000 0.89 225 21:24 03.12.2021
6653 Clouds 3 1000 86 10000 0.45 225 20:42 03.12.2021
6654 Clouds 3 1001 85 10000 1.34 225 19:29 03.12.2021
6655 Clouds 3 1001 84 10000 0.89 180 18:24 03.12.2021
6656 Rain 3 1002 82 10000 0.89 225 17:33 03.12.2021
6657 Clouds 3 1004 87 10000 1.34 225 13:45 03.12.2021
6658 Clouds 3 1005 88 10000 0.89 225 12:49 03.12.2021
6659 Clouds 2 1006 91 10000 5.66 230 11:24 03.12.2021
6660 Clouds 1 1006 90 10000 4.12 230 09:44 03.12.2021
6661 Clouds 1 1006 90 10000 3.09 240 08:21 03.12.2021
6662 Clear 0 1006 89 10000 0.45 0 07:23 03.12.2021
6663 Clear -1 1006 87 10000 3.6 250 01:43 03.12.2021
6664 Clouds -1 1006 88 10000 4.12 250 00:34 03.12.2021
6665 Clouds -1 1005 90 10000 4.63 270 23:40 02.12.2021